<?xml version="1.0" encoding="UTF-8" standalone="no" ?>
<gpx xmlns="http://www.topografix.com/GPX/1/1" xmlns:xsi="http://www.w3.org/2001/XMLSchema-instance" xsi:schemaLocation="http://www.topografix.com/GPX/1/1 http://www.topografix.com/GPX/1/1/gpx.xsd" version="1.1" creator="VisuGPX - https://www.visugpx.com">
  <metadata>
    <name>St off - pont de Bange - alleves</name>
    <desc><![CDATA[Rando facile , très roulante. Le Pont de l'abime est impressionnant. ]]></desc>
  </metadata>
  <trk>
    <name><![CDATA[St off - pont de Bange - alleves_1]]></name>
    <trkseg>
      <trkpt lat="45.73467" lon="6.00128">
        <ele>610</ele>
        <time>2010-06-12T06:59:16Z</time>
      </trkpt>
      <trkpt lat="45.73481" lon="6.00167">
        <ele>595</ele>
        <time>2010-06-12T06:59:52Z</time>
      </trkpt>
      <trkpt lat="45.73482" lon="6.00171">
        <ele>595</ele>
        <time>2010-06-12T06:59:54Z</time>
      </trkpt>
      <trkpt lat="45.73483" lon="6.00175">
        <ele>595</ele>
        <time>2010-06-12T06:59:56Z</time>
      </trkpt>
      <trkpt lat="45.73486" lon="6.00179">
        <ele>595</ele>
        <time>2010-06-12T06:59:58Z</time>
      </trkpt>
      <trkpt lat="45.73489" lon="6.00183">
        <ele>595</ele>
        <time>2010-06-12T07:00:00Z</time>
      </trkpt>
      <trkpt lat="45.73491" lon="6.00189">
        <ele>594</ele>
        <time>2010-06-12T07:00:02Z</time>
      </trkpt>
      <trkpt lat="45.73491" lon="6.00197">
        <ele>593</ele>
        <time>2010-06-12T07:00:05Z</time>
      </trkpt>
      <trkpt lat="45.73491" lon="6.00203">
        <ele>592</ele>
        <time>2010-06-12T07:00:07Z</time>
      </trkpt>
      <trkpt lat="45.73489" lon="6.00209">
        <ele>590</ele>
        <time>2010-06-12T07:00:09Z</time>
      </trkpt>
      <trkpt lat="45.73487" lon="6.00214">
        <ele>589</ele>
        <time>2010-06-12T07:00:11Z</time>
      </trkpt>
      <trkpt lat="45.73485" lon="6.00219">
        <ele>589</ele>
        <time>2010-06-12T07:00:13Z</time>
      </trkpt>
      <trkpt lat="45.73483" lon="6.00222">
        <ele>589</ele>
        <time>2010-06-12T07:00:15Z</time>
      </trkpt>
      <trkpt lat="45.73481" lon="6.00228">
        <ele>589</ele>
        <time>2010-06-12T07:00:17Z</time>
      </trkpt>
      <trkpt lat="45.7348" lon="6.00234">
        <ele>589</ele>
        <time>2010-06-12T07:00:19Z</time>
      </trkpt>
      <trkpt lat="45.73479" lon="6.0024">
        <ele>589</ele>
        <time>2010-06-12T07:00:21Z</time>
      </trkpt>
      <trkpt lat="45.7348" lon="6.00245">
        <ele>589</ele>
        <time>2010-06-12T07:00:23Z</time>
      </trkpt>
      <trkpt lat="45.73481" lon="6.00252">
        <ele>590</ele>
        <time>2010-06-12T07:00:25Z</time>
      </trkpt>
      <trkpt lat="45.73482" lon="6.00258">
        <ele>590</ele>
        <time>2010-06-12T07:00:27Z</time>
      </trkpt>
      <trkpt lat="45.73482" lon="6.00262">
        <ele>592</ele>
        <time>2010-06-12T07:00:29Z</time>
      </trkpt>
      <trkpt lat="45.73485" lon="6.00268">
        <ele>594</ele>
        <time>2010-06-12T07:00:31Z</time>
      </trkpt>
      <trkpt lat="45.73484" lon="6.00274">
        <ele>596</ele>
        <time>2010-06-12T07:00:33Z</time>
      </trkpt>
      <trkpt lat="45.73481" lon="6.00279">
        <ele>598</ele>
        <time>2010-06-12T07:00:35Z</time>
      </trkpt>
      <trkpt lat="45.73478" lon="6.00284">
        <ele>600</ele>
        <time>2010-06-12T07:00:37Z</time>
      </trkpt>
      <trkpt lat="45.73474" lon="6.00288">
        <ele>601</ele>
        <time>2010-06-12T07:00:39Z</time>
      </trkpt>
      <trkpt lat="45.7347" lon="6.00291">
        <ele>601</ele>
        <time>2010-06-12T07:00:41Z</time>
      </trkpt>
      <trkpt lat="45.73467" lon="6.00295">
        <ele>601</ele>
        <time>2010-06-12T07:00:43Z</time>
      </trkpt>
      <trkpt lat="45.73463" lon="6.00299">
        <ele>601</ele>
        <time>2010-06-12T07:00:45Z</time>
      </trkpt>
      <trkpt lat="45.7346" lon="6.00303">
        <ele>601</ele>
        <time>2010-06-12T07:00:47Z</time>
      </trkpt>
      <trkpt lat="45.73456" lon="6.00306">
        <ele>601</ele>
        <time>2010-06-12T07:00:49Z</time>
      </trkpt>
      <trkpt lat="45.73453" lon="6.00308">
        <ele>601</ele>
        <time>2010-06-12T07:00:51Z</time>
      </trkpt>
      <trkpt lat="45.73449" lon="6.00309">
        <ele>601</ele>
        <time>2010-06-12T07:00:53Z</time>
      </trkpt>
      <trkpt lat="45.73443" lon="6.00309">
        <ele>603</ele>
        <time>2010-06-12T07:01:00Z</time>
      </trkpt>
      <trkpt lat="45.73441" lon="6.00306">
        <ele>605</ele>
        <time>2010-06-12T07:01:04Z</time>
      </trkpt>
      <trkpt lat="45.73439" lon="6.00304">
        <ele>605</ele>
        <time>2010-06-12T07:01:08Z</time>
      </trkpt>
      <trkpt lat="45.73439" lon="6.00305">
        <ele>605</ele>
        <time>2010-06-12T07:01:10Z</time>
      </trkpt>
      <trkpt lat="45.73441" lon="6.00309">
        <ele>605</ele>
        <time>2010-06-12T07:01:12Z</time>
      </trkpt>
      <trkpt lat="45.73442" lon="6.00311">
        <ele>605</ele>
        <time>2010-06-12T07:01:14Z</time>
      </trkpt>
      <trkpt lat="45.73443" lon="6.00314">
        <ele>603</ele>
        <time>2010-06-12T07:01:16Z</time>
      </trkpt>
      <trkpt lat="45.73443" lon="6.00312">
        <ele>596</ele>
        <time>2010-06-12T07:01:23Z</time>
      </trkpt>
      <trkpt lat="45.73442" lon="6.00313">
        <ele>596</ele>
        <time>2010-06-12T07:01:25Z</time>
      </trkpt>
      <trkpt lat="45.73441" lon="6.00315">
        <ele>596</ele>
        <time>2010-06-12T07:01:27Z</time>
      </trkpt>
      <trkpt lat="45.73442" lon="6.00317">
        <ele>595</ele>
        <time>2010-06-12T07:01:29Z</time>
      </trkpt>
      <trkpt lat="45.73442" lon="6.00318">
        <ele>594</ele>
        <time>2010-06-12T07:01:31Z</time>
      </trkpt>
      <trkpt lat="45.73443" lon="6.0032">
        <ele>593</ele>
        <time>2010-06-12T07:01:34Z</time>
      </trkpt>
      <trkpt lat="45.73444" lon="6.00321">
        <ele>593</ele>
        <time>2010-06-12T07:01:38Z</time>
      </trkpt>
      <trkpt lat="45.73442" lon="6.0032">
        <ele>591</ele>
        <time>2010-06-12T07:01:41Z</time>
      </trkpt>
      <trkpt lat="45.7344" lon="6.00318">
        <ele>590</ele>
        <time>2010-06-12T07:01:46Z</time>
      </trkpt>
      <trkpt lat="45.73442" lon="6.00315">
        <ele>587</ele>
        <time>2010-06-12T07:01:50Z</time>
      </trkpt>
      <trkpt lat="45.73441" lon="6.00313">
        <ele>587</ele>
        <time>2010-06-12T07:01:52Z</time>
      </trkpt>
      <trkpt lat="45.73441" lon="6.00312">
        <ele>589</ele>
        <time>2010-06-12T07:01:54Z</time>
      </trkpt>
      <trkpt lat="45.7344" lon="6.0031">
        <ele>590</ele>
        <time>2010-06-12T07:01:56Z</time>
      </trkpt>
      <trkpt lat="45.7344" lon="6.00307">
        <ele>593</ele>
        <time>2010-06-12T07:02:00Z</time>
      </trkpt>
      <trkpt lat="45.73442" lon="6.00307">
        <ele>603</ele>
        <time>2010-06-12T07:02:06Z</time>
      </trkpt>
      <trkpt lat="45.73443" lon="6.00304">
        <ele>606</ele>
        <time>2010-06-12T07:02:12Z</time>
      </trkpt>
      <trkpt lat="45.73444" lon="6.00302">
        <ele>608</ele>
        <time>2010-06-12T07:02:15Z</time>
      </trkpt>
      <trkpt lat="45.73446" lon="6.00302">
        <ele>609</ele>
        <time>2010-06-12T07:02:18Z</time>
      </trkpt>
      <trkpt lat="45.73446" lon="6.00301">
        <ele>610</ele>
        <time>2010-06-12T07:02:23Z</time>
      </trkpt>
      <trkpt lat="45.73449" lon="6.00304">
        <ele>612</ele>
        <time>2010-06-12T07:02:27Z</time>
      </trkpt>
      <trkpt lat="45.73452" lon="6.00304">
        <ele>613</ele>
        <time>2010-06-12T07:02:30Z</time>
      </trkpt>
      <trkpt lat="45.73448" lon="6.00304">
        <ele>614</ele>
        <time>2010-06-12T07:02:36Z</time>
      </trkpt>
      <trkpt lat="45.73447" lon="6.00312">
        <ele>611</ele>
        <time>2010-06-12T07:02:50Z</time>
      </trkpt>
      <trkpt lat="45.7345" lon="6.00312">
        <ele>599</ele>
        <time>2010-06-12T07:02:55Z</time>
      </trkpt>
      <trkpt lat="45.73458" lon="6.00306">
        <ele>599</ele>
        <time>2010-06-12T07:02:58Z</time>
      </trkpt>
      <trkpt lat="45.73465" lon="6.00299">
        <ele>599</ele>
        <time>2010-06-12T07:03:00Z</time>
      </trkpt>
      <trkpt lat="45.73472" lon="6.0029">
        <ele>599</ele>
        <time>2010-06-12T07:03:02Z</time>
      </trkpt>
      <trkpt lat="45.73481" lon="6.00283">
        <ele>599</ele>
        <time>2010-06-12T07:03:04Z</time>
      </trkpt>
      <trkpt lat="45.735" lon="6.00283">
        <ele>599</ele>
        <time>2010-06-12T07:03:07Z</time>
      </trkpt>
      <trkpt lat="45.73513" lon="6.00288">
        <ele>599</ele>
        <time>2010-06-12T07:03:09Z</time>
      </trkpt>
      <trkpt lat="45.73526" lon="6.00295">
        <ele>598</ele>
        <time>2010-06-12T07:03:11Z</time>
      </trkpt>
      <trkpt lat="45.73536" lon="6.00301">
        <ele>597</ele>
        <time>2010-06-12T07:03:13Z</time>
      </trkpt>
      <trkpt lat="45.73546" lon="6.00306">
        <ele>596</ele>
        <time>2010-06-12T07:03:15Z</time>
      </trkpt>
      <trkpt lat="45.73556" lon="6.00312">
        <ele>596</ele>
        <time>2010-06-12T07:03:17Z</time>
      </trkpt>
      <trkpt lat="45.73565" lon="6.00317">
        <ele>596</ele>
        <time>2010-06-12T07:03:19Z</time>
      </trkpt>
      <trkpt lat="45.73574" lon="6.00321">
        <ele>596</ele>
        <time>2010-06-12T07:03:21Z</time>
      </trkpt>
      <trkpt lat="45.73582" lon="6.00326">
        <ele>596</ele>
        <time>2010-06-12T07:03:23Z</time>
      </trkpt>
      <trkpt lat="45.73591" lon="6.0033">
        <ele>596</ele>
        <time>2010-06-12T07:03:25Z</time>
      </trkpt>
      <trkpt lat="45.736" lon="6.00335">
        <ele>595</ele>
        <time>2010-06-12T07:03:27Z</time>
      </trkpt>
      <trkpt lat="45.73608" lon="6.0034">
        <ele>595</ele>
        <time>2010-06-12T07:03:29Z</time>
      </trkpt>
      <trkpt lat="45.73618" lon="6.00345">
        <ele>594</ele>
        <time>2010-06-12T07:03:31Z</time>
      </trkpt>
      <trkpt lat="45.73627" lon="6.0035">
        <ele>594</ele>
        <time>2010-06-12T07:03:33Z</time>
      </trkpt>
      <trkpt lat="45.73637" lon="6.00357">
        <ele>594</ele>
        <time>2010-06-12T07:03:35Z</time>
      </trkpt>
      <trkpt lat="45.73646" lon="6.00364">
        <ele>594</ele>
        <time>2010-06-12T07:03:37Z</time>
      </trkpt>
      <trkpt lat="45.73655" lon="6.00374">
        <ele>594</ele>
        <time>2010-06-12T07:03:39Z</time>
      </trkpt>
      <trkpt lat="45.73662" lon="6.00384">
        <ele>594</ele>
        <time>2010-06-12T07:03:41Z</time>
      </trkpt>
      <trkpt lat="45.73669" lon="6.00395">
        <ele>594</ele>
        <time>2010-06-12T07:03:43Z</time>
      </trkpt>
      <trkpt lat="45.73676" lon="6.00406">
        <ele>594</ele>
        <time>2010-06-12T07:03:45Z</time>
      </trkpt>
      <trkpt lat="45.73684" lon="6.00417">
        <ele>594</ele>
        <time>2010-06-12T07:03:47Z</time>
      </trkpt>
      <trkpt lat="45.7369" lon="6.00428">
        <ele>594</ele>
        <time>2010-06-12T07:03:49Z</time>
      </trkpt>
      <trkpt lat="45.73697" lon="6.00439">
        <ele>594</ele>
        <time>2010-06-12T07:03:51Z</time>
      </trkpt>
      <trkpt lat="45.73704" lon="6.0045">
        <ele>594</ele>
        <time>2010-06-12T07:03:53Z</time>
      </trkpt>
      <trkpt lat="45.73711" lon="6.00462">
        <ele>594</ele>
        <time>2010-06-12T07:03:55Z</time>
      </trkpt>
      <trkpt lat="45.73717" lon="6.00473">
        <ele>594</ele>
        <time>2010-06-12T07:03:57Z</time>
      </trkpt>
      <trkpt lat="45.73727" lon="6.0049">
        <ele>594</ele>
        <time>2010-06-12T07:04:00Z</time>
      </trkpt>
      <trkpt lat="45.73732" lon="6.00501">
        <ele>594</ele>
        <time>2010-06-12T07:04:02Z</time>
      </trkpt>
      <trkpt lat="45.73739" lon="6.00513">
        <ele>594</ele>
        <time>2010-06-12T07:04:04Z</time>
      </trkpt>
      <trkpt lat="45.73746" lon="6.00524">
        <ele>594</ele>
        <time>2010-06-12T07:04:06Z</time>
      </trkpt>
      <trkpt lat="45.73754" lon="6.00533">
        <ele>594</ele>
        <time>2010-06-12T07:04:08Z</time>
      </trkpt>
      <trkpt lat="45.73763" lon="6.00541">
        <ele>594</ele>
        <time>2010-06-12T07:04:10Z</time>
      </trkpt>
      <trkpt lat="45.73772" lon="6.00547">
        <ele>594</ele>
        <time>2010-06-12T07:04:12Z</time>
      </trkpt>
      <trkpt lat="45.73781" lon="6.00553">
        <ele>594</ele>
        <time>2010-06-12T07:04:14Z</time>
      </trkpt>
      <trkpt lat="45.7379" lon="6.00558">
        <ele>594</ele>
        <time>2010-06-12T07:04:16Z</time>
      </trkpt>
      <trkpt lat="45.73799" lon="6.00562">
        <ele>594</ele>
        <time>2010-06-12T07:04:18Z</time>
      </trkpt>
      <trkpt lat="45.73809" lon="6.00565">
        <ele>594</ele>
        <time>2010-06-12T07:04:20Z</time>
      </trkpt>
      <trkpt lat="45.73817" lon="6.00568">
        <ele>594</ele>
        <time>2010-06-12T07:04:22Z</time>
      </trkpt>
      <trkpt lat="45.73827" lon="6.00572">
        <ele>594</ele>
        <time>2010-06-12T07:04:24Z</time>
      </trkpt>
      <trkpt lat="45.73836" lon="6.00576">
        <ele>594</ele>
        <time>2010-06-12T07:04:26Z</time>
      </trkpt>
      <trkpt lat="45.73845" lon="6.00581">
        <ele>594</ele>
        <time>2010-06-12T07:04:28Z</time>
      </trkpt>
      <trkpt lat="45.73853" lon="6.0059">
        <ele>594</ele>
        <time>2010-06-12T07:04:30Z</time>
      </trkpt>
      <trkpt lat="45.7386" lon="6.006">
        <ele>594</ele>
        <time>2010-06-12T07:04:32Z</time>
      </trkpt>
      <trkpt lat="45.73866" lon="6.0061">
        <ele>594</ele>
        <time>2010-06-12T07:04:34Z</time>
      </trkpt>
      <trkpt lat="45.7387" lon="6.00619">
        <ele>594</ele>
        <time>2010-06-12T07:04:36Z</time>
      </trkpt>
      <trkpt lat="45.73874" lon="6.00627">
        <ele>594</ele>
        <time>2010-06-12T07:04:38Z</time>
      </trkpt>
      <trkpt lat="45.73877" lon="6.00634">
        <ele>594</ele>
        <time>2010-06-12T07:04:40Z</time>
      </trkpt>
      <trkpt lat="45.7388" lon="6.00641">
        <ele>594</ele>
        <time>2010-06-12T07:04:42Z</time>
      </trkpt>
      <trkpt lat="45.73884" lon="6.00647">
        <ele>594</ele>
        <time>2010-06-12T07:04:44Z</time>
      </trkpt>
      <trkpt lat="45.73886" lon="6.00654">
        <ele>594</ele>
        <time>2010-06-12T07:04:46Z</time>
      </trkpt>
      <trkpt lat="45.7389" lon="6.0066">
        <ele>594</ele>
        <time>2010-06-12T07:04:48Z</time>
      </trkpt>
      <trkpt lat="45.73892" lon="6.00666">
        <ele>594</ele>
        <time>2010-06-12T07:04:50Z</time>
      </trkpt>
      <trkpt lat="45.73895" lon="6.00673">
        <ele>594</ele>
        <time>2010-06-12T07:04:52Z</time>
      </trkpt>
      <trkpt lat="45.73898" lon="6.00679">
        <ele>594</ele>
        <time>2010-06-12T07:04:54Z</time>
      </trkpt>
      <trkpt lat="45.73901" lon="6.00684">
        <ele>594</ele>
        <time>2010-06-12T07:04:56Z</time>
      </trkpt>
      <trkpt lat="45.73904" lon="6.0069">
        <ele>594</ele>
        <time>2010-06-12T07:04:58Z</time>
      </trkpt>
      <trkpt lat="45.73907" lon="6.00695">
        <ele>594</ele>
        <time>2010-06-12T07:05:00Z</time>
      </trkpt>
      <trkpt lat="45.7391" lon="6.007">
        <ele>595</ele>
        <time>2010-06-12T07:05:02Z</time>
      </trkpt>
      <trkpt lat="45.73911" lon="6.00706">
        <ele>595</ele>
        <time>2010-06-12T07:05:04Z</time>
      </trkpt>
      <trkpt lat="45.73913" lon="6.00711">
        <ele>597</ele>
        <time>2010-06-12T07:05:06Z</time>
      </trkpt>
      <trkpt lat="45.73916" lon="6.00717">
        <ele>598</ele>
        <time>2010-06-12T07:05:08Z</time>
      </trkpt>
      <trkpt lat="45.73919" lon="6.00723">
        <ele>599</ele>
        <time>2010-06-12T07:05:10Z</time>
      </trkpt>
      <trkpt lat="45.73921" lon="6.00729">
        <ele>599</ele>
        <time>2010-06-12T07:05:12Z</time>
      </trkpt>
      <trkpt lat="45.73923" lon="6.00735">
        <ele>599</ele>
        <time>2010-06-12T07:05:14Z</time>
      </trkpt>
      <trkpt lat="45.73926" lon="6.0074">
        <ele>599</ele>
        <time>2010-06-12T07:05:16Z</time>
      </trkpt>
      <trkpt lat="45.73927" lon="6.00745">
        <ele>599</ele>
        <time>2010-06-12T07:05:18Z</time>
      </trkpt>
      <trkpt lat="45.7393" lon="6.00751">
        <ele>599</ele>
        <time>2010-06-12T07:05:20Z</time>
      </trkpt>
      <trkpt lat="45.73933" lon="6.00757">
        <ele>599</ele>
        <time>2010-06-12T07:05:22Z</time>
      </trkpt>
      <trkpt lat="45.73934" lon="6.00762">
        <ele>599</ele>
        <time>2010-06-12T07:05:24Z</time>
      </trkpt>
      <trkpt lat="45.73937" lon="6.00768">
        <ele>599</ele>
        <time>2010-06-12T07:05:26Z</time>
      </trkpt>
      <trkpt lat="45.7394" lon="6.00773">
        <ele>599</ele>
        <time>2010-06-12T07:05:28Z</time>
      </trkpt>
      <trkpt lat="45.73942" lon="6.00777">
        <ele>599</ele>
        <time>2010-06-12T07:05:30Z</time>
      </trkpt>
      <trkpt lat="45.73944" lon="6.0078">
        <ele>599</ele>
        <time>2010-06-12T07:05:32Z</time>
      </trkpt>
      <trkpt lat="45.73947" lon="6.00786">
        <ele>599</ele>
        <time>2010-06-12T07:05:34Z</time>
      </trkpt>
      <trkpt lat="45.73949" lon="6.00792">
        <ele>599</ele>
        <time>2010-06-12T07:05:36Z</time>
      </trkpt>
      <trkpt lat="45.73951" lon="6.00798">
        <ele>599</ele>
        <time>2010-06-12T07:05:38Z</time>
      </trkpt>
      <trkpt lat="45.73953" lon="6.00803">
        <ele>600</ele>
        <time>2010-06-12T07:05:40Z</time>
      </trkpt>
      <trkpt lat="45.73954" lon="6.00808">
        <ele>600</ele>
        <time>2010-06-12T07:05:42Z</time>
      </trkpt>
      <trkpt lat="45.73957" lon="6.00814">
        <ele>601</ele>
        <time>2010-06-12T07:05:44Z</time>
      </trkpt>
      <trkpt lat="45.73959" lon="6.0082">
        <ele>601</ele>
        <time>2010-06-12T07:05:46Z</time>
      </trkpt>
      <trkpt lat="45.73962" lon="6.00825">
        <ele>601</ele>
        <time>2010-06-12T07:05:48Z</time>
      </trkpt>
      <trkpt lat="45.73966" lon="6.00833">
        <ele>601</ele>
        <time>2010-06-12T07:05:50Z</time>
      </trkpt>
      <trkpt lat="45.7397" lon="6.0084">
        <ele>601</ele>
        <time>2010-06-12T07:05:52Z</time>
      </trkpt>
      <trkpt lat="45.73973" lon="6.00846">
        <ele>599</ele>
        <time>2010-06-12T07:05:54Z</time>
      </trkpt>
      <trkpt lat="45.73976" lon="6.00852">
        <ele>597</ele>
        <time>2010-06-12T07:05:56Z</time>
      </trkpt>
      <trkpt lat="45.73979" lon="6.00856">
        <ele>595</ele>
        <time>2010-06-12T07:05:58Z</time>
      </trkpt>
      <trkpt lat="45.73981" lon="6.0086">
        <ele>594</ele>
        <time>2010-06-12T07:06:00Z</time>
      </trkpt>
      <trkpt lat="45.73983" lon="6.00864">
        <ele>594</ele>
        <time>2010-06-12T07:06:02Z</time>
      </trkpt>
      <trkpt lat="45.73985" lon="6.00869">
        <ele>594</ele>
        <time>2010-06-12T07:06:04Z</time>
      </trkpt>
      <trkpt lat="45.73988" lon="6.00874">
        <ele>594</ele>
        <time>2010-06-12T07:06:06Z</time>
      </trkpt>
      <trkpt lat="45.7399" lon="6.00879">
        <ele>595</ele>
        <time>2010-06-12T07:06:08Z</time>
      </trkpt>
      <trkpt lat="45.73992" lon="6.00883">
        <ele>597</ele>
        <time>2010-06-12T07:06:10Z</time>
      </trkpt>
      <trkpt lat="45.73993" lon="6.00887">
        <ele>599</ele>
        <time>2010-06-12T07:06:12Z</time>
      </trkpt>
      <trkpt lat="45.73994" lon="6.0089">
        <ele>601</ele>
        <time>2010-06-12T07:06:14Z</time>
      </trkpt>
      <trkpt lat="45.73996" lon="6.00893">
        <ele>603</ele>
        <time>2010-06-12T07:06:16Z</time>
      </trkpt>
      <trkpt lat="45.73997" lon="6.00897">
        <ele>605</ele>
        <time>2010-06-12T07:06:18Z</time>
      </trkpt>
      <trkpt lat="45.73999" lon="6.00902">
        <ele>607</ele>
        <time>2010-06-12T07:06:20Z</time>
      </trkpt>
      <trkpt lat="45.74001" lon="6.00907">
        <ele>609</ele>
        <time>2010-06-12T07:06:22Z</time>
      </trkpt>
      <trkpt lat="45.74003" lon="6.00912">
        <ele>609</ele>
        <time>2010-06-12T07:06:24Z</time>
      </trkpt>
      <trkpt lat="45.74005" lon="6.00916">
        <ele>609</ele>
        <time>2010-06-12T07:06:26Z</time>
      </trkpt>
      <trkpt lat="45.74006" lon="6.00921">
        <ele>609</ele>
        <time>2010-06-12T07:06:28Z</time>
      </trkpt>
      <trkpt lat="45.74009" lon="6.00925">
        <ele>609</ele>
        <time>2010-06-12T07:06:30Z</time>
      </trkpt>
      <trkpt lat="45.74011" lon="6.0093">
        <ele>609</ele>
        <time>2010-06-12T07:06:32Z</time>
      </trkpt>
      <trkpt lat="45.74013" lon="6.00934">
        <ele>609</ele>
        <time>2010-06-12T07:06:34Z</time>
      </trkpt>
      <trkpt lat="45.74014" lon="6.00938">
        <ele>609</ele>
        <time>2010-06-12T07:06:36Z</time>
      </trkpt>
      <trkpt lat="45.74016" lon="6.00943">
        <ele>611</ele>
        <time>2010-06-12T07:06:38Z</time>
      </trkpt>
      <trkpt lat="45.74017" lon="6.00947">
        <ele>612</ele>
        <time>2010-06-12T07:06:40Z</time>
      </trkpt>
      <trkpt lat="45.74018" lon="6.00953">
        <ele>614</ele>
        <time>2010-06-12T07:06:43Z</time>
      </trkpt>
      <trkpt lat="45.74018" lon="6.00958">
        <ele>615</ele>
        <time>2010-06-12T07:06:45Z</time>
      </trkpt>
      <trkpt lat="45.74019" lon="6.00964">
        <ele>616</ele>
        <time>2010-06-12T07:06:47Z</time>
      </trkpt>
      <trkpt lat="45.74019" lon="6.00969">
        <ele>616</ele>
        <time>2010-06-12T07:06:49Z</time>
      </trkpt>
      <trkpt lat="45.74018" lon="6.00974">
        <ele>616</ele>
        <time>2010-06-12T07:06:51Z</time>
      </trkpt>
      <trkpt lat="45.74017" lon="6.00979">
        <ele>617</ele>
        <time>2010-06-12T07:06:53Z</time>
      </trkpt>
      <trkpt lat="45.74015" lon="6.00984">
        <ele>617</ele>
        <time>2010-06-12T07:06:55Z</time>
      </trkpt>
      <trkpt lat="45.74014" lon="6.0099">
        <ele>618</ele>
        <time>2010-06-12T07:06:57Z</time>
      </trkpt>
      <trkpt lat="45.74012" lon="6.00994">
        <ele>618</ele>
        <time>2010-06-12T07:06:59Z</time>
      </trkpt>
      <trkpt lat="45.7401" lon="6.00998">
        <ele>618</ele>
        <time>2010-06-12T07:07:01Z</time>
      </trkpt>
      <trkpt lat="45.74008" lon="6.01004">
        <ele>618</ele>
        <time>2010-06-12T07:07:03Z</time>
      </trkpt>
      <trkpt lat="45.74006" lon="6.01009">
        <ele>618</ele>
        <time>2010-06-12T07:07:05Z</time>
      </trkpt>
      <trkpt lat="45.74003" lon="6.01014">
        <ele>618</ele>
        <time>2010-06-12T07:07:07Z</time>
      </trkpt>
      <trkpt lat="45.74001" lon="6.01019">
        <ele>619</ele>
        <time>2010-06-12T07:07:09Z</time>
      </trkpt>
      <trkpt lat="45.73998" lon="6.01023">
        <ele>620</ele>
        <time>2010-06-12T07:07:11Z</time>
      </trkpt>
      <trkpt lat="45.73995" lon="6.01027">
        <ele>621</ele>
        <time>2010-06-12T07:07:13Z</time>
      </trkpt>
      <trkpt lat="45.73992" lon="6.01032">
        <ele>623</ele>
        <time>2010-06-12T07:07:15Z</time>
      </trkpt>
      <trkpt lat="45.73991" lon="6.01037">
        <ele>625</ele>
        <time>2010-06-12T07:07:17Z</time>
      </trkpt>
      <trkpt lat="45.73989" lon="6.01042">
        <ele>626</ele>
        <time>2010-06-12T07:07:19Z</time>
      </trkpt>
      <trkpt lat="45.73991" lon="6.01048">
        <ele>628</ele>
        <time>2010-06-12T07:07:21Z</time>
      </trkpt>
      <trkpt lat="45.73991" lon="6.01054">
        <ele>630</ele>
        <time>2010-06-12T07:07:23Z</time>
      </trkpt>
      <trkpt lat="45.73989" lon="6.0106">
        <ele>631</ele>
        <time>2010-06-12T07:07:25Z</time>
      </trkpt>
      <trkpt lat="45.73988" lon="6.01066">
        <ele>631</ele>
        <time>2010-06-12T07:07:27Z</time>
      </trkpt>
      <trkpt lat="45.73987" lon="6.01073">
        <ele>631</ele>
        <time>2010-06-12T07:07:29Z</time>
      </trkpt>
      <trkpt lat="45.73987" lon="6.01078">
        <ele>631</ele>
        <time>2010-06-12T07:07:31Z</time>
      </trkpt>
      <trkpt lat="45.73987" lon="6.01084">
        <ele>631</ele>
        <time>2010-06-12T07:07:33Z</time>
      </trkpt>
      <trkpt lat="45.73988" lon="6.0109">
        <ele>631</ele>
        <time>2010-06-12T07:07:35Z</time>
      </trkpt>
      <trkpt lat="45.73987" lon="6.01096">
        <ele>632</ele>
        <time>2010-06-12T07:07:37Z</time>
      </trkpt>
      <trkpt lat="45.73987" lon="6.01103">
        <ele>633</ele>
        <time>2010-06-12T07:07:39Z</time>
      </trkpt>
      <trkpt lat="45.73987" lon="6.0111">
        <ele>633</ele>
        <time>2010-06-12T07:07:41Z</time>
      </trkpt>
      <trkpt lat="45.73987" lon="6.01116">
        <ele>633</ele>
        <time>2010-06-12T07:07:43Z</time>
      </trkpt>
      <trkpt lat="45.73986" lon="6.01123">
        <ele>633</ele>
        <time>2010-06-12T07:07:45Z</time>
      </trkpt>
      <trkpt lat="45.73987" lon="6.0113">
        <ele>633</ele>
        <time>2010-06-12T07:07:47Z</time>
      </trkpt>
      <trkpt lat="45.73987" lon="6.01136">
        <ele>633</ele>
        <time>2010-06-12T07:07:49Z</time>
      </trkpt>
      <trkpt lat="45.73988" lon="6.01143">
        <ele>633</ele>
        <time>2010-06-12T07:07:51Z</time>
      </trkpt>
      <trkpt lat="45.73988" lon="6.0115">
        <ele>633</ele>
        <time>2010-06-12T07:07:53Z</time>
      </trkpt>
      <trkpt lat="45.73989" lon="6.01157">
        <ele>633</ele>
        <time>2010-06-12T07:07:55Z</time>
      </trkpt>
      <trkpt lat="45.7399" lon="6.01164">
        <ele>633</ele>
        <time>2010-06-12T07:07:57Z</time>
      </trkpt>
      <trkpt lat="45.7399" lon="6.01171">
        <ele>633</ele>
        <time>2010-06-12T07:07:59Z</time>
      </trkpt>
      <trkpt lat="45.73991" lon="6.01177">
        <ele>633</ele>
        <time>2010-06-12T07:08:01Z</time>
      </trkpt>
      <trkpt lat="45.73991" lon="6.01183">
        <ele>633</ele>
        <time>2010-06-12T07:08:03Z</time>
      </trkpt>
      <trkpt lat="45.73991" lon="6.01189">
        <ele>633</ele>
        <time>2010-06-12T07:08:05Z</time>
      </trkpt>
      <trkpt lat="45.73992" lon="6.01194">
        <ele>633</ele>
        <time>2010-06-12T07:08:07Z</time>
      </trkpt>
      <trkpt lat="45.73993" lon="6.012">
        <ele>633</ele>
        <time>2010-06-12T07:08:09Z</time>
      </trkpt>
      <trkpt lat="45.73993" lon="6.01206">
        <ele>633</ele>
        <time>2010-06-12T07:08:11Z</time>
      </trkpt>
      <trkpt lat="45.73994" lon="6.0121">
        <ele>633</ele>
        <time>2010-06-12T07:08:13Z</time>
      </trkpt>
      <trkpt lat="45.73994" lon="6.01216">
        <ele>633</ele>
        <time>2010-06-12T07:08:15Z</time>
      </trkpt>
      <trkpt lat="45.73995" lon="6.01222">
        <ele>633</ele>
        <time>2010-06-12T07:08:17Z</time>
      </trkpt>
      <trkpt lat="45.73995" lon="6.01227">
        <ele>633</ele>
        <time>2010-06-12T07:08:19Z</time>
      </trkpt>
      <trkpt lat="45.73996" lon="6.01234">
        <ele>633</ele>
        <time>2010-06-12T07:08:21Z</time>
      </trkpt>
      <trkpt lat="45.73997" lon="6.0124">
        <ele>633</ele>
        <time>2010-06-12T07:08:23Z</time>
      </trkpt>
      <trkpt lat="45.73998" lon="6.01247">
        <ele>633</ele>
        <time>2010-06-12T07:08:25Z</time>
      </trkpt>
      <trkpt lat="45.73999" lon="6.01253">
        <ele>633</ele>
        <time>2010-06-12T07:08:27Z</time>
      </trkpt>
      <trkpt lat="45.73999" lon="6.01259">
        <ele>633</ele>
        <time>2010-06-12T07:08:29Z</time>
      </trkpt>
      <trkpt lat="45.74" lon="6.01265">
        <ele>633</ele>
        <time>2010-06-12T07:08:31Z</time>
      </trkpt>
      <trkpt lat="45.74001" lon="6.0127">
        <ele>633</ele>
        <time>2010-06-12T07:08:33Z</time>
      </trkpt>
      <trkpt lat="45.74002" lon="6.01276">
        <ele>633</ele>
        <time>2010-06-12T07:08:35Z</time>
      </trkpt>
      <trkpt lat="45.74003" lon="6.01282">
        <ele>633</ele>
        <time>2010-06-12T07:08:37Z</time>
      </trkpt>
      <trkpt lat="45.74004" lon="6.01287">
        <ele>633</ele>
        <time>2010-06-12T07:08:39Z</time>
      </trkpt>
      <trkpt lat="45.74005" lon="6.01292">
        <ele>633</ele>
        <time>2010-06-12T07:08:41Z</time>
      </trkpt>
      <trkpt lat="45.74006" lon="6.01297">
        <ele>633</ele>
        <time>2010-06-12T07:08:43Z</time>
      </trkpt>
      <trkpt lat="45.74007" lon="6.01301">
        <ele>635</ele>
        <time>2010-06-12T07:08:45Z</time>
      </trkpt>
      <trkpt lat="45.74009" lon="6.01307">
        <ele>636</ele>
        <time>2010-06-12T07:08:47Z</time>
      </trkpt>
      <trkpt lat="45.74011" lon="6.01311">
        <ele>637</ele>
        <time>2010-06-12T07:08:49Z</time>
      </trkpt>
      <trkpt lat="45.74014" lon="6.01315">
        <ele>637</ele>
        <time>2010-06-12T07:08:51Z</time>
      </trkpt>
      <trkpt lat="45.74017" lon="6.0132">
        <ele>638</ele>
        <time>2010-06-12T07:08:53Z</time>
      </trkpt>
      <trkpt lat="45.7402" lon="6.01323">
        <ele>639</ele>
        <time>2010-06-12T07:08:55Z</time>
      </trkpt>
      <trkpt lat="45.74023" lon="6.01326">
        <ele>640</ele>
        <time>2010-06-12T07:08:57Z</time>
      </trkpt>
      <trkpt lat="45.74026" lon="6.01329">
        <ele>641</ele>
        <time>2010-06-12T07:08:59Z</time>
      </trkpt>
      <trkpt lat="45.7403" lon="6.01331">
        <ele>641</ele>
        <time>2010-06-12T07:09:01Z</time>
      </trkpt>
      <trkpt lat="45.74032" lon="6.01334">
        <ele>641</ele>
        <time>2010-06-12T07:09:03Z</time>
      </trkpt>
      <trkpt lat="45.74036" lon="6.01337">
        <ele>641</ele>
        <time>2010-06-12T07:09:05Z</time>
      </trkpt>
      <trkpt lat="45.74039" lon="6.01342">
        <ele>641</ele>
        <time>2010-06-12T07:09:07Z</time>
      </trkpt>
      <trkpt lat="45.74041" lon="6.01348">
        <ele>641</ele>
        <time>2010-06-12T07:09:09Z</time>
      </trkpt>
      <trkpt lat="45.74042" lon="6.01354">
        <ele>641</ele>
        <time>2010-06-12T07:09:11Z</time>
      </trkpt>
      <trkpt lat="45.74041" lon="6.0136">
        <ele>641</ele>
        <time>2010-06-12T07:09:13Z</time>
      </trkpt>
      <trkpt lat="45.7404" lon="6.01364">
        <ele>641</ele>
        <time>2010-06-12T07:09:15Z</time>
      </trkpt>
      <trkpt lat="45.74036" lon="6.01368">
        <ele>642</ele>
        <time>2010-06-12T07:09:17Z</time>
      </trkpt>
      <trkpt lat="45.74032" lon="6.01369">
        <ele>642</ele>
        <time>2010-06-12T07:09:19Z</time>
      </trkpt>
      <trkpt lat="45.74028" lon="6.0137">
        <ele>643</ele>
        <time>2010-06-12T07:09:21Z</time>
      </trkpt>
      <trkpt lat="45.74022" lon="6.0137">
        <ele>643</ele>
        <time>2010-06-12T07:09:23Z</time>
      </trkpt>
      <trkpt lat="45.74017" lon="6.01369">
        <ele>643</ele>
        <time>2010-06-12T07:09:25Z</time>
      </trkpt>
      <trkpt lat="45.74013" lon="6.01368">
        <ele>643</ele>
        <time>2010-06-12T07:09:27Z</time>
      </trkpt>
      <trkpt lat="45.7401" lon="6.01367">
        <ele>643</ele>
        <time>2010-06-12T07:09:29Z</time>
      </trkpt>
      <trkpt lat="45.74006" lon="6.01369">
        <ele>643</ele>
        <time>2010-06-12T07:09:31Z</time>
      </trkpt>
      <trkpt lat="45.74002" lon="6.01369">
        <ele>643</ele>
        <time>2010-06-12T07:09:33Z</time>
      </trkpt>
      <trkpt lat="45.73999" lon="6.01371">
        <ele>643</ele>
        <time>2010-06-12T07:09:35Z</time>
      </trkpt>
      <trkpt lat="45.73997" lon="6.01374">
        <ele>643</ele>
        <time>2010-06-12T07:09:37Z</time>
      </trkpt>
      <trkpt lat="45.73995" lon="6.01377">
        <ele>643</ele>
        <time>2010-06-12T07:09:39Z</time>
      </trkpt>
      <trkpt lat="45.73992" lon="6.0138">
        <ele>643</ele>
        <time>2010-06-12T07:09:41Z</time>
      </trkpt>
      <trkpt lat="45.7399" lon="6.01384">
        <ele>645</ele>
        <time>2010-06-12T07:09:43Z</time>
      </trkpt>
      <trkpt lat="45.7399" lon="6.0139">
        <ele>647</ele>
        <time>2010-06-12T07:09:45Z</time>
      </trkpt>
      <trkpt lat="45.73992" lon="6.01396">
        <ele>649</ele>
        <time>2010-06-12T07:09:47Z</time>
      </trkpt>
      <trkpt lat="45.73993" lon="6.01401">
        <ele>649</ele>
        <time>2010-06-12T07:09:49Z</time>
      </trkpt>
      <trkpt lat="45.73995" lon="6.01406">
        <ele>650</ele>
        <time>2010-06-12T07:09:52Z</time>
      </trkpt>
      <trkpt lat="45.73997" lon="6.01412">
        <ele>650</ele>
        <time>2010-06-12T07:09:54Z</time>
      </trkpt>
      <trkpt lat="45.73999" lon="6.01418">
        <ele>651</ele>
        <time>2010-06-12T07:09:56Z</time>
      </trkpt>
      <trkpt lat="45.74001" lon="6.01424">
        <ele>651</ele>
        <time>2010-06-12T07:09:58Z</time>
      </trkpt>
      <trkpt lat="45.74004" lon="6.01431">
        <ele>651</ele>
        <time>2010-06-12T07:10:00Z</time>
      </trkpt>
      <trkpt lat="45.74005" lon="6.01435">
        <ele>651</ele>
        <time>2010-06-12T07:10:02Z</time>
      </trkpt>
      <trkpt lat="45.7401" lon="6.01439">
        <ele>653</ele>
        <time>2010-06-12T07:10:05Z</time>
      </trkpt>
      <trkpt lat="45.74012" lon="6.0144">
        <ele>653</ele>
        <time>2010-06-12T07:10:07Z</time>
      </trkpt>
      <trkpt lat="45.74015" lon="6.01441">
        <ele>653</ele>
        <time>2010-06-12T07:10:09Z</time>
      </trkpt>
      <trkpt lat="45.74018" lon="6.01443">
        <ele>653</ele>
        <time>2010-06-12T07:10:11Z</time>
      </trkpt>
      <trkpt lat="45.74022" lon="6.01444">
        <ele>653</ele>
        <time>2010-06-12T07:10:13Z</time>
      </trkpt>
      <trkpt lat="45.74025" lon="6.01446">
        <ele>653</ele>
        <time>2010-06-12T07:10:15Z</time>
      </trkpt>
      <trkpt lat="45.74029" lon="6.01448">
        <ele>653</ele>
        <time>2010-06-12T07:10:17Z</time>
      </trkpt>
      <trkpt lat="45.74032" lon="6.01451">
        <ele>654</ele>
        <time>2010-06-12T07:10:19Z</time>
      </trkpt>
      <trkpt lat="45.74036" lon="6.01455">
        <ele>654</ele>
        <time>2010-06-12T07:10:21Z</time>
      </trkpt>
      <trkpt lat="45.74038" lon="6.01459">
        <ele>654</ele>
        <time>2010-06-12T07:10:23Z</time>
      </trkpt>
      <trkpt lat="45.74041" lon="6.01465">
        <ele>654</ele>
        <time>2010-06-12T07:10:25Z</time>
      </trkpt>
      <trkpt lat="45.74044" lon="6.01469">
        <ele>654</ele>
        <time>2010-06-12T07:10:27Z</time>
      </trkpt>
      <trkpt lat="45.74047" lon="6.01473">
        <ele>654</ele>
        <time>2010-06-12T07:10:29Z</time>
      </trkpt>
      <trkpt lat="45.74049" lon="6.01476">
        <ele>654</ele>
        <time>2010-06-12T07:10:31Z</time>
      </trkpt>
      <trkpt lat="45.74052" lon="6.01481">
        <ele>654</ele>
        <time>2010-06-12T07:10:33Z</time>
      </trkpt>
      <trkpt lat="45.74055" lon="6.01486">
        <ele>654</ele>
        <time>2010-06-12T07:10:35Z</time>
      </trkpt>
      <trkpt lat="45.74057" lon="6.0149">
        <ele>654</ele>
        <time>2010-06-12T07:10:37Z</time>
      </trkpt>
      <trkpt lat="45.7406" lon="6.01495">
        <ele>656</ele>
        <time>2010-06-12T07:10:40Z</time>
      </trkpt>
      <trkpt lat="45.74062" lon="6.01499">
        <ele>658</ele>
        <time>2010-06-12T07:10:42Z</time>
      </trkpt>
      <trkpt lat="45.74065" lon="6.01503">
        <ele>660</ele>
        <time>2010-06-12T07:10:44Z</time>
      </trkpt>
      <trkpt lat="45.74066" lon="6.01507">
        <ele>662</ele>
        <time>2010-06-12T07:10:46Z</time>
      </trkpt>
      <trkpt lat="45.74068" lon="6.01508">
        <ele>663</ele>
        <time>2010-06-12T07:10:48Z</time>
      </trkpt>
      <trkpt lat="45.74071" lon="6.01509">
        <ele>664</ele>
        <time>2010-06-12T07:10:51Z</time>
      </trkpt>
      <trkpt lat="45.74072" lon="6.01507">
        <ele>664</ele>
        <time>2010-06-12T07:10:54Z</time>
      </trkpt>
      <trkpt lat="45.74067" lon="6.01513">
        <ele>670</ele>
        <time>2010-06-12T07:11:01Z</time>
      </trkpt>
      <trkpt lat="45.74065" lon="6.01518">
        <ele>670</ele>
        <time>2010-06-12T07:11:04Z</time>
      </trkpt>
      <trkpt lat="45.74064" lon="6.01521">
        <ele>670</ele>
        <time>2010-06-12T07:11:06Z</time>
      </trkpt>
      <trkpt lat="45.74062" lon="6.01526">
        <ele>670</ele>
        <time>2010-06-12T07:11:08Z</time>
      </trkpt>
      <trkpt lat="45.74059" lon="6.0153">
        <ele>670</ele>
        <time>2010-06-12T07:11:10Z</time>
      </trkpt>
      <trkpt lat="45.74056" lon="6.01532">
        <ele>670</ele>
        <time>2010-06-12T07:11:12Z</time>
      </trkpt>
      <trkpt lat="45.74051" lon="6.01533">
        <ele>670</ele>
        <time>2010-06-12T07:11:14Z</time>
      </trkpt>
      <trkpt lat="45.74048" lon="6.01535">
        <ele>670</ele>
        <time>2010-06-12T07:11:16Z</time>
      </trkpt>
      <trkpt lat="45.74043" lon="6.01537">
        <ele>670</ele>
        <time>2010-06-12T07:11:19Z</time>
      </trkpt>
      <trkpt lat="45.74039" lon="6.01537">
        <ele>670</ele>
        <time>2010-06-12T07:11:21Z</time>
      </trkpt>
      <trkpt lat="45.74036" lon="6.01538">
        <ele>670</ele>
        <time>2010-06-12T07:11:23Z</time>
      </trkpt>
      <trkpt lat="45.74033" lon="6.01538">
        <ele>670</ele>
        <time>2010-06-12T07:11:25Z</time>
      </trkpt>
      <trkpt lat="45.7403" lon="6.01538">
        <ele>670</ele>
        <time>2010-06-12T07:11:27Z</time>
      </trkpt>
      <trkpt lat="45.74027" lon="6.01539">
        <ele>670</ele>
        <time>2010-06-12T07:11:29Z</time>
      </trkpt>
      <trkpt lat="45.74023" lon="6.0154">
        <ele>670</ele>
        <time>2010-06-12T07:11:31Z</time>
      </trkpt>
      <trkpt lat="45.7402" lon="6.01541">
        <ele>670</ele>
        <time>2010-06-12T07:11:33Z</time>
      </trkpt>
      <trkpt lat="45.74015" lon="6.01542">
        <ele>670</ele>
        <time>2010-06-12T07:11:35Z</time>
      </trkpt>
      <trkpt lat="45.74012" lon="6.01543">
        <ele>670</ele>
        <time>2010-06-12T07:11:37Z</time>
      </trkpt>
      <trkpt lat="45.74009" lon="6.01542">
        <ele>670</ele>
        <time>2010-06-12T07:11:39Z</time>
      </trkpt>
      <trkpt lat="45.74006" lon="6.01539">
        <ele>670</ele>
        <time>2010-06-12T07:11:41Z</time>
      </trkpt>
      <trkpt lat="45.74002" lon="6.01536">
        <ele>670</ele>
        <time>2010-06-12T07:11:43Z</time>
      </trkpt>
      <trkpt lat="45.73999" lon="6.01532">
        <ele>670</ele>
        <time>2010-06-12T07:11:45Z</time>
      </trkpt>
      <trkpt lat="45.73996" lon="6.01529">
        <ele>670</ele>
        <time>2010-06-12T07:11:47Z</time>
      </trkpt>
      <trkpt lat="45.73993" lon="6.01525">
        <ele>670</ele>
        <time>2010-06-12T07:11:49Z</time>
      </trkpt>
      <trkpt lat="45.73989" lon="6.01522">
        <ele>670</ele>
        <time>2010-06-12T07:11:51Z</time>
      </trkpt>
      <trkpt lat="45.73985" lon="6.01519">
        <ele>670</ele>
        <time>2010-06-12T07:11:53Z</time>
      </trkpt>
      <trkpt lat="45.73981" lon="6.01518">
        <ele>670</ele>
        <time>2010-06-12T07:11:55Z</time>
      </trkpt>
      <trkpt lat="45.73976" lon="6.01517">
        <ele>670</ele>
        <time>2010-06-12T07:11:57Z</time>
      </trkpt>
      <trkpt lat="45.73972" lon="6.01517">
        <ele>670</ele>
        <time>2010-06-12T07:11:59Z</time>
      </trkpt>
      <trkpt lat="45.73968" lon="6.01518">
        <ele>670</ele>
        <time>2010-06-12T07:12:01Z</time>
      </trkpt>
      <trkpt lat="45.73965" lon="6.0152">
        <ele>670</ele>
        <time>2010-06-12T07:12:03Z</time>
      </trkpt>
      <trkpt lat="45.73963" lon="6.01525">
        <ele>670</ele>
        <time>2010-06-12T07:12:05Z</time>
      </trkpt>
      <trkpt lat="45.73961" lon="6.01528">
        <ele>670</ele>
        <time>2010-06-12T07:12:07Z</time>
      </trkpt>
      <trkpt lat="45.73959" lon="6.01533">
        <ele>670</ele>
        <time>2010-06-12T07:12:09Z</time>
      </trkpt>
      <trkpt lat="45.73957" lon="6.01537">
        <ele>671</ele>
        <time>2010-06-12T07:12:11Z</time>
      </trkpt>
      <trkpt lat="45.73954" lon="6.01543">
        <ele>672</ele>
        <time>2010-06-12T07:12:13Z</time>
      </trkpt>
      <trkpt lat="45.73953" lon="6.01548">
        <ele>672</ele>
        <time>2010-06-12T07:12:15Z</time>
      </trkpt>
      <trkpt lat="45.73952" lon="6.01554">
        <ele>673</ele>
        <time>2010-06-12T07:12:17Z</time>
      </trkpt>
      <trkpt lat="45.73952" lon="6.0156">
        <ele>673</ele>
        <time>2010-06-12T07:12:19Z</time>
      </trkpt>
      <trkpt lat="45.73952" lon="6.01567">
        <ele>673</ele>
        <time>2010-06-12T07:12:21Z</time>
      </trkpt>
      <trkpt lat="45.73955" lon="6.01572">
        <ele>673</ele>
        <time>2010-06-12T07:12:23Z</time>
      </trkpt>
      <trkpt lat="45.73957" lon="6.01578">
        <ele>673</ele>
        <time>2010-06-12T07:12:25Z</time>
      </trkpt>
      <trkpt lat="45.73961" lon="6.01583">
        <ele>674</ele>
        <time>2010-06-12T07:12:27Z</time>
      </trkpt>
      <trkpt lat="45.73964" lon="6.01589">
        <ele>675</ele>
        <time>2010-06-12T07:12:29Z</time>
      </trkpt>
      <trkpt lat="45.73967" lon="6.01594">
        <ele>677</ele>
        <time>2010-06-12T07:12:31Z</time>
      </trkpt>
      <trkpt lat="45.73969" lon="6.01599">
        <ele>678</ele>
        <time>2010-06-12T07:12:33Z</time>
      </trkpt>
      <trkpt lat="45.73972" lon="6.01605">
        <ele>679</ele>
        <time>2010-06-12T07:12:35Z</time>
      </trkpt>
      <trkpt lat="45.73975" lon="6.0161">
        <ele>679</ele>
        <time>2010-06-12T07:12:37Z</time>
      </trkpt>
      <trkpt lat="45.73978" lon="6.01614">
        <ele>679</ele>
        <time>2010-06-12T07:12:39Z</time>
      </trkpt>
      <trkpt lat="45.7398" lon="6.01618">
        <ele>680</ele>
        <time>2010-06-12T07:12:41Z</time>
      </trkpt>
      <trkpt lat="45.73983" lon="6.01621">
        <ele>682</ele>
        <time>2010-06-12T07:12:43Z</time>
      </trkpt>
      <trkpt lat="45.73986" lon="6.01625">
        <ele>684</ele>
        <time>2010-06-12T07:12:45Z</time>
      </trkpt>
      <trkpt lat="45.73988" lon="6.01629">
        <ele>686</ele>
        <time>2010-06-12T07:12:47Z</time>
      </trkpt>
      <trkpt lat="45.73991" lon="6.01635">
        <ele>688</ele>
        <time>2010-06-12T07:12:49Z</time>
      </trkpt>
      <trkpt lat="45.73993" lon="6.0164">
        <ele>689</ele>
        <time>2010-06-12T07:12:51Z</time>
      </trkpt>
      <trkpt lat="45.73994" lon="6.01643">
        <ele>689</ele>
        <time>2010-06-12T07:12:53Z</time>
      </trkpt>
      <trkpt lat="45.73994" lon="6.01648">
        <ele>689</ele>
        <time>2010-06-12T07:12:55Z</time>
      </trkpt>
      <trkpt lat="45.73992" lon="6.01651">
        <ele>689</ele>
        <time>2010-06-12T07:12:57Z</time>
      </trkpt>
      <trkpt lat="45.73993" lon="6.01658">
        <ele>689</ele>
        <time>2010-06-12T07:12:59Z</time>
      </trkpt>
      <trkpt lat="45.73993" lon="6.01663">
        <ele>689</ele>
        <time>2010-06-12T07:13:01Z</time>
      </trkpt>
      <trkpt lat="45.73995" lon="6.01669">
        <ele>689</ele>
        <time>2010-06-12T07:13:03Z</time>
      </trkpt>
      <trkpt lat="45.73998" lon="6.01672">
        <ele>689</ele>
        <time>2010-06-12T07:13:05Z</time>
      </trkpt>
      <trkpt lat="45.74001" lon="6.01673">
        <ele>689</ele>
        <time>2010-06-12T07:13:07Z</time>
      </trkpt>
      <trkpt lat="45.74005" lon="6.01677">
        <ele>689</ele>
        <time>2010-06-12T07:13:09Z</time>
      </trkpt>
      <trkpt lat="45.74009" lon="6.01681">
        <ele>689</ele>
        <time>2010-06-12T07:13:11Z</time>
      </trkpt>
      <trkpt lat="45.74014" lon="6.01683">
        <ele>689</ele>
        <time>2010-06-12T07:13:13Z</time>
      </trkpt>
      <trkpt lat="45.74019" lon="6.01684">
        <ele>689</ele>
        <time>2010-06-12T07:13:15Z</time>
      </trkpt>
      <trkpt lat="45.74024" lon="6.01685">
        <ele>688</ele>
        <time>2010-06-12T07:13:17Z</time>
      </trkpt>
      <trkpt lat="45.74028" lon="6.01688">
        <ele>686</ele>
        <time>2010-06-12T07:13:19Z</time>
      </trkpt>
      <trkpt lat="45.74032" lon="6.0169">
        <ele>684</ele>
        <time>2010-06-12T07:13:21Z</time>
      </trkpt>
      <trkpt lat="45.74037" lon="6.01692">
        <ele>684</ele>
        <time>2010-06-12T07:13:23Z</time>
      </trkpt>
      <trkpt lat="45.74042" lon="6.01694">
        <ele>684</ele>
        <time>2010-06-12T07:13:25Z</time>
      </trkpt>
      <trkpt lat="45.74047" lon="6.01697">
        <ele>684</ele>
        <time>2010-06-12T07:13:27Z</time>
      </trkpt>
      <trkpt lat="45.74053" lon="6.017">
        <ele>684</ele>
        <time>2010-06-12T07:13:29Z</time>
      </trkpt>
      <trkpt lat="45.7406" lon="6.01702">
        <ele>684</ele>
        <time>2010-06-12T07:13:31Z</time>
      </trkpt>
      <trkpt lat="45.74068" lon="6.01703">
        <ele>684</ele>
        <time>2010-06-12T07:13:33Z</time>
      </trkpt>
      <trkpt lat="45.74076" lon="6.01707">
        <ele>684</ele>
        <time>2010-06-12T07:13:35Z</time>
      </trkpt>
      <trkpt lat="45.74085" lon="6.01714">
        <ele>683</ele>
        <time>2010-06-12T07:13:37Z</time>
      </trkpt>
      <trkpt lat="45.74093" lon="6.01721">
        <ele>682</ele>
        <time>2010-06-12T07:13:39Z</time>
      </trkpt>
      <trkpt lat="45.74102" lon="6.01727">
        <ele>681</ele>
        <time>2010-06-12T07:13:41Z</time>
      </trkpt>
      <trkpt lat="45.74112" lon="6.01732">
        <ele>680</ele>
        <time>2010-06-12T07:13:43Z</time>
      </trkpt>
      <trkpt lat="45.74125" lon="6.01733">
        <ele>679</ele>
        <time>2010-06-12T07:13:45Z</time>
      </trkpt>
      <trkpt lat="45.74138" lon="6.01732">
        <ele>679</ele>
        <time>2010-06-12T07:13:47Z</time>
      </trkpt>
      <trkpt lat="45.74152" lon="6.01733">
        <ele>679</ele>
        <time>2010-06-12T07:13:49Z</time>
      </trkpt>
      <trkpt lat="45.74165" lon="6.01736">
        <ele>678</ele>
        <time>2010-06-12T07:13:51Z</time>
      </trkpt>
      <trkpt lat="45.74179" lon="6.01741">
        <ele>677</ele>
        <time>2010-06-12T07:13:53Z</time>
      </trkpt>
      <trkpt lat="45.74193" lon="6.01746">
        <ele>677</ele>
        <time>2010-06-12T07:13:55Z</time>
      </trkpt>
      <trkpt lat="45.74206" lon="6.01753">
        <ele>676</ele>
        <time>2010-06-12T07:13:57Z</time>
      </trkpt>
      <trkpt lat="45.74219" lon="6.01761">
        <ele>675</ele>
        <time>2010-06-12T07:13:59Z</time>
      </trkpt>
      <trkpt lat="45.74232" lon="6.01769">
        <ele>674</ele>
        <time>2010-06-12T07:14:01Z</time>
      </trkpt>
      <trkpt lat="45.74245" lon="6.01776">
        <ele>673</ele>
        <time>2010-06-12T07:14:03Z</time>
      </trkpt>
      <trkpt lat="45.74259" lon="6.01781">
        <ele>673</ele>
        <time>2010-06-12T07:14:05Z</time>
      </trkpt>
      <trkpt lat="45.74273" lon="6.01781">
        <ele>672</ele>
        <time>2010-06-12T07:14:07Z</time>
      </trkpt>
      <trkpt lat="45.74288" lon="6.01777">
        <ele>672</ele>
        <time>2010-06-12T07:14:09Z</time>
      </trkpt>
      <trkpt lat="45.74303" lon="6.01773">
        <ele>672</ele>
        <time>2010-06-12T07:14:11Z</time>
      </trkpt>
      <trkpt lat="45.74321" lon="6.0177">
        <ele>672</ele>
        <time>2010-06-12T07:14:13Z</time>
      </trkpt>
      <trkpt lat="45.74339" lon="6.0177">
        <ele>672</ele>
        <time>2010-06-12T07:14:15Z</time>
      </trkpt>
      <trkpt lat="45.74356" lon="6.01774">
        <ele>672</ele>
        <time>2010-06-12T07:14:17Z</time>
      </trkpt>
      <trkpt lat="45.7437" lon="6.01785">
        <ele>672</ele>
        <time>2010-06-12T07:14:19Z</time>
      </trkpt>
      <trkpt lat="45.74379" lon="6.01796">
        <ele>672</ele>
        <time>2010-06-12T07:14:21Z</time>
      </trkpt>
      <trkpt lat="45.7439" lon="6.01803">
        <ele>671</ele>
        <time>2010-06-12T07:14:23Z</time>
      </trkpt>
      <trkpt lat="45.74399" lon="6.01803">
        <ele>671</ele>
        <time>2010-06-12T07:14:25Z</time>
      </trkpt>
      <trkpt lat="45.74407" lon="6.01802">
        <ele>671</ele>
        <time>2010-06-12T07:14:27Z</time>
      </trkpt>
      <trkpt lat="45.74415" lon="6.018">
        <ele>671</ele>
        <time>2010-06-12T07:14:29Z</time>
      </trkpt>
      <trkpt lat="45.74424" lon="6.01797">
        <ele>671</ele>
        <time>2010-06-12T07:14:31Z</time>
      </trkpt>
      <trkpt lat="45.74432" lon="6.01794">
        <ele>671</ele>
        <time>2010-06-12T07:14:33Z</time>
      </trkpt>
      <trkpt lat="45.74438" lon="6.01794">
        <ele>670</ele>
        <time>2010-06-12T07:14:35Z</time>
      </trkpt>
      <trkpt lat="45.74444" lon="6.01793">
        <ele>670</ele>
        <time>2010-06-12T07:14:37Z</time>
      </trkpt>
      <trkpt lat="45.7445" lon="6.01793">
        <ele>670</ele>
        <time>2010-06-12T07:14:39Z</time>
      </trkpt>
      <trkpt lat="45.74456" lon="6.01792">
        <ele>670</ele>
        <time>2010-06-12T07:14:41Z</time>
      </trkpt>
      <trkpt lat="45.74462" lon="6.01791">
        <ele>670</ele>
        <time>2010-06-12T07:14:43Z</time>
      </trkpt>
      <trkpt lat="45.74467" lon="6.01793">
        <ele>670</ele>
        <time>2010-06-12T07:14:45Z</time>
      </trkpt>
      <trkpt lat="45.74472" lon="6.01793">
        <ele>670</ele>
        <time>2010-06-12T07:14:47Z</time>
      </trkpt>
      <trkpt lat="45.74478" lon="6.01793">
        <ele>670</ele>
        <time>2010-06-12T07:14:49Z</time>
      </trkpt>
      <trkpt lat="45.74483" lon="6.01793">
        <ele>670</ele>
        <time>2010-06-12T07:14:51Z</time>
      </trkpt>
      <trkpt lat="45.74489" lon="6.01794">
        <ele>670</ele>
        <time>2010-06-12T07:14:53Z</time>
      </trkpt>
      <trkpt lat="45.74495" lon="6.01795">
        <ele>672</ele>
        <time>2010-06-12T07:14:55Z</time>
      </trkpt>
      <trkpt lat="45.74502" lon="6.01795">
        <ele>673</ele>
        <time>2010-06-12T07:14:57Z</time>
      </trkpt>
      <trkpt lat="45.7451" lon="6.01798">
        <ele>673</ele>
        <time>2010-06-12T07:14:59Z</time>
      </trkpt>
      <trkpt lat="45.74519" lon="6.018">
        <ele>673</ele>
        <time>2010-06-12T07:15:01Z</time>
      </trkpt>
      <trkpt lat="45.74528" lon="6.01801">
        <ele>673</ele>
        <time>2010-06-12T07:15:03Z</time>
      </trkpt>
      <trkpt lat="45.74537" lon="6.01801">
        <ele>673</ele>
        <time>2010-06-12T07:15:05Z</time>
      </trkpt>
      <trkpt lat="45.74545" lon="6.018">
        <ele>673</ele>
        <time>2010-06-12T07:15:07Z</time>
      </trkpt>
      <trkpt lat="45.74551" lon="6.01799">
        <ele>673</ele>
        <time>2010-06-12T07:15:09Z</time>
      </trkpt>
      <trkpt lat="45.74558" lon="6.01799">
        <ele>673</ele>
        <time>2010-06-12T07:15:11Z</time>
      </trkpt>
      <trkpt lat="45.74564" lon="6.01799">
        <ele>673</ele>
        <time>2010-06-12T07:15:13Z</time>
      </trkpt>
      <trkpt lat="45.74571" lon="6.01798">
        <ele>673</ele>
        <time>2010-06-12T07:15:15Z</time>
      </trkpt>
      <trkpt lat="45.74578" lon="6.01798">
        <ele>673</ele>
        <time>2010-06-12T07:15:17Z</time>
      </trkpt>
      <trkpt lat="45.74585" lon="6.01797">
        <ele>673</ele>
        <time>2010-06-12T07:15:19Z</time>
      </trkpt>
      <trkpt lat="45.74591" lon="6.01796">
        <ele>673</ele>
        <time>2010-06-12T07:15:21Z</time>
      </trkpt>
      <trkpt lat="45.74597" lon="6.01795">
        <ele>673</ele>
        <time>2010-06-12T07:15:23Z</time>
      </trkpt>
      <trkpt lat="45.74602" lon="6.01794">
        <ele>673</ele>
        <time>2010-06-12T07:15:25Z</time>
      </trkpt>
      <trkpt lat="45.74607" lon="6.01793">
        <ele>673</ele>
        <time>2010-06-12T07:15:27Z</time>
      </trkpt>
      <trkpt lat="45.74613" lon="6.01792">
        <ele>673</ele>
        <time>2010-06-12T07:15:29Z</time>
      </trkpt>
      <trkpt lat="45.74618" lon="6.01791">
        <ele>673</ele>
        <time>2010-06-12T07:15:31Z</time>
      </trkpt>
      <trkpt lat="45.74622" lon="6.0179">
        <ele>673</ele>
        <time>2010-06-12T07:15:33Z</time>
      </trkpt>
      <trkpt lat="45.74628" lon="6.01789">
        <ele>673</ele>
        <time>2010-06-12T07:15:35Z</time>
      </trkpt>
      <trkpt lat="45.74636" lon="6.01791">
        <ele>673</ele>
        <time>2010-06-12T07:15:37Z</time>
      </trkpt>
      <trkpt lat="45.74643" lon="6.01797">
        <ele>673</ele>
        <time>2010-06-12T07:15:39Z</time>
      </trkpt>
      <trkpt lat="45.74651" lon="6.01807">
        <ele>673</ele>
        <time>2010-06-12T07:15:41Z</time>
      </trkpt>
      <trkpt lat="45.74658" lon="6.01818">
        <ele>673</ele>
        <time>2010-06-12T07:15:43Z</time>
      </trkpt>
      <trkpt lat="45.74664" lon="6.01828">
        <ele>673</ele>
        <time>2010-06-12T07:15:45Z</time>
      </trkpt>
      <trkpt lat="45.7467" lon="6.01836">
        <ele>673</ele>
        <time>2010-06-12T07:15:47Z</time>
      </trkpt>
      <trkpt lat="45.74675" lon="6.01844">
        <ele>673</ele>
        <time>2010-06-12T07:15:49Z</time>
      </trkpt>
      <trkpt lat="45.7468" lon="6.01852">
        <ele>673</ele>
        <time>2010-06-12T07:15:51Z</time>
      </trkpt>
      <trkpt lat="45.74686" lon="6.0186">
        <ele>673</ele>
        <time>2010-06-12T07:15:53Z</time>
      </trkpt>
      <trkpt lat="45.74692" lon="6.01867">
        <ele>673</ele>
        <time>2010-06-12T07:15:55Z</time>
      </trkpt>
      <trkpt lat="45.74697" lon="6.01874">
        <ele>673</ele>
        <time>2010-06-12T07:15:57Z</time>
      </trkpt>
      <trkpt lat="45.74702" lon="6.0188">
        <ele>673</ele>
        <time>2010-06-12T07:15:59Z</time>
      </trkpt>
      <trkpt lat="45.74706" lon="6.01885">
        <ele>673</ele>
        <time>2010-06-12T07:16:01Z</time>
      </trkpt>
      <trkpt lat="45.7471" lon="6.01892">
        <ele>673</ele>
        <time>2010-06-12T07:16:03Z</time>
      </trkpt>
      <trkpt lat="45.74714" lon="6.01897">
        <ele>673</ele>
        <time>2010-06-12T07:16:05Z</time>
      </trkpt>
      <trkpt lat="45.74717" lon="6.01902">
        <ele>673</ele>
        <time>2010-06-12T07:16:07Z</time>
      </trkpt>
      <trkpt lat="45.7472" lon="6.01905">
        <ele>673</ele>
        <time>2010-06-12T07:16:09Z</time>
      </trkpt>
      <trkpt lat="45.74724" lon="6.01909">
        <ele>673</ele>
        <time>2010-06-12T07:16:12Z</time>
      </trkpt>
      <trkpt lat="45.74728" lon="6.01914">
        <ele>673</ele>
        <time>2010-06-12T07:16:14Z</time>
      </trkpt>
      <trkpt lat="45.74731" lon="6.01923">
        <ele>674</ele>
        <time>2010-06-12T07:16:16Z</time>
      </trkpt>
      <trkpt lat="45.74732" lon="6.01934">
        <ele>674</ele>
        <time>2010-06-12T07:16:18Z</time>
      </trkpt>
      <trkpt lat="45.74733" lon="6.01946">
        <ele>674</ele>
        <time>2010-06-12T07:16:20Z</time>
      </trkpt>
      <trkpt lat="45.74733" lon="6.01959">
        <ele>675</ele>
        <time>2010-06-12T07:16:22Z</time>
      </trkpt>
      <trkpt lat="45.74737" lon="6.01971">
        <ele>677</ele>
        <time>2010-06-12T07:16:24Z</time>
      </trkpt>
      <trkpt lat="45.74741" lon="6.01985">
        <ele>677</ele>
        <time>2010-06-12T07:16:26Z</time>
      </trkpt>
      <trkpt lat="45.74744" lon="6.01999">
        <ele>677</ele>
        <time>2010-06-12T07:16:28Z</time>
      </trkpt>
      <trkpt lat="45.74747" lon="6.02014">
        <ele>677</ele>
        <time>2010-06-12T07:16:30Z</time>
      </trkpt>
      <trkpt lat="45.74747" lon="6.02032">
        <ele>677</ele>
        <time>2010-06-12T07:16:32Z</time>
      </trkpt>
      <trkpt lat="45.74748" lon="6.02049">
        <ele>677</ele>
        <time>2010-06-12T07:16:34Z</time>
      </trkpt>
      <trkpt lat="45.74751" lon="6.02061">
        <ele>677</ele>
        <time>2010-06-12T07:16:36Z</time>
      </trkpt>
      <trkpt lat="45.74751" lon="6.02076">
        <ele>677</ele>
        <time>2010-06-12T07:16:38Z</time>
      </trkpt>
      <trkpt lat="45.74753" lon="6.02092">
        <ele>677</ele>
        <time>2010-06-12T07:16:40Z</time>
      </trkpt>
      <trkpt lat="45.74753" lon="6.02104">
        <ele>677</ele>
        <time>2010-06-12T07:16:42Z</time>
      </trkpt>
      <trkpt lat="45.74753" lon="6.02113">
        <ele>678</ele>
        <time>2010-06-12T07:16:44Z</time>
      </trkpt>
      <trkpt lat="45.74754" lon="6.02118">
        <ele>678</ele>
        <time>2010-06-12T07:16:46Z</time>
      </trkpt>
      <trkpt lat="45.74755" lon="6.02125">
        <ele>679</ele>
        <time>2010-06-12T07:16:48Z</time>
      </trkpt>
      <trkpt lat="45.74756" lon="6.0213">
        <ele>679</ele>
        <time>2010-06-12T07:16:50Z</time>
      </trkpt>
      <trkpt lat="45.74756" lon="6.02135">
        <ele>679</ele>
        <time>2010-06-12T07:16:53Z</time>
      </trkpt>
      <trkpt lat="45.74756" lon="6.0214">
        <ele>679</ele>
        <time>2010-06-12T07:16:55Z</time>
      </trkpt>
      <trkpt lat="45.74757" lon="6.02143">
        <ele>679</ele>
        <time>2010-06-12T07:16:57Z</time>
      </trkpt>
      <trkpt lat="45.74758" lon="6.02149">
        <ele>679</ele>
        <time>2010-06-12T07:17:00Z</time>
      </trkpt>
      <trkpt lat="45.74759" lon="6.02155">
        <ele>679</ele>
        <time>2010-06-12T07:17:02Z</time>
      </trkpt>
      <trkpt lat="45.7476" lon="6.0216">
        <ele>679</ele>
        <time>2010-06-12T07:17:04Z</time>
      </trkpt>
      <trkpt lat="45.74761" lon="6.02164">
        <ele>679</ele>
        <time>2010-06-12T07:17:06Z</time>
      </trkpt>
      <trkpt lat="45.74761" lon="6.02168">
        <ele>679</ele>
        <time>2010-06-12T07:17:08Z</time>
      </trkpt>
      <trkpt lat="45.74761" lon="6.02172">
        <ele>679</ele>
        <time>2010-06-12T07:17:10Z</time>
      </trkpt>
      <trkpt lat="45.74759" lon="6.02175">
        <ele>679</ele>
        <time>2010-06-12T07:17:12Z</time>
      </trkpt>
      <trkpt lat="45.74759" lon="6.02179">
        <ele>679</ele>
        <time>2010-06-12T07:17:14Z</time>
      </trkpt>
      <trkpt lat="45.74758" lon="6.02183">
        <ele>679</ele>
        <time>2010-06-12T07:17:16Z</time>
      </trkpt>
      <trkpt lat="45.74758" lon="6.02186">
        <ele>680</ele>
        <time>2010-06-12T07:17:18Z</time>
      </trkpt>
      <trkpt lat="45.74758" lon="6.0219">
        <ele>680</ele>
        <time>2010-06-12T07:17:21Z</time>
      </trkpt>
      <trkpt lat="45.74759" lon="6.02195">
        <ele>680</ele>
        <time>2010-06-12T07:17:23Z</time>
      </trkpt>
      <trkpt lat="45.74758" lon="6.02197">
        <ele>681</ele>
        <time>2010-06-12T07:17:25Z</time>
      </trkpt>
      <trkpt lat="45.7476" lon="6.02203">
        <ele>682</ele>
        <time>2010-06-12T07:17:27Z</time>
      </trkpt>
      <trkpt lat="45.74762" lon="6.02209">
        <ele>684</ele>
        <time>2010-06-12T07:17:29Z</time>
      </trkpt>
      <trkpt lat="45.74764" lon="6.02214">
        <ele>686</ele>
        <time>2010-06-12T07:17:31Z</time>
      </trkpt>
      <trkpt lat="45.74765" lon="6.02217">
        <ele>687</ele>
        <time>2010-06-12T07:17:33Z</time>
      </trkpt>
      <trkpt lat="45.74766" lon="6.02221">
        <ele>687</ele>
        <time>2010-06-12T07:17:35Z</time>
      </trkpt>
      <trkpt lat="45.74769" lon="6.02224">
        <ele>687</ele>
        <time>2010-06-12T07:17:37Z</time>
      </trkpt>
      <trkpt lat="45.7477" lon="6.02228">
        <ele>687</ele>
        <time>2010-06-12T07:17:39Z</time>
      </trkpt>
      <trkpt lat="45.74771" lon="6.02232">
        <ele>687</ele>
        <time>2010-06-12T07:17:41Z</time>
      </trkpt>
      <trkpt lat="45.74772" lon="6.02236">
        <ele>687</ele>
        <time>2010-06-12T07:17:43Z</time>
      </trkpt>
      <trkpt lat="45.74774" lon="6.0224">
        <ele>687</ele>
        <time>2010-06-12T07:17:45Z</time>
      </trkpt>
      <trkpt lat="45.74774" lon="6.02242">
        <ele>687</ele>
        <time>2010-06-12T07:17:47Z</time>
      </trkpt>
      <trkpt lat="45.74775" lon="6.02245">
        <ele>687</ele>
        <time>2010-06-12T07:17:49Z</time>
      </trkpt>
      <trkpt lat="45.74777" lon="6.02247">
        <ele>687</ele>
        <time>2010-06-12T07:17:51Z</time>
      </trkpt>
      <trkpt lat="45.74779" lon="6.02249">
        <ele>687</ele>
        <time>2010-06-12T07:17:53Z</time>
      </trkpt>
      <trkpt lat="45.74782" lon="6.02251">
        <ele>687</ele>
        <time>2010-06-12T07:17:56Z</time>
      </trkpt>
      <trkpt lat="45.74785" lon="6.02252">
        <ele>686</ele>
        <time>2010-06-12T07:17:58Z</time>
      </trkpt>
      <trkpt lat="45.74786" lon="6.02253">
        <ele>685</ele>
        <time>2010-06-12T07:18:00Z</time>
      </trkpt>
      <trkpt lat="45.74789" lon="6.02254">
        <ele>685</ele>
        <time>2010-06-12T07:18:02Z</time>
      </trkpt>
      <trkpt lat="45.7479" lon="6.02255">
        <ele>685</ele>
        <time>2010-06-12T07:18:04Z</time>
      </trkpt>
      <trkpt lat="45.74794" lon="6.02257">
        <ele>685</ele>
        <time>2010-06-12T07:18:06Z</time>
      </trkpt>
      <trkpt lat="45.74798" lon="6.02259">
        <ele>685</ele>
        <time>2010-06-12T07:18:08Z</time>
      </trkpt>
      <trkpt lat="45.748" lon="6.02261">
        <ele>685</ele>
        <time>2010-06-12T07:18:10Z</time>
      </trkpt>
      <trkpt lat="45.74803" lon="6.02262">
        <ele>685</ele>
        <time>2010-06-12T07:18:12Z</time>
      </trkpt>
      <trkpt lat="45.74806" lon="6.02263">
        <ele>685</ele>
        <time>2010-06-12T07:18:14Z</time>
      </trkpt>
      <trkpt lat="45.7481" lon="6.02264">
        <ele>685</ele>
        <time>2010-06-12T07:18:16Z</time>
      </trkpt>
      <trkpt lat="45.74812" lon="6.02266">
        <ele>685</ele>
        <time>2010-06-12T07:18:18Z</time>
      </trkpt>
      <trkpt lat="45.74815" lon="6.02269">
        <ele>685</ele>
        <time>2010-06-12T07:18:21Z</time>
      </trkpt>
      <trkpt lat="45.74818" lon="6.02271">
        <ele>685</ele>
        <time>2010-06-12T07:18:23Z</time>
      </trkpt>
      <trkpt lat="45.74821" lon="6.02273">
        <ele>685</ele>
        <time>2010-06-12T07:18:25Z</time>
      </trkpt>
      <trkpt lat="45.74824" lon="6.02275">
        <ele>685</ele>
        <time>2010-06-12T07:18:27Z</time>
      </trkpt>
      <trkpt lat="45.74826" lon="6.02279">
        <ele>685</ele>
        <time>2010-06-12T07:18:29Z</time>
      </trkpt>
      <trkpt lat="45.74827" lon="6.02282">
        <ele>685</ele>
        <time>2010-06-12T07:18:31Z</time>
      </trkpt>
      <trkpt lat="45.74829" lon="6.02285">
        <ele>685</ele>
        <time>2010-06-12T07:18:33Z</time>
      </trkpt>
      <trkpt lat="45.7483" lon="6.0229">
        <ele>685</ele>
        <time>2010-06-12T07:18:35Z</time>
      </trkpt>
      <trkpt lat="45.74831" lon="6.02295">
        <ele>685</ele>
        <time>2010-06-12T07:18:37Z</time>
      </trkpt>
      <trkpt lat="45.74832" lon="6.02299">
        <ele>685</ele>
        <time>2010-06-12T07:18:39Z</time>
      </trkpt>
      <trkpt lat="45.74834" lon="6.02305">
        <ele>685</ele>
        <time>2010-06-12T07:18:41Z</time>
      </trkpt>
      <trkpt lat="45.74834" lon="6.0231">
        <ele>685</ele>
        <time>2010-06-12T07:18:43Z</time>
      </trkpt>
      <trkpt lat="45.74836" lon="6.02313">
        <ele>685</ele>
        <time>2010-06-12T07:18:45Z</time>
      </trkpt>
      <trkpt lat="45.74838" lon="6.02317">
        <ele>685</ele>
        <time>2010-06-12T07:18:47Z</time>
      </trkpt>
      <trkpt lat="45.7484" lon="6.0232">
        <ele>685</ele>
        <time>2010-06-12T07:18:49Z</time>
      </trkpt>
      <trkpt lat="45.74842" lon="6.02325">
        <ele>685</ele>
        <time>2010-06-12T07:18:52Z</time>
      </trkpt>
      <trkpt lat="45.74844" lon="6.02329">
        <ele>685</ele>
        <time>2010-06-12T07:18:54Z</time>
      </trkpt>
      <trkpt lat="45.74846" lon="6.02332">
        <ele>685</ele>
        <time>2010-06-12T07:18:57Z</time>
      </trkpt>
      <trkpt lat="45.74849" lon="6.02335">
        <ele>685</ele>
        <time>2010-06-12T07:18:59Z</time>
      </trkpt>
      <trkpt lat="45.7485" lon="6.02337">
        <ele>685</ele>
        <time>2010-06-12T07:19:01Z</time>
      </trkpt>
      <trkpt lat="45.74852" lon="6.02338">
        <ele>685</ele>
        <time>2010-06-12T07:19:03Z</time>
      </trkpt>
      <trkpt lat="45.74855" lon="6.02341">
        <ele>685</ele>
        <time>2010-06-12T07:19:05Z</time>
      </trkpt>
      <trkpt lat="45.74857" lon="6.02344">
        <ele>685</ele>
        <time>2010-06-12T07:19:07Z</time>
      </trkpt>
      <trkpt lat="45.74859" lon="6.02346">
        <ele>685</ele>
        <time>2010-06-12T07:19:09Z</time>
      </trkpt>
      <trkpt lat="45.7486" lon="6.02348">
        <ele>685</ele>
        <time>2010-06-12T07:19:11Z</time>
      </trkpt>
      <trkpt lat="45.74863" lon="6.02352">
        <ele>686</ele>
        <time>2010-06-12T07:19:14Z</time>
      </trkpt>
      <trkpt lat="45.74865" lon="6.02353">
        <ele>687</ele>
        <time>2010-06-12T07:19:16Z</time>
      </trkpt>
      <trkpt lat="45.74868" lon="6.02353">
        <ele>688</ele>
        <time>2010-06-12T07:19:18Z</time>
      </trkpt>
      <trkpt lat="45.74871" lon="6.02354">
        <ele>689</ele>
        <time>2010-06-12T07:19:20Z</time>
      </trkpt>
      <trkpt lat="45.74875" lon="6.02355">
        <ele>690</ele>
        <time>2010-06-12T07:19:23Z</time>
      </trkpt>
      <trkpt lat="45.74878" lon="6.02356">
        <ele>691</ele>
        <time>2010-06-12T07:19:25Z</time>
      </trkpt>
      <trkpt lat="45.74881" lon="6.02358">
        <ele>692</ele>
        <time>2010-06-12T07:19:27Z</time>
      </trkpt>
      <trkpt lat="45.74884" lon="6.02361">
        <ele>693</ele>
        <time>2010-06-12T07:19:30Z</time>
      </trkpt>
      <trkpt lat="45.74886" lon="6.02364">
        <ele>694</ele>
        <time>2010-06-12T07:19:32Z</time>
      </trkpt>
      <trkpt lat="45.74889" lon="6.02368">
        <ele>695</ele>
        <time>2010-06-12T07:19:34Z</time>
      </trkpt>
      <trkpt lat="45.74892" lon="6.02371">
        <ele>695</ele>
        <time>2010-06-12T07:19:36Z</time>
      </trkpt>
      <trkpt lat="45.74895" lon="6.02374">
        <ele>695</ele>
        <time>2010-06-12T07:19:38Z</time>
      </trkpt>
      <trkpt lat="45.74898" lon="6.02379">
        <ele>695</ele>
        <time>2010-06-12T07:19:40Z</time>
      </trkpt>
      <trkpt lat="45.749" lon="6.02382">
        <ele>697</ele>
        <time>2010-06-12T07:19:42Z</time>
      </trkpt>
      <trkpt lat="45.74902" lon="6.02385">
        <ele>698</ele>
        <time>2010-06-12T07:19:44Z</time>
      </trkpt>
      <trkpt lat="45.74904" lon="6.02389">
        <ele>700</ele>
        <time>2010-06-12T07:19:46Z</time>
      </trkpt>
      <trkpt lat="45.74906" lon="6.02391">
        <ele>702</ele>
        <time>2010-06-12T07:19:48Z</time>
      </trkpt>
      <trkpt lat="45.74908" lon="6.02395">
        <ele>703</ele>
        <time>2010-06-12T07:19:50Z</time>
      </trkpt>
      <trkpt lat="45.74911" lon="6.024">
        <ele>704</ele>
        <time>2010-06-12T07:19:52Z</time>
      </trkpt>
      <trkpt lat="45.74915" lon="6.02404">
        <ele>704</ele>
        <time>2010-06-12T07:19:54Z</time>
      </trkpt>
      <trkpt lat="45.74917" lon="6.0241">
        <ele>704</ele>
        <time>2010-06-12T07:19:56Z</time>
      </trkpt>
      <trkpt lat="45.74919" lon="6.02413">
        <ele>704</ele>
        <time>2010-06-12T07:19:58Z</time>
      </trkpt>
      <trkpt lat="45.7492" lon="6.02416">
        <ele>704</ele>
        <time>2010-06-12T07:20:00Z</time>
      </trkpt>
      <trkpt lat="45.74922" lon="6.0242">
        <ele>704</ele>
        <time>2010-06-12T07:20:02Z</time>
      </trkpt>
      <trkpt lat="45.74925" lon="6.02422">
        <ele>704</ele>
        <time>2010-06-12T07:20:04Z</time>
      </trkpt>
      <trkpt lat="45.74926" lon="6.02424">
        <ele>704</ele>
        <time>2010-06-12T07:20:06Z</time>
      </trkpt>
      <trkpt lat="45.74929" lon="6.02428">
        <ele>704</ele>
        <time>2010-06-12T07:20:08Z</time>
      </trkpt>
      <trkpt lat="45.74929" lon="6.02432">
        <ele>704</ele>
        <time>2010-06-12T07:20:10Z</time>
      </trkpt>
      <trkpt lat="45.74929" lon="6.02435">
        <ele>704</ele>
        <time>2010-06-12T07:20:12Z</time>
      </trkpt>
      <trkpt lat="45.74931" lon="6.0244">
        <ele>705</ele>
        <time>2010-06-12T07:20:14Z</time>
      </trkpt>
      <trkpt lat="45.74932" lon="6.02446">
        <ele>706</ele>
        <time>2010-06-12T07:20:16Z</time>
      </trkpt>
      <trkpt lat="45.74933" lon="6.02452">
        <ele>707</ele>
        <time>2010-06-12T07:20:18Z</time>
      </trkpt>
      <trkpt lat="45.74934" lon="6.02458">
        <ele>707</ele>
        <time>2010-06-12T07:20:20Z</time>
      </trkpt>
      <trkpt lat="45.74936" lon="6.02462">
        <ele>708</ele>
        <time>2010-06-12T07:20:22Z</time>
      </trkpt>
      <trkpt lat="45.74936" lon="6.02465">
        <ele>708</ele>
        <time>2010-06-12T07:20:24Z</time>
      </trkpt>
      <trkpt lat="45.74939" lon="6.02471">
        <ele>708</ele>
        <time>2010-06-12T07:20:26Z</time>
      </trkpt>
      <trkpt lat="45.74939" lon="6.02475">
        <ele>708</ele>
        <time>2010-06-12T07:20:28Z</time>
      </trkpt>
      <trkpt lat="45.7494" lon="6.02479">
        <ele>708</ele>
        <time>2010-06-12T07:20:30Z</time>
      </trkpt>
      <trkpt lat="45.7494" lon="6.02482">
        <ele>708</ele>
        <time>2010-06-12T07:20:32Z</time>
      </trkpt>
      <trkpt lat="45.7494" lon="6.02488">
        <ele>708</ele>
        <time>2010-06-12T07:20:34Z</time>
      </trkpt>
      <trkpt lat="45.74942" lon="6.0249">
        <ele>708</ele>
        <time>2010-06-12T07:20:36Z</time>
      </trkpt>
      <trkpt lat="45.74946" lon="6.02493">
        <ele>708</ele>
        <time>2010-06-12T07:20:39Z</time>
      </trkpt>
      <trkpt lat="45.7495" lon="6.02496">
        <ele>708</ele>
        <time>2010-06-12T07:20:42Z</time>
      </trkpt>
      <trkpt lat="45.74953" lon="6.02497">
        <ele>708</ele>
        <time>2010-06-12T07:20:44Z</time>
      </trkpt>
      <trkpt lat="45.74957" lon="6.02499">
        <ele>708</ele>
        <time>2010-06-12T07:20:46Z</time>
      </trkpt>
      <trkpt lat="45.7496" lon="6.02502">
        <ele>709</ele>
        <time>2010-06-12T07:20:49Z</time>
      </trkpt>
      <trkpt lat="45.74962" lon="6.02503">
        <ele>711</ele>
        <time>2010-06-12T07:20:51Z</time>
      </trkpt>
      <trkpt lat="45.74963" lon="6.02505">
        <ele>714</ele>
        <time>2010-06-12T07:20:55Z</time>
      </trkpt>
      <trkpt lat="45.74964" lon="6.02506">
        <ele>716</ele>
        <time>2010-06-12T07:20:57Z</time>
      </trkpt>
      <trkpt lat="45.74966" lon="6.02511">
        <ele>719</ele>
        <time>2010-06-12T07:21:00Z</time>
      </trkpt>
      <trkpt lat="45.74966" lon="6.02513">
        <ele>721</ele>
        <time>2010-06-12T07:21:02Z</time>
      </trkpt>
      <trkpt lat="45.74967" lon="6.02514">
        <ele>724</ele>
        <time>2010-06-12T07:21:05Z</time>
      </trkpt>
      <trkpt lat="45.74968" lon="6.02517">
        <ele>726</ele>
        <time>2010-06-12T07:21:07Z</time>
      </trkpt>
      <trkpt lat="45.74969" lon="6.02519">
        <ele>727</ele>
        <time>2010-06-12T07:21:11Z</time>
      </trkpt>
      <trkpt lat="45.74972" lon="6.02522">
        <ele>728</ele>
        <time>2010-06-12T07:21:13Z</time>
      </trkpt>
      <trkpt lat="45.74974" lon="6.02524">
        <ele>728</ele>
        <time>2010-06-12T07:21:15Z</time>
      </trkpt>
      <trkpt lat="45.74977" lon="6.02526">
        <ele>728</ele>
        <time>2010-06-12T07:21:17Z</time>
      </trkpt>
      <trkpt lat="45.74979" lon="6.02526">
        <ele>726</ele>
        <time>2010-06-12T07:21:19Z</time>
      </trkpt>
      <trkpt lat="45.74978" lon="6.02524">
        <ele>723</ele>
        <time>2010-06-12T07:21:22Z</time>
      </trkpt>
      <trkpt lat="45.74978" lon="6.02522">
        <ele>721</ele>
        <time>2010-06-12T07:21:24Z</time>
      </trkpt>
      <trkpt lat="45.74978" lon="6.0252">
        <ele>718</ele>
        <time>2010-06-12T07:21:27Z</time>
      </trkpt>
      <trkpt lat="45.74977" lon="6.02519">
        <ele>715</ele>
        <time>2010-06-12T07:21:30Z</time>
      </trkpt>
      <trkpt lat="45.74977" lon="6.02517">
        <ele>711</ele>
        <time>2010-06-12T07:21:35Z</time>
      </trkpt>
      <trkpt lat="45.74979" lon="6.0252">
        <ele>709</ele>
        <time>2010-06-12T07:21:41Z</time>
      </trkpt>
      <trkpt lat="45.7498" lon="6.02523">
        <ele>709</ele>
        <time>2010-06-12T07:21:43Z</time>
      </trkpt>
      <trkpt lat="45.74981" lon="6.02526">
        <ele>709</ele>
        <time>2010-06-12T07:21:45Z</time>
      </trkpt>
      <trkpt lat="45.74978" lon="6.02524">
        <ele>709</ele>
        <time>2010-06-12T07:21:50Z</time>
      </trkpt>
      <trkpt lat="45.74974" lon="6.02519">
        <ele>711</ele>
        <time>2010-06-12T07:21:55Z</time>
      </trkpt>
      <trkpt lat="45.74971" lon="6.02517">
        <ele>711</ele>
        <time>2010-06-12T07:21:58Z</time>
      </trkpt>
      <trkpt lat="45.74969" lon="6.02513">
        <ele>711</ele>
        <time>2010-06-12T07:22:00Z</time>
      </trkpt>
      <trkpt lat="45.7497" lon="6.02509">
        <ele>711</ele>
        <time>2010-06-12T07:22:03Z</time>
      </trkpt>
      <trkpt lat="45.74971" lon="6.02506">
        <ele>711</ele>
        <time>2010-06-12T07:22:05Z</time>
      </trkpt>
      <trkpt lat="45.7497" lon="6.02503">
        <ele>711</ele>
        <time>2010-06-12T07:22:08Z</time>
      </trkpt>
      <trkpt lat="45.74971" lon="6.025">
        <ele>711</ele>
        <time>2010-06-12T07:22:13Z</time>
      </trkpt>
      <trkpt lat="45.74973" lon="6.025">
        <ele>711</ele>
        <time>2010-06-12T07:22:15Z</time>
      </trkpt>
      <trkpt lat="45.74973" lon="6.02498">
        <ele>711</ele>
        <time>2010-06-12T07:22:17Z</time>
      </trkpt>
      <trkpt lat="45.74971" lon="6.02496">
        <ele>711</ele>
        <time>2010-06-12T07:22:19Z</time>
      </trkpt>
      <trkpt lat="45.74967" lon="6.02493">
        <ele>711</ele>
        <time>2010-06-12T07:22:22Z</time>
      </trkpt>
      <trkpt lat="45.74966" lon="6.02492">
        <ele>712</ele>
        <time>2010-06-12T07:22:24Z</time>
      </trkpt>
      <trkpt lat="45.74966" lon="6.02494">
        <ele>713</ele>
        <time>2010-06-12T07:22:26Z</time>
      </trkpt>
      <trkpt lat="45.74966" lon="6.02496">
        <ele>714</ele>
        <time>2010-06-12T07:22:28Z</time>
      </trkpt>
      <trkpt lat="45.74965" lon="6.02497">
        <ele>714</ele>
        <time>2010-06-12T07:22:31Z</time>
      </trkpt>
      <trkpt lat="45.74964" lon="6.02498">
        <ele>714</ele>
        <time>2010-06-12T07:22:33Z</time>
      </trkpt>
      <trkpt lat="45.74963" lon="6.02499">
        <ele>714</ele>
        <time>2010-06-12T07:22:35Z</time>
      </trkpt>
      <trkpt lat="45.74964" lon="6.02497">
        <ele>720</ele>
        <time>2010-06-12T07:22:41Z</time>
      </trkpt>
      <trkpt lat="45.74969" lon="6.02496">
        <ele>720</ele>
        <time>2010-06-12T07:22:52Z</time>
      </trkpt>
      <trkpt lat="45.74969" lon="6.02499">
        <ele>720</ele>
        <time>2010-06-12T07:22:54Z</time>
      </trkpt>
      <trkpt lat="45.74969" lon="6.02502">
        <ele>720</ele>
        <time>2010-06-12T07:22:56Z</time>
      </trkpt>
      <trkpt lat="45.74971" lon="6.02508">
        <ele>720</ele>
        <time>2010-06-12T07:22:58Z</time>
      </trkpt>
      <trkpt lat="45.74973" lon="6.0251">
        <ele>720</ele>
        <time>2010-06-12T07:23:00Z</time>
      </trkpt>
      <trkpt lat="45.74974" lon="6.02514">
        <ele>720</ele>
        <time>2010-06-12T07:23:02Z</time>
      </trkpt>
      <trkpt lat="45.74974" lon="6.02515">
        <ele>720</ele>
        <time>2010-06-12T07:23:04Z</time>
      </trkpt>
      <trkpt lat="45.74975" lon="6.02521">
        <ele>721</ele>
        <time>2010-06-12T07:23:06Z</time>
      </trkpt>
      <trkpt lat="45.74978" lon="6.02528">
        <ele>722</ele>
        <time>2010-06-12T07:23:08Z</time>
      </trkpt>
      <trkpt lat="45.7498" lon="6.02533">
        <ele>722</ele>
        <time>2010-06-12T07:23:10Z</time>
      </trkpt>
      <trkpt lat="45.74981" lon="6.02537">
        <ele>722</ele>
        <time>2010-06-12T07:23:12Z</time>
      </trkpt>
      <trkpt lat="45.74983" lon="6.02542">
        <ele>722</ele>
        <time>2010-06-12T07:23:14Z</time>
      </trkpt>
      <trkpt lat="45.74985" lon="6.02547">
        <ele>722</ele>
        <time>2010-06-12T07:23:16Z</time>
      </trkpt>
      <trkpt lat="45.74987" lon="6.02552">
        <ele>722</ele>
        <time>2010-06-12T07:23:18Z</time>
      </trkpt>
      <trkpt lat="45.74989" lon="6.02559">
        <ele>722</ele>
        <time>2010-06-12T07:23:20Z</time>
      </trkpt>
      <trkpt lat="45.74991" lon="6.02565">
        <ele>722</ele>
        <time>2010-06-12T07:23:22Z</time>
      </trkpt>
      <trkpt lat="45.74992" lon="6.02572">
        <ele>721</ele>
        <time>2010-06-12T07:23:24Z</time>
      </trkpt>
      <trkpt lat="45.74992" lon="6.02579">
        <ele>721</ele>
        <time>2010-06-12T07:23:26Z</time>
      </trkpt>
      <trkpt lat="45.7499" lon="6.02585">
        <ele>720</ele>
        <time>2010-06-12T07:23:28Z</time>
      </trkpt>
      <trkpt lat="45.74991" lon="6.02591">
        <ele>720</ele>
        <time>2010-06-12T07:23:30Z</time>
      </trkpt>
      <trkpt lat="45.74989" lon="6.02598">
        <ele>720</ele>
        <time>2010-06-12T07:23:32Z</time>
      </trkpt>
      <trkpt lat="45.74988" lon="6.02604">
        <ele>718</ele>
        <time>2010-06-12T07:23:34Z</time>
      </trkpt>
      <trkpt lat="45.74986" lon="6.02609">
        <ele>716</ele>
        <time>2010-06-12T07:23:36Z</time>
      </trkpt>
      <trkpt lat="45.74986" lon="6.02612">
        <ele>716</ele>
        <time>2010-06-12T07:23:38Z</time>
      </trkpt>
      <trkpt lat="45.74984" lon="6.02615">
        <ele>716</ele>
        <time>2010-06-12T07:23:40Z</time>
      </trkpt>
      <trkpt lat="45.74981" lon="6.02618">
        <ele>716</ele>
        <time>2010-06-12T07:23:42Z</time>
      </trkpt>
      <trkpt lat="45.74978" lon="6.02621">
        <ele>716</ele>
        <time>2010-06-12T07:23:44Z</time>
      </trkpt>
      <trkpt lat="45.74977" lon="6.02625">
        <ele>716</ele>
        <time>2010-06-12T07:23:46Z</time>
      </trkpt>
      <trkpt lat="45.74978" lon="6.02628">
        <ele>716</ele>
        <time>2010-06-12T07:23:48Z</time>
      </trkpt>
      <trkpt lat="45.74978" lon="6.02632">
        <ele>716</ele>
        <time>2010-06-12T07:23:50Z</time>
      </trkpt>
      <trkpt lat="45.74976" lon="6.02636">
        <ele>716</ele>
        <time>2010-06-12T07:23:52Z</time>
      </trkpt>
      <trkpt lat="45.74974" lon="6.02639">
        <ele>716</ele>
        <time>2010-06-12T07:23:54Z</time>
      </trkpt>
      <trkpt lat="45.74971" lon="6.02641">
        <ele>716</ele>
        <time>2010-06-12T07:23:56Z</time>
      </trkpt>
      <trkpt lat="45.74969" lon="6.02644">
        <ele>716</ele>
        <time>2010-06-12T07:23:58Z</time>
      </trkpt>
      <trkpt lat="45.74968" lon="6.02649">
        <ele>716</ele>
        <time>2010-06-12T07:24:00Z</time>
      </trkpt>
      <trkpt lat="45.74968" lon="6.02654">
        <ele>718</ele>
        <time>2010-06-12T07:24:03Z</time>
      </trkpt>
      <trkpt lat="45.74967" lon="6.02659">
        <ele>721</ele>
        <time>2010-06-12T07:24:06Z</time>
      </trkpt>
      <trkpt lat="45.74965" lon="6.02663">
        <ele>722</ele>
        <time>2010-06-12T07:24:08Z</time>
      </trkpt>
      <trkpt lat="45.74965" lon="6.02667">
        <ele>723</ele>
        <time>2010-06-12T07:24:10Z</time>
      </trkpt>
      <trkpt lat="45.74964" lon="6.02671">
        <ele>724</ele>
        <time>2010-06-12T07:24:12Z</time>
      </trkpt>
      <trkpt lat="45.74961" lon="6.02674">
        <ele>724</ele>
        <time>2010-06-12T07:24:15Z</time>
      </trkpt>
      <trkpt lat="45.74959" lon="6.02676">
        <ele>724</ele>
        <time>2010-06-12T07:24:17Z</time>
      </trkpt>
      <trkpt lat="45.74958" lon="6.02677">
        <ele>725</ele>
        <time>2010-06-12T07:24:20Z</time>
      </trkpt>
      <trkpt lat="45.74956" lon="6.02675">
        <ele>726</ele>
        <time>2010-06-12T07:24:25Z</time>
      </trkpt>
      <trkpt lat="45.74955" lon="6.02674">
        <ele>727</ele>
        <time>2010-06-12T07:24:30Z</time>
      </trkpt>
      <trkpt lat="45.74953" lon="6.02674">
        <ele>727</ele>
        <time>2010-06-12T07:24:32Z</time>
      </trkpt>
      <trkpt lat="45.74953" lon="6.02676">
        <ele>727</ele>
        <time>2010-06-12T07:24:34Z</time>
      </trkpt>
      <trkpt lat="45.74951" lon="6.0268">
        <ele>727</ele>
        <time>2010-06-12T07:24:38Z</time>
      </trkpt>
      <trkpt lat="45.74949" lon="6.02679">
        <ele>727</ele>
        <time>2010-06-12T07:24:40Z</time>
      </trkpt>
      <trkpt lat="45.74948" lon="6.02679">
        <ele>727</ele>
        <time>2010-06-12T07:24:45Z</time>
      </trkpt>
      <trkpt lat="45.74947" lon="6.02679">
        <ele>727</ele>
        <time>2010-06-12T07:24:48Z</time>
      </trkpt>
      <trkpt lat="45.74944" lon="6.02679">
        <ele>727</ele>
        <time>2010-06-12T07:24:50Z</time>
      </trkpt>
      <trkpt lat="45.7494" lon="6.02679">
        <ele>727</ele>
        <time>2010-06-12T07:24:53Z</time>
      </trkpt>
      <trkpt lat="45.74937" lon="6.02681">
        <ele>727</ele>
        <time>2010-06-12T07:24:55Z</time>
      </trkpt>
      <trkpt lat="45.74936" lon="6.02682">
        <ele>727</ele>
        <time>2010-06-12T07:24:57Z</time>
      </trkpt>
      <trkpt lat="45.74933" lon="6.02682">
        <ele>727</ele>
        <time>2010-06-12T07:24:59Z</time>
      </trkpt>
      <trkpt lat="45.7493" lon="6.02683">
        <ele>727</ele>
        <time>2010-06-12T07:25:02Z</time>
      </trkpt>
      <trkpt lat="45.74928" lon="6.02685">
        <ele>727</ele>
        <time>2010-06-12T07:25:04Z</time>
      </trkpt>
      <trkpt lat="45.74926" lon="6.02686">
        <ele>727</ele>
        <time>2010-06-12T07:25:07Z</time>
      </trkpt>
      <trkpt lat="45.74925" lon="6.02688">
        <ele>727</ele>
        <time>2010-06-12T07:25:10Z</time>
      </trkpt>
      <trkpt lat="45.74922" lon="6.02692">
        <ele>727</ele>
        <time>2010-06-12T07:25:13Z</time>
      </trkpt>
      <trkpt lat="45.7492" lon="6.02693">
        <ele>727</ele>
        <time>2010-06-12T07:25:15Z</time>
      </trkpt>
      <trkpt lat="45.74917" lon="6.02695">
        <ele>727</ele>
        <time>2010-06-12T07:25:18Z</time>
      </trkpt>
      <trkpt lat="45.74915" lon="6.02696">
        <ele>727</ele>
        <time>2010-06-12T07:25:20Z</time>
      </trkpt>
      <trkpt lat="45.74915" lon="6.02706">
        <ele>727</ele>
        <time>2010-06-12T07:25:25Z</time>
      </trkpt>
      <trkpt lat="45.74916" lon="6.02709">
        <ele>727</ele>
        <time>2010-06-12T07:25:27Z</time>
      </trkpt>
      <trkpt lat="45.74917" lon="6.02712">
        <ele>727</ele>
        <time>2010-06-12T07:25:29Z</time>
      </trkpt>
      <trkpt lat="45.74918" lon="6.02714">
        <ele>727</ele>
        <time>2010-06-12T07:25:31Z</time>
      </trkpt>
      <trkpt lat="45.74918" lon="6.02717">
        <ele>727</ele>
        <time>2010-06-12T07:25:33Z</time>
      </trkpt>
      <trkpt lat="45.74919" lon="6.0272">
        <ele>727</ele>
        <time>2010-06-12T07:25:36Z</time>
      </trkpt>
      <trkpt lat="45.7492" lon="6.02723">
        <ele>727</ele>
        <time>2010-06-12T07:25:39Z</time>
      </trkpt>
      <trkpt lat="45.7492" lon="6.02727">
        <ele>727</ele>
        <time>2010-06-12T07:25:41Z</time>
      </trkpt>
      <trkpt lat="45.74919" lon="6.02731">
        <ele>727</ele>
        <time>2010-06-12T07:25:43Z</time>
      </trkpt>
      <trkpt lat="45.74919" lon="6.02737">
        <ele>727</ele>
        <time>2010-06-12T07:25:45Z</time>
      </trkpt>
      <trkpt lat="45.74918" lon="6.02742">
        <ele>727</ele>
        <time>2010-06-12T07:25:47Z</time>
      </trkpt>
      <trkpt lat="45.74917" lon="6.02747">
        <ele>727</ele>
        <time>2010-06-12T07:25:49Z</time>
      </trkpt>
      <trkpt lat="45.74916" lon="6.02751">
        <ele>727</ele>
        <time>2010-06-12T07:25:51Z</time>
      </trkpt>
      <trkpt lat="45.74914" lon="6.02756">
        <ele>727</ele>
        <time>2010-06-12T07:25:53Z</time>
      </trkpt>
      <trkpt lat="45.74913" lon="6.0276">
        <ele>727</ele>
        <time>2010-06-12T07:25:55Z</time>
      </trkpt>
      <trkpt lat="45.74913" lon="6.02765">
        <ele>727</ele>
        <time>2010-06-12T07:25:57Z</time>
      </trkpt>
      <trkpt lat="45.74912" lon="6.02769">
        <ele>727</ele>
        <time>2010-06-12T07:25:59Z</time>
      </trkpt>
      <trkpt lat="45.7491" lon="6.02774">
        <ele>727</ele>
        <time>2010-06-12T07:26:01Z</time>
      </trkpt>
      <trkpt lat="45.7491" lon="6.02779">
        <ele>726</ele>
        <time>2010-06-12T07:26:03Z</time>
      </trkpt>
      <trkpt lat="45.74909" lon="6.02785">
        <ele>726</ele>
        <time>2010-06-12T07:26:05Z</time>
      </trkpt>
      <trkpt lat="45.74909" lon="6.02789">
        <ele>726</ele>
        <time>2010-06-12T07:26:07Z</time>
      </trkpt>
      <trkpt lat="45.74909" lon="6.02793">
        <ele>726</ele>
        <time>2010-06-12T07:26:09Z</time>
      </trkpt>
      <trkpt lat="45.74908" lon="6.02799">
        <ele>725</ele>
        <time>2010-06-12T07:26:11Z</time>
      </trkpt>
      <trkpt lat="45.74908" lon="6.02803">
        <ele>725</ele>
        <time>2010-06-12T07:26:13Z</time>
      </trkpt>
      <trkpt lat="45.74905" lon="6.02808">
        <ele>725</ele>
        <time>2010-06-12T07:26:15Z</time>
      </trkpt>
      <trkpt lat="45.74904" lon="6.02814">
        <ele>725</ele>
        <time>2010-06-12T07:26:17Z</time>
      </trkpt>
      <trkpt lat="45.74902" lon="6.02818">
        <ele>725</ele>
        <time>2010-06-12T07:26:19Z</time>
      </trkpt>
      <trkpt lat="45.74901" lon="6.02821">
        <ele>725</ele>
        <time>2010-06-12T07:26:21Z</time>
      </trkpt>
      <trkpt lat="45.74901" lon="6.02823">
        <ele>725</ele>
        <time>2010-06-12T07:26:23Z</time>
      </trkpt>
      <trkpt lat="45.74901" lon="6.02826">
        <ele>725</ele>
        <time>2010-06-12T07:26:25Z</time>
      </trkpt>
      <trkpt lat="45.749" lon="6.02829">
        <ele>725</ele>
        <time>2010-06-12T07:26:27Z</time>
      </trkpt>
      <trkpt lat="45.749" lon="6.02831">
        <ele>725</ele>
        <time>2010-06-12T07:26:29Z</time>
      </trkpt>
      <trkpt lat="45.74898" lon="6.02834">
        <ele>726</ele>
        <time>2010-06-12T07:26:31Z</time>
      </trkpt>
      <trkpt lat="45.74898" lon="6.02837">
        <ele>729</ele>
        <time>2010-06-12T07:26:34Z</time>
      </trkpt>
      <trkpt lat="45.74899" lon="6.0284">
        <ele>731</ele>
        <time>2010-06-12T07:26:36Z</time>
      </trkpt>
      <trkpt lat="45.74899" lon="6.02844">
        <ele>733</ele>
        <time>2010-06-12T07:26:38Z</time>
      </trkpt>
      <trkpt lat="45.74898" lon="6.02848">
        <ele>735</ele>
        <time>2010-06-12T07:26:40Z</time>
      </trkpt>
      <trkpt lat="45.74897" lon="6.02852">
        <ele>737</ele>
        <time>2010-06-12T07:26:42Z</time>
      </trkpt>
      <trkpt lat="45.74894" lon="6.02855">
        <ele>738</ele>
        <time>2010-06-12T07:26:44Z</time>
      </trkpt>
      <trkpt lat="45.74892" lon="6.02858">
        <ele>738</ele>
        <time>2010-06-12T07:26:46Z</time>
      </trkpt>
      <trkpt lat="45.74888" lon="6.02862">
        <ele>739</ele>
        <time>2010-06-12T07:26:48Z</time>
      </trkpt>
      <trkpt lat="45.74887" lon="6.02866">
        <ele>739</ele>
        <time>2010-06-12T07:26:51Z</time>
      </trkpt>
      <trkpt lat="45.74886" lon="6.02869">
        <ele>739</ele>
        <time>2010-06-12T07:26:53Z</time>
      </trkpt>
      <trkpt lat="45.74884" lon="6.02873">
        <ele>739</ele>
        <time>2010-06-12T07:26:55Z</time>
      </trkpt>
      <trkpt lat="45.74882" lon="6.02877">
        <ele>739</ele>
        <time>2010-06-12T07:26:58Z</time>
      </trkpt>
      <trkpt lat="45.7488" lon="6.02881">
        <ele>739</ele>
        <time>2010-06-12T07:27:01Z</time>
      </trkpt>
      <trkpt lat="45.74876" lon="6.0288">
        <ele>739</ele>
        <time>2010-06-12T07:27:03Z</time>
      </trkpt>
      <trkpt lat="45.74876" lon="6.0288">
        <ele>739</ele>
        <time>2010-06-12T07:27:07Z</time>
      </trkpt>
      <trkpt lat="45.74876" lon="6.02882">
        <ele>739</ele>
        <time>2010-06-12T07:27:10Z</time>
      </trkpt>
      <trkpt lat="45.74877" lon="6.02885">
        <ele>739</ele>
        <time>2010-06-12T07:27:13Z</time>
      </trkpt>
      <trkpt lat="45.74878" lon="6.02888">
        <ele>739</ele>
        <time>2010-06-12T07:27:15Z</time>
      </trkpt>
      <trkpt lat="45.74877" lon="6.02892">
        <ele>739</ele>
        <time>2010-06-12T07:27:17Z</time>
      </trkpt>
      <trkpt lat="45.74876" lon="6.02894">
        <ele>739</ele>
        <time>2010-06-12T07:27:19Z</time>
      </trkpt>
      <trkpt lat="45.74876" lon="6.02897">
        <ele>739</ele>
        <time>2010-06-12T07:27:21Z</time>
      </trkpt>
      <trkpt lat="45.74875" lon="6.02901">
        <ele>739</ele>
        <time>2010-06-12T07:27:23Z</time>
      </trkpt>
      <trkpt lat="45.74874" lon="6.02904">
        <ele>739</ele>
        <time>2010-06-12T07:27:25Z</time>
      </trkpt>
      <trkpt lat="45.74872" lon="6.02908">
        <ele>739</ele>
        <time>2010-06-12T07:27:28Z</time>
      </trkpt>
      <trkpt lat="45.74871" lon="6.02911">
        <ele>739</ele>
        <time>2010-06-12T07:27:30Z</time>
      </trkpt>
      <trkpt lat="45.74871" lon="6.02914">
        <ele>739</ele>
        <time>2010-06-12T07:27:32Z</time>
      </trkpt>
      <trkpt lat="45.7487" lon="6.02918">
        <ele>739</ele>
        <time>2010-06-12T07:27:35Z</time>
      </trkpt>
      <trkpt lat="45.74869" lon="6.02921">
        <ele>739</ele>
        <time>2010-06-12T07:27:37Z</time>
      </trkpt>
      <trkpt lat="45.74869" lon="6.02924">
        <ele>739</ele>
        <time>2010-06-12T07:27:39Z</time>
      </trkpt>
      <trkpt lat="45.74869" lon="6.02928">
        <ele>739</ele>
        <time>2010-06-12T07:27:41Z</time>
      </trkpt>
      <trkpt lat="45.74869" lon="6.02931">
        <ele>739</ele>
        <time>2010-06-12T07:27:43Z</time>
      </trkpt>
      <trkpt lat="45.74869" lon="6.02936">
        <ele>739</ele>
        <time>2010-06-12T07:27:46Z</time>
      </trkpt>
      <trkpt lat="45.7487" lon="6.02939">
        <ele>739</ele>
        <time>2010-06-12T07:27:48Z</time>
      </trkpt>
      <trkpt lat="45.7487" lon="6.02943">
        <ele>739</ele>
        <time>2010-06-12T07:27:50Z</time>
      </trkpt>
      <trkpt lat="45.7487" lon="6.02946">
        <ele>739</ele>
        <time>2010-06-12T07:27:52Z</time>
      </trkpt>
      <trkpt lat="45.7487" lon="6.02949">
        <ele>739</ele>
        <time>2010-06-12T07:27:54Z</time>
      </trkpt>
      <trkpt lat="45.7487" lon="6.02952">
        <ele>739</ele>
        <time>2010-06-12T07:27:56Z</time>
      </trkpt>
      <trkpt lat="45.7487" lon="6.02955">
        <ele>739</ele>
        <time>2010-06-12T07:27:58Z</time>
      </trkpt>
      <trkpt lat="45.74871" lon="6.02959">
        <ele>739</ele>
        <time>2010-06-12T07:28:00Z</time>
      </trkpt>
      <trkpt lat="45.74872" lon="6.02961">
        <ele>739</ele>
        <time>2010-06-12T07:28:02Z</time>
      </trkpt>
      <trkpt lat="45.74872" lon="6.02963">
        <ele>739</ele>
        <time>2010-06-12T07:28:07Z</time>
      </trkpt>
      <trkpt lat="45.74872" lon="6.02965">
        <ele>739</ele>
        <time>2010-06-12T07:28:09Z</time>
      </trkpt>
      <trkpt lat="45.74873" lon="6.02968">
        <ele>739</ele>
        <time>2010-06-12T07:28:11Z</time>
      </trkpt>
      <trkpt lat="45.74875" lon="6.0297">
        <ele>739</ele>
        <time>2010-06-12T07:28:13Z</time>
      </trkpt>
      <trkpt lat="45.74876" lon="6.02974">
        <ele>739</ele>
        <time>2010-06-12T07:28:15Z</time>
      </trkpt>
      <trkpt lat="45.74876" lon="6.02978">
        <ele>739</ele>
        <time>2010-06-12T07:28:17Z</time>
      </trkpt>
      <trkpt lat="45.74877" lon="6.02981">
        <ele>739</ele>
        <time>2010-06-12T07:28:19Z</time>
      </trkpt>
      <trkpt lat="45.74878" lon="6.02984">
        <ele>739</ele>
        <time>2010-06-12T07:28:21Z</time>
      </trkpt>
      <trkpt lat="45.7488" lon="6.02987">
        <ele>739</ele>
        <time>2010-06-12T07:28:24Z</time>
      </trkpt>
      <trkpt lat="45.74882" lon="6.02992">
        <ele>739</ele>
        <time>2010-06-12T07:28:26Z</time>
      </trkpt>
      <trkpt lat="45.74883" lon="6.02997">
        <ele>739</ele>
        <time>2010-06-12T07:28:28Z</time>
      </trkpt>
      <trkpt lat="45.74884" lon="6.03001">
        <ele>739</ele>
        <time>2010-06-12T07:28:30Z</time>
      </trkpt>
      <trkpt lat="45.74885" lon="6.03005">
        <ele>738</ele>
        <time>2010-06-12T07:28:32Z</time>
      </trkpt>
      <trkpt lat="45.74885" lon="6.03009">
        <ele>738</ele>
        <time>2010-06-12T07:28:34Z</time>
      </trkpt>
      <trkpt lat="45.74885" lon="6.03014">
        <ele>738</ele>
        <time>2010-06-12T07:28:37Z</time>
      </trkpt>
      <trkpt lat="45.74884" lon="6.03018">
        <ele>738</ele>
        <time>2010-06-12T07:28:39Z</time>
      </trkpt>
      <trkpt lat="45.74885" lon="6.03021">
        <ele>740</ele>
        <time>2010-06-12T07:28:41Z</time>
      </trkpt>
      <trkpt lat="45.74886" lon="6.03026">
        <ele>743</ele>
        <time>2010-06-12T07:28:44Z</time>
      </trkpt>
      <trkpt lat="45.74887" lon="6.03031">
        <ele>744</ele>
        <time>2010-06-12T07:28:46Z</time>
      </trkpt>
      <trkpt lat="45.74889" lon="6.03032">
        <ele>744</ele>
        <time>2010-06-12T07:28:48Z</time>
      </trkpt>
      <trkpt lat="45.7489" lon="6.03033">
        <ele>745</ele>
        <time>2010-06-12T07:28:50Z</time>
      </trkpt>
      <trkpt lat="45.74891" lon="6.03034">
        <ele>745</ele>
        <time>2010-06-12T07:28:52Z</time>
      </trkpt>
      <trkpt lat="45.74894" lon="6.03034">
        <ele>745</ele>
        <time>2010-06-12T07:28:54Z</time>
      </trkpt>
      <trkpt lat="45.74897" lon="6.03034">
        <ele>745</ele>
        <time>2010-06-12T07:28:56Z</time>
      </trkpt>
      <trkpt lat="45.74901" lon="6.03034">
        <ele>745</ele>
        <time>2010-06-12T07:28:59Z</time>
      </trkpt>
      <trkpt lat="45.74904" lon="6.03034">
        <ele>745</ele>
        <time>2010-06-12T07:29:01Z</time>
      </trkpt>
      <trkpt lat="45.74907" lon="6.03035">
        <ele>745</ele>
        <time>2010-06-12T07:29:03Z</time>
      </trkpt>
      <trkpt lat="45.7491" lon="6.03036">
        <ele>745</ele>
        <time>2010-06-12T07:29:05Z</time>
      </trkpt>
      <trkpt lat="45.74913" lon="6.03037">
        <ele>745</ele>
        <time>2010-06-12T07:29:07Z</time>
      </trkpt>
      <trkpt lat="45.74916" lon="6.03039">
        <ele>745</ele>
        <time>2010-06-12T07:29:09Z</time>
      </trkpt>
      <trkpt lat="45.74919" lon="6.03042">
        <ele>745</ele>
        <time>2010-06-12T07:29:11Z</time>
      </trkpt>
      <trkpt lat="45.74922" lon="6.03043">
        <ele>745</ele>
        <time>2010-06-12T07:29:13Z</time>
      </trkpt>
      <trkpt lat="45.74926" lon="6.03044">
        <ele>743</ele>
        <time>2010-06-12T07:29:15Z</time>
      </trkpt>
      <trkpt lat="45.74929" lon="6.03046">
        <ele>743</ele>
        <time>2010-06-12T07:29:17Z</time>
      </trkpt>
      <trkpt lat="45.74931" lon="6.03049">
        <ele>743</ele>
        <time>2010-06-12T07:29:19Z</time>
      </trkpt>
      <trkpt lat="45.74936" lon="6.03055">
        <ele>743</ele>
        <time>2010-06-12T07:29:21Z</time>
      </trkpt>
      <trkpt lat="45.74939" lon="6.03057">
        <ele>743</ele>
        <time>2010-06-12T07:29:24Z</time>
      </trkpt>
      <trkpt lat="45.74941" lon="6.03059">
        <ele>743</ele>
        <time>2010-06-12T07:29:26Z</time>
      </trkpt>
      <trkpt lat="45.74944" lon="6.03062">
        <ele>741</ele>
        <time>2010-06-12T07:29:29Z</time>
      </trkpt>
      <trkpt lat="45.74947" lon="6.03061">
        <ele>739</ele>
        <time>2010-06-12T07:29:31Z</time>
      </trkpt>
      <trkpt lat="45.7495" lon="6.03061">
        <ele>739</ele>
        <time>2010-06-12T07:29:33Z</time>
      </trkpt>
      <trkpt lat="45.74954" lon="6.03062">
        <ele>739</ele>
        <time>2010-06-12T07:29:35Z</time>
      </trkpt>
      <trkpt lat="45.74957" lon="6.03066">
        <ele>739</ele>
        <time>2010-06-12T07:29:37Z</time>
      </trkpt>
      <trkpt lat="45.7496" lon="6.03071">
        <ele>739</ele>
        <time>2010-06-12T07:29:40Z</time>
      </trkpt>
      <trkpt lat="45.74962" lon="6.03076">
        <ele>739</ele>
        <time>2010-06-12T07:29:42Z</time>
      </trkpt>
      <trkpt lat="45.74963" lon="6.03078">
        <ele>739</ele>
        <time>2010-06-12T07:29:44Z</time>
      </trkpt>
      <trkpt lat="45.74963" lon="6.0308">
        <ele>739</ele>
        <time>2010-06-12T07:29:46Z</time>
      </trkpt>
      <trkpt lat="45.74965" lon="6.03086">
        <ele>739</ele>
        <time>2010-06-12T07:29:48Z</time>
      </trkpt>
      <trkpt lat="45.74966" lon="6.0309">
        <ele>741</ele>
        <time>2010-06-12T07:29:50Z</time>
      </trkpt>
      <trkpt lat="45.74967" lon="6.03095">
        <ele>742</ele>
        <time>2010-06-12T07:29:52Z</time>
      </trkpt>
      <trkpt lat="45.74969" lon="6.03101">
        <ele>743</ele>
        <time>2010-06-12T07:29:54Z</time>
      </trkpt>
      <trkpt lat="45.74971" lon="6.03105">
        <ele>744</ele>
        <time>2010-06-12T07:29:56Z</time>
      </trkpt>
      <trkpt lat="45.74974" lon="6.03109">
        <ele>745</ele>
        <time>2010-06-12T07:29:59Z</time>
      </trkpt>
      <trkpt lat="45.74975" lon="6.03111">
        <ele>745</ele>
        <time>2010-06-12T07:30:01Z</time>
      </trkpt>
      <trkpt lat="45.74977" lon="6.03116">
        <ele>745</ele>
        <time>2010-06-12T07:30:04Z</time>
      </trkpt>
      <trkpt lat="45.74979" lon="6.03119">
        <ele>745</ele>
        <time>2010-06-12T07:30:06Z</time>
      </trkpt>
      <trkpt lat="45.74982" lon="6.03124">
        <ele>745</ele>
        <time>2010-06-12T07:30:08Z</time>
      </trkpt>
      <trkpt lat="45.74986" lon="6.03127">
        <ele>745</ele>
        <time>2010-06-12T07:30:10Z</time>
      </trkpt>
      <trkpt lat="45.74991" lon="6.03132">
        <ele>745</ele>
        <time>2010-06-12T07:30:12Z</time>
      </trkpt>
      <trkpt lat="45.74998" lon="6.03137">
        <ele>745</ele>
        <time>2010-06-12T07:30:14Z</time>
      </trkpt>
      <trkpt lat="45.75005" lon="6.03139">
        <ele>745</ele>
        <time>2010-06-12T07:30:16Z</time>
      </trkpt>
      <trkpt lat="45.75009" lon="6.03141">
        <ele>746</ele>
        <time>2010-06-12T07:30:18Z</time>
      </trkpt>
      <trkpt lat="45.75012" lon="6.03142">
        <ele>746</ele>
        <time>2010-06-12T07:30:20Z</time>
      </trkpt>
      <trkpt lat="45.75015" lon="6.03143">
        <ele>746</ele>
        <time>2010-06-12T07:30:22Z</time>
      </trkpt>
      <trkpt lat="45.75019" lon="6.03144">
        <ele>746</ele>
        <time>2010-06-12T07:30:24Z</time>
      </trkpt>
      <trkpt lat="45.75023" lon="6.03147">
        <ele>746</ele>
        <time>2010-06-12T07:30:26Z</time>
      </trkpt>
      <trkpt lat="45.75026" lon="6.03149">
        <ele>746</ele>
        <time>2010-06-12T07:30:28Z</time>
      </trkpt>
      <trkpt lat="45.7503" lon="6.03154">
        <ele>746</ele>
        <time>2010-06-12T07:30:30Z</time>
      </trkpt>
      <trkpt lat="45.75035" lon="6.0316">
        <ele>746</ele>
        <time>2010-06-12T07:30:32Z</time>
      </trkpt>
      <trkpt lat="45.75038" lon="6.03168">
        <ele>746</ele>
        <time>2010-06-12T07:30:34Z</time>
      </trkpt>
      <trkpt lat="45.7504" lon="6.03174">
        <ele>746</ele>
        <time>2010-06-12T07:30:36Z</time>
      </trkpt>
      <trkpt lat="45.75042" lon="6.03179">
        <ele>746</ele>
        <time>2010-06-12T07:30:38Z</time>
      </trkpt>
      <trkpt lat="45.75043" lon="6.03186">
        <ele>746</ele>
        <time>2010-06-12T07:30:41Z</time>
      </trkpt>
      <trkpt lat="45.75045" lon="6.03191">
        <ele>746</ele>
        <time>2010-06-12T07:30:43Z</time>
      </trkpt>
      <trkpt lat="45.75047" lon="6.03198">
        <ele>744</ele>
        <time>2010-06-12T07:30:45Z</time>
      </trkpt>
      <trkpt lat="45.75048" lon="6.03205">
        <ele>743</ele>
        <time>2010-06-12T07:30:47Z</time>
      </trkpt>
      <trkpt lat="45.75049" lon="6.03214">
        <ele>743</ele>
        <time>2010-06-12T07:30:49Z</time>
      </trkpt>
      <trkpt lat="45.75051" lon="6.03223">
        <ele>741</ele>
        <time>2010-06-12T07:30:51Z</time>
      </trkpt>
      <trkpt lat="45.75053" lon="6.03233">
        <ele>739</ele>
        <time>2010-06-12T07:30:53Z</time>
      </trkpt>
      <trkpt lat="45.75053" lon="6.03241">
        <ele>737</ele>
        <time>2010-06-12T07:30:55Z</time>
      </trkpt>
      <trkpt lat="45.75052" lon="6.03249">
        <ele>735</ele>
        <time>2010-06-12T07:30:57Z</time>
      </trkpt>
      <trkpt lat="45.75054" lon="6.03256">
        <ele>734</ele>
        <time>2010-06-12T07:30:59Z</time>
      </trkpt>
      <trkpt lat="45.75055" lon="6.03262">
        <ele>734</ele>
        <time>2010-06-12T07:31:01Z</time>
      </trkpt>
      <trkpt lat="45.75055" lon="6.03269">
        <ele>734</ele>
        <time>2010-06-12T07:31:03Z</time>
      </trkpt>
      <trkpt lat="45.75056" lon="6.03276">
        <ele>734</ele>
        <time>2010-06-12T07:31:05Z</time>
      </trkpt>
      <trkpt lat="45.75058" lon="6.03279">
        <ele>734</ele>
        <time>2010-06-12T07:31:07Z</time>
      </trkpt>
      <trkpt lat="45.75062" lon="6.03285">
        <ele>734</ele>
        <time>2010-06-12T07:31:09Z</time>
      </trkpt>
      <trkpt lat="45.7507" lon="6.03286">
        <ele>734</ele>
        <time>2010-06-12T07:31:11Z</time>
      </trkpt>
      <trkpt lat="45.75079" lon="6.03287">
        <ele>734</ele>
        <time>2010-06-12T07:31:13Z</time>
      </trkpt>
      <trkpt lat="45.75087" lon="6.03287">
        <ele>734</ele>
        <time>2010-06-12T07:31:15Z</time>
      </trkpt>
      <trkpt lat="45.75094" lon="6.03288">
        <ele>736</ele>
        <time>2010-06-12T07:31:17Z</time>
      </trkpt>
      <trkpt lat="45.751" lon="6.03288">
        <ele>738</ele>
        <time>2010-06-12T07:31:19Z</time>
      </trkpt>
      <trkpt lat="45.75105" lon="6.0329">
        <ele>738</ele>
        <time>2010-06-12T07:31:21Z</time>
      </trkpt>
      <trkpt lat="45.75111" lon="6.03291">
        <ele>738</ele>
        <time>2010-06-12T07:31:23Z</time>
      </trkpt>
      <trkpt lat="45.75116" lon="6.03292">
        <ele>738</ele>
        <time>2010-06-12T07:31:25Z</time>
      </trkpt>
      <trkpt lat="45.75121" lon="6.03293">
        <ele>738</ele>
        <time>2010-06-12T07:31:27Z</time>
      </trkpt>
      <trkpt lat="45.75125" lon="6.03296">
        <ele>738</ele>
        <time>2010-06-12T07:31:30Z</time>
      </trkpt>
      <trkpt lat="45.75127" lon="6.03296">
        <ele>737</ele>
        <time>2010-06-12T07:31:32Z</time>
      </trkpt>
      <trkpt lat="45.75132" lon="6.03297">
        <ele>735</ele>
        <time>2010-06-12T07:31:34Z</time>
      </trkpt>
      <trkpt lat="45.75138" lon="6.03297">
        <ele>735</ele>
        <time>2010-06-12T07:31:36Z</time>
      </trkpt>
      <trkpt lat="45.75144" lon="6.03296">
        <ele>735</ele>
        <time>2010-06-12T07:31:38Z</time>
      </trkpt>
      <trkpt lat="45.75152" lon="6.03295">
        <ele>735</ele>
        <time>2010-06-12T07:31:40Z</time>
      </trkpt>
      <trkpt lat="45.75157" lon="6.03294">
        <ele>735</ele>
        <time>2010-06-12T07:31:42Z</time>
      </trkpt>
      <trkpt lat="45.75161" lon="6.03294">
        <ele>735</ele>
        <time>2010-06-12T07:31:44Z</time>
      </trkpt>
      <trkpt lat="45.75167" lon="6.03292">
        <ele>735</ele>
        <time>2010-06-12T07:31:46Z</time>
      </trkpt>
      <trkpt lat="45.75172" lon="6.0329">
        <ele>735</ele>
        <time>2010-06-12T07:31:48Z</time>
      </trkpt>
      <trkpt lat="45.75176" lon="6.03288">
        <ele>733</ele>
        <time>2010-06-12T07:31:50Z</time>
      </trkpt>
      <trkpt lat="45.75179" lon="6.03286">
        <ele>733</ele>
        <time>2010-06-12T07:31:52Z</time>
      </trkpt>
      <trkpt lat="45.7518" lon="6.03285">
        <ele>733</ele>
        <time>2010-06-12T07:31:54Z</time>
      </trkpt>
      <trkpt lat="45.75182" lon="6.03285">
        <ele>733</ele>
        <time>2010-06-12T07:31:58Z</time>
      </trkpt>
      <trkpt lat="45.75184" lon="6.03285">
        <ele>733</ele>
        <time>2010-06-12T07:32:00Z</time>
      </trkpt>
      <trkpt lat="45.75188" lon="6.03285">
        <ele>733</ele>
        <time>2010-06-12T07:32:02Z</time>
      </trkpt>
      <trkpt lat="45.75192" lon="6.03283">
        <ele>733</ele>
        <time>2010-06-12T07:32:04Z</time>
      </trkpt>
      <trkpt lat="45.75201" lon="6.0328">
        <ele>731</ele>
        <time>2010-06-12T07:32:06Z</time>
      </trkpt>
      <trkpt lat="45.75209" lon="6.0328">
        <ele>729</ele>
        <time>2010-06-12T07:32:08Z</time>
      </trkpt>
      <trkpt lat="45.75215" lon="6.03281">
        <ele>727</ele>
        <time>2010-06-12T07:32:10Z</time>
      </trkpt>
      <trkpt lat="45.75221" lon="6.03282">
        <ele>725</ele>
        <time>2010-06-12T07:32:12Z</time>
      </trkpt>
      <trkpt lat="45.75227" lon="6.03283">
        <ele>722</ele>
        <time>2010-06-12T07:32:14Z</time>
      </trkpt>
      <trkpt lat="45.75234" lon="6.03281">
        <ele>719</ele>
        <time>2010-06-12T07:32:16Z</time>
      </trkpt>
      <trkpt lat="45.75242" lon="6.0328">
        <ele>715</ele>
        <time>2010-06-12T07:32:18Z</time>
      </trkpt>
      <trkpt lat="45.7525" lon="6.03279">
        <ele>711</ele>
        <time>2010-06-12T07:32:20Z</time>
      </trkpt>
      <trkpt lat="45.7526" lon="6.03277">
        <ele>707</ele>
        <time>2010-06-12T07:32:22Z</time>
      </trkpt>
      <trkpt lat="45.75271" lon="6.03276">
        <ele>704</ele>
        <time>2010-06-12T07:32:24Z</time>
      </trkpt>
      <trkpt lat="45.75281" lon="6.03276">
        <ele>702</ele>
        <time>2010-06-12T07:32:26Z</time>
      </trkpt>
      <trkpt lat="45.75289" lon="6.03278">
        <ele>700</ele>
        <time>2010-06-12T07:32:28Z</time>
      </trkpt>
      <trkpt lat="45.75296" lon="6.03279">
        <ele>699</ele>
        <time>2010-06-12T07:32:30Z</time>
      </trkpt>
      <trkpt lat="45.75303" lon="6.0328">
        <ele>699</ele>
        <time>2010-06-12T07:32:32Z</time>
      </trkpt>
      <trkpt lat="45.7531" lon="6.03279">
        <ele>699</ele>
        <time>2010-06-12T07:32:34Z</time>
      </trkpt>
      <trkpt lat="45.75317" lon="6.03275">
        <ele>699</ele>
        <time>2010-06-12T07:32:36Z</time>
      </trkpt>
      <trkpt lat="45.75326" lon="6.03273">
        <ele>699</ele>
        <time>2010-06-12T07:32:38Z</time>
      </trkpt>
      <trkpt lat="45.75337" lon="6.0327">
        <ele>697</ele>
        <time>2010-06-12T07:32:40Z</time>
      </trkpt>
      <trkpt lat="45.75348" lon="6.03267">
        <ele>697</ele>
        <time>2010-06-12T07:32:42Z</time>
      </trkpt>
      <trkpt lat="45.75359" lon="6.03267">
        <ele>696</ele>
        <time>2010-06-12T07:32:44Z</time>
      </trkpt>
      <trkpt lat="45.75369" lon="6.03269">
        <ele>695</ele>
        <time>2010-06-12T07:32:46Z</time>
      </trkpt>
      <trkpt lat="45.75378" lon="6.03272">
        <ele>693</ele>
        <time>2010-06-12T07:32:48Z</time>
      </trkpt>
      <trkpt lat="45.75386" lon="6.03273">
        <ele>691</ele>
        <time>2010-06-12T07:32:50Z</time>
      </trkpt>
      <trkpt lat="45.75395" lon="6.03274">
        <ele>689</ele>
        <time>2010-06-12T07:32:52Z</time>
      </trkpt>
      <trkpt lat="45.75404" lon="6.03274">
        <ele>687</ele>
        <time>2010-06-12T07:32:54Z</time>
      </trkpt>
      <trkpt lat="45.75411" lon="6.03273">
        <ele>685</ele>
        <time>2010-06-12T07:32:56Z</time>
      </trkpt>
      <trkpt lat="45.75417" lon="6.03272">
        <ele>685</ele>
        <time>2010-06-12T07:32:58Z</time>
      </trkpt>
      <trkpt lat="45.75421" lon="6.03271">
        <ele>685</ele>
        <time>2010-06-12T07:33:00Z</time>
      </trkpt>
      <trkpt lat="45.75425" lon="6.03269">
        <ele>685</ele>
        <time>2010-06-12T07:33:02Z</time>
      </trkpt>
      <trkpt lat="45.7543" lon="6.03268">
        <ele>685</ele>
        <time>2010-06-12T07:33:04Z</time>
      </trkpt>
      <trkpt lat="45.75434" lon="6.03268">
        <ele>685</ele>
        <time>2010-06-12T07:33:06Z</time>
      </trkpt>
      <trkpt lat="45.75439" lon="6.03268">
        <ele>685</ele>
        <time>2010-06-12T07:33:08Z</time>
      </trkpt>
      <trkpt lat="45.75443" lon="6.03268">
        <ele>685</ele>
        <time>2010-06-12T07:33:10Z</time>
      </trkpt>
      <trkpt lat="45.75448" lon="6.03267">
        <ele>685</ele>
        <time>2010-06-12T07:33:12Z</time>
      </trkpt>
      <trkpt lat="45.75455" lon="6.03265">
        <ele>685</ele>
        <time>2010-06-12T07:33:14Z</time>
      </trkpt>
      <trkpt lat="45.75465" lon="6.03264">
        <ele>685</ele>
        <time>2010-06-12T07:33:16Z</time>
      </trkpt>
      <trkpt lat="45.75475" lon="6.03264">
        <ele>685</ele>
        <time>2010-06-12T07:33:18Z</time>
      </trkpt>
      <trkpt lat="45.75484" lon="6.03267">
        <ele>685</ele>
        <time>2010-06-12T07:33:20Z</time>
      </trkpt>
      <trkpt lat="45.75489" lon="6.03268">
        <ele>685</ele>
        <time>2010-06-12T07:33:22Z</time>
      </trkpt>
      <trkpt lat="45.75492" lon="6.03269">
        <ele>685</ele>
        <time>2010-06-12T07:33:24Z</time>
      </trkpt>
      <trkpt lat="45.75494" lon="6.03273">
        <ele>685</ele>
        <time>2010-06-12T07:33:26Z</time>
      </trkpt>
      <trkpt lat="45.75495" lon="6.03278">
        <ele>685</ele>
        <time>2010-06-12T07:33:28Z</time>
      </trkpt>
      <trkpt lat="45.75497" lon="6.03285">
        <ele>685</ele>
        <time>2010-06-12T07:33:30Z</time>
      </trkpt>
      <trkpt lat="45.75501" lon="6.03294">
        <ele>685</ele>
        <time>2010-06-12T07:33:32Z</time>
      </trkpt>
      <trkpt lat="45.75504" lon="6.03301">
        <ele>685</ele>
        <time>2010-06-12T07:33:34Z</time>
      </trkpt>
      <trkpt lat="45.75507" lon="6.03305">
        <ele>684</ele>
        <time>2010-06-12T07:33:36Z</time>
      </trkpt>
      <trkpt lat="45.7551" lon="6.03309">
        <ele>683</ele>
        <time>2010-06-12T07:33:39Z</time>
      </trkpt>
      <trkpt lat="45.75512" lon="6.03313">
        <ele>683</ele>
        <time>2010-06-12T07:33:41Z</time>
      </trkpt>
      <trkpt lat="45.75514" lon="6.03317">
        <ele>683</ele>
        <time>2010-06-12T07:33:43Z</time>
      </trkpt>
      <trkpt lat="45.75517" lon="6.03321">
        <ele>683</ele>
        <time>2010-06-12T07:33:45Z</time>
      </trkpt>
      <trkpt lat="45.75518" lon="6.03326">
        <ele>683</ele>
        <time>2010-06-12T07:33:47Z</time>
      </trkpt>
      <trkpt lat="45.75518" lon="6.03329">
        <ele>683</ele>
        <time>2010-06-12T07:33:51Z</time>
      </trkpt>
      <trkpt lat="45.75519" lon="6.03332">
        <ele>683</ele>
        <time>2010-06-12T07:33:53Z</time>
      </trkpt>
      <trkpt lat="45.75521" lon="6.03336">
        <ele>683</ele>
        <time>2010-06-12T07:33:55Z</time>
      </trkpt>
      <trkpt lat="45.75523" lon="6.03341">
        <ele>683</ele>
        <time>2010-06-12T07:33:57Z</time>
      </trkpt>
      <trkpt lat="45.75523" lon="6.03344">
        <ele>683</ele>
        <time>2010-06-12T07:33:59Z</time>
      </trkpt>
      <trkpt lat="45.75523" lon="6.03346">
        <ele>683</ele>
        <time>2010-06-12T07:34:01Z</time>
      </trkpt>
      <trkpt lat="45.75522" lon="6.03351">
        <ele>684</ele>
        <time>2010-06-12T07:34:03Z</time>
      </trkpt>
      <trkpt lat="45.7552" lon="6.03357">
        <ele>686</ele>
        <time>2010-06-12T07:34:05Z</time>
      </trkpt>
      <trkpt lat="45.75518" lon="6.03362">
        <ele>688</ele>
        <time>2010-06-12T07:34:07Z</time>
      </trkpt>
      <trkpt lat="45.75514" lon="6.03368">
        <ele>690</ele>
        <time>2010-06-12T07:34:09Z</time>
      </trkpt>
      <trkpt lat="45.75509" lon="6.03372">
        <ele>691</ele>
        <time>2010-06-12T07:34:11Z</time>
      </trkpt>
      <trkpt lat="45.75506" lon="6.03375">
        <ele>692</ele>
        <time>2010-06-12T07:34:13Z</time>
      </trkpt>
      <trkpt lat="45.75502" lon="6.03379">
        <ele>692</ele>
        <time>2010-06-12T07:34:15Z</time>
      </trkpt>
      <trkpt lat="45.75497" lon="6.03384">
        <ele>693</ele>
        <time>2010-06-12T07:34:18Z</time>
      </trkpt>
      <trkpt lat="45.75496" lon="6.03388">
        <ele>694</ele>
        <time>2010-06-12T07:34:20Z</time>
      </trkpt>
      <trkpt lat="45.75495" lon="6.03393">
        <ele>695</ele>
        <time>2010-06-12T07:34:22Z</time>
      </trkpt>
      <trkpt lat="45.75495" lon="6.03398">
        <ele>695</ele>
        <time>2010-06-12T07:34:24Z</time>
      </trkpt>
      <trkpt lat="45.75497" lon="6.034">
        <ele>695</ele>
        <time>2010-06-12T07:34:26Z</time>
      </trkpt>
      <trkpt lat="45.75499" lon="6.03405">
        <ele>693</ele>
        <time>2010-06-12T07:34:28Z</time>
      </trkpt>
      <trkpt lat="45.755" lon="6.03409">
        <ele>691</ele>
        <time>2010-06-12T07:34:30Z</time>
      </trkpt>
      <trkpt lat="45.755" lon="6.03414">
        <ele>689</ele>
        <time>2010-06-12T07:34:32Z</time>
      </trkpt>
      <trkpt lat="45.75502" lon="6.03419">
        <ele>688</ele>
        <time>2010-06-12T07:34:34Z</time>
      </trkpt>
      <trkpt lat="45.75503" lon="6.03423">
        <ele>686</ele>
        <time>2010-06-12T07:34:36Z</time>
      </trkpt>
      <trkpt lat="45.75505" lon="6.03427">
        <ele>684</ele>
        <time>2010-06-12T07:34:38Z</time>
      </trkpt>
      <trkpt lat="45.75508" lon="6.03432">
        <ele>682</ele>
        <time>2010-06-12T07:34:40Z</time>
      </trkpt>
      <trkpt lat="45.75511" lon="6.03436">
        <ele>681</ele>
        <time>2010-06-12T07:34:42Z</time>
      </trkpt>
      <trkpt lat="45.75513" lon="6.0344">
        <ele>680</ele>
        <time>2010-06-12T07:34:44Z</time>
      </trkpt>
      <trkpt lat="45.75514" lon="6.03444">
        <ele>678</ele>
        <time>2010-06-12T07:34:46Z</time>
      </trkpt>
      <trkpt lat="45.75517" lon="6.03448">
        <ele>677</ele>
        <time>2010-06-12T07:34:48Z</time>
      </trkpt>
      <trkpt lat="45.75521" lon="6.03452">
        <ele>675</ele>
        <time>2010-06-12T07:34:50Z</time>
      </trkpt>
      <trkpt lat="45.75526" lon="6.03455">
        <ele>674</ele>
        <time>2010-06-12T07:34:52Z</time>
      </trkpt>
      <trkpt lat="45.7553" lon="6.03457">
        <ele>674</ele>
        <time>2010-06-12T07:34:54Z</time>
      </trkpt>
      <trkpt lat="45.75534" lon="6.03459">
        <ele>674</ele>
        <time>2010-06-12T07:34:56Z</time>
      </trkpt>
      <trkpt lat="45.75537" lon="6.03463">
        <ele>674</ele>
        <time>2010-06-12T07:34:58Z</time>
      </trkpt>
      <trkpt lat="45.75541" lon="6.03465">
        <ele>674</ele>
        <time>2010-06-12T07:35:00Z</time>
      </trkpt>
      <trkpt lat="45.75545" lon="6.03473">
        <ele>674</ele>
        <time>2010-06-12T07:35:02Z</time>
      </trkpt>
      <trkpt lat="45.75547" lon="6.0348">
        <ele>673</ele>
        <time>2010-06-12T07:35:04Z</time>
      </trkpt>
      <trkpt lat="45.7555" lon="6.03487">
        <ele>673</ele>
        <time>2010-06-12T07:35:06Z</time>
      </trkpt>
      <trkpt lat="45.75552" lon="6.03493">
        <ele>673</ele>
        <time>2010-06-12T07:35:08Z</time>
      </trkpt>
      <trkpt lat="45.75553" lon="6.03499">
        <ele>673</ele>
        <time>2010-06-12T07:35:10Z</time>
      </trkpt>
      <trkpt lat="45.75554" lon="6.03504">
        <ele>673</ele>
        <time>2010-06-12T07:35:12Z</time>
      </trkpt>
      <trkpt lat="45.75554" lon="6.03507">
        <ele>673</ele>
        <time>2010-06-12T07:35:14Z</time>
      </trkpt>
      <trkpt lat="45.75555" lon="6.03511">
        <ele>673</ele>
        <time>2010-06-12T07:35:16Z</time>
      </trkpt>
      <trkpt lat="45.75557" lon="6.03515">
        <ele>673</ele>
        <time>2010-06-12T07:35:18Z</time>
      </trkpt>
      <trkpt lat="45.75558" lon="6.0352">
        <ele>673</ele>
        <time>2010-06-12T07:35:20Z</time>
      </trkpt>
      <trkpt lat="45.75562" lon="6.03518">
        <ele>705</ele>
        <time>2010-06-12T07:35:28Z</time>
      </trkpt>
      <trkpt lat="45.75562" lon="6.03516">
        <ele>709</ele>
        <time>2010-06-12T07:35:32Z</time>
      </trkpt>
      <trkpt lat="45.75563" lon="6.03514">
        <ele>713</ele>
        <time>2010-06-12T07:35:37Z</time>
      </trkpt>
      <trkpt lat="45.75565" lon="6.03513">
        <ele>716</ele>
        <time>2010-06-12T07:35:40Z</time>
      </trkpt>
      <trkpt lat="45.75555" lon="6.03518">
        <ele>704</ele>
        <time>2010-06-12T07:35:54Z</time>
      </trkpt>
      <trkpt lat="45.75557" lon="6.03517">
        <ele>699</ele>
        <time>2010-06-12T07:35:58Z</time>
      </trkpt>
      <trkpt lat="45.75558" lon="6.03517">
        <ele>699</ele>
        <time>2010-06-12T07:36:01Z</time>
      </trkpt>
      <trkpt lat="45.75558" lon="6.03529">
        <ele>691</ele>
        <time>2010-06-12T07:36:07Z</time>
      </trkpt>
      <trkpt lat="45.75563" lon="6.03543">
        <ele>690</ele>
        <time>2010-06-12T07:36:10Z</time>
      </trkpt>
      <trkpt lat="45.75568" lon="6.03555">
        <ele>689</ele>
        <time>2010-06-12T07:36:12Z</time>
      </trkpt>
      <trkpt lat="45.75574" lon="6.0357">
        <ele>687</ele>
        <time>2010-06-12T07:36:15Z</time>
      </trkpt>
      <trkpt lat="45.75579" lon="6.03579">
        <ele>686</ele>
        <time>2010-06-12T07:36:17Z</time>
      </trkpt>
      <trkpt lat="45.75587" lon="6.03589">
        <ele>685</ele>
        <time>2010-06-12T07:36:19Z</time>
      </trkpt>
      <trkpt lat="45.75597" lon="6.03597">
        <ele>683</ele>
        <time>2010-06-12T07:36:21Z</time>
      </trkpt>
      <trkpt lat="45.75608" lon="6.03605">
        <ele>682</ele>
        <time>2010-06-12T07:36:23Z</time>
      </trkpt>
      <trkpt lat="45.7562" lon="6.03608">
        <ele>681</ele>
        <time>2010-06-12T07:36:25Z</time>
      </trkpt>
      <trkpt lat="45.75634" lon="6.03608">
        <ele>679</ele>
        <time>2010-06-12T07:36:27Z</time>
      </trkpt>
      <trkpt lat="45.75646" lon="6.03609">
        <ele>678</ele>
        <time>2010-06-12T07:36:29Z</time>
      </trkpt>
      <trkpt lat="45.75654" lon="6.0361">
        <ele>677</ele>
        <time>2010-06-12T07:36:31Z</time>
      </trkpt>
      <trkpt lat="45.75661" lon="6.03611">
        <ele>677</ele>
        <time>2010-06-12T07:36:33Z</time>
      </trkpt>
      <trkpt lat="45.75667" lon="6.03609">
        <ele>677</ele>
        <time>2010-06-12T07:36:35Z</time>
      </trkpt>
      <trkpt lat="45.75675" lon="6.03605">
        <ele>677</ele>
        <time>2010-06-12T07:36:37Z</time>
      </trkpt>
      <trkpt lat="45.75682" lon="6.036">
        <ele>677</ele>
        <time>2010-06-12T07:36:39Z</time>
      </trkpt>
      <trkpt lat="45.75694" lon="6.03594">
        <ele>677</ele>
        <time>2010-06-12T07:36:41Z</time>
      </trkpt>
      <trkpt lat="45.75705" lon="6.03588">
        <ele>677</ele>
        <time>2010-06-12T07:36:43Z</time>
      </trkpt>
      <trkpt lat="45.75718" lon="6.03589">
        <ele>677</ele>
        <time>2010-06-12T07:36:45Z</time>
      </trkpt>
      <trkpt lat="45.75728" lon="6.03593">
        <ele>677</ele>
        <time>2010-06-12T07:36:47Z</time>
      </trkpt>
      <trkpt lat="45.75736" lon="6.03606">
        <ele>677</ele>
        <time>2010-06-12T07:36:49Z</time>
      </trkpt>
      <trkpt lat="45.75742" lon="6.03622">
        <ele>677</ele>
        <time>2010-06-12T07:36:51Z</time>
      </trkpt>
      <trkpt lat="45.75748" lon="6.03636">
        <ele>676</ele>
        <time>2010-06-12T07:36:53Z</time>
      </trkpt>
      <trkpt lat="45.75753" lon="6.03647">
        <ele>676</ele>
        <time>2010-06-12T07:36:55Z</time>
      </trkpt>
      <trkpt lat="45.75756" lon="6.03652">
        <ele>676</ele>
        <time>2010-06-12T07:36:57Z</time>
      </trkpt>
      <trkpt lat="45.75758" lon="6.03655">
        <ele>676</ele>
        <time>2010-06-12T07:37:00Z</time>
      </trkpt>
      <trkpt lat="45.75758" lon="6.03654">
        <ele>676</ele>
        <time>2010-06-12T07:37:02Z</time>
      </trkpt>
      <trkpt lat="45.75762" lon="6.03655">
        <ele>682</ele>
        <time>2010-06-12T07:37:08Z</time>
      </trkpt>
      <trkpt lat="45.75763" lon="6.03657">
        <ele>685</ele>
        <time>2010-06-12T07:37:11Z</time>
      </trkpt>
      <trkpt lat="45.75766" lon="6.03659">
        <ele>688</ele>
        <time>2010-06-12T07:37:16Z</time>
      </trkpt>
      <trkpt lat="45.75771" lon="6.03657">
        <ele>690</ele>
        <time>2010-06-12T07:37:19Z</time>
      </trkpt>
      <trkpt lat="45.75776" lon="6.03652">
        <ele>691</ele>
        <time>2010-06-12T07:37:21Z</time>
      </trkpt>
      <trkpt lat="45.75783" lon="6.03646">
        <ele>692</ele>
        <time>2010-06-12T07:37:23Z</time>
      </trkpt>
      <trkpt lat="45.75792" lon="6.0364">
        <ele>692</ele>
        <time>2010-06-12T07:37:25Z</time>
      </trkpt>
      <trkpt lat="45.75803" lon="6.03633">
        <ele>692</ele>
        <time>2010-06-12T07:37:27Z</time>
      </trkpt>
      <trkpt lat="45.75826" lon="6.03617">
        <ele>692</ele>
        <time>2010-06-12T07:37:30Z</time>
      </trkpt>
      <trkpt lat="45.75842" lon="6.03601">
        <ele>692</ele>
        <time>2010-06-12T07:37:32Z</time>
      </trkpt>
      <trkpt lat="45.75867" lon="6.03579">
        <ele>689</ele>
        <time>2010-06-12T07:37:35Z</time>
      </trkpt>
      <trkpt lat="45.75885" lon="6.0357">
        <ele>687</ele>
        <time>2010-06-12T07:37:37Z</time>
      </trkpt>
      <trkpt lat="45.75907" lon="6.03563">
        <ele>685</ele>
        <time>2010-06-12T07:37:39Z</time>
      </trkpt>
      <trkpt lat="45.75927" lon="6.0356">
        <ele>683</ele>
        <time>2010-06-12T07:37:41Z</time>
      </trkpt>
      <trkpt lat="45.75941" lon="6.03557">
        <ele>681</ele>
        <time>2010-06-12T07:37:43Z</time>
      </trkpt>
      <trkpt lat="45.75948" lon="6.03555">
        <ele>677</ele>
        <time>2010-06-12T07:37:45Z</time>
      </trkpt>
      <trkpt lat="45.75946" lon="6.03556">
        <ele>670</ele>
        <time>2010-06-12T07:37:49Z</time>
      </trkpt>
      <trkpt lat="45.75945" lon="6.03557">
        <ele>667</ele>
        <time>2010-06-12T07:37:52Z</time>
      </trkpt>
      <trkpt lat="45.75944" lon="6.03558">
        <ele>665</ele>
        <time>2010-06-12T07:37:54Z</time>
      </trkpt>
      <trkpt lat="45.7594" lon="6.03559">
        <ele>663</ele>
        <time>2010-06-12T07:37:56Z</time>
      </trkpt>
      <trkpt lat="45.75936" lon="6.0356">
        <ele>660</ele>
        <time>2010-06-12T07:37:59Z</time>
      </trkpt>
      <trkpt lat="45.75934" lon="6.03561">
        <ele>658</ele>
        <time>2010-06-12T07:38:01Z</time>
      </trkpt>
      <trkpt lat="45.75931" lon="6.03562">
        <ele>656</ele>
        <time>2010-06-12T07:38:03Z</time>
      </trkpt>
      <trkpt lat="45.75927" lon="6.03566">
        <ele>654</ele>
        <time>2010-06-12T07:38:07Z</time>
      </trkpt>
      <trkpt lat="45.75927" lon="6.03568">
        <ele>654</ele>
        <time>2010-06-12T07:38:09Z</time>
      </trkpt>
      <trkpt lat="45.75928" lon="6.03572">
        <ele>654</ele>
        <time>2010-06-12T07:38:11Z</time>
      </trkpt>
      <trkpt lat="45.75932" lon="6.03581">
        <ele>654</ele>
        <time>2010-06-12T07:38:14Z</time>
      </trkpt>
      <trkpt lat="45.75936" lon="6.0359">
        <ele>654</ele>
        <time>2010-06-12T07:38:16Z</time>
      </trkpt>
      <trkpt lat="45.75942" lon="6.03602">
        <ele>652</ele>
        <time>2010-06-12T07:38:18Z</time>
      </trkpt>
      <trkpt lat="45.75949" lon="6.03617">
        <ele>651</ele>
        <time>2010-06-12T07:38:20Z</time>
      </trkpt>
      <trkpt lat="45.75957" lon="6.03632">
        <ele>651</ele>
        <time>2010-06-12T07:38:22Z</time>
      </trkpt>
      <trkpt lat="45.75964" lon="6.03648">
        <ele>651</ele>
        <time>2010-06-12T07:38:24Z</time>
      </trkpt>
      <trkpt lat="45.75971" lon="6.0366">
        <ele>651</ele>
        <time>2010-06-12T07:38:26Z</time>
      </trkpt>
      <trkpt lat="45.75977" lon="6.03672">
        <ele>651</ele>
        <time>2010-06-12T07:38:28Z</time>
      </trkpt>
      <trkpt lat="45.75983" lon="6.03686">
        <ele>651</ele>
        <time>2010-06-12T07:38:30Z</time>
      </trkpt>
      <trkpt lat="45.75991" lon="6.03712">
        <ele>651</ele>
        <time>2010-06-12T07:38:33Z</time>
      </trkpt>
      <trkpt lat="45.75996" lon="6.03729">
        <ele>651</ele>
        <time>2010-06-12T07:38:35Z</time>
      </trkpt>
      <trkpt lat="45.75998" lon="6.03747">
        <ele>651</ele>
        <time>2010-06-12T07:38:37Z</time>
      </trkpt>
      <trkpt lat="45.76001" lon="6.03763">
        <ele>651</ele>
        <time>2010-06-12T07:38:39Z</time>
      </trkpt>
      <trkpt lat="45.76003" lon="6.03777">
        <ele>651</ele>
        <time>2010-06-12T07:38:41Z</time>
      </trkpt>
      <trkpt lat="45.76004" lon="6.03792">
        <ele>651</ele>
        <time>2010-06-12T07:38:43Z</time>
      </trkpt>
      <trkpt lat="45.76005" lon="6.03805">
        <ele>651</ele>
        <time>2010-06-12T07:38:45Z</time>
      </trkpt>
      <trkpt lat="45.76004" lon="6.03818">
        <ele>651</ele>
        <time>2010-06-12T07:38:47Z</time>
      </trkpt>
      <trkpt lat="45.76001" lon="6.03827">
        <ele>651</ele>
        <time>2010-06-12T07:38:49Z</time>
      </trkpt>
      <trkpt lat="45.75996" lon="6.03833">
        <ele>651</ele>
        <time>2010-06-12T07:38:51Z</time>
      </trkpt>
      <trkpt lat="45.7599" lon="6.03838">
        <ele>651</ele>
        <time>2010-06-12T07:38:53Z</time>
      </trkpt>
      <trkpt lat="45.75983" lon="6.03843">
        <ele>652</ele>
        <time>2010-06-12T07:38:55Z</time>
      </trkpt>
      <trkpt lat="45.75977" lon="6.03848">
        <ele>652</ele>
        <time>2010-06-12T07:38:57Z</time>
      </trkpt>
      <trkpt lat="45.75971" lon="6.03855">
        <ele>652</ele>
        <time>2010-06-12T07:38:59Z</time>
      </trkpt>
      <trkpt lat="45.75968" lon="6.03863">
        <ele>652</ele>
        <time>2010-06-12T07:39:01Z</time>
      </trkpt>
      <trkpt lat="45.75966" lon="6.03871">
        <ele>652</ele>
        <time>2010-06-12T07:39:03Z</time>
      </trkpt>
      <trkpt lat="45.75967" lon="6.03882">
        <ele>652</ele>
        <time>2010-06-12T07:39:05Z</time>
      </trkpt>
      <trkpt lat="45.75969" lon="6.03893">
        <ele>653</ele>
        <time>2010-06-12T07:39:07Z</time>
      </trkpt>
      <trkpt lat="45.75974" lon="6.03901">
        <ele>654</ele>
        <time>2010-06-12T07:39:09Z</time>
      </trkpt>
      <trkpt lat="45.75981" lon="6.03908">
        <ele>655</ele>
        <time>2010-06-12T07:39:11Z</time>
      </trkpt>
      <trkpt lat="45.75993" lon="6.03918">
        <ele>656</ele>
        <time>2010-06-12T07:39:14Z</time>
      </trkpt>
      <trkpt lat="45.76004" lon="6.03926">
        <ele>657</ele>
        <time>2010-06-12T07:39:16Z</time>
      </trkpt>
      <trkpt lat="45.76012" lon="6.03934">
        <ele>658</ele>
        <time>2010-06-12T07:39:18Z</time>
      </trkpt>
      <trkpt lat="45.76022" lon="6.03944">
        <ele>659</ele>
        <time>2010-06-12T07:39:20Z</time>
      </trkpt>
      <trkpt lat="45.76031" lon="6.03953">
        <ele>659</ele>
        <time>2010-06-12T07:39:22Z</time>
      </trkpt>
      <trkpt lat="45.76041" lon="6.03963">
        <ele>659</ele>
        <time>2010-06-12T07:39:24Z</time>
      </trkpt>
      <trkpt lat="45.7605" lon="6.03974">
        <ele>659</ele>
        <time>2010-06-12T07:39:26Z</time>
      </trkpt>
      <trkpt lat="45.76059" lon="6.03989">
        <ele>659</ele>
        <time>2010-06-12T07:39:28Z</time>
      </trkpt>
      <trkpt lat="45.76069" lon="6.04004">
        <ele>659</ele>
        <time>2010-06-12T07:39:30Z</time>
      </trkpt>
      <trkpt lat="45.7609" lon="6.04014">
        <ele>657</ele>
        <time>2010-06-12T07:39:33Z</time>
      </trkpt>
      <trkpt lat="45.76107" lon="6.0401">
        <ele>655</ele>
        <time>2010-06-12T07:39:35Z</time>
      </trkpt>
      <trkpt lat="45.76134" lon="6.04011">
        <ele>652</ele>
        <time>2010-06-12T07:39:38Z</time>
      </trkpt>
      <trkpt lat="45.76151" lon="6.04007">
        <ele>650</ele>
        <time>2010-06-12T07:39:40Z</time>
      </trkpt>
      <trkpt lat="45.76181" lon="6.03989">
        <ele>647</ele>
        <time>2010-06-12T07:39:43Z</time>
      </trkpt>
      <trkpt lat="45.762" lon="6.03973">
        <ele>645</ele>
        <time>2010-06-12T07:39:45Z</time>
      </trkpt>
      <trkpt lat="45.76219" lon="6.0396">
        <ele>643</ele>
        <time>2010-06-12T07:39:47Z</time>
      </trkpt>
      <trkpt lat="45.76238" lon="6.03954">
        <ele>641</ele>
        <time>2010-06-12T07:39:49Z</time>
      </trkpt>
      <trkpt lat="45.76272" lon="6.03957">
        <ele>638</ele>
        <time>2010-06-12T07:39:52Z</time>
      </trkpt>
      <trkpt lat="45.76295" lon="6.03955">
        <ele>636</ele>
        <time>2010-06-12T07:39:54Z</time>
      </trkpt>
      <trkpt lat="45.76314" lon="6.03952">
        <ele>634</ele>
        <time>2010-06-12T07:39:56Z</time>
      </trkpt>
      <trkpt lat="45.76326" lon="6.03949">
        <ele>632</ele>
        <time>2010-06-12T07:39:58Z</time>
      </trkpt>
      <trkpt lat="45.76334" lon="6.0395">
        <ele>630</ele>
        <time>2010-06-12T07:40:00Z</time>
      </trkpt>
      <trkpt lat="45.76341" lon="6.03956">
        <ele>628</ele>
        <time>2010-06-12T07:40:02Z</time>
      </trkpt>
      <trkpt lat="45.76345" lon="6.03968">
        <ele>626</ele>
        <time>2010-06-12T07:40:04Z</time>
      </trkpt>
      <trkpt lat="45.76348" lon="6.03984">
        <ele>624</ele>
        <time>2010-06-12T07:40:06Z</time>
      </trkpt>
      <trkpt lat="45.76352" lon="6.03998">
        <ele>622</ele>
        <time>2010-06-12T07:40:08Z</time>
      </trkpt>
      <trkpt lat="45.76368" lon="6.04015">
        <ele>619</ele>
        <time>2010-06-12T07:40:11Z</time>
      </trkpt>
      <trkpt lat="45.7638" lon="6.0403">
        <ele>617</ele>
        <time>2010-06-12T07:40:13Z</time>
      </trkpt>
      <trkpt lat="45.76391" lon="6.04041">
        <ele>615</ele>
        <time>2010-06-12T07:40:15Z</time>
      </trkpt>
      <trkpt lat="45.76402" lon="6.04053">
        <ele>613</ele>
        <time>2010-06-12T07:40:17Z</time>
      </trkpt>
      <trkpt lat="45.76423" lon="6.04067">
        <ele>610</ele>
        <time>2010-06-12T07:40:20Z</time>
      </trkpt>
      <trkpt lat="45.76437" lon="6.04075">
        <ele>608</ele>
        <time>2010-06-12T07:40:22Z</time>
      </trkpt>
      <trkpt lat="45.76449" lon="6.04082">
        <ele>606</ele>
        <time>2010-06-12T07:40:24Z</time>
      </trkpt>
      <trkpt lat="45.76457" lon="6.04091">
        <ele>604</ele>
        <time>2010-06-12T07:40:26Z</time>
      </trkpt>
      <trkpt lat="45.76466" lon="6.04098">
        <ele>602</ele>
        <time>2010-06-12T07:40:28Z</time>
      </trkpt>
      <trkpt lat="45.76475" lon="6.04103">
        <ele>600</ele>
        <time>2010-06-12T07:40:30Z</time>
      </trkpt>
      <trkpt lat="45.76484" lon="6.04109">
        <ele>598</ele>
        <time>2010-06-12T07:40:32Z</time>
      </trkpt>
      <trkpt lat="45.76492" lon="6.04113">
        <ele>596</ele>
        <time>2010-06-12T07:40:34Z</time>
      </trkpt>
      <trkpt lat="45.7649" lon="6.04122">
        <ele>594</ele>
        <time>2010-06-12T07:40:36Z</time>
      </trkpt>
      <trkpt lat="45.76485" lon="6.04134">
        <ele>594</ele>
        <time>2010-06-12T07:40:38Z</time>
      </trkpt>
      <trkpt lat="45.76482" lon="6.04143">
        <ele>594</ele>
        <time>2010-06-12T07:40:40Z</time>
      </trkpt>
      <trkpt lat="45.76479" lon="6.0415">
        <ele>594</ele>
        <time>2010-06-12T07:40:42Z</time>
      </trkpt>
      <trkpt lat="45.76477" lon="6.04156">
        <ele>594</ele>
        <time>2010-06-12T07:40:44Z</time>
      </trkpt>
      <trkpt lat="45.76474" lon="6.04164">
        <ele>595</ele>
        <time>2010-06-12T07:40:46Z</time>
      </trkpt>
      <trkpt lat="45.76469" lon="6.04172">
        <ele>596</ele>
        <time>2010-06-12T07:40:48Z</time>
      </trkpt>
      <trkpt lat="45.76466" lon="6.04178">
        <ele>596</ele>
        <time>2010-06-12T07:40:50Z</time>
      </trkpt>
      <trkpt lat="45.76463" lon="6.04185">
        <ele>598</ele>
        <time>2010-06-12T07:40:52Z</time>
      </trkpt>
      <trkpt lat="45.7646" lon="6.04193">
        <ele>599</ele>
        <time>2010-06-12T07:40:54Z</time>
      </trkpt>
      <trkpt lat="45.76456" lon="6.04201">
        <ele>600</ele>
        <time>2010-06-12T07:40:56Z</time>
      </trkpt>
      <trkpt lat="45.76453" lon="6.0421">
        <ele>600</ele>
        <time>2010-06-12T07:40:58Z</time>
      </trkpt>
      <trkpt lat="45.76449" lon="6.04217">
        <ele>601</ele>
        <time>2010-06-12T07:41:00Z</time>
      </trkpt>
      <trkpt lat="45.76447" lon="6.04225">
        <ele>601</ele>
        <time>2010-06-12T07:41:02Z</time>
      </trkpt>
      <trkpt lat="45.76445" lon="6.04233">
        <ele>603</ele>
        <time>2010-06-12T07:41:04Z</time>
      </trkpt>
      <trkpt lat="45.76443" lon="6.04241">
        <ele>604</ele>
        <time>2010-06-12T07:41:06Z</time>
      </trkpt>
      <trkpt lat="45.76441" lon="6.0425">
        <ele>605</ele>
        <time>2010-06-12T07:41:08Z</time>
      </trkpt>
      <trkpt lat="45.76439" lon="6.04258">
        <ele>606</ele>
        <time>2010-06-12T07:41:10Z</time>
      </trkpt>
      <trkpt lat="45.76437" lon="6.04265">
        <ele>607</ele>
        <time>2010-06-12T07:41:12Z</time>
      </trkpt>
      <trkpt lat="45.76435" lon="6.04273">
        <ele>607</ele>
        <time>2010-06-12T07:41:14Z</time>
      </trkpt>
      <trkpt lat="45.76433" lon="6.04281">
        <ele>608</ele>
        <time>2010-06-12T07:41:16Z</time>
      </trkpt>
      <trkpt lat="45.76431" lon="6.04289">
        <ele>608</ele>
        <time>2010-06-12T07:41:18Z</time>
      </trkpt>
      <trkpt lat="45.76429" lon="6.043">
        <ele>609</ele>
        <time>2010-06-12T07:41:20Z</time>
      </trkpt>
      <trkpt lat="45.76426" lon="6.04311">
        <ele>610</ele>
        <time>2010-06-12T07:41:22Z</time>
      </trkpt>
      <trkpt lat="45.76425" lon="6.04322">
        <ele>612</ele>
        <time>2010-06-12T07:41:24Z</time>
      </trkpt>
      <trkpt lat="45.76423" lon="6.04333">
        <ele>613</ele>
        <time>2010-06-12T07:41:26Z</time>
      </trkpt>
      <trkpt lat="45.7642" lon="6.04344">
        <ele>614</ele>
        <time>2010-06-12T07:41:28Z</time>
      </trkpt>
      <trkpt lat="45.76417" lon="6.04355">
        <ele>614</ele>
        <time>2010-06-12T07:41:30Z</time>
      </trkpt>
      <trkpt lat="45.76416" lon="6.04366">
        <ele>614</ele>
        <time>2010-06-12T07:41:32Z</time>
      </trkpt>
      <trkpt lat="45.76413" lon="6.04376">
        <ele>614</ele>
        <time>2010-06-12T07:41:34Z</time>
      </trkpt>
      <trkpt lat="45.7641" lon="6.04385">
        <ele>614</ele>
        <time>2010-06-12T07:41:36Z</time>
      </trkpt>
      <trkpt lat="45.76406" lon="6.04393">
        <ele>614</ele>
        <time>2010-06-12T07:41:38Z</time>
      </trkpt>
      <trkpt lat="45.76403" lon="6.04403">
        <ele>614</ele>
        <time>2010-06-12T07:41:40Z</time>
      </trkpt>
      <trkpt lat="45.764" lon="6.04413">
        <ele>614</ele>
        <time>2010-06-12T07:41:42Z</time>
      </trkpt>
      <trkpt lat="45.76397" lon="6.04422">
        <ele>614</ele>
        <time>2010-06-12T07:41:44Z</time>
      </trkpt>
      <trkpt lat="45.76394" lon="6.0443">
        <ele>614</ele>
        <time>2010-06-12T07:41:46Z</time>
      </trkpt>
      <trkpt lat="45.76392" lon="6.04438">
        <ele>614</ele>
        <time>2010-06-12T07:41:48Z</time>
      </trkpt>
      <trkpt lat="45.76388" lon="6.04447">
        <ele>614</ele>
        <time>2010-06-12T07:41:50Z</time>
      </trkpt>
      <trkpt lat="45.76386" lon="6.04456">
        <ele>614</ele>
        <time>2010-06-12T07:41:52Z</time>
      </trkpt>
      <trkpt lat="45.76383" lon="6.04465">
        <ele>614</ele>
        <time>2010-06-12T07:41:54Z</time>
      </trkpt>
      <trkpt lat="45.7638" lon="6.04473">
        <ele>614</ele>
        <time>2010-06-12T07:41:56Z</time>
      </trkpt>
      <trkpt lat="45.76378" lon="6.04481">
        <ele>614</ele>
        <time>2010-06-12T07:41:58Z</time>
      </trkpt>
      <trkpt lat="45.76376" lon="6.04489">
        <ele>614</ele>
        <time>2010-06-12T07:42:00Z</time>
      </trkpt>
      <trkpt lat="45.76374" lon="6.04498">
        <ele>614</ele>
        <time>2010-06-12T07:42:02Z</time>
      </trkpt>
      <trkpt lat="45.76373" lon="6.04506">
        <ele>614</ele>
        <time>2010-06-12T07:42:04Z</time>
      </trkpt>
      <trkpt lat="45.76372" lon="6.04515">
        <ele>614</ele>
        <time>2010-06-12T07:42:06Z</time>
      </trkpt>
      <trkpt lat="45.7637" lon="6.04523">
        <ele>615</ele>
        <time>2010-06-12T07:42:08Z</time>
      </trkpt>
      <trkpt lat="45.76369" lon="6.0453">
        <ele>616</ele>
        <time>2010-06-12T07:42:10Z</time>
      </trkpt>
      <trkpt lat="45.76368" lon="6.04538">
        <ele>618</ele>
        <time>2010-06-12T07:42:12Z</time>
      </trkpt>
      <trkpt lat="45.76367" lon="6.04546">
        <ele>619</ele>
        <time>2010-06-12T07:42:14Z</time>
      </trkpt>
      <trkpt lat="45.76366" lon="6.04554">
        <ele>620</ele>
        <time>2010-06-12T07:42:16Z</time>
      </trkpt>
      <trkpt lat="45.76365" lon="6.04562">
        <ele>621</ele>
        <time>2010-06-12T07:42:18Z</time>
      </trkpt>
      <trkpt lat="45.76363" lon="6.0457">
        <ele>622</ele>
        <time>2010-06-12T07:42:20Z</time>
      </trkpt>
      <trkpt lat="45.76362" lon="6.04578">
        <ele>623</ele>
        <time>2010-06-12T07:42:22Z</time>
      </trkpt>
      <trkpt lat="45.7636" lon="6.04587">
        <ele>623</ele>
        <time>2010-06-12T07:42:24Z</time>
      </trkpt>
      <trkpt lat="45.76358" lon="6.04594">
        <ele>623</ele>
        <time>2010-06-12T07:42:26Z</time>
      </trkpt>
      <trkpt lat="45.76356" lon="6.04602">
        <ele>623</ele>
        <time>2010-06-12T07:42:28Z</time>
      </trkpt>
      <trkpt lat="45.76354" lon="6.04609">
        <ele>624</ele>
        <time>2010-06-12T07:42:30Z</time>
      </trkpt>
      <trkpt lat="45.7635" lon="6.0462">
        <ele>624</ele>
        <time>2010-06-12T07:42:33Z</time>
      </trkpt>
      <trkpt lat="45.76347" lon="6.04631">
        <ele>624</ele>
        <time>2010-06-12T07:42:36Z</time>
      </trkpt>
      <trkpt lat="45.76344" lon="6.04637">
        <ele>624</ele>
        <time>2010-06-12T07:42:38Z</time>
      </trkpt>
      <trkpt lat="45.76341" lon="6.04645">
        <ele>624</ele>
        <time>2010-06-12T07:42:40Z</time>
      </trkpt>
      <trkpt lat="45.76338" lon="6.04652">
        <ele>624</ele>
        <time>2010-06-12T07:42:42Z</time>
      </trkpt>
      <trkpt lat="45.76335" lon="6.0466">
        <ele>624</ele>
        <time>2010-06-12T07:42:44Z</time>
      </trkpt>
      <trkpt lat="45.76331" lon="6.04671">
        <ele>624</ele>
        <time>2010-06-12T07:42:47Z</time>
      </trkpt>
      <trkpt lat="45.76328" lon="6.04678">
        <ele>624</ele>
        <time>2010-06-12T07:42:49Z</time>
      </trkpt>
      <trkpt lat="45.76324" lon="6.04688">
        <ele>624</ele>
        <time>2010-06-12T07:42:52Z</time>
      </trkpt>
      <trkpt lat="45.76321" lon="6.04695">
        <ele>624</ele>
        <time>2010-06-12T07:42:54Z</time>
      </trkpt>
      <trkpt lat="45.76319" lon="6.04703">
        <ele>625</ele>
        <time>2010-06-12T07:42:56Z</time>
      </trkpt>
      <trkpt lat="45.76317" lon="6.0471">
        <ele>626</ele>
        <time>2010-06-12T07:42:58Z</time>
      </trkpt>
      <trkpt lat="45.76314" lon="6.04717">
        <ele>627</ele>
        <time>2010-06-12T07:43:00Z</time>
      </trkpt>
      <trkpt lat="45.76311" lon="6.04723">
        <ele>628</ele>
        <time>2010-06-12T07:43:02Z</time>
      </trkpt>
      <trkpt lat="45.76308" lon="6.0473">
        <ele>629</ele>
        <time>2010-06-12T07:43:04Z</time>
      </trkpt>
      <trkpt lat="45.76304" lon="6.04737">
        <ele>630</ele>
        <time>2010-06-12T07:43:06Z</time>
      </trkpt>
      <trkpt lat="45.763" lon="6.04744">
        <ele>630</ele>
        <time>2010-06-12T07:43:08Z</time>
      </trkpt>
      <trkpt lat="45.76295" lon="6.04753">
        <ele>630</ele>
        <time>2010-06-12T07:43:11Z</time>
      </trkpt>
      <trkpt lat="45.76291" lon="6.0476">
        <ele>631</ele>
        <time>2010-06-12T07:43:13Z</time>
      </trkpt>
      <trkpt lat="45.76287" lon="6.04766">
        <ele>632</ele>
        <time>2010-06-12T07:43:15Z</time>
      </trkpt>
      <trkpt lat="45.76284" lon="6.04771">
        <ele>632</ele>
        <time>2010-06-12T07:43:17Z</time>
      </trkpt>
      <trkpt lat="45.76279" lon="6.04775">
        <ele>632</ele>
        <time>2010-06-12T07:43:19Z</time>
      </trkpt>
      <trkpt lat="45.76274" lon="6.04778">
        <ele>632</ele>
        <time>2010-06-12T07:43:21Z</time>
      </trkpt>
      <trkpt lat="45.7627" lon="6.04782">
        <ele>632</ele>
        <time>2010-06-12T07:43:23Z</time>
      </trkpt>
      <trkpt lat="45.76268" lon="6.04787">
        <ele>632</ele>
        <time>2010-06-12T07:43:25Z</time>
      </trkpt>
      <trkpt lat="45.76266" lon="6.04794">
        <ele>632</ele>
        <time>2010-06-12T07:43:27Z</time>
      </trkpt>
      <trkpt lat="45.76265" lon="6.04801">
        <ele>632</ele>
        <time>2010-06-12T07:43:29Z</time>
      </trkpt>
      <trkpt lat="45.76263" lon="6.04808">
        <ele>632</ele>
        <time>2010-06-12T07:43:31Z</time>
      </trkpt>
      <trkpt lat="45.76262" lon="6.04816">
        <ele>632</ele>
        <time>2010-06-12T07:43:33Z</time>
      </trkpt>
      <trkpt lat="45.7626" lon="6.04823">
        <ele>632</ele>
        <time>2010-06-12T07:43:35Z</time>
      </trkpt>
      <trkpt lat="45.76258" lon="6.04831">
        <ele>632</ele>
        <time>2010-06-12T07:43:37Z</time>
      </trkpt>
      <trkpt lat="45.76256" lon="6.04839">
        <ele>632</ele>
        <time>2010-06-12T07:43:39Z</time>
      </trkpt>
      <trkpt lat="45.76254" lon="6.04846">
        <ele>632</ele>
        <time>2010-06-12T07:43:41Z</time>
      </trkpt>
      <trkpt lat="45.76252" lon="6.04854">
        <ele>632</ele>
        <time>2010-06-12T07:43:43Z</time>
      </trkpt>
      <trkpt lat="45.76249" lon="6.0486">
        <ele>632</ele>
        <time>2010-06-12T07:43:45Z</time>
      </trkpt>
      <trkpt lat="45.76247" lon="6.04867">
        <ele>632</ele>
        <time>2010-06-12T07:43:47Z</time>
      </trkpt>
      <trkpt lat="45.76244" lon="6.04876">
        <ele>632</ele>
        <time>2010-06-12T07:43:50Z</time>
      </trkpt>
      <trkpt lat="45.76241" lon="6.04881">
        <ele>631</ele>
        <time>2010-06-12T07:43:52Z</time>
      </trkpt>
      <trkpt lat="45.76238" lon="6.0489">
        <ele>631</ele>
        <time>2010-06-12T07:43:55Z</time>
      </trkpt>
      <trkpt lat="45.76235" lon="6.04896">
        <ele>631</ele>
        <time>2010-06-12T07:43:57Z</time>
      </trkpt>
      <trkpt lat="45.76232" lon="6.04902">
        <ele>630</ele>
        <time>2010-06-12T07:43:59Z</time>
      </trkpt>
      <trkpt lat="45.7623" lon="6.04905">
        <ele>629</ele>
        <time>2010-06-12T07:44:01Z</time>
      </trkpt>
      <trkpt lat="45.7623" lon="6.0491">
        <ele>629</ele>
        <time>2010-06-12T07:44:03Z</time>
      </trkpt>
      <trkpt lat="45.76228" lon="6.04915">
        <ele>629</ele>
        <time>2010-06-12T07:44:05Z</time>
      </trkpt>
      <trkpt lat="45.76225" lon="6.0492">
        <ele>629</ele>
        <time>2010-06-12T07:44:07Z</time>
      </trkpt>
      <trkpt lat="45.76221" lon="6.04928">
        <ele>629</ele>
        <time>2010-06-12T07:44:10Z</time>
      </trkpt>
      <trkpt lat="45.76219" lon="6.04934">
        <ele>629</ele>
        <time>2010-06-12T07:44:12Z</time>
      </trkpt>
      <trkpt lat="45.76217" lon="6.04939">
        <ele>629</ele>
        <time>2010-06-12T07:44:14Z</time>
      </trkpt>
      <trkpt lat="45.76215" lon="6.04945">
        <ele>629</ele>
        <time>2010-06-12T07:44:16Z</time>
      </trkpt>
      <trkpt lat="45.76214" lon="6.0495">
        <ele>629</ele>
        <time>2010-06-12T07:44:18Z</time>
      </trkpt>
      <trkpt lat="45.76212" lon="6.04955">
        <ele>629</ele>
        <time>2010-06-12T07:44:20Z</time>
      </trkpt>
      <trkpt lat="45.7621" lon="6.0496">
        <ele>629</ele>
        <time>2010-06-12T07:44:22Z</time>
      </trkpt>
      <trkpt lat="45.76208" lon="6.04966">
        <ele>629</ele>
        <time>2010-06-12T07:44:24Z</time>
      </trkpt>
      <trkpt lat="45.76207" lon="6.04971">
        <ele>629</ele>
        <time>2010-06-12T07:44:26Z</time>
      </trkpt>
      <trkpt lat="45.76205" lon="6.04976">
        <ele>629</ele>
        <time>2010-06-12T07:44:28Z</time>
      </trkpt>
      <trkpt lat="45.76203" lon="6.04981">
        <ele>629</ele>
        <time>2010-06-12T07:44:30Z</time>
      </trkpt>
      <trkpt lat="45.76202" lon="6.04986">
        <ele>629</ele>
        <time>2010-06-12T07:44:32Z</time>
      </trkpt>
      <trkpt lat="45.762" lon="6.0499">
        <ele>629</ele>
        <time>2010-06-12T07:44:34Z</time>
      </trkpt>
      <trkpt lat="45.76199" lon="6.04995">
        <ele>629</ele>
        <time>2010-06-12T07:44:36Z</time>
      </trkpt>
      <trkpt lat="45.76197" lon="6.04999">
        <ele>629</ele>
        <time>2010-06-12T07:44:38Z</time>
      </trkpt>
      <trkpt lat="45.76195" lon="6.05004">
        <ele>629</ele>
        <time>2010-06-12T07:44:40Z</time>
      </trkpt>
      <trkpt lat="45.76194" lon="6.05009">
        <ele>629</ele>
        <time>2010-06-12T07:44:42Z</time>
      </trkpt>
      <trkpt lat="45.76193" lon="6.05014">
        <ele>629</ele>
        <time>2010-06-12T07:44:44Z</time>
      </trkpt>
      <trkpt lat="45.76192" lon="6.05018">
        <ele>629</ele>
        <time>2010-06-12T07:44:46Z</time>
      </trkpt>
      <trkpt lat="45.7619" lon="6.05023">
        <ele>629</ele>
        <time>2010-06-12T07:44:48Z</time>
      </trkpt>
      <trkpt lat="45.76188" lon="6.05028">
        <ele>629</ele>
        <time>2010-06-12T07:44:50Z</time>
      </trkpt>
      <trkpt lat="45.76186" lon="6.05034">
        <ele>629</ele>
        <time>2010-06-12T07:44:52Z</time>
      </trkpt>
      <trkpt lat="45.76183" lon="6.05039">
        <ele>629</ele>
        <time>2010-06-12T07:44:54Z</time>
      </trkpt>
      <trkpt lat="45.76182" lon="6.05044">
        <ele>629</ele>
        <time>2010-06-12T07:44:56Z</time>
      </trkpt>
      <trkpt lat="45.7618" lon="6.05049">
        <ele>629</ele>
        <time>2010-06-12T07:44:58Z</time>
      </trkpt>
      <trkpt lat="45.76178" lon="6.05055">
        <ele>629</ele>
        <time>2010-06-12T07:45:00Z</time>
      </trkpt>
      <trkpt lat="45.76177" lon="6.0506">
        <ele>630</ele>
        <time>2010-06-12T07:45:02Z</time>
      </trkpt>
      <trkpt lat="45.76176" lon="6.05065">
        <ele>631</ele>
        <time>2010-06-12T07:45:04Z</time>
      </trkpt>
      <trkpt lat="45.76174" lon="6.05071">
        <ele>631</ele>
        <time>2010-06-12T07:45:06Z</time>
      </trkpt>
      <trkpt lat="45.76173" lon="6.05077">
        <ele>632</ele>
        <time>2010-06-12T07:45:08Z</time>
      </trkpt>
      <trkpt lat="45.76171" lon="6.05082">
        <ele>632</ele>
        <time>2010-06-12T07:45:10Z</time>
      </trkpt>
      <trkpt lat="45.76169" lon="6.05087">
        <ele>632</ele>
        <time>2010-06-12T07:45:12Z</time>
      </trkpt>
      <trkpt lat="45.76167" lon="6.05093">
        <ele>633</ele>
        <time>2010-06-12T07:45:14Z</time>
      </trkpt>
      <trkpt lat="45.76165" lon="6.05099">
        <ele>634</ele>
        <time>2010-06-12T07:45:16Z</time>
      </trkpt>
      <trkpt lat="45.76161" lon="6.05107">
        <ele>636</ele>
        <time>2010-06-12T07:45:19Z</time>
      </trkpt>
      <trkpt lat="45.76158" lon="6.05112">
        <ele>637</ele>
        <time>2010-06-12T07:45:21Z</time>
      </trkpt>
      <trkpt lat="45.76155" lon="6.05117">
        <ele>638</ele>
        <time>2010-06-12T07:45:23Z</time>
      </trkpt>
      <trkpt lat="45.76153" lon="6.05122">
        <ele>639</ele>
        <time>2010-06-12T07:45:25Z</time>
      </trkpt>
      <trkpt lat="45.7615" lon="6.05127">
        <ele>639</ele>
        <time>2010-06-12T07:45:27Z</time>
      </trkpt>
      <trkpt lat="45.76147" lon="6.05133">
        <ele>639</ele>
        <time>2010-06-12T07:45:29Z</time>
      </trkpt>
      <trkpt lat="45.76144" lon="6.05138">
        <ele>639</ele>
        <time>2010-06-12T07:45:31Z</time>
      </trkpt>
      <trkpt lat="45.76141" lon="6.05143">
        <ele>639</ele>
        <time>2010-06-12T07:45:33Z</time>
      </trkpt>
      <trkpt lat="45.76138" lon="6.05147">
        <ele>639</ele>
        <time>2010-06-12T07:45:35Z</time>
      </trkpt>
      <trkpt lat="45.76136" lon="6.05151">
        <ele>639</ele>
        <time>2010-06-12T07:45:37Z</time>
      </trkpt>
      <trkpt lat="45.76133" lon="6.05155">
        <ele>639</ele>
        <time>2010-06-12T07:45:39Z</time>
      </trkpt>
      <trkpt lat="45.7613" lon="6.05159">
        <ele>639</ele>
        <time>2010-06-12T07:45:41Z</time>
      </trkpt>
      <trkpt lat="45.76127" lon="6.05162">
        <ele>639</ele>
        <time>2010-06-12T07:45:43Z</time>
      </trkpt>
      <trkpt lat="45.76124" lon="6.05165">
        <ele>638</ele>
        <time>2010-06-12T07:45:45Z</time>
      </trkpt>
      <trkpt lat="45.7612" lon="6.05169">
        <ele>638</ele>
        <time>2010-06-12T07:45:47Z</time>
      </trkpt>
      <trkpt lat="45.76117" lon="6.05171">
        <ele>638</ele>
        <time>2010-06-12T07:45:49Z</time>
      </trkpt>
      <trkpt lat="45.76112" lon="6.05176">
        <ele>638</ele>
        <time>2010-06-12T07:45:52Z</time>
      </trkpt>
      <trkpt lat="45.76109" lon="6.0518">
        <ele>638</ele>
        <time>2010-06-12T07:45:54Z</time>
      </trkpt>
      <trkpt lat="45.76105" lon="6.05183">
        <ele>638</ele>
        <time>2010-06-12T07:45:56Z</time>
      </trkpt>
      <trkpt lat="45.76102" lon="6.05186">
        <ele>638</ele>
        <time>2010-06-12T07:45:58Z</time>
      </trkpt>
      <trkpt lat="45.76098" lon="6.05189">
        <ele>637</ele>
        <time>2010-06-12T07:46:00Z</time>
      </trkpt>
      <trkpt lat="45.76095" lon="6.05192">
        <ele>637</ele>
        <time>2010-06-12T07:46:02Z</time>
      </trkpt>
      <trkpt lat="45.76091" lon="6.05195">
        <ele>637</ele>
        <time>2010-06-12T07:46:04Z</time>
      </trkpt>
      <trkpt lat="45.76088" lon="6.05198">
        <ele>636</ele>
        <time>2010-06-12T07:46:06Z</time>
      </trkpt>
      <trkpt lat="45.76085" lon="6.052">
        <ele>636</ele>
        <time>2010-06-12T07:46:08Z</time>
      </trkpt>
      <trkpt lat="45.76079" lon="6.05205">
        <ele>636</ele>
        <time>2010-06-12T07:46:11Z</time>
      </trkpt>
      <trkpt lat="45.76075" lon="6.05207">
        <ele>636</ele>
        <time>2010-06-12T07:46:13Z</time>
      </trkpt>
      <trkpt lat="45.76069" lon="6.05211">
        <ele>636</ele>
        <time>2010-06-12T07:46:16Z</time>
      </trkpt>
      <trkpt lat="45.76066" lon="6.05213">
        <ele>636</ele>
        <time>2010-06-12T07:46:18Z</time>
      </trkpt>
      <trkpt lat="45.76063" lon="6.05216">
        <ele>636</ele>
        <time>2010-06-12T07:46:20Z</time>
      </trkpt>
      <trkpt lat="45.7606" lon="6.05219">
        <ele>636</ele>
        <time>2010-06-12T07:46:22Z</time>
      </trkpt>
      <trkpt lat="45.76057" lon="6.05223">
        <ele>636</ele>
        <time>2010-06-12T07:46:24Z</time>
      </trkpt>
      <trkpt lat="45.76055" lon="6.05226">
        <ele>636</ele>
        <time>2010-06-12T07:46:26Z</time>
      </trkpt>
      <trkpt lat="45.76053" lon="6.05232">
        <ele>636</ele>
        <time>2010-06-12T07:46:28Z</time>
      </trkpt>
      <trkpt lat="45.76051" lon="6.05236">
        <ele>636</ele>
        <time>2010-06-12T07:46:30Z</time>
      </trkpt>
      <trkpt lat="45.7605" lon="6.0524">
        <ele>636</ele>
        <time>2010-06-12T07:46:32Z</time>
      </trkpt>
      <trkpt lat="45.76047" lon="6.05247">
        <ele>638</ele>
        <time>2010-06-12T07:46:35Z</time>
      </trkpt>
      <trkpt lat="45.76044" lon="6.05253">
        <ele>640</ele>
        <time>2010-06-12T07:46:37Z</time>
      </trkpt>
      <trkpt lat="45.76042" lon="6.05258">
        <ele>641</ele>
        <time>2010-06-12T07:46:39Z</time>
      </trkpt>
      <trkpt lat="45.76042" lon="6.05263">
        <ele>642</ele>
        <time>2010-06-12T07:46:41Z</time>
      </trkpt>
      <trkpt lat="45.76042" lon="6.05269">
        <ele>642</ele>
        <time>2010-06-12T07:46:43Z</time>
      </trkpt>
      <trkpt lat="45.76041" lon="6.05274">
        <ele>644</ele>
        <time>2010-06-12T07:46:45Z</time>
      </trkpt>
      <trkpt lat="45.76041" lon="6.05278">
        <ele>646</ele>
        <time>2010-06-12T07:46:47Z</time>
      </trkpt>
      <trkpt lat="45.76041" lon="6.05282">
        <ele>648</ele>
        <time>2010-06-12T07:46:49Z</time>
      </trkpt>
      <trkpt lat="45.7604" lon="6.05287">
        <ele>650</ele>
        <time>2010-06-12T07:46:51Z</time>
      </trkpt>
      <trkpt lat="45.76039" lon="6.05293">
        <ele>651</ele>
        <time>2010-06-12T07:46:53Z</time>
      </trkpt>
      <trkpt lat="45.76037" lon="6.05299">
        <ele>651</ele>
        <time>2010-06-12T07:46:55Z</time>
      </trkpt>
      <trkpt lat="45.76035" lon="6.05307">
        <ele>653</ele>
        <time>2010-06-12T07:46:57Z</time>
      </trkpt>
      <trkpt lat="45.76035" lon="6.05313">
        <ele>654</ele>
        <time>2010-06-12T07:46:59Z</time>
      </trkpt>
      <trkpt lat="45.76033" lon="6.05319">
        <ele>655</ele>
        <time>2010-06-12T07:47:01Z</time>
      </trkpt>
      <trkpt lat="45.76032" lon="6.05324">
        <ele>655</ele>
        <time>2010-06-12T07:47:03Z</time>
      </trkpt>
      <trkpt lat="45.7603" lon="6.0533">
        <ele>655</ele>
        <time>2010-06-12T07:47:05Z</time>
      </trkpt>
      <trkpt lat="45.76028" lon="6.05337">
        <ele>655</ele>
        <time>2010-06-12T07:47:07Z</time>
      </trkpt>
      <trkpt lat="45.76025" lon="6.05344">
        <ele>655</ele>
        <time>2010-06-12T07:47:09Z</time>
      </trkpt>
      <trkpt lat="45.76022" lon="6.0535">
        <ele>655</ele>
        <time>2010-06-12T07:47:11Z</time>
      </trkpt>
      <trkpt lat="45.76019" lon="6.05355">
        <ele>655</ele>
        <time>2010-06-12T07:47:13Z</time>
      </trkpt>
      <trkpt lat="45.76017" lon="6.05362">
        <ele>655</ele>
        <time>2010-06-12T07:47:15Z</time>
      </trkpt>
      <trkpt lat="45.76014" lon="6.05369">
        <ele>655</ele>
        <time>2010-06-12T07:47:17Z</time>
      </trkpt>
      <trkpt lat="45.76012" lon="6.05376">
        <ele>655</ele>
        <time>2010-06-12T07:47:19Z</time>
      </trkpt>
      <trkpt lat="45.7601" lon="6.05382">
        <ele>655</ele>
        <time>2010-06-12T07:47:21Z</time>
      </trkpt>
      <trkpt lat="45.76005" lon="6.05391">
        <ele>655</ele>
        <time>2010-06-12T07:47:24Z</time>
      </trkpt>
      <trkpt lat="45.76003" lon="6.05396">
        <ele>655</ele>
        <time>2010-06-12T07:47:26Z</time>
      </trkpt>
      <trkpt lat="45.76001" lon="6.05402">
        <ele>656</ele>
        <time>2010-06-12T07:47:28Z</time>
      </trkpt>
      <trkpt lat="45.75999" lon="6.05412">
        <ele>658</ele>
        <time>2010-06-12T07:47:31Z</time>
      </trkpt>
      <trkpt lat="45.75997" lon="6.05419">
        <ele>659</ele>
        <time>2010-06-12T07:47:33Z</time>
      </trkpt>
      <trkpt lat="45.75994" lon="6.05426">
        <ele>660</ele>
        <time>2010-06-12T07:47:35Z</time>
      </trkpt>
      <trkpt lat="45.75993" lon="6.05432">
        <ele>660</ele>
        <time>2010-06-12T07:47:37Z</time>
      </trkpt>
      <trkpt lat="45.75991" lon="6.0544">
        <ele>660</ele>
        <time>2010-06-12T07:47:39Z</time>
      </trkpt>
      <trkpt lat="45.75987" lon="6.0545">
        <ele>660</ele>
        <time>2010-06-12T07:47:41Z</time>
      </trkpt>
      <trkpt lat="45.75983" lon="6.05459">
        <ele>659</ele>
        <time>2010-06-12T07:47:43Z</time>
      </trkpt>
      <trkpt lat="45.7598" lon="6.05466">
        <ele>657</ele>
        <time>2010-06-12T07:47:45Z</time>
      </trkpt>
      <trkpt lat="45.75976" lon="6.05473">
        <ele>656</ele>
        <time>2010-06-12T07:47:47Z</time>
      </trkpt>
      <trkpt lat="45.75972" lon="6.05479">
        <ele>654</ele>
        <time>2010-06-12T07:47:49Z</time>
      </trkpt>
      <trkpt lat="45.75966" lon="6.05485">
        <ele>654</ele>
        <time>2010-06-12T07:47:51Z</time>
      </trkpt>
      <trkpt lat="45.75961" lon="6.05489">
        <ele>653</ele>
        <time>2010-06-12T07:47:53Z</time>
      </trkpt>
      <trkpt lat="45.75952" lon="6.05497">
        <ele>653</ele>
        <time>2010-06-12T07:47:56Z</time>
      </trkpt>
      <trkpt lat="45.75944" lon="6.05505">
        <ele>653</ele>
        <time>2010-06-12T07:47:58Z</time>
      </trkpt>
      <trkpt lat="45.75937" lon="6.05512">
        <ele>653</ele>
        <time>2010-06-12T07:48:00Z</time>
      </trkpt>
      <trkpt lat="45.75927" lon="6.0552">
        <ele>651</ele>
        <time>2010-06-12T07:48:02Z</time>
      </trkpt>
      <trkpt lat="45.75917" lon="6.05528">
        <ele>649</ele>
        <time>2010-06-12T07:48:04Z</time>
      </trkpt>
      <trkpt lat="45.75909" lon="6.05535">
        <ele>647</ele>
        <time>2010-06-12T07:48:06Z</time>
      </trkpt>
      <trkpt lat="45.75903" lon="6.05542">
        <ele>647</ele>
        <time>2010-06-12T07:48:08Z</time>
      </trkpt>
      <trkpt lat="45.75897" lon="6.0555">
        <ele>646</ele>
        <time>2010-06-12T07:48:10Z</time>
      </trkpt>
      <trkpt lat="45.75891" lon="6.05556">
        <ele>645</ele>
        <time>2010-06-12T07:48:12Z</time>
      </trkpt>
      <trkpt lat="45.75884" lon="6.0556">
        <ele>644</ele>
        <time>2010-06-12T07:48:14Z</time>
      </trkpt>
      <trkpt lat="45.7588" lon="6.05563">
        <ele>643</ele>
        <time>2010-06-12T07:48:16Z</time>
      </trkpt>
      <trkpt lat="45.75874" lon="6.05568">
        <ele>642</ele>
        <time>2010-06-12T07:48:18Z</time>
      </trkpt>
      <trkpt lat="45.75867" lon="6.05572">
        <ele>640</ele>
        <time>2010-06-12T07:48:20Z</time>
      </trkpt>
      <trkpt lat="45.75859" lon="6.05579">
        <ele>639</ele>
        <time>2010-06-12T07:48:23Z</time>
      </trkpt>
      <trkpt lat="45.75852" lon="6.05584">
        <ele>638</ele>
        <time>2010-06-12T07:48:25Z</time>
      </trkpt>
      <trkpt lat="45.75842" lon="6.0559">
        <ele>637</ele>
        <time>2010-06-12T07:48:28Z</time>
      </trkpt>
      <trkpt lat="45.75832" lon="6.05596">
        <ele>636</ele>
        <time>2010-06-12T07:48:31Z</time>
      </trkpt>
      <trkpt lat="45.75824" lon="6.056">
        <ele>636</ele>
        <time>2010-06-12T07:48:33Z</time>
      </trkpt>
      <trkpt lat="45.75817" lon="6.05604">
        <ele>636</ele>
        <time>2010-06-12T07:48:35Z</time>
      </trkpt>
      <trkpt lat="45.75811" lon="6.05609">
        <ele>636</ele>
        <time>2010-06-12T07:48:37Z</time>
      </trkpt>
      <trkpt lat="45.75805" lon="6.05612">
        <ele>636</ele>
        <time>2010-06-12T07:48:39Z</time>
      </trkpt>
      <trkpt lat="45.75798" lon="6.05617">
        <ele>636</ele>
        <time>2010-06-12T07:48:41Z</time>
      </trkpt>
      <trkpt lat="45.75789" lon="6.05623">
        <ele>636</ele>
        <time>2010-06-12T07:48:44Z</time>
      </trkpt>
      <trkpt lat="45.75783" lon="6.05626">
        <ele>636</ele>
        <time>2010-06-12T07:48:46Z</time>
      </trkpt>
      <trkpt lat="45.75776" lon="6.05629">
        <ele>635</ele>
        <time>2010-06-12T07:48:48Z</time>
      </trkpt>
      <trkpt lat="45.75769" lon="6.05631">
        <ele>635</ele>
        <time>2010-06-12T07:48:50Z</time>
      </trkpt>
      <trkpt lat="45.75761" lon="6.05635">
        <ele>635</ele>
        <time>2010-06-12T07:48:52Z</time>
      </trkpt>
      <trkpt lat="45.75752" lon="6.0564">
        <ele>635</ele>
        <time>2010-06-12T07:48:54Z</time>
      </trkpt>
      <trkpt lat="45.75743" lon="6.05645">
        <ele>635</ele>
        <time>2010-06-12T07:48:56Z</time>
      </trkpt>
      <trkpt lat="45.75735" lon="6.0565">
        <ele>635</ele>
        <time>2010-06-12T07:48:58Z</time>
      </trkpt>
      <trkpt lat="45.75721" lon="6.05656">
        <ele>635</ele>
        <time>2010-06-12T07:49:01Z</time>
      </trkpt>
      <trkpt lat="45.75706" lon="6.05663">
        <ele>635</ele>
        <time>2010-06-12T07:49:04Z</time>
      </trkpt>
      <trkpt lat="45.75697" lon="6.05669">
        <ele>635</ele>
        <time>2010-06-12T07:49:06Z</time>
      </trkpt>
      <trkpt lat="45.7569" lon="6.05676">
        <ele>635</ele>
        <time>2010-06-12T07:49:09Z</time>
      </trkpt>
      <trkpt lat="45.75686" lon="6.0568">
        <ele>635</ele>
        <time>2010-06-12T07:49:11Z</time>
      </trkpt>
      <trkpt lat="45.75682" lon="6.05688">
        <ele>635</ele>
        <time>2010-06-12T07:49:13Z</time>
      </trkpt>
      <trkpt lat="45.75675" lon="6.05701">
        <ele>635</ele>
        <time>2010-06-12T07:49:16Z</time>
      </trkpt>
      <trkpt lat="45.75671" lon="6.05713">
        <ele>636</ele>
        <time>2010-06-12T07:49:19Z</time>
      </trkpt>
      <trkpt lat="45.75668" lon="6.05721">
        <ele>638</ele>
        <time>2010-06-12T07:49:21Z</time>
      </trkpt>
      <trkpt lat="45.75664" lon="6.05738">
        <ele>639</ele>
        <time>2010-06-12T07:49:24Z</time>
      </trkpt>
      <trkpt lat="45.75661" lon="6.05751">
        <ele>640</ele>
        <time>2010-06-12T07:49:26Z</time>
      </trkpt>
      <trkpt lat="45.75652" lon="6.05776">
        <ele>642</ele>
        <time>2010-06-12T07:49:29Z</time>
      </trkpt>
      <trkpt lat="45.75639" lon="6.05799">
        <ele>643</ele>
        <time>2010-06-12T07:49:32Z</time>
      </trkpt>
      <trkpt lat="45.75631" lon="6.05812">
        <ele>643</ele>
        <time>2010-06-12T07:49:34Z</time>
      </trkpt>
      <trkpt lat="45.75624" lon="6.05825">
        <ele>644</ele>
        <time>2010-06-12T07:49:36Z</time>
      </trkpt>
      <trkpt lat="45.75613" lon="6.05837">
        <ele>646</ele>
        <time>2010-06-12T07:49:39Z</time>
      </trkpt>
      <trkpt lat="45.75605" lon="6.05845">
        <ele>646</ele>
        <time>2010-06-12T07:49:41Z</time>
      </trkpt>
      <trkpt lat="45.75598" lon="6.05849">
        <ele>646</ele>
        <time>2010-06-12T07:49:43Z</time>
      </trkpt>
      <trkpt lat="45.75591" lon="6.05856">
        <ele>646</ele>
        <time>2010-06-12T07:49:45Z</time>
      </trkpt>
      <trkpt lat="45.75574" lon="6.0587">
        <ele>646</ele>
        <time>2010-06-12T07:49:48Z</time>
      </trkpt>
      <trkpt lat="45.75565" lon="6.05878">
        <ele>646</ele>
        <time>2010-06-12T07:49:50Z</time>
      </trkpt>
      <trkpt lat="45.75557" lon="6.05883">
        <ele>646</ele>
        <time>2010-06-12T07:49:52Z</time>
      </trkpt>
      <trkpt lat="45.7555" lon="6.05889">
        <ele>646</ele>
        <time>2010-06-12T07:49:54Z</time>
      </trkpt>
      <trkpt lat="45.75542" lon="6.05895">
        <ele>645</ele>
        <time>2010-06-12T07:49:56Z</time>
      </trkpt>
      <trkpt lat="45.75534" lon="6.05901">
        <ele>644</ele>
        <time>2010-06-12T07:49:58Z</time>
      </trkpt>
      <trkpt lat="45.75526" lon="6.05908">
        <ele>643</ele>
        <time>2010-06-12T07:50:00Z</time>
      </trkpt>
      <trkpt lat="45.75517" lon="6.05915">
        <ele>643</ele>
        <time>2010-06-12T07:50:02Z</time>
      </trkpt>
      <trkpt lat="45.75511" lon="6.05921">
        <ele>643</ele>
        <time>2010-06-12T07:50:04Z</time>
      </trkpt>
      <trkpt lat="45.75507" lon="6.05922">
        <ele>643</ele>
        <time>2010-06-12T07:50:06Z</time>
      </trkpt>
      <trkpt lat="45.75505" lon="6.05923">
        <ele>642</ele>
        <time>2010-06-12T07:50:09Z</time>
      </trkpt>
      <trkpt lat="45.75502" lon="6.05922">
        <ele>639</ele>
        <time>2010-06-12T07:50:12Z</time>
      </trkpt>
      <trkpt lat="45.755" lon="6.05923">
        <ele>636</ele>
        <time>2010-06-12T07:50:15Z</time>
      </trkpt>
      <trkpt lat="45.75505" lon="6.05926">
        <ele>634</ele>
        <time>2010-06-12T07:50:19Z</time>
      </trkpt>
      <trkpt lat="45.75502" lon="6.05922">
        <ele>628</ele>
        <time>2010-06-12T07:50:23Z</time>
      </trkpt>
      <trkpt lat="45.755" lon="6.05921">
        <ele>622</ele>
        <time>2010-06-12T07:50:26Z</time>
      </trkpt>
      <trkpt lat="45.75499" lon="6.05922">
        <ele>619</ele>
        <time>2010-06-12T07:50:28Z</time>
      </trkpt>
      <trkpt lat="45.75495" lon="6.05923">
        <ele>616</ele>
        <time>2010-06-12T07:50:31Z</time>
      </trkpt>
      <trkpt lat="45.75497" lon="6.05925">
        <ele>613</ele>
        <time>2010-06-12T07:50:34Z</time>
      </trkpt>
      <trkpt lat="45.75495" lon="6.05926">
        <ele>611</ele>
        <time>2010-06-12T07:50:36Z</time>
      </trkpt>
      <trkpt lat="45.75493" lon="6.05928">
        <ele>604</ele>
        <time>2010-06-12T07:50:39Z</time>
      </trkpt>
      <trkpt lat="45.75491" lon="6.05929">
        <ele>604</ele>
        <time>2010-06-12T07:50:41Z</time>
      </trkpt>
      <trkpt lat="45.7549" lon="6.05931">
        <ele>603</ele>
        <time>2010-06-12T07:50:44Z</time>
      </trkpt>
      <trkpt lat="45.75489" lon="6.05932">
        <ele>601</ele>
        <time>2010-06-12T07:50:47Z</time>
      </trkpt>
      <trkpt lat="45.7549" lon="6.0593">
        <ele>597</ele>
        <time>2010-06-12T07:50:55Z</time>
      </trkpt>
      <trkpt lat="45.75494" lon="6.05933">
        <ele>597</ele>
        <time>2010-06-12T07:51:02Z</time>
      </trkpt>
      <trkpt lat="45.75494" lon="6.05935">
        <ele>600</ele>
        <time>2010-06-12T07:51:06Z</time>
      </trkpt>
      <trkpt lat="45.75491" lon="6.05937">
        <ele>602</ele>
        <time>2010-06-12T07:51:08Z</time>
      </trkpt>
      <trkpt lat="45.75483" lon="6.05944">
        <ele>603</ele>
        <time>2010-06-12T07:51:11Z</time>
      </trkpt>
      <trkpt lat="45.75479" lon="6.05948">
        <ele>605</ele>
        <time>2010-06-12T07:51:13Z</time>
      </trkpt>
      <trkpt lat="45.75473" lon="6.0595">
        <ele>606</ele>
        <time>2010-06-12T07:51:15Z</time>
      </trkpt>
      <trkpt lat="45.75462" lon="6.0595">
        <ele>608</ele>
        <time>2010-06-12T07:51:18Z</time>
      </trkpt>
      <trkpt lat="45.75447" lon="6.05952">
        <ele>610</ele>
        <time>2010-06-12T07:51:21Z</time>
      </trkpt>
      <trkpt lat="45.75438" lon="6.05955">
        <ele>612</ele>
        <time>2010-06-12T07:51:23Z</time>
      </trkpt>
      <trkpt lat="45.7543" lon="6.05957">
        <ele>615</ele>
        <time>2010-06-12T07:51:26Z</time>
      </trkpt>
      <trkpt lat="45.75425" lon="6.0596">
        <ele>617</ele>
        <time>2010-06-12T07:51:28Z</time>
      </trkpt>
      <trkpt lat="45.7542" lon="6.05964">
        <ele>621</ele>
        <time>2010-06-12T07:51:30Z</time>
      </trkpt>
      <trkpt lat="45.75416" lon="6.05968">
        <ele>625</ele>
        <time>2010-06-12T07:51:32Z</time>
      </trkpt>
      <trkpt lat="45.75412" lon="6.05973">
        <ele>629</ele>
        <time>2010-06-12T07:51:34Z</time>
      </trkpt>
      <trkpt lat="45.75409" lon="6.05982">
        <ele>635</ele>
        <time>2010-06-12T07:51:37Z</time>
      </trkpt>
      <trkpt lat="45.75408" lon="6.05987">
        <ele>638</ele>
        <time>2010-06-12T07:51:39Z</time>
      </trkpt>
      <trkpt lat="45.75406" lon="6.05993">
        <ele>641</ele>
        <time>2010-06-12T07:51:41Z</time>
      </trkpt>
      <trkpt lat="45.75403" lon="6.06003">
        <ele>643</ele>
        <time>2010-06-12T07:51:44Z</time>
      </trkpt>
      <trkpt lat="45.75399" lon="6.06015">
        <ele>645</ele>
        <time>2010-06-12T07:51:46Z</time>
      </trkpt>
      <trkpt lat="45.75399" lon="6.06029">
        <ele>647</ele>
        <time>2010-06-12T07:51:48Z</time>
      </trkpt>
      <trkpt lat="45.75398" lon="6.06043">
        <ele>648</ele>
        <time>2010-06-12T07:51:50Z</time>
      </trkpt>
      <trkpt lat="45.7539" lon="6.06061">
        <ele>648</ele>
        <time>2010-06-12T07:51:53Z</time>
      </trkpt>
      <trkpt lat="45.75383" lon="6.06069">
        <ele>646</ele>
        <time>2010-06-12T07:51:55Z</time>
      </trkpt>
      <trkpt lat="45.75368" lon="6.06084">
        <ele>643</ele>
        <time>2010-06-12T07:51:58Z</time>
      </trkpt>
      <trkpt lat="45.7536" lon="6.06095">
        <ele>641</ele>
        <time>2010-06-12T07:52:00Z</time>
      </trkpt>
      <trkpt lat="45.75353" lon="6.06102">
        <ele>639</ele>
        <time>2010-06-12T07:52:02Z</time>
      </trkpt>
      <trkpt lat="45.75346" lon="6.06109">
        <ele>638</ele>
        <time>2010-06-12T07:52:04Z</time>
      </trkpt>
      <trkpt lat="45.75338" lon="6.06116">
        <ele>636</ele>
        <time>2010-06-12T07:52:06Z</time>
      </trkpt>
      <trkpt lat="45.75332" lon="6.06122">
        <ele>633</ele>
        <time>2010-06-12T07:52:09Z</time>
      </trkpt>
      <trkpt lat="45.7533" lon="6.06127">
        <ele>631</ele>
        <time>2010-06-12T07:52:11Z</time>
      </trkpt>
      <trkpt lat="45.75336" lon="6.06133">
        <ele>628</ele>
        <time>2010-06-12T07:52:14Z</time>
      </trkpt>
      <trkpt lat="45.75341" lon="6.06134">
        <ele>626</ele>
        <time>2010-06-12T07:52:16Z</time>
      </trkpt>
      <trkpt lat="45.75348" lon="6.06135">
        <ele>623</ele>
        <time>2010-06-12T07:52:19Z</time>
      </trkpt>
      <trkpt lat="45.75353" lon="6.06134">
        <ele>620</ele>
        <time>2010-06-12T07:52:22Z</time>
      </trkpt>
      <trkpt lat="45.75355" lon="6.06141">
        <ele>616</ele>
        <time>2010-06-12T07:52:27Z</time>
      </trkpt>
      <trkpt lat="45.75354" lon="6.06143">
        <ele>616</ele>
        <time>2010-06-12T07:52:29Z</time>
      </trkpt>
      <trkpt lat="45.75353" lon="6.06145">
        <ele>616</ele>
        <time>2010-06-12T07:52:31Z</time>
      </trkpt>
      <trkpt lat="45.75353" lon="6.06147">
        <ele>616</ele>
        <time>2010-06-12T07:52:33Z</time>
      </trkpt>
      <trkpt lat="45.75353" lon="6.06151">
        <ele>616</ele>
        <time>2010-06-12T07:52:37Z</time>
      </trkpt>
      <trkpt lat="45.75353" lon="6.06153">
        <ele>618</ele>
        <time>2010-06-12T07:52:40Z</time>
      </trkpt>
      <trkpt lat="45.75353" lon="6.06154">
        <ele>620</ele>
        <time>2010-06-12T07:52:43Z</time>
      </trkpt>
      <trkpt lat="45.75353" lon="6.06156">
        <ele>622</ele>
        <time>2010-06-12T07:52:47Z</time>
      </trkpt>
      <trkpt lat="45.75354" lon="6.06157">
        <ele>623</ele>
        <time>2010-06-12T07:52:50Z</time>
      </trkpt>
      <trkpt lat="45.75354" lon="6.0616">
        <ele>623</ele>
        <time>2010-06-12T07:52:52Z</time>
      </trkpt>
      <trkpt lat="45.75351" lon="6.06159">
        <ele>623</ele>
        <time>2010-06-12T07:52:54Z</time>
      </trkpt>
      <trkpt lat="45.75347" lon="6.06158">
        <ele>623</ele>
        <time>2010-06-12T07:52:56Z</time>
      </trkpt>
      <trkpt lat="45.7534" lon="6.06157">
        <ele>622</ele>
        <time>2010-06-12T07:52:58Z</time>
      </trkpt>
      <trkpt lat="45.75333" lon="6.06157">
        <ele>620</ele>
        <time>2010-06-12T07:53:00Z</time>
      </trkpt>
      <trkpt lat="45.75324" lon="6.06157">
        <ele>618</ele>
        <time>2010-06-12T07:53:02Z</time>
      </trkpt>
      <trkpt lat="45.7531" lon="6.06159">
        <ele>615</ele>
        <time>2010-06-12T07:53:05Z</time>
      </trkpt>
      <trkpt lat="45.75301" lon="6.0616">
        <ele>613</ele>
        <time>2010-06-12T07:53:07Z</time>
      </trkpt>
      <trkpt lat="45.75293" lon="6.06162">
        <ele>611</ele>
        <time>2010-06-12T07:53:09Z</time>
      </trkpt>
      <trkpt lat="45.75285" lon="6.06165">
        <ele>608</ele>
        <time>2010-06-12T07:53:11Z</time>
      </trkpt>
      <trkpt lat="45.75278" lon="6.06173">
        <ele>606</ele>
        <time>2010-06-12T07:53:13Z</time>
      </trkpt>
      <trkpt lat="45.75272" lon="6.0619">
        <ele>603</ele>
        <time>2010-06-12T07:53:16Z</time>
      </trkpt>
      <trkpt lat="45.7527" lon="6.06205">
        <ele>601</ele>
        <time>2010-06-12T07:53:18Z</time>
      </trkpt>
      <trkpt lat="45.75267" lon="6.06226">
        <ele>601</ele>
        <time>2010-06-12T07:53:21Z</time>
      </trkpt>
      <trkpt lat="45.75263" lon="6.06241">
        <ele>601</ele>
        <time>2010-06-12T07:53:23Z</time>
      </trkpt>
      <trkpt lat="45.75259" lon="6.06255">
        <ele>601</ele>
        <time>2010-06-12T07:53:25Z</time>
      </trkpt>
      <trkpt lat="45.75254" lon="6.06268">
        <ele>601</ele>
        <time>2010-06-12T07:53:27Z</time>
      </trkpt>
      <trkpt lat="45.75248" lon="6.06282">
        <ele>601</ele>
        <time>2010-06-12T07:53:29Z</time>
      </trkpt>
      <trkpt lat="45.75242" lon="6.06295">
        <ele>601</ele>
        <time>2010-06-12T07:53:31Z</time>
      </trkpt>
      <trkpt lat="45.75232" lon="6.06315">
        <ele>601</ele>
        <time>2010-06-12T07:53:34Z</time>
      </trkpt>
      <trkpt lat="45.75225" lon="6.06328">
        <ele>601</ele>
        <time>2010-06-12T07:53:36Z</time>
      </trkpt>
      <trkpt lat="45.75213" lon="6.06347">
        <ele>601</ele>
        <time>2010-06-12T07:53:39Z</time>
      </trkpt>
      <trkpt lat="45.75202" lon="6.06365">
        <ele>601</ele>
        <time>2010-06-12T07:53:42Z</time>
      </trkpt>
      <trkpt lat="45.75193" lon="6.06376">
        <ele>601</ele>
        <time>2010-06-12T07:53:44Z</time>
      </trkpt>
      <trkpt lat="45.75185" lon="6.06389">
        <ele>601</ele>
        <time>2010-06-12T07:53:46Z</time>
      </trkpt>
      <trkpt lat="45.75173" lon="6.06406">
        <ele>601</ele>
        <time>2010-06-12T07:53:49Z</time>
      </trkpt>
      <trkpt lat="45.75165" lon="6.06417">
        <ele>601</ele>
        <time>2010-06-12T07:53:51Z</time>
      </trkpt>
      <trkpt lat="45.75156" lon="6.06428">
        <ele>601</ele>
        <time>2010-06-12T07:53:53Z</time>
      </trkpt>
      <trkpt lat="45.75147" lon="6.06438">
        <ele>601</ele>
        <time>2010-06-12T07:53:55Z</time>
      </trkpt>
      <trkpt lat="45.75139" lon="6.06448">
        <ele>601</ele>
        <time>2010-06-12T07:53:57Z</time>
      </trkpt>
      <trkpt lat="45.7513" lon="6.06458">
        <ele>601</ele>
        <time>2010-06-12T07:53:59Z</time>
      </trkpt>
      <trkpt lat="45.75122" lon="6.06469">
        <ele>601</ele>
        <time>2010-06-12T07:54:01Z</time>
      </trkpt>
      <trkpt lat="45.75114" lon="6.0648">
        <ele>601</ele>
        <time>2010-06-12T07:54:03Z</time>
      </trkpt>
      <trkpt lat="45.75106" lon="6.0649">
        <ele>601</ele>
        <time>2010-06-12T07:54:05Z</time>
      </trkpt>
      <trkpt lat="45.75099" lon="6.06502">
        <ele>601</ele>
        <time>2010-06-12T07:54:07Z</time>
      </trkpt>
      <trkpt lat="45.75089" lon="6.06521">
        <ele>601</ele>
        <time>2010-06-12T07:54:10Z</time>
      </trkpt>
      <trkpt lat="45.75083" lon="6.06535">
        <ele>601</ele>
        <time>2010-06-12T07:54:12Z</time>
      </trkpt>
      <trkpt lat="45.75076" lon="6.06558">
        <ele>601</ele>
        <time>2010-06-12T07:54:15Z</time>
      </trkpt>
      <trkpt lat="45.7507" lon="6.06573">
        <ele>601</ele>
        <time>2010-06-12T07:54:17Z</time>
      </trkpt>
      <trkpt lat="45.7506" lon="6.06595">
        <ele>601</ele>
        <time>2010-06-12T07:54:20Z</time>
      </trkpt>
      <trkpt lat="45.75055" lon="6.06611">
        <ele>601</ele>
        <time>2010-06-12T07:54:22Z</time>
      </trkpt>
      <trkpt lat="45.75045" lon="6.06632">
        <ele>601</ele>
        <time>2010-06-12T07:54:25Z</time>
      </trkpt>
      <trkpt lat="45.7504" lon="6.06645">
        <ele>601</ele>
        <time>2010-06-12T07:54:27Z</time>
      </trkpt>
      <trkpt lat="45.75034" lon="6.06658">
        <ele>601</ele>
        <time>2010-06-12T07:54:29Z</time>
      </trkpt>
      <trkpt lat="45.75025" lon="6.0668">
        <ele>600</ele>
        <time>2010-06-12T07:54:32Z</time>
      </trkpt>
      <trkpt lat="45.75013" lon="6.06703">
        <ele>599</ele>
        <time>2010-06-12T07:54:35Z</time>
      </trkpt>
      <trkpt lat="45.75003" lon="6.06716">
        <ele>599</ele>
        <time>2010-06-12T07:54:37Z</time>
      </trkpt>
      <trkpt lat="45.74989" lon="6.06734">
        <ele>599</ele>
        <time>2010-06-12T07:54:40Z</time>
      </trkpt>
      <trkpt lat="45.74978" lon="6.06747">
        <ele>599</ele>
        <time>2010-06-12T07:54:42Z</time>
      </trkpt>
      <trkpt lat="45.74965" lon="6.06769">
        <ele>599</ele>
        <time>2010-06-12T07:54:45Z</time>
      </trkpt>
      <trkpt lat="45.74958" lon="6.06784">
        <ele>599</ele>
        <time>2010-06-12T07:54:47Z</time>
      </trkpt>
      <trkpt lat="45.74952" lon="6.06801">
        <ele>598</ele>
        <time>2010-06-12T07:54:49Z</time>
      </trkpt>
      <trkpt lat="45.74947" lon="6.06816">
        <ele>597</ele>
        <time>2010-06-12T07:54:51Z</time>
      </trkpt>
      <trkpt lat="45.74942" lon="6.06831">
        <ele>596</ele>
        <time>2010-06-12T07:54:53Z</time>
      </trkpt>
      <trkpt lat="45.74937" lon="6.06846">
        <ele>595</ele>
        <time>2010-06-12T07:54:55Z</time>
      </trkpt>
      <trkpt lat="45.74932" lon="6.06861">
        <ele>594</ele>
        <time>2010-06-12T07:54:57Z</time>
      </trkpt>
      <trkpt lat="45.74928" lon="6.06877">
        <ele>593</ele>
        <time>2010-06-12T07:54:59Z</time>
      </trkpt>
      <trkpt lat="45.74924" lon="6.06892">
        <ele>592</ele>
        <time>2010-06-12T07:55:01Z</time>
      </trkpt>
      <trkpt lat="45.74919" lon="6.06907">
        <ele>591</ele>
        <time>2010-06-12T07:55:03Z</time>
      </trkpt>
      <trkpt lat="45.74915" lon="6.06922">
        <ele>591</ele>
        <time>2010-06-12T07:55:05Z</time>
      </trkpt>
      <trkpt lat="45.74912" lon="6.0694">
        <ele>590</ele>
        <time>2010-06-12T07:55:07Z</time>
      </trkpt>
      <trkpt lat="45.74908" lon="6.06962">
        <ele>590</ele>
        <time>2010-06-12T07:55:10Z</time>
      </trkpt>
      <trkpt lat="45.74906" lon="6.06979">
        <ele>590</ele>
        <time>2010-06-12T07:55:12Z</time>
      </trkpt>
      <trkpt lat="45.74899" lon="6.07004">
        <ele>590</ele>
        <time>2010-06-12T07:55:15Z</time>
      </trkpt>
      <trkpt lat="45.74892" lon="6.0702">
        <ele>590</ele>
        <time>2010-06-12T07:55:17Z</time>
      </trkpt>
      <trkpt lat="45.74881" lon="6.07042">
        <ele>589</ele>
        <time>2010-06-12T07:55:20Z</time>
      </trkpt>
      <trkpt lat="45.74874" lon="6.07057">
        <ele>589</ele>
        <time>2010-06-12T07:55:22Z</time>
      </trkpt>
      <trkpt lat="45.74863" lon="6.0708">
        <ele>589</ele>
        <time>2010-06-12T07:55:25Z</time>
      </trkpt>
      <trkpt lat="45.74857" lon="6.07095">
        <ele>589</ele>
        <time>2010-06-12T07:55:27Z</time>
      </trkpt>
      <trkpt lat="45.74849" lon="6.07119">
        <ele>589</ele>
        <time>2010-06-12T07:55:30Z</time>
      </trkpt>
      <trkpt lat="45.74843" lon="6.07135">
        <ele>589</ele>
        <time>2010-06-12T07:55:32Z</time>
      </trkpt>
      <trkpt lat="45.74834" lon="6.07155">
        <ele>589</ele>
        <time>2010-06-12T07:55:35Z</time>
      </trkpt>
      <trkpt lat="45.74828" lon="6.07165">
        <ele>589</ele>
        <time>2010-06-12T07:55:37Z</time>
      </trkpt>
      <trkpt lat="45.74819" lon="6.07176">
        <ele>589</ele>
        <time>2010-06-12T07:55:40Z</time>
      </trkpt>
      <trkpt lat="45.74813" lon="6.07179">
        <ele>590</ele>
        <time>2010-06-12T07:55:42Z</time>
      </trkpt>
      <trkpt lat="45.74811" lon="6.07185">
        <ele>592</ele>
        <time>2010-06-12T07:55:44Z</time>
      </trkpt>
      <trkpt lat="45.7481" lon="6.07188">
        <ele>593</ele>
        <time>2010-06-12T07:55:46Z</time>
      </trkpt>
      <trkpt lat="45.74807" lon="6.07193">
        <ele>593</ele>
        <time>2010-06-12T07:55:48Z</time>
      </trkpt>
      <trkpt lat="45.74806" lon="6.07197">
        <ele>593</ele>
        <time>2010-06-12T07:55:50Z</time>
      </trkpt>
      <trkpt lat="45.74805" lon="6.072">
        <ele>594</ele>
        <time>2010-06-12T07:55:52Z</time>
      </trkpt>
      <trkpt lat="45.74801" lon="6.07205">
        <ele>595</ele>
        <time>2010-06-12T07:55:55Z</time>
      </trkpt>
      <trkpt lat="45.74797" lon="6.07208">
        <ele>595</ele>
        <time>2010-06-12T07:55:57Z</time>
      </trkpt>
      <trkpt lat="45.74794" lon="6.07212">
        <ele>595</ele>
        <time>2010-06-12T07:56:00Z</time>
      </trkpt>
      <trkpt lat="45.74791" lon="6.07215">
        <ele>596</ele>
        <time>2010-06-12T07:56:02Z</time>
      </trkpt>
      <trkpt lat="45.74791" lon="6.0722">
        <ele>598</ele>
        <time>2010-06-12T07:56:04Z</time>
      </trkpt>
      <trkpt lat="45.74788" lon="6.07225">
        <ele>600</ele>
        <time>2010-06-12T07:56:06Z</time>
      </trkpt>
      <trkpt lat="45.74787" lon="6.07229">
        <ele>602</ele>
        <time>2010-06-12T07:56:08Z</time>
      </trkpt>
      <trkpt lat="45.74785" lon="6.0723">
        <ele>604</ele>
        <time>2010-06-12T07:56:10Z</time>
      </trkpt>
      <trkpt lat="45.74785" lon="6.07236">
        <ele>606</ele>
        <time>2010-06-12T07:56:12Z</time>
      </trkpt>
      <trkpt lat="45.74784" lon="6.07245">
        <ele>609</ele>
        <time>2010-06-12T07:56:15Z</time>
      </trkpt>
      <trkpt lat="45.74783" lon="6.0725">
        <ele>611</ele>
        <time>2010-06-12T07:56:17Z</time>
      </trkpt>
      <trkpt lat="45.74783" lon="6.07259">
        <ele>614</ele>
        <time>2010-06-12T07:56:20Z</time>
      </trkpt>
      <trkpt lat="45.74783" lon="6.0727">
        <ele>617</ele>
        <time>2010-06-12T07:56:23Z</time>
      </trkpt>
      <trkpt lat="45.74783" lon="6.07276">
        <ele>617</ele>
        <time>2010-06-12T07:56:25Z</time>
      </trkpt>
      <trkpt lat="45.74783" lon="6.0728">
        <ele>617</ele>
        <time>2010-06-12T07:56:27Z</time>
      </trkpt>
      <trkpt lat="45.74781" lon="6.07285">
        <ele>617</ele>
        <time>2010-06-12T07:56:30Z</time>
      </trkpt>
      <trkpt lat="45.74781" lon="6.07288">
        <ele>617</ele>
        <time>2010-06-12T07:56:32Z</time>
      </trkpt>
      <trkpt lat="45.74783" lon="6.07293">
        <ele>616</ele>
        <time>2010-06-12T07:56:34Z</time>
      </trkpt>
      <trkpt lat="45.74785" lon="6.07299">
        <ele>616</ele>
        <time>2010-06-12T07:56:36Z</time>
      </trkpt>
      <trkpt lat="45.74786" lon="6.07304">
        <ele>616</ele>
        <time>2010-06-12T07:56:38Z</time>
      </trkpt>
      <trkpt lat="45.74788" lon="6.07309">
        <ele>616</ele>
        <time>2010-06-12T07:56:40Z</time>
      </trkpt>
      <trkpt lat="45.7479" lon="6.07315">
        <ele>616</ele>
        <time>2010-06-12T07:56:42Z</time>
      </trkpt>
      <trkpt lat="45.74789" lon="6.07323">
        <ele>616</ele>
        <time>2010-06-12T07:56:45Z</time>
      </trkpt>
      <trkpt lat="45.74788" lon="6.07328">
        <ele>616</ele>
        <time>2010-06-12T07:56:47Z</time>
      </trkpt>
      <trkpt lat="45.74788" lon="6.07335">
        <ele>616</ele>
        <time>2010-06-12T07:56:49Z</time>
      </trkpt>
      <trkpt lat="45.74786" lon="6.07341">
        <ele>616</ele>
        <time>2010-06-12T07:56:51Z</time>
      </trkpt>
      <trkpt lat="45.74784" lon="6.07346">
        <ele>616</ele>
        <time>2010-06-12T07:56:53Z</time>
      </trkpt>
      <trkpt lat="45.74783" lon="6.07352">
        <ele>616</ele>
        <time>2010-06-12T07:56:56Z</time>
      </trkpt>
      <trkpt lat="45.74781" lon="6.07357">
        <ele>616</ele>
        <time>2010-06-12T07:56:58Z</time>
      </trkpt>
      <trkpt lat="45.7478" lon="6.07362">
        <ele>616</ele>
        <time>2010-06-12T07:57:00Z</time>
      </trkpt>
      <trkpt lat="45.74779" lon="6.07365">
        <ele>616</ele>
        <time>2010-06-12T07:57:02Z</time>
      </trkpt>
      <trkpt lat="45.74776" lon="6.07371">
        <ele>615</ele>
        <time>2010-06-12T07:57:04Z</time>
      </trkpt>
      <trkpt lat="45.74773" lon="6.07376">
        <ele>613</ele>
        <time>2010-06-12T07:57:06Z</time>
      </trkpt>
      <trkpt lat="45.7477" lon="6.07381">
        <ele>611</ele>
        <time>2010-06-12T07:57:08Z</time>
      </trkpt>
      <trkpt lat="45.74767" lon="6.07385">
        <ele>611</ele>
        <time>2010-06-12T07:57:10Z</time>
      </trkpt>
      <trkpt lat="45.74762" lon="6.07389">
        <ele>611</ele>
        <time>2010-06-12T07:57:12Z</time>
      </trkpt>
      <trkpt lat="45.74754" lon="6.07399">
        <ele>611</ele>
        <time>2010-06-12T07:57:15Z</time>
      </trkpt>
      <trkpt lat="45.7475" lon="6.07403">
        <ele>611</ele>
        <time>2010-06-12T07:57:17Z</time>
      </trkpt>
      <trkpt lat="45.74747" lon="6.07408">
        <ele>611</ele>
        <time>2010-06-12T07:57:19Z</time>
      </trkpt>
      <trkpt lat="45.74743" lon="6.07415">
        <ele>611</ele>
        <time>2010-06-12T07:57:21Z</time>
      </trkpt>
      <trkpt lat="45.74742" lon="6.07422">
        <ele>610</ele>
        <time>2010-06-12T07:57:23Z</time>
      </trkpt>
      <trkpt lat="45.7474" lon="6.07429">
        <ele>609</ele>
        <time>2010-06-12T07:57:25Z</time>
      </trkpt>
      <trkpt lat="45.74738" lon="6.07437">
        <ele>609</ele>
        <time>2010-06-12T07:57:27Z</time>
      </trkpt>
      <trkpt lat="45.74736" lon="6.07447">
        <ele>609</ele>
        <time>2010-06-12T07:57:29Z</time>
      </trkpt>
      <trkpt lat="45.74734" lon="6.07457">
        <ele>608</ele>
        <time>2010-06-12T07:57:31Z</time>
      </trkpt>
      <trkpt lat="45.74732" lon="6.07467">
        <ele>606</ele>
        <time>2010-06-12T07:57:33Z</time>
      </trkpt>
      <trkpt lat="45.74731" lon="6.07477">
        <ele>605</ele>
        <time>2010-06-12T07:57:35Z</time>
      </trkpt>
      <trkpt lat="45.74729" lon="6.07489">
        <ele>605</ele>
        <time>2010-06-12T07:57:37Z</time>
      </trkpt>
      <trkpt lat="45.74723" lon="6.07505">
        <ele>605</ele>
        <time>2010-06-12T07:57:39Z</time>
      </trkpt>
      <trkpt lat="45.74717" lon="6.07519">
        <ele>605</ele>
        <time>2010-06-12T07:57:41Z</time>
      </trkpt>
      <trkpt lat="45.74712" lon="6.0753">
        <ele>605</ele>
        <time>2010-06-12T07:57:43Z</time>
      </trkpt>
      <trkpt lat="45.74709" lon="6.0754">
        <ele>605</ele>
        <time>2010-06-12T07:57:45Z</time>
      </trkpt>
      <trkpt lat="45.74709" lon="6.07549">
        <ele>606</ele>
        <time>2010-06-12T07:57:47Z</time>
      </trkpt>
      <trkpt lat="45.7471" lon="6.07554">
        <ele>607</ele>
        <time>2010-06-12T07:57:49Z</time>
      </trkpt>
      <trkpt lat="45.74709" lon="6.07558">
        <ele>608</ele>
        <time>2010-06-12T07:57:51Z</time>
      </trkpt>
      <trkpt lat="45.74708" lon="6.07566">
        <ele>608</ele>
        <time>2010-06-12T07:57:53Z</time>
      </trkpt>
      <trkpt lat="45.74707" lon="6.07573">
        <ele>608</ele>
        <time>2010-06-12T07:57:55Z</time>
      </trkpt>
      <trkpt lat="45.74705" lon="6.07584">
        <ele>608</ele>
        <time>2010-06-12T07:57:57Z</time>
      </trkpt>
      <trkpt lat="45.74705" lon="6.07593">
        <ele>608</ele>
        <time>2010-06-12T07:58:00Z</time>
      </trkpt>
      <trkpt lat="45.74704" lon="6.07603">
        <ele>608</ele>
        <time>2010-06-12T07:58:02Z</time>
      </trkpt>
      <trkpt lat="45.74699" lon="6.07615">
        <ele>608</ele>
        <time>2010-06-12T07:58:05Z</time>
      </trkpt>
      <trkpt lat="45.74696" lon="6.07621">
        <ele>608</ele>
        <time>2010-06-12T07:58:07Z</time>
      </trkpt>
      <trkpt lat="45.74691" lon="6.07632">
        <ele>609</ele>
        <time>2010-06-12T07:58:10Z</time>
      </trkpt>
      <trkpt lat="45.74687" lon="6.0764">
        <ele>609</ele>
        <time>2010-06-12T07:58:12Z</time>
      </trkpt>
      <trkpt lat="45.7468" lon="6.07651">
        <ele>610</ele>
        <time>2010-06-12T07:58:15Z</time>
      </trkpt>
      <trkpt lat="45.74675" lon="6.07659">
        <ele>612</ele>
        <time>2010-06-12T07:58:17Z</time>
      </trkpt>
      <trkpt lat="45.7467" lon="6.0767">
        <ele>614</ele>
        <time>2010-06-12T07:58:20Z</time>
      </trkpt>
      <trkpt lat="45.74667" lon="6.07678">
        <ele>616</ele>
        <time>2010-06-12T07:58:22Z</time>
      </trkpt>
      <trkpt lat="45.74663" lon="6.0769">
        <ele>619</ele>
        <time>2010-06-12T07:58:25Z</time>
      </trkpt>
      <trkpt lat="45.74659" lon="6.07696">
        <ele>621</ele>
        <time>2010-06-12T07:58:27Z</time>
      </trkpt>
      <trkpt lat="45.74654" lon="6.07708">
        <ele>621</ele>
        <time>2010-06-12T07:58:30Z</time>
      </trkpt>
      <trkpt lat="45.74651" lon="6.07714">
        <ele>620</ele>
        <time>2010-06-12T07:58:32Z</time>
      </trkpt>
      <trkpt lat="45.74648" lon="6.07721">
        <ele>619</ele>
        <time>2010-06-12T07:58:34Z</time>
      </trkpt>
      <trkpt lat="45.74646" lon="6.07732">
        <ele>617</ele>
        <time>2010-06-12T07:58:36Z</time>
      </trkpt>
      <trkpt lat="45.74645" lon="6.0774">
        <ele>615</ele>
        <time>2010-06-12T07:58:38Z</time>
      </trkpt>
      <trkpt lat="45.74645" lon="6.07748">
        <ele>614</ele>
        <time>2010-06-12T07:58:40Z</time>
      </trkpt>
      <trkpt lat="45.74644" lon="6.07755">
        <ele>614</ele>
        <time>2010-06-12T07:58:42Z</time>
      </trkpt>
      <trkpt lat="45.74643" lon="6.07763">
        <ele>614</ele>
        <time>2010-06-12T07:58:44Z</time>
      </trkpt>
      <trkpt lat="45.74641" lon="6.07771">
        <ele>614</ele>
        <time>2010-06-12T07:58:46Z</time>
      </trkpt>
      <trkpt lat="45.74642" lon="6.07778">
        <ele>614</ele>
        <time>2010-06-12T07:58:48Z</time>
      </trkpt>
      <trkpt lat="45.74642" lon="6.07785">
        <ele>614</ele>
        <time>2010-06-12T07:58:50Z</time>
      </trkpt>
      <trkpt lat="45.74643" lon="6.07795">
        <ele>614</ele>
        <time>2010-06-12T07:58:52Z</time>
      </trkpt>
      <trkpt lat="45.74641" lon="6.07804">
        <ele>614</ele>
        <time>2010-06-12T07:58:54Z</time>
      </trkpt>
      <trkpt lat="45.74638" lon="6.07813">
        <ele>613</ele>
        <time>2010-06-12T07:58:56Z</time>
      </trkpt>
      <trkpt lat="45.74631" lon="6.07822">
        <ele>613</ele>
        <time>2010-06-12T07:58:58Z</time>
      </trkpt>
      <trkpt lat="45.74628" lon="6.07829">
        <ele>613</ele>
        <time>2010-06-12T07:59:00Z</time>
      </trkpt>
      <trkpt lat="45.74625" lon="6.0784">
        <ele>613</ele>
        <time>2010-06-12T07:59:02Z</time>
      </trkpt>
      <trkpt lat="45.74625" lon="6.07851">
        <ele>611</ele>
        <time>2010-06-12T07:59:04Z</time>
      </trkpt>
      <trkpt lat="45.74625" lon="6.07865">
        <ele>609</ele>
        <time>2010-06-12T07:59:06Z</time>
      </trkpt>
      <trkpt lat="45.74626" lon="6.07871">
        <ele>609</ele>
        <time>2010-06-12T07:59:08Z</time>
      </trkpt>
      <trkpt lat="45.74624" lon="6.07878">
        <ele>609</ele>
        <time>2010-06-12T07:59:10Z</time>
      </trkpt>
      <trkpt lat="45.74623" lon="6.07884">
        <ele>611</ele>
        <time>2010-06-12T07:59:12Z</time>
      </trkpt>
      <trkpt lat="45.74622" lon="6.07895">
        <ele>614</ele>
        <time>2010-06-12T07:59:15Z</time>
      </trkpt>
      <trkpt lat="45.74624" lon="6.07904">
        <ele>615</ele>
        <time>2010-06-12T07:59:17Z</time>
      </trkpt>
      <trkpt lat="45.7463" lon="6.07921">
        <ele>618</ele>
        <time>2010-06-12T07:59:20Z</time>
      </trkpt>
      <trkpt lat="45.74632" lon="6.07935">
        <ele>620</ele>
        <time>2010-06-12T07:59:22Z</time>
      </trkpt>
      <trkpt lat="45.74634" lon="6.07948">
        <ele>620</ele>
        <time>2010-06-12T07:59:24Z</time>
      </trkpt>
      <trkpt lat="45.74636" lon="6.07969">
        <ele>620</ele>
        <time>2010-06-12T07:59:26Z</time>
      </trkpt>
      <trkpt lat="45.74633" lon="6.07992">
        <ele>620</ele>
        <time>2010-06-12T07:59:28Z</time>
      </trkpt>
      <trkpt lat="45.74627" lon="6.08011">
        <ele>620</ele>
        <time>2010-06-12T07:59:30Z</time>
      </trkpt>
      <trkpt lat="45.74619" lon="6.08033">
        <ele>618</ele>
        <time>2010-06-12T07:59:32Z</time>
      </trkpt>
      <trkpt lat="45.74607" lon="6.08068">
        <ele>616</ele>
        <time>2010-06-12T07:59:35Z</time>
      </trkpt>
      <trkpt lat="45.74606" lon="6.08096">
        <ele>616</ele>
        <time>2010-06-12T07:59:37Z</time>
      </trkpt>
      <trkpt lat="45.74606" lon="6.0812">
        <ele>616</ele>
        <time>2010-06-12T07:59:39Z</time>
      </trkpt>
      <trkpt lat="45.74606" lon="6.08139">
        <ele>618</ele>
        <time>2010-06-12T07:59:41Z</time>
      </trkpt>
      <trkpt lat="45.74603" lon="6.08161">
        <ele>620</ele>
        <time>2010-06-12T07:59:43Z</time>
      </trkpt>
      <trkpt lat="45.746" lon="6.08182">
        <ele>620</ele>
        <time>2010-06-12T07:59:45Z</time>
      </trkpt>
      <trkpt lat="45.74597" lon="6.08201">
        <ele>620</ele>
        <time>2010-06-12T07:59:47Z</time>
      </trkpt>
      <trkpt lat="45.74596" lon="6.08216">
        <ele>619</ele>
        <time>2010-06-12T07:59:49Z</time>
      </trkpt>
      <trkpt lat="45.74594" lon="6.08225">
        <ele>617</ele>
        <time>2010-06-12T07:59:51Z</time>
      </trkpt>
      <trkpt lat="45.74591" lon="6.08236">
        <ele>615</ele>
        <time>2010-06-12T07:59:53Z</time>
      </trkpt>
      <trkpt lat="45.74588" lon="6.08244">
        <ele>613</ele>
        <time>2010-06-12T07:59:55Z</time>
      </trkpt>
      <trkpt lat="45.74587" lon="6.08256">
        <ele>611</ele>
        <time>2010-06-12T07:59:57Z</time>
      </trkpt>
      <trkpt lat="45.74586" lon="6.08272">
        <ele>609</ele>
        <time>2010-06-12T07:59:59Z</time>
      </trkpt>
      <trkpt lat="45.74584" lon="6.08291">
        <ele>607</ele>
        <time>2010-06-12T08:00:01Z</time>
      </trkpt>
      <trkpt lat="45.7458" lon="6.0831">
        <ele>605</ele>
        <time>2010-06-12T08:00:03Z</time>
      </trkpt>
      <trkpt lat="45.74576" lon="6.08328">
        <ele>604</ele>
        <time>2010-06-12T08:00:05Z</time>
      </trkpt>
      <trkpt lat="45.74573" lon="6.08343">
        <ele>603</ele>
        <time>2010-06-12T08:00:07Z</time>
      </trkpt>
      <trkpt lat="45.74572" lon="6.08365">
        <ele>602</ele>
        <time>2010-06-12T08:00:09Z</time>
      </trkpt>
      <trkpt lat="45.74569" lon="6.08386">
        <ele>601</ele>
        <time>2010-06-12T08:00:11Z</time>
      </trkpt>
      <trkpt lat="45.74567" lon="6.08409">
        <ele>601</ele>
        <time>2010-06-12T08:00:13Z</time>
      </trkpt>
      <trkpt lat="45.74566" lon="6.08435">
        <ele>600</ele>
        <time>2010-06-12T08:00:15Z</time>
      </trkpt>
      <trkpt lat="45.74567" lon="6.0846">
        <ele>598</ele>
        <time>2010-06-12T08:00:17Z</time>
      </trkpt>
      <trkpt lat="45.74569" lon="6.08489">
        <ele>595</ele>
        <time>2010-06-12T08:00:20Z</time>
      </trkpt>
      <trkpt lat="45.74575" lon="6.08509">
        <ele>593</ele>
        <time>2010-06-12T08:00:22Z</time>
      </trkpt>
      <trkpt lat="45.74577" lon="6.08532">
        <ele>591</ele>
        <time>2010-06-12T08:00:24Z</time>
      </trkpt>
      <trkpt lat="45.74576" lon="6.08552">
        <ele>589</ele>
        <time>2010-06-12T08:00:26Z</time>
      </trkpt>
      <trkpt lat="45.74577" lon="6.08572">
        <ele>587</ele>
        <time>2010-06-12T08:00:28Z</time>
      </trkpt>
      <trkpt lat="45.74581" lon="6.08592">
        <ele>585</ele>
        <time>2010-06-12T08:00:30Z</time>
      </trkpt>
      <trkpt lat="45.74581" lon="6.08613">
        <ele>583</ele>
        <time>2010-06-12T08:00:32Z</time>
      </trkpt>
      <trkpt lat="45.7458" lon="6.08632">
        <ele>581</ele>
        <time>2010-06-12T08:00:34Z</time>
      </trkpt>
      <trkpt lat="45.74582" lon="6.0865">
        <ele>579</ele>
        <time>2010-06-12T08:00:36Z</time>
      </trkpt>
      <trkpt lat="45.74581" lon="6.08664">
        <ele>578</ele>
        <time>2010-06-12T08:00:38Z</time>
      </trkpt>
      <trkpt lat="45.74581" lon="6.08677">
        <ele>578</ele>
        <time>2010-06-12T08:00:40Z</time>
      </trkpt>
      <trkpt lat="45.74581" lon="6.08691">
        <ele>578</ele>
        <time>2010-06-12T08:00:42Z</time>
      </trkpt>
      <trkpt lat="45.74581" lon="6.08704">
        <ele>577</ele>
        <time>2010-06-12T08:00:44Z</time>
      </trkpt>
      <trkpt lat="45.74581" lon="6.0872">
        <ele>576</ele>
        <time>2010-06-12T08:00:46Z</time>
      </trkpt>
      <trkpt lat="45.74581" lon="6.08737">
        <ele>575</ele>
        <time>2010-06-12T08:00:48Z</time>
      </trkpt>
      <trkpt lat="45.7458" lon="6.08751">
        <ele>574</ele>
        <time>2010-06-12T08:00:50Z</time>
      </trkpt>
      <trkpt lat="45.74579" lon="6.08765">
        <ele>573</ele>
        <time>2010-06-12T08:00:52Z</time>
      </trkpt>
      <trkpt lat="45.74578" lon="6.08786">
        <ele>573</ele>
        <time>2010-06-12T08:00:55Z</time>
      </trkpt>
      <trkpt lat="45.74578" lon="6.08803">
        <ele>573</ele>
        <time>2010-06-12T08:00:57Z</time>
      </trkpt>
      <trkpt lat="45.74577" lon="6.08824">
        <ele>573</ele>
        <time>2010-06-12T08:00:59Z</time>
      </trkpt>
      <trkpt lat="45.74577" lon="6.08843">
        <ele>572</ele>
        <time>2010-06-12T08:01:01Z</time>
      </trkpt>
      <trkpt lat="45.74578" lon="6.0886">
        <ele>570</ele>
        <time>2010-06-12T08:01:03Z</time>
      </trkpt>
      <trkpt lat="45.7458" lon="6.08879">
        <ele>570</ele>
        <time>2010-06-12T08:01:05Z</time>
      </trkpt>
      <trkpt lat="45.74583" lon="6.08898">
        <ele>570</ele>
        <time>2010-06-12T08:01:07Z</time>
      </trkpt>
      <trkpt lat="45.74585" lon="6.08918">
        <ele>570</ele>
        <time>2010-06-12T08:01:09Z</time>
      </trkpt>
      <trkpt lat="45.74587" lon="6.08939">
        <ele>570</ele>
        <time>2010-06-12T08:01:11Z</time>
      </trkpt>
      <trkpt lat="45.74588" lon="6.08959">
        <ele>570</ele>
        <time>2010-06-12T08:01:13Z</time>
      </trkpt>
      <trkpt lat="45.7459" lon="6.08978">
        <ele>570</ele>
        <time>2010-06-12T08:01:15Z</time>
      </trkpt>
      <trkpt lat="45.74588" lon="6.08998">
        <ele>570</ele>
        <time>2010-06-12T08:01:17Z</time>
      </trkpt>
      <trkpt lat="45.74585" lon="6.0902">
        <ele>569</ele>
        <time>2010-06-12T08:01:19Z</time>
      </trkpt>
      <trkpt lat="45.74579" lon="6.09037">
        <ele>568</ele>
        <time>2010-06-12T08:01:21Z</time>
      </trkpt>
      <trkpt lat="45.74575" lon="6.09055">
        <ele>566</ele>
        <time>2010-06-12T08:01:23Z</time>
      </trkpt>
      <trkpt lat="45.7457" lon="6.09074">
        <ele>565</ele>
        <time>2010-06-12T08:01:25Z</time>
      </trkpt>
      <trkpt lat="45.74566" lon="6.09093">
        <ele>564</ele>
        <time>2010-06-12T08:01:27Z</time>
      </trkpt>
      <trkpt lat="45.74558" lon="6.09109">
        <ele>564</ele>
        <time>2010-06-12T08:01:29Z</time>
      </trkpt>
      <trkpt lat="45.74553" lon="6.09125">
        <ele>563</ele>
        <time>2010-06-12T08:01:31Z</time>
      </trkpt>
      <trkpt lat="45.74549" lon="6.0914">
        <ele>562</ele>
        <time>2010-06-12T08:01:33Z</time>
      </trkpt>
      <trkpt lat="45.74546" lon="6.09154">
        <ele>560</ele>
        <time>2010-06-12T08:01:35Z</time>
      </trkpt>
      <trkpt lat="45.74543" lon="6.09168">
        <ele>558</ele>
        <time>2010-06-12T08:01:37Z</time>
      </trkpt>
      <trkpt lat="45.74541" lon="6.0918">
        <ele>556</ele>
        <time>2010-06-12T08:01:39Z</time>
      </trkpt>
      <trkpt lat="45.74542" lon="6.09188">
        <ele>554</ele>
        <time>2010-06-12T08:01:41Z</time>
      </trkpt>
      <trkpt lat="45.74545" lon="6.09195">
        <ele>552</ele>
        <time>2010-06-12T08:01:43Z</time>
      </trkpt>
      <trkpt lat="45.74543" lon="6.09204">
        <ele>550</ele>
        <time>2010-06-12T08:01:45Z</time>
      </trkpt>
      <trkpt lat="45.7454" lon="6.09215">
        <ele>548</ele>
        <time>2010-06-12T08:01:47Z</time>
      </trkpt>
      <trkpt lat="45.74536" lon="6.09226">
        <ele>546</ele>
        <time>2010-06-12T08:01:49Z</time>
      </trkpt>
      <trkpt lat="45.74531" lon="6.09239">
        <ele>544</ele>
        <time>2010-06-12T08:01:51Z</time>
      </trkpt>
      <trkpt lat="45.74525" lon="6.09253">
        <ele>542</ele>
        <time>2010-06-12T08:01:53Z</time>
      </trkpt>
      <trkpt lat="45.74517" lon="6.09267">
        <ele>542</ele>
        <time>2010-06-12T08:01:55Z</time>
      </trkpt>
      <trkpt lat="45.74509" lon="6.0928">
        <ele>542</ele>
        <time>2010-06-12T08:01:57Z</time>
      </trkpt>
      <trkpt lat="45.74499" lon="6.09292">
        <ele>542</ele>
        <time>2010-06-12T08:01:59Z</time>
      </trkpt>
      <trkpt lat="45.74491" lon="6.09304">
        <ele>542</ele>
        <time>2010-06-12T08:02:01Z</time>
      </trkpt>
      <trkpt lat="45.74485" lon="6.09313">
        <ele>542</ele>
        <time>2010-06-12T08:02:03Z</time>
      </trkpt>
      <trkpt lat="45.74478" lon="6.09325">
        <ele>542</ele>
        <time>2010-06-12T08:02:05Z</time>
      </trkpt>
      <trkpt lat="45.74471" lon="6.09339">
        <ele>542</ele>
        <time>2010-06-12T08:02:07Z</time>
      </trkpt>
      <trkpt lat="45.74465" lon="6.09353">
        <ele>542</ele>
        <time>2010-06-12T08:02:09Z</time>
      </trkpt>
      <trkpt lat="45.74457" lon="6.09367">
        <ele>542</ele>
        <time>2010-06-12T08:02:11Z</time>
      </trkpt>
      <trkpt lat="45.7445" lon="6.09374">
        <ele>542</ele>
        <time>2010-06-12T08:02:13Z</time>
      </trkpt>
      <trkpt lat="45.74444" lon="6.09374">
        <ele>542</ele>
        <time>2010-06-12T08:02:15Z</time>
      </trkpt>
      <trkpt lat="45.74441" lon="6.09374">
        <ele>542</ele>
        <time>2010-06-12T08:02:18Z</time>
      </trkpt>
      <trkpt lat="45.74438" lon="6.09372">
        <ele>541</ele>
        <time>2010-06-12T08:02:21Z</time>
      </trkpt>
      <trkpt lat="45.74436" lon="6.09373">
        <ele>541</ele>
        <time>2010-06-12T08:02:23Z</time>
      </trkpt>
      <trkpt lat="45.74435" lon="6.09374">
        <ele>540</ele>
        <time>2010-06-12T08:02:26Z</time>
      </trkpt>
      <trkpt lat="45.74435" lon="6.09376">
        <ele>537</ele>
        <time>2010-06-12T08:02:29Z</time>
      </trkpt>
      <trkpt lat="45.74436" lon="6.09377">
        <ele>536</ele>
        <time>2010-06-12T08:02:31Z</time>
      </trkpt>
      <trkpt lat="45.74435" lon="6.0938">
        <ele>534</ele>
        <time>2010-06-12T08:02:34Z</time>
      </trkpt>
      <trkpt lat="45.74435" lon="6.09379">
        <ele>534</ele>
        <time>2010-06-12T08:02:36Z</time>
      </trkpt>
      <trkpt lat="45.74437" lon="6.09379">
        <ele>534</ele>
        <time>2010-06-12T08:02:38Z</time>
      </trkpt>
      <trkpt lat="45.74437" lon="6.09381">
        <ele>535</ele>
        <time>2010-06-12T08:02:41Z</time>
      </trkpt>
      <trkpt lat="45.74435" lon="6.09384">
        <ele>534</ele>
        <time>2010-06-12T08:02:44Z</time>
      </trkpt>
      <trkpt lat="45.74433" lon="6.09386">
        <ele>531</ele>
        <time>2010-06-12T08:02:46Z</time>
      </trkpt>
      <trkpt lat="45.74431" lon="6.09387">
        <ele>527</ele>
        <time>2010-06-12T08:02:48Z</time>
      </trkpt>
      <trkpt lat="45.74429" lon="6.09387">
        <ele>523</ele>
        <time>2010-06-12T08:02:50Z</time>
      </trkpt>
      <trkpt lat="45.74427" lon="6.09386">
        <ele>519</ele>
        <time>2010-06-12T08:02:52Z</time>
      </trkpt>
      <trkpt lat="45.74426" lon="6.09386">
        <ele>515</ele>
        <time>2010-06-12T08:02:54Z</time>
      </trkpt>
      <trkpt lat="45.74424" lon="6.09385">
        <ele>511</ele>
        <time>2010-06-12T08:02:56Z</time>
      </trkpt>
      <trkpt lat="45.74423" lon="6.09385">
        <ele>507</ele>
        <time>2010-06-12T08:02:58Z</time>
      </trkpt>
      <trkpt lat="45.74422" lon="6.09384">
        <ele>503</ele>
        <time>2010-06-12T08:03:00Z</time>
      </trkpt>
      <trkpt lat="45.74422" lon="6.09379">
        <ele>476</ele>
        <time>2010-06-12T08:03:05Z</time>
      </trkpt>
      <trkpt lat="45.74425" lon="6.09379">
        <ele>476</ele>
        <time>2010-06-12T08:03:07Z</time>
      </trkpt>
      <trkpt lat="45.74429" lon="6.09381">
        <ele>478</ele>
        <time>2010-06-12T08:03:09Z</time>
      </trkpt>
      <trkpt lat="45.74433" lon="6.09381">
        <ele>483</ele>
        <time>2010-06-12T08:03:12Z</time>
      </trkpt>
      <trkpt lat="45.74437" lon="6.0938">
        <ele>489</ele>
        <time>2010-06-12T08:03:15Z</time>
      </trkpt>
      <trkpt lat="45.74441" lon="6.09379">
        <ele>491</ele>
        <time>2010-06-12T08:03:17Z</time>
      </trkpt>
      <trkpt lat="45.74444" lon="6.09378">
        <ele>494</ele>
        <time>2010-06-12T08:03:20Z</time>
      </trkpt>
      <trkpt lat="45.74445" lon="6.09378">
        <ele>496</ele>
        <time>2010-06-12T08:03:22Z</time>
      </trkpt>
      <trkpt lat="45.74447" lon="6.09376">
        <ele>497</ele>
        <time>2010-06-12T08:03:26Z</time>
      </trkpt>
      <trkpt lat="45.7445" lon="6.0937">
        <ele>517</ele>
        <time>2010-06-12T08:03:29Z</time>
      </trkpt>
      <trkpt lat="45.74451" lon="6.09368">
        <ele>521</ele>
        <time>2010-06-12T08:03:31Z</time>
      </trkpt>
      <trkpt lat="45.74451" lon="6.09366">
        <ele>526</ele>
        <time>2010-06-12T08:03:34Z</time>
      </trkpt>
      <trkpt lat="45.74452" lon="6.09364">
        <ele>530</ele>
        <time>2010-06-12T08:03:37Z</time>
      </trkpt>
      <trkpt lat="45.74452" lon="6.09363">
        <ele>534</ele>
        <time>2010-06-12T08:03:40Z</time>
      </trkpt>
      <trkpt lat="45.74453" lon="6.09359">
        <ele>542</ele>
        <time>2010-06-12T08:03:44Z</time>
      </trkpt>
      <trkpt lat="45.74453" lon="6.09357">
        <ele>551</ele>
        <time>2010-06-12T08:03:47Z</time>
      </trkpt>
      <trkpt lat="45.74456" lon="6.09353">
        <ele>575</ele>
        <time>2010-06-12T08:03:52Z</time>
      </trkpt>
      <trkpt lat="45.74461" lon="6.0936">
        <ele>597</ele>
        <time>2010-06-12T08:03:56Z</time>
      </trkpt>
      <trkpt lat="45.74467" lon="6.0936">
        <ele>597</ele>
        <time>2010-06-12T08:03:58Z</time>
      </trkpt>
      <trkpt lat="45.74471" lon="6.09361">
        <ele>597</ele>
        <time>2010-06-12T08:04:00Z</time>
      </trkpt>
      <trkpt lat="45.74472" lon="6.09363">
        <ele>596</ele>
        <time>2010-06-12T08:04:02Z</time>
      </trkpt>
      <trkpt lat="45.74475" lon="6.09371">
        <ele>594</ele>
        <time>2010-06-12T08:04:04Z</time>
      </trkpt>
      <trkpt lat="45.74477" lon="6.09383">
        <ele>592</ele>
        <time>2010-06-12T08:04:06Z</time>
      </trkpt>
      <trkpt lat="45.74478" lon="6.09397">
        <ele>590</ele>
        <time>2010-06-12T08:04:08Z</time>
      </trkpt>
      <trkpt lat="45.74479" lon="6.09412">
        <ele>588</ele>
        <time>2010-06-12T08:04:10Z</time>
      </trkpt>
      <trkpt lat="45.7448" lon="6.09427">
        <ele>586</ele>
        <time>2010-06-12T08:04:12Z</time>
      </trkpt>
      <trkpt lat="45.74477" lon="6.09443">
        <ele>584</ele>
        <time>2010-06-12T08:04:14Z</time>
      </trkpt>
      <trkpt lat="45.74474" lon="6.09458">
        <ele>582</ele>
        <time>2010-06-12T08:04:16Z</time>
      </trkpt>
      <trkpt lat="45.74468" lon="6.09474">
        <ele>580</ele>
        <time>2010-06-12T08:04:18Z</time>
      </trkpt>
      <trkpt lat="45.74463" lon="6.09488">
        <ele>577</ele>
        <time>2010-06-12T08:04:20Z</time>
      </trkpt>
      <trkpt lat="45.74456" lon="6.09503">
        <ele>575</ele>
        <time>2010-06-12T08:04:22Z</time>
      </trkpt>
      <trkpt lat="45.7445" lon="6.09519">
        <ele>571</ele>
        <time>2010-06-12T08:04:24Z</time>
      </trkpt>
      <trkpt lat="45.74442" lon="6.09534">
        <ele>567</ele>
        <time>2010-06-12T08:04:26Z</time>
      </trkpt>
      <trkpt lat="45.74435" lon="6.09548">
        <ele>563</ele>
        <time>2010-06-12T08:04:28Z</time>
      </trkpt>
      <trkpt lat="45.74428" lon="6.09561">
        <ele>559</ele>
        <time>2010-06-12T08:04:30Z</time>
      </trkpt>
      <trkpt lat="45.74422" lon="6.09574">
        <ele>555</ele>
        <time>2010-06-12T08:04:32Z</time>
      </trkpt>
      <trkpt lat="45.74414" lon="6.09586">
        <ele>552</ele>
        <time>2010-06-12T08:04:34Z</time>
      </trkpt>
      <trkpt lat="45.74406" lon="6.09598">
        <ele>550</ele>
        <time>2010-06-12T08:04:36Z</time>
      </trkpt>
      <trkpt lat="45.744" lon="6.09611">
        <ele>548</ele>
        <time>2010-06-12T08:04:38Z</time>
      </trkpt>
      <trkpt lat="45.74394" lon="6.09621">
        <ele>545</ele>
        <time>2010-06-12T08:04:40Z</time>
      </trkpt>
      <trkpt lat="45.74387" lon="6.09629">
        <ele>541</ele>
        <time>2010-06-12T08:04:42Z</time>
      </trkpt>
      <trkpt lat="45.7438" lon="6.0964">
        <ele>537</ele>
        <time>2010-06-12T08:04:44Z</time>
      </trkpt>
      <trkpt lat="45.74373" lon="6.0965">
        <ele>533</ele>
        <time>2010-06-12T08:04:46Z</time>
      </trkpt>
      <trkpt lat="45.74365" lon="6.09659">
        <ele>529</ele>
        <time>2010-06-12T08:04:48Z</time>
      </trkpt>
      <trkpt lat="45.74357" lon="6.09668">
        <ele>527</ele>
        <time>2010-06-12T08:04:50Z</time>
      </trkpt>
      <trkpt lat="45.74348" lon="6.09677">
        <ele>525</ele>
        <time>2010-06-12T08:04:52Z</time>
      </trkpt>
      <trkpt lat="45.7434" lon="6.09686">
        <ele>525</ele>
        <time>2010-06-12T08:04:54Z</time>
      </trkpt>
      <trkpt lat="45.74332" lon="6.09696">
        <ele>524</ele>
        <time>2010-06-12T08:04:56Z</time>
      </trkpt>
      <trkpt lat="45.74324" lon="6.09705">
        <ele>522</ele>
        <time>2010-06-12T08:04:58Z</time>
      </trkpt>
      <trkpt lat="45.74316" lon="6.09716">
        <ele>520</ele>
        <time>2010-06-12T08:05:00Z</time>
      </trkpt>
      <trkpt lat="45.74308" lon="6.09725">
        <ele>517</ele>
        <time>2010-06-12T08:05:02Z</time>
      </trkpt>
      <trkpt lat="45.743" lon="6.09735">
        <ele>513</ele>
        <time>2010-06-12T08:05:04Z</time>
      </trkpt>
      <trkpt lat="45.74291" lon="6.09743">
        <ele>511</ele>
        <time>2010-06-12T08:05:06Z</time>
      </trkpt>
      <trkpt lat="45.74283" lon="6.09753">
        <ele>509</ele>
        <time>2010-06-12T08:05:08Z</time>
      </trkpt>
      <trkpt lat="45.74273" lon="6.09761">
        <ele>509</ele>
        <time>2010-06-12T08:05:10Z</time>
      </trkpt>
      <trkpt lat="45.74263" lon="6.09768">
        <ele>509</ele>
        <time>2010-06-12T08:05:12Z</time>
      </trkpt>
      <trkpt lat="45.74254" lon="6.09776">
        <ele>511</ele>
        <time>2010-06-12T08:05:14Z</time>
      </trkpt>
      <trkpt lat="45.74244" lon="6.09783">
        <ele>515</ele>
        <time>2010-06-12T08:05:16Z</time>
      </trkpt>
      <trkpt lat="45.74234" lon="6.09791">
        <ele>519</ele>
        <time>2010-06-12T08:05:18Z</time>
      </trkpt>
      <trkpt lat="45.74224" lon="6.09798">
        <ele>522</ele>
        <time>2010-06-12T08:05:20Z</time>
      </trkpt>
      <trkpt lat="45.74214" lon="6.09805">
        <ele>524</ele>
        <time>2010-06-12T08:05:22Z</time>
      </trkpt>
      <trkpt lat="45.74204" lon="6.09812">
        <ele>526</ele>
        <time>2010-06-12T08:05:24Z</time>
      </trkpt>
      <trkpt lat="45.74193" lon="6.09819">
        <ele>528</ele>
        <time>2010-06-12T08:05:26Z</time>
      </trkpt>
      <trkpt lat="45.74182" lon="6.09825">
        <ele>528</ele>
        <time>2010-06-12T08:05:28Z</time>
      </trkpt>
      <trkpt lat="45.74171" lon="6.09829">
        <ele>528</ele>
        <time>2010-06-12T08:05:30Z</time>
      </trkpt>
      <trkpt lat="45.74159" lon="6.09833">
        <ele>530</ele>
        <time>2010-06-12T08:05:32Z</time>
      </trkpt>
      <trkpt lat="45.74147" lon="6.09837">
        <ele>531</ele>
        <time>2010-06-12T08:05:34Z</time>
      </trkpt>
      <trkpt lat="45.74135" lon="6.09839">
        <ele>532</ele>
        <time>2010-06-12T08:05:36Z</time>
      </trkpt>
      <trkpt lat="45.74123" lon="6.09843">
        <ele>533</ele>
        <time>2010-06-12T08:05:38Z</time>
      </trkpt>
      <trkpt lat="45.74111" lon="6.09845">
        <ele>533</ele>
        <time>2010-06-12T08:05:40Z</time>
      </trkpt>
      <trkpt lat="45.74099" lon="6.09847">
        <ele>534</ele>
        <time>2010-06-12T08:05:42Z</time>
      </trkpt>
      <trkpt lat="45.74087" lon="6.09848">
        <ele>535</ele>
        <time>2010-06-12T08:05:44Z</time>
      </trkpt>
      <trkpt lat="45.74075" lon="6.09847">
        <ele>536</ele>
        <time>2010-06-12T08:05:46Z</time>
      </trkpt>
      <trkpt lat="45.74063" lon="6.09845">
        <ele>537</ele>
        <time>2010-06-12T08:05:48Z</time>
      </trkpt>
      <trkpt lat="45.74052" lon="6.09841">
        <ele>539</ele>
        <time>2010-06-12T08:05:50Z</time>
      </trkpt>
      <trkpt lat="45.74041" lon="6.09835">
        <ele>540</ele>
        <time>2010-06-12T08:05:52Z</time>
      </trkpt>
      <trkpt lat="45.74029" lon="6.09831">
        <ele>542</ele>
        <time>2010-06-12T08:05:54Z</time>
      </trkpt>
      <trkpt lat="45.74017" lon="6.09826">
        <ele>543</ele>
        <time>2010-06-12T08:05:56Z</time>
      </trkpt>
      <trkpt lat="45.74004" lon="6.09822">
        <ele>544</ele>
        <time>2010-06-12T08:05:58Z</time>
      </trkpt>
      <trkpt lat="45.73993" lon="6.09818">
        <ele>545</ele>
        <time>2010-06-12T08:06:00Z</time>
      </trkpt>
      <trkpt lat="45.73981" lon="6.09813">
        <ele>546</ele>
        <time>2010-06-12T08:06:02Z</time>
      </trkpt>
      <trkpt lat="45.73969" lon="6.0981">
        <ele>548</ele>
        <time>2010-06-12T08:06:04Z</time>
      </trkpt>
      <trkpt lat="45.73957" lon="6.09808">
        <ele>549</ele>
        <time>2010-06-12T08:06:06Z</time>
      </trkpt>
      <trkpt lat="45.73945" lon="6.09806">
        <ele>549</ele>
        <time>2010-06-12T08:06:08Z</time>
      </trkpt>
      <trkpt lat="45.73933" lon="6.09806">
        <ele>550</ele>
        <time>2010-06-12T08:06:10Z</time>
      </trkpt>
      <trkpt lat="45.73922" lon="6.09806">
        <ele>550</ele>
        <time>2010-06-12T08:06:12Z</time>
      </trkpt>
      <trkpt lat="45.73909" lon="6.09806">
        <ele>551</ele>
        <time>2010-06-12T08:06:14Z</time>
      </trkpt>
      <trkpt lat="45.73898" lon="6.09807">
        <ele>552</ele>
        <time>2010-06-12T08:06:16Z</time>
      </trkpt>
      <trkpt lat="45.73886" lon="6.09807">
        <ele>553</ele>
        <time>2010-06-12T08:06:18Z</time>
      </trkpt>
      <trkpt lat="45.73874" lon="6.09807">
        <ele>553</ele>
        <time>2010-06-12T08:06:20Z</time>
      </trkpt>
      <trkpt lat="45.73862" lon="6.09807">
        <ele>554</ele>
        <time>2010-06-12T08:06:22Z</time>
      </trkpt>
      <trkpt lat="45.73849" lon="6.09808">
        <ele>554</ele>
        <time>2010-06-12T08:06:24Z</time>
      </trkpt>
      <trkpt lat="45.73838" lon="6.09809">
        <ele>554</ele>
        <time>2010-06-12T08:06:26Z</time>
      </trkpt>
      <trkpt lat="45.73826" lon="6.0981">
        <ele>554</ele>
        <time>2010-06-12T08:06:28Z</time>
      </trkpt>
      <trkpt lat="45.73814" lon="6.09809">
        <ele>554</ele>
        <time>2010-06-12T08:06:30Z</time>
      </trkpt>
      <trkpt lat="45.73802" lon="6.0981">
        <ele>554</ele>
        <time>2010-06-12T08:06:32Z</time>
      </trkpt>
      <trkpt lat="45.73789" lon="6.09809">
        <ele>554</ele>
        <time>2010-06-12T08:06:34Z</time>
      </trkpt>
      <trkpt lat="45.73777" lon="6.09809">
        <ele>554</ele>
        <time>2010-06-12T08:06:36Z</time>
      </trkpt>
      <trkpt lat="45.73765" lon="6.09809">
        <ele>554</ele>
        <time>2010-06-12T08:06:38Z</time>
      </trkpt>
      <trkpt lat="45.73752" lon="6.09809">
        <ele>554</ele>
        <time>2010-06-12T08:06:40Z</time>
      </trkpt>
      <trkpt lat="45.73738" lon="6.0981">
        <ele>555</ele>
        <time>2010-06-12T08:06:42Z</time>
      </trkpt>
      <trkpt lat="45.73725" lon="6.0981">
        <ele>555</ele>
        <time>2010-06-12T08:06:44Z</time>
      </trkpt>
      <trkpt lat="45.73713" lon="6.0981">
        <ele>555</ele>
        <time>2010-06-12T08:06:46Z</time>
      </trkpt>
      <trkpt lat="45.737" lon="6.09809">
        <ele>555</ele>
        <time>2010-06-12T08:06:48Z</time>
      </trkpt>
      <trkpt lat="45.73686" lon="6.0981">
        <ele>556</ele>
        <time>2010-06-12T08:06:50Z</time>
      </trkpt>
      <trkpt lat="45.73674" lon="6.09809">
        <ele>557</ele>
        <time>2010-06-12T08:06:52Z</time>
      </trkpt>
      <trkpt lat="45.73661" lon="6.09809">
        <ele>557</ele>
        <time>2010-06-12T08:06:54Z</time>
      </trkpt>
      <trkpt lat="45.73648" lon="6.0981">
        <ele>557</ele>
        <time>2010-06-12T08:06:56Z</time>
      </trkpt>
      <trkpt lat="45.73637" lon="6.09811">
        <ele>557</ele>
        <time>2010-06-12T08:06:58Z</time>
      </trkpt>
      <trkpt lat="45.73624" lon="6.09811">
        <ele>557</ele>
        <time>2010-06-12T08:07:00Z</time>
      </trkpt>
      <trkpt lat="45.73612" lon="6.09811">
        <ele>557</ele>
        <time>2010-06-12T08:07:02Z</time>
      </trkpt>
      <trkpt lat="45.736" lon="6.0981">
        <ele>557</ele>
        <time>2010-06-12T08:07:04Z</time>
      </trkpt>
      <trkpt lat="45.73589" lon="6.09812">
        <ele>557</ele>
        <time>2010-06-12T08:07:06Z</time>
      </trkpt>
      <trkpt lat="45.73578" lon="6.09813">
        <ele>557</ele>
        <time>2010-06-12T08:07:08Z</time>
      </trkpt>
      <trkpt lat="45.73567" lon="6.09817">
        <ele>557</ele>
        <time>2010-06-12T08:07:10Z</time>
      </trkpt>
      <trkpt lat="45.73559" lon="6.09824">
        <ele>557</ele>
        <time>2010-06-12T08:07:12Z</time>
      </trkpt>
      <trkpt lat="45.73555" lon="6.09832">
        <ele>557</ele>
        <time>2010-06-12T08:07:14Z</time>
      </trkpt>
      <trkpt lat="45.73553" lon="6.09838">
        <ele>557</ele>
        <time>2010-06-12T08:07:16Z</time>
      </trkpt>
      <trkpt lat="45.73551" lon="6.09842">
        <ele>557</ele>
        <time>2010-06-12T08:07:18Z</time>
      </trkpt>
      <trkpt lat="45.73551" lon="6.09846">
        <ele>557</ele>
        <time>2010-06-12T08:07:20Z</time>
      </trkpt>
      <trkpt lat="45.7355" lon="6.0985">
        <ele>557</ele>
        <time>2010-06-12T08:07:22Z</time>
      </trkpt>
      <trkpt lat="45.73551" lon="6.09855">
        <ele>557</ele>
        <time>2010-06-12T08:07:24Z</time>
      </trkpt>
      <trkpt lat="45.73553" lon="6.09859">
        <ele>557</ele>
        <time>2010-06-12T08:07:27Z</time>
      </trkpt>
      <trkpt lat="45.73555" lon="6.09859">
        <ele>557</ele>
        <time>2010-06-12T08:07:29Z</time>
      </trkpt>
      <trkpt lat="45.73558" lon="6.09859">
        <ele>557</ele>
        <time>2010-06-12T08:07:31Z</time>
      </trkpt>
      <trkpt lat="45.7356" lon="6.0986">
        <ele>557</ele>
        <time>2010-06-12T08:07:33Z</time>
      </trkpt>
      <trkpt lat="45.73564" lon="6.0986">
        <ele>557</ele>
        <time>2010-06-12T08:07:35Z</time>
      </trkpt>
      <trkpt lat="45.73568" lon="6.09859">
        <ele>557</ele>
        <time>2010-06-12T08:07:37Z</time>
      </trkpt>
      <trkpt lat="45.73571" lon="6.09859">
        <ele>559</ele>
        <time>2010-06-12T08:07:39Z</time>
      </trkpt>
      <trkpt lat="45.73574" lon="6.09859">
        <ele>561</ele>
        <time>2010-06-12T08:07:41Z</time>
      </trkpt>
      <trkpt lat="45.73577" lon="6.09859">
        <ele>563</ele>
        <time>2010-06-12T08:07:43Z</time>
      </trkpt>
      <trkpt lat="45.73583" lon="6.09859">
        <ele>565</ele>
        <time>2010-06-12T08:07:45Z</time>
      </trkpt>
      <trkpt lat="45.73587" lon="6.09859">
        <ele>567</ele>
        <time>2010-06-12T08:07:47Z</time>
      </trkpt>
      <trkpt lat="45.73592" lon="6.09859">
        <ele>570</ele>
        <time>2010-06-12T08:07:49Z</time>
      </trkpt>
      <trkpt lat="45.73596" lon="6.09859">
        <ele>572</ele>
        <time>2010-06-12T08:07:51Z</time>
      </trkpt>
      <trkpt lat="45.736" lon="6.09858">
        <ele>574</ele>
        <time>2010-06-12T08:07:53Z</time>
      </trkpt>
      <trkpt lat="45.73604" lon="6.09856">
        <ele>576</ele>
        <time>2010-06-12T08:07:55Z</time>
      </trkpt>
      <trkpt lat="45.73608" lon="6.09855">
        <ele>578</ele>
        <time>2010-06-12T08:07:57Z</time>
      </trkpt>
      <trkpt lat="45.73613" lon="6.09855">
        <ele>580</ele>
        <time>2010-06-12T08:07:59Z</time>
      </trkpt>
      <trkpt lat="45.73617" lon="6.09856">
        <ele>582</ele>
        <time>2010-06-12T08:08:01Z</time>
      </trkpt>
      <trkpt lat="45.73621" lon="6.09857">
        <ele>582</ele>
        <time>2010-06-12T08:08:03Z</time>
      </trkpt>
      <trkpt lat="45.73626" lon="6.09859">
        <ele>582</ele>
        <time>2010-06-12T08:08:05Z</time>
      </trkpt>
      <trkpt lat="45.73631" lon="6.0986">
        <ele>584</ele>
        <time>2010-06-12T08:08:07Z</time>
      </trkpt>
      <trkpt lat="45.73636" lon="6.0986">
        <ele>585</ele>
        <time>2010-06-12T08:08:09Z</time>
      </trkpt>
      <trkpt lat="45.73642" lon="6.09862">
        <ele>587</ele>
        <time>2010-06-12T08:08:11Z</time>
      </trkpt>
      <trkpt lat="45.73647" lon="6.09863">
        <ele>589</ele>
        <time>2010-06-12T08:08:13Z</time>
      </trkpt>
      <trkpt lat="45.73652" lon="6.09863">
        <ele>589</ele>
        <time>2010-06-12T08:08:15Z</time>
      </trkpt>
      <trkpt lat="45.73657" lon="6.09866">
        <ele>589</ele>
        <time>2010-06-12T08:08:17Z</time>
      </trkpt>
      <trkpt lat="45.73664" lon="6.09869">
        <ele>589</ele>
        <time>2010-06-12T08:08:19Z</time>
      </trkpt>
      <trkpt lat="45.73669" lon="6.09872">
        <ele>589</ele>
        <time>2010-06-12T08:08:21Z</time>
      </trkpt>
      <trkpt lat="45.73676" lon="6.09874">
        <ele>589</ele>
        <time>2010-06-12T08:08:23Z</time>
      </trkpt>
      <trkpt lat="45.73682" lon="6.09876">
        <ele>587</ele>
        <time>2010-06-12T08:08:25Z</time>
      </trkpt>
      <trkpt lat="45.73688" lon="6.09876">
        <ele>585</ele>
        <time>2010-06-12T08:08:27Z</time>
      </trkpt>
      <trkpt lat="45.73696" lon="6.0988">
        <ele>583</ele>
        <time>2010-06-12T08:08:29Z</time>
      </trkpt>
      <trkpt lat="45.73703" lon="6.09883">
        <ele>583</ele>
        <time>2010-06-12T08:08:31Z</time>
      </trkpt>
      <trkpt lat="45.73708" lon="6.09886">
        <ele>583</ele>
        <time>2010-06-12T08:08:33Z</time>
      </trkpt>
      <trkpt lat="45.73713" lon="6.09887">
        <ele>583</ele>
        <time>2010-06-12T08:08:35Z</time>
      </trkpt>
      <trkpt lat="45.73718" lon="6.09887">
        <ele>583</ele>
        <time>2010-06-12T08:08:37Z</time>
      </trkpt>
      <trkpt lat="45.73724" lon="6.09887">
        <ele>583</ele>
        <time>2010-06-12T08:08:39Z</time>
      </trkpt>
      <trkpt lat="45.73731" lon="6.09886">
        <ele>582</ele>
        <time>2010-06-12T08:08:41Z</time>
      </trkpt>
      <trkpt lat="45.73738" lon="6.09885">
        <ele>582</ele>
        <time>2010-06-12T08:08:43Z</time>
      </trkpt>
      <trkpt lat="45.73744" lon="6.09885">
        <ele>582</ele>
        <time>2010-06-12T08:08:45Z</time>
      </trkpt>
      <trkpt lat="45.73751" lon="6.09887">
        <ele>582</ele>
        <time>2010-06-12T08:08:47Z</time>
      </trkpt>
      <trkpt lat="45.73758" lon="6.0989">
        <ele>582</ele>
        <time>2010-06-12T08:08:49Z</time>
      </trkpt>
      <trkpt lat="45.73764" lon="6.09892">
        <ele>582</ele>
        <time>2010-06-12T08:08:51Z</time>
      </trkpt>
      <trkpt lat="45.73768" lon="6.09895">
        <ele>582</ele>
        <time>2010-06-12T08:08:53Z</time>
      </trkpt>
      <trkpt lat="45.73771" lon="6.09898">
        <ele>582</ele>
        <time>2010-06-12T08:08:56Z</time>
      </trkpt>
      <trkpt lat="45.73773" lon="6.099">
        <ele>582</ele>
        <time>2010-06-12T08:08:58Z</time>
      </trkpt>
      <trkpt lat="45.73775" lon="6.09901">
        <ele>582</ele>
        <time>2010-06-12T08:09:01Z</time>
      </trkpt>
      <trkpt lat="45.73778" lon="6.09903">
        <ele>582</ele>
        <time>2010-06-12T08:09:03Z</time>
      </trkpt>
      <trkpt lat="45.73781" lon="6.09907">
        <ele>582</ele>
        <time>2010-06-12T08:09:05Z</time>
      </trkpt>
      <trkpt lat="45.73783" lon="6.09912">
        <ele>582</ele>
        <time>2010-06-12T08:09:08Z</time>
      </trkpt>
      <trkpt lat="45.73785" lon="6.09916">
        <ele>581</ele>
        <time>2010-06-12T08:09:10Z</time>
      </trkpt>
      <trkpt lat="45.73788" lon="6.09918">
        <ele>579</ele>
        <time>2010-06-12T08:09:12Z</time>
      </trkpt>
      <trkpt lat="45.7379" lon="6.0992">
        <ele>578</ele>
        <time>2010-06-12T08:09:14Z</time>
      </trkpt>
      <trkpt lat="45.73792" lon="6.0992">
        <ele>578</ele>
        <time>2010-06-12T08:09:16Z</time>
      </trkpt>
      <trkpt lat="45.73793" lon="6.09923">
        <ele>578</ele>
        <time>2010-06-12T08:09:18Z</time>
      </trkpt>
      <trkpt lat="45.73795" lon="6.09924">
        <ele>578</ele>
        <time>2010-06-12T08:09:20Z</time>
      </trkpt>
      <trkpt lat="45.73796" lon="6.09926">
        <ele>578</ele>
        <time>2010-06-12T08:09:22Z</time>
      </trkpt>
      <trkpt lat="45.73799" lon="6.09928">
        <ele>578</ele>
        <time>2010-06-12T08:09:25Z</time>
      </trkpt>
      <trkpt lat="45.73801" lon="6.0993">
        <ele>579</ele>
        <time>2010-06-12T08:09:28Z</time>
      </trkpt>
      <trkpt lat="45.73803" lon="6.09931">
        <ele>579</ele>
        <time>2010-06-12T08:09:30Z</time>
      </trkpt>
      <trkpt lat="45.73805" lon="6.09932">
        <ele>579</ele>
        <time>2010-06-12T08:09:32Z</time>
      </trkpt>
      <trkpt lat="45.73808" lon="6.09934">
        <ele>580</ele>
        <time>2010-06-12T08:09:34Z</time>
      </trkpt>
      <trkpt lat="45.73811" lon="6.09935">
        <ele>580</ele>
        <time>2010-06-12T08:09:36Z</time>
      </trkpt>
      <trkpt lat="45.73815" lon="6.09936">
        <ele>580</ele>
        <time>2010-06-12T08:09:39Z</time>
      </trkpt>
      <trkpt lat="45.73817" lon="6.09937">
        <ele>580</ele>
        <time>2010-06-12T08:09:41Z</time>
      </trkpt>
      <trkpt lat="45.73819" lon="6.09937">
        <ele>581</ele>
        <time>2010-06-12T08:09:43Z</time>
      </trkpt>
      <trkpt lat="45.73822" lon="6.09937">
        <ele>582</ele>
        <time>2010-06-12T08:09:45Z</time>
      </trkpt>
      <trkpt lat="45.73826" lon="6.09937">
        <ele>584</ele>
        <time>2010-06-12T08:09:47Z</time>
      </trkpt>
      <trkpt lat="45.73828" lon="6.09936">
        <ele>586</ele>
        <time>2010-06-12T08:09:49Z</time>
      </trkpt>
      <trkpt lat="45.73832" lon="6.09936">
        <ele>588</ele>
        <time>2010-06-12T08:09:51Z</time>
      </trkpt>
      <trkpt lat="45.73835" lon="6.09937">
        <ele>590</ele>
        <time>2010-06-12T08:09:53Z</time>
      </trkpt>
      <trkpt lat="45.73837" lon="6.09938">
        <ele>593</ele>
        <time>2010-06-12T08:09:56Z</time>
      </trkpt>
      <trkpt lat="45.7384" lon="6.0994">
        <ele>594</ele>
        <time>2010-06-12T08:09:59Z</time>
      </trkpt>
      <trkpt lat="45.73842" lon="6.0994">
        <ele>595</ele>
        <time>2010-06-12T08:10:01Z</time>
      </trkpt>
      <trkpt lat="45.73843" lon="6.09941">
        <ele>599</ele>
        <time>2010-06-12T08:10:08Z</time>
      </trkpt>
      <trkpt lat="45.73843" lon="6.09942">
        <ele>599</ele>
        <time>2010-06-12T08:10:10Z</time>
      </trkpt>
      <trkpt lat="45.73844" lon="6.09944">
        <ele>599</ele>
        <time>2010-06-12T08:10:12Z</time>
      </trkpt>
      <trkpt lat="45.73845" lon="6.09946">
        <ele>599</ele>
        <time>2010-06-12T08:10:14Z</time>
      </trkpt>
      <trkpt lat="45.73844" lon="6.09948">
        <ele>599</ele>
        <time>2010-06-12T08:10:16Z</time>
      </trkpt>
      <trkpt lat="45.73844" lon="6.09952">
        <ele>599</ele>
        <time>2010-06-12T08:10:18Z</time>
      </trkpt>
      <trkpt lat="45.73844" lon="6.09954">
        <ele>599</ele>
        <time>2010-06-12T08:10:20Z</time>
      </trkpt>
      <trkpt lat="45.73844" lon="6.09958">
        <ele>599</ele>
        <time>2010-06-12T08:10:23Z</time>
      </trkpt>
      <trkpt lat="45.73851" lon="6.09958">
        <ele>602</ele>
        <time>2010-06-12T08:10:27Z</time>
      </trkpt>
      <trkpt lat="45.73853" lon="6.09961">
        <ele>602</ele>
        <time>2010-06-12T08:10:29Z</time>
      </trkpt>
      <trkpt lat="45.73856" lon="6.09962">
        <ele>602</ele>
        <time>2010-06-12T08:10:32Z</time>
      </trkpt>
      <trkpt lat="45.73859" lon="6.09966">
        <ele>602</ele>
        <time>2010-06-12T08:10:35Z</time>
      </trkpt>
      <trkpt lat="45.7386" lon="6.09968">
        <ele>602</ele>
        <time>2010-06-12T08:10:37Z</time>
      </trkpt>
      <trkpt lat="45.73861" lon="6.0997">
        <ele>602</ele>
        <time>2010-06-12T08:10:40Z</time>
      </trkpt>
      <trkpt lat="45.73861" lon="6.09971">
        <ele>602</ele>
        <time>2010-06-12T08:10:42Z</time>
      </trkpt>
      <trkpt lat="45.73858" lon="6.09972">
        <ele>602</ele>
        <time>2010-06-12T08:10:46Z</time>
      </trkpt>
      <trkpt lat="45.73856" lon="6.09974">
        <ele>602</ele>
        <time>2010-06-12T08:10:49Z</time>
      </trkpt>
      <trkpt lat="45.73854" lon="6.09978">
        <ele>600</ele>
        <time>2010-06-12T08:10:52Z</time>
      </trkpt>
      <trkpt lat="45.73857" lon="6.09977">
        <ele>585</ele>
        <time>2010-06-12T08:11:00Z</time>
      </trkpt>
      <trkpt lat="45.73858" lon="6.09973">
        <ele>583</ele>
        <time>2010-06-12T08:11:02Z</time>
      </trkpt>
      <trkpt lat="45.73858" lon="6.0997">
        <ele>583</ele>
        <time>2010-06-12T08:11:04Z</time>
      </trkpt>
      <trkpt lat="45.73859" lon="6.09973">
        <ele>584</ele>
        <time>2010-06-12T08:11:08Z</time>
      </trkpt>
      <trkpt lat="45.7386" lon="6.09975">
        <ele>586</ele>
        <time>2010-06-12T08:11:10Z</time>
      </trkpt>
      <trkpt lat="45.73861" lon="6.09975">
        <ele>589</ele>
        <time>2010-06-12T08:11:13Z</time>
      </trkpt>
      <trkpt lat="45.73863" lon="6.09975">
        <ele>592</ele>
        <time>2010-06-12T08:11:16Z</time>
      </trkpt>
      <trkpt lat="45.7386" lon="6.09979">
        <ele>598</ele>
        <time>2010-06-12T08:11:19Z</time>
      </trkpt>
      <trkpt lat="45.73863" lon="6.09985">
        <ele>592</ele>
        <time>2010-06-12T08:11:26Z</time>
      </trkpt>
      <trkpt lat="45.73868" lon="6.09983">
        <ele>590</ele>
        <time>2010-06-12T08:11:31Z</time>
      </trkpt>
      <trkpt lat="45.73869" lon="6.09981">
        <ele>593</ele>
        <time>2010-06-12T08:11:34Z</time>
      </trkpt>
      <trkpt lat="45.73867" lon="6.09983">
        <ele>600</ele>
        <time>2010-06-12T08:11:40Z</time>
      </trkpt>
      <trkpt lat="45.73867" lon="6.09986">
        <ele>598</ele>
        <time>2010-06-12T08:11:42Z</time>
      </trkpt>
      <trkpt lat="45.73865" lon="6.09988">
        <ele>594</ele>
        <time>2010-06-12T08:11:46Z</time>
      </trkpt>
      <trkpt lat="45.73865" lon="6.0999">
        <ele>591</ele>
        <time>2010-06-12T08:11:49Z</time>
      </trkpt>
      <trkpt lat="45.73864" lon="6.09992">
        <ele>585</ele>
        <time>2010-06-12T08:11:52Z</time>
      </trkpt>
      <trkpt lat="45.73864" lon="6.0999">
        <ele>582</ele>
        <time>2010-06-12T08:11:54Z</time>
      </trkpt>
      <trkpt lat="45.73864" lon="6.09987">
        <ele>580</ele>
        <time>2010-06-12T08:11:56Z</time>
      </trkpt>
      <trkpt lat="45.73866" lon="6.09985">
        <ele>579</ele>
        <time>2010-06-12T08:11:58Z</time>
      </trkpt>
      <trkpt lat="45.73865" lon="6.0998">
        <ele>580</ele>
        <time>2010-06-12T08:12:00Z</time>
      </trkpt>
      <trkpt lat="45.73865" lon="6.09976">
        <ele>583</ele>
        <time>2010-06-12T08:12:02Z</time>
      </trkpt>
      <trkpt lat="45.73865" lon="6.09973">
        <ele>587</ele>
        <time>2010-06-12T08:12:04Z</time>
      </trkpt>
      <trkpt lat="45.73865" lon="6.09971">
        <ele>591</ele>
        <time>2010-06-12T08:12:06Z</time>
      </trkpt>
      <trkpt lat="45.73864" lon="6.09969">
        <ele>595</ele>
        <time>2010-06-12T08:12:08Z</time>
      </trkpt>
      <trkpt lat="45.73864" lon="6.09967">
        <ele>600</ele>
        <time>2010-06-12T08:12:12Z</time>
      </trkpt>
      <trkpt lat="45.73863" lon="6.09973">
        <ele>601</ele>
        <time>2010-06-12T08:12:18Z</time>
      </trkpt>
      <trkpt lat="45.73864" lon="6.09978">
        <ele>601</ele>
        <time>2010-06-12T08:12:20Z</time>
      </trkpt>
      <trkpt lat="45.73863" lon="6.09981">
        <ele>598</ele>
        <time>2010-06-12T08:12:24Z</time>
      </trkpt>
      <trkpt lat="45.73864" lon="6.09979">
        <ele>596</ele>
        <time>2010-06-12T08:12:26Z</time>
      </trkpt>
      <trkpt lat="45.73867" lon="6.09977">
        <ele>596</ele>
        <time>2010-06-12T08:12:28Z</time>
      </trkpt>
      <trkpt lat="45.73871" lon="6.09975">
        <ele>596</ele>
        <time>2010-06-12T08:12:30Z</time>
      </trkpt>
      <trkpt lat="45.73874" lon="6.09974">
        <ele>596</ele>
        <time>2010-06-12T08:12:32Z</time>
      </trkpt>
      <trkpt lat="45.73879" lon="6.09973">
        <ele>596</ele>
        <time>2010-06-12T08:12:34Z</time>
      </trkpt>
      <trkpt lat="45.73883" lon="6.09973">
        <ele>597</ele>
        <time>2010-06-12T08:12:36Z</time>
      </trkpt>
      <trkpt lat="45.73886" lon="6.09971">
        <ele>599</ele>
        <time>2010-06-12T08:12:38Z</time>
      </trkpt>
      <trkpt lat="45.7389" lon="6.0997">
        <ele>601</ele>
        <time>2010-06-12T08:12:40Z</time>
      </trkpt>
      <trkpt lat="45.73894" lon="6.09969">
        <ele>603</ele>
        <time>2010-06-12T08:12:42Z</time>
      </trkpt>
      <trkpt lat="45.73898" lon="6.09968">
        <ele>603</ele>
        <time>2010-06-12T08:12:44Z</time>
      </trkpt>
      <trkpt lat="45.73903" lon="6.09968">
        <ele>603</ele>
        <time>2010-06-12T08:12:46Z</time>
      </trkpt>
      <trkpt lat="45.73906" lon="6.09971">
        <ele>603</ele>
        <time>2010-06-12T08:12:48Z</time>
      </trkpt>
      <trkpt lat="45.73911" lon="6.09971">
        <ele>603</ele>
        <time>2010-06-12T08:12:50Z</time>
      </trkpt>
      <trkpt lat="45.73915" lon="6.09971">
        <ele>603</ele>
        <time>2010-06-12T08:12:52Z</time>
      </trkpt>
      <trkpt lat="45.73919" lon="6.0997">
        <ele>603</ele>
        <time>2010-06-12T08:12:54Z</time>
      </trkpt>
      <trkpt lat="45.73922" lon="6.0997">
        <ele>603</ele>
        <time>2010-06-12T08:12:56Z</time>
      </trkpt>
      <trkpt lat="45.73926" lon="6.09968">
        <ele>604</ele>
        <time>2010-06-12T08:12:58Z</time>
      </trkpt>
      <trkpt lat="45.7393" lon="6.09968">
        <ele>606</ele>
        <time>2010-06-12T08:13:00Z</time>
      </trkpt>
      <trkpt lat="45.73933" lon="6.09968">
        <ele>607</ele>
        <time>2010-06-12T08:13:02Z</time>
      </trkpt>
      <trkpt lat="45.73937" lon="6.09967">
        <ele>608</ele>
        <time>2010-06-12T08:13:04Z</time>
      </trkpt>
      <trkpt lat="45.73942" lon="6.09965">
        <ele>609</ele>
        <time>2010-06-12T08:13:06Z</time>
      </trkpt>
      <trkpt lat="45.73947" lon="6.09965">
        <ele>611</ele>
        <time>2010-06-12T08:13:08Z</time>
      </trkpt>
      <trkpt lat="45.73951" lon="6.09966">
        <ele>611</ele>
        <time>2010-06-12T08:13:10Z</time>
      </trkpt>
      <trkpt lat="45.73957" lon="6.09965">
        <ele>611</ele>
        <time>2010-06-12T08:13:12Z</time>
      </trkpt>
      <trkpt lat="45.73961" lon="6.09965">
        <ele>611</ele>
        <time>2010-06-12T08:13:14Z</time>
      </trkpt>
      <trkpt lat="45.73965" lon="6.09966">
        <ele>610</ele>
        <time>2010-06-12T08:13:16Z</time>
      </trkpt>
      <trkpt lat="45.73969" lon="6.09968">
        <ele>608</ele>
        <time>2010-06-12T08:13:18Z</time>
      </trkpt>
      <trkpt lat="45.73974" lon="6.09968">
        <ele>606</ele>
        <time>2010-06-12T08:13:20Z</time>
      </trkpt>
      <trkpt lat="45.73978" lon="6.09969">
        <ele>604</ele>
        <time>2010-06-12T08:13:22Z</time>
      </trkpt>
      <trkpt lat="45.73983" lon="6.09969">
        <ele>602</ele>
        <time>2010-06-12T08:13:24Z</time>
      </trkpt>
      <trkpt lat="45.73986" lon="6.09968">
        <ele>602</ele>
        <time>2010-06-12T08:13:26Z</time>
      </trkpt>
      <trkpt lat="45.73991" lon="6.09967">
        <ele>602</ele>
        <time>2010-06-12T08:13:28Z</time>
      </trkpt>
      <trkpt lat="45.73995" lon="6.09966">
        <ele>602</ele>
        <time>2010-06-12T08:13:30Z</time>
      </trkpt>
      <trkpt lat="45.73999" lon="6.09965">
        <ele>602</ele>
        <time>2010-06-12T08:13:32Z</time>
      </trkpt>
      <trkpt lat="45.74004" lon="6.09966">
        <ele>602</ele>
        <time>2010-06-12T08:13:34Z</time>
      </trkpt>
      <trkpt lat="45.74008" lon="6.09966">
        <ele>602</ele>
        <time>2010-06-12T08:13:36Z</time>
      </trkpt>
      <trkpt lat="45.74012" lon="6.09967">
        <ele>603</ele>
        <time>2010-06-12T08:13:38Z</time>
      </trkpt>
      <trkpt lat="45.74016" lon="6.09968">
        <ele>604</ele>
        <time>2010-06-12T08:13:40Z</time>
      </trkpt>
      <trkpt lat="45.74021" lon="6.09968">
        <ele>605</ele>
        <time>2010-06-12T08:13:42Z</time>
      </trkpt>
      <trkpt lat="45.74025" lon="6.09969">
        <ele>606</ele>
        <time>2010-06-12T08:13:44Z</time>
      </trkpt>
      <trkpt lat="45.74031" lon="6.09969">
        <ele>606</ele>
        <time>2010-06-12T08:13:46Z</time>
      </trkpt>
      <trkpt lat="45.74037" lon="6.09966">
        <ele>608</ele>
        <time>2010-06-12T08:13:48Z</time>
      </trkpt>
      <trkpt lat="45.74043" lon="6.09962">
        <ele>610</ele>
        <time>2010-06-12T08:13:50Z</time>
      </trkpt>
      <trkpt lat="45.74049" lon="6.09958">
        <ele>611</ele>
        <time>2010-06-12T08:13:52Z</time>
      </trkpt>
      <trkpt lat="45.74054" lon="6.09953">
        <ele>612</ele>
        <time>2010-06-12T08:13:54Z</time>
      </trkpt>
      <trkpt lat="45.74062" lon="6.09953">
        <ele>612</ele>
        <time>2010-06-12T08:13:56Z</time>
      </trkpt>
      <trkpt lat="45.74068" lon="6.09952">
        <ele>612</ele>
        <time>2010-06-12T08:13:58Z</time>
      </trkpt>
      <trkpt lat="45.74076" lon="6.0995">
        <ele>612</ele>
        <time>2010-06-12T08:14:00Z</time>
      </trkpt>
      <trkpt lat="45.74082" lon="6.09948">
        <ele>612</ele>
        <time>2010-06-12T08:14:02Z</time>
      </trkpt>
      <trkpt lat="45.74088" lon="6.09947">
        <ele>612</ele>
        <time>2010-06-12T08:14:04Z</time>
      </trkpt>
      <trkpt lat="45.74094" lon="6.09945">
        <ele>612</ele>
        <time>2010-06-12T08:14:06Z</time>
      </trkpt>
      <trkpt lat="45.74101" lon="6.09942">
        <ele>610</ele>
        <time>2010-06-12T08:14:08Z</time>
      </trkpt>
      <trkpt lat="45.74108" lon="6.09939">
        <ele>609</ele>
        <time>2010-06-12T08:14:10Z</time>
      </trkpt>
      <trkpt lat="45.74114" lon="6.09937">
        <ele>609</ele>
        <time>2010-06-12T08:14:12Z</time>
      </trkpt>
      <trkpt lat="45.74118" lon="6.09936">
        <ele>609</ele>
        <time>2010-06-12T08:14:14Z</time>
      </trkpt>
      <trkpt lat="45.74121" lon="6.09936">
        <ele>609</ele>
        <time>2010-06-12T08:14:16Z</time>
      </trkpt>
      <trkpt lat="45.74125" lon="6.09936">
        <ele>609</ele>
        <time>2010-06-12T08:14:18Z</time>
      </trkpt>
      <trkpt lat="45.74128" lon="6.09937">
        <ele>609</ele>
        <time>2010-06-12T08:14:20Z</time>
      </trkpt>
      <trkpt lat="45.74131" lon="6.09938">
        <ele>609</ele>
        <time>2010-06-12T08:14:22Z</time>
      </trkpt>
      <trkpt lat="45.74134" lon="6.0994">
        <ele>610</ele>
        <time>2010-06-12T08:14:25Z</time>
      </trkpt>
      <trkpt lat="45.74137" lon="6.09943">
        <ele>610</ele>
        <time>2010-06-12T08:14:27Z</time>
      </trkpt>
      <trkpt lat="45.7414" lon="6.09942">
        <ele>612</ele>
        <time>2010-06-12T08:14:29Z</time>
      </trkpt>
      <trkpt lat="45.74143" lon="6.09943">
        <ele>614</ele>
        <time>2010-06-12T08:14:31Z</time>
      </trkpt>
      <trkpt lat="45.74146" lon="6.09944">
        <ele>617</ele>
        <time>2010-06-12T08:14:34Z</time>
      </trkpt>
      <trkpt lat="45.74149" lon="6.09945">
        <ele>620</ele>
        <time>2010-06-12T08:14:37Z</time>
      </trkpt>
      <trkpt lat="45.74152" lon="6.09945">
        <ele>622</ele>
        <time>2010-06-12T08:14:39Z</time>
      </trkpt>
      <trkpt lat="45.74155" lon="6.09945">
        <ele>623</ele>
        <time>2010-06-12T08:14:41Z</time>
      </trkpt>
      <trkpt lat="45.74156" lon="6.09943">
        <ele>623</ele>
        <time>2010-06-12T08:14:43Z</time>
      </trkpt>
      <trkpt lat="45.74159" lon="6.09941">
        <ele>625</ele>
        <time>2010-06-12T08:14:45Z</time>
      </trkpt>
      <trkpt lat="45.74161" lon="6.0994">
        <ele>626</ele>
        <time>2010-06-12T08:14:47Z</time>
      </trkpt>
      <trkpt lat="45.74164" lon="6.0994">
        <ele>627</ele>
        <time>2010-06-12T08:14:50Z</time>
      </trkpt>
      <trkpt lat="45.74166" lon="6.09939">
        <ele>627</ele>
        <time>2010-06-12T08:14:52Z</time>
      </trkpt>
      <trkpt lat="45.74168" lon="6.09939">
        <ele>627</ele>
        <time>2010-06-12T08:14:54Z</time>
      </trkpt>
      <trkpt lat="45.74171" lon="6.09938">
        <ele>629</ele>
        <time>2010-06-12T08:14:57Z</time>
      </trkpt>
      <trkpt lat="45.74173" lon="6.09938">
        <ele>629</ele>
        <time>2010-06-12T08:14:59Z</time>
      </trkpt>
      <trkpt lat="45.74175" lon="6.09937">
        <ele>629</ele>
        <time>2010-06-12T08:15:01Z</time>
      </trkpt>
      <trkpt lat="45.74179" lon="6.09937">
        <ele>629</ele>
        <time>2010-06-12T08:15:04Z</time>
      </trkpt>
      <trkpt lat="45.74181" lon="6.09937">
        <ele>629</ele>
        <time>2010-06-12T08:15:06Z</time>
      </trkpt>
      <trkpt lat="45.74184" lon="6.09935">
        <ele>629</ele>
        <time>2010-06-12T08:15:08Z</time>
      </trkpt>
      <trkpt lat="45.74186" lon="6.09933">
        <ele>629</ele>
        <time>2010-06-12T08:15:10Z</time>
      </trkpt>
      <trkpt lat="45.74188" lon="6.09932">
        <ele>629</ele>
        <time>2010-06-12T08:15:12Z</time>
      </trkpt>
      <trkpt lat="45.7419" lon="6.0993">
        <ele>629</ele>
        <time>2010-06-12T08:15:14Z</time>
      </trkpt>
      <trkpt lat="45.74192" lon="6.0993">
        <ele>629</ele>
        <time>2010-06-12T08:15:16Z</time>
      </trkpt>
      <trkpt lat="45.74197" lon="6.0993">
        <ele>629</ele>
        <time>2010-06-12T08:15:19Z</time>
      </trkpt>
      <trkpt lat="45.742" lon="6.09931">
        <ele>630</ele>
        <time>2010-06-12T08:15:21Z</time>
      </trkpt>
      <trkpt lat="45.74202" lon="6.0993">
        <ele>631</ele>
        <time>2010-06-12T08:15:23Z</time>
      </trkpt>
      <trkpt lat="45.74204" lon="6.09929">
        <ele>631</ele>
        <time>2010-06-12T08:15:25Z</time>
      </trkpt>
      <trkpt lat="45.7421" lon="6.09928">
        <ele>631</ele>
        <time>2010-06-12T08:15:28Z</time>
      </trkpt>
      <trkpt lat="45.74212" lon="6.09926">
        <ele>631</ele>
        <time>2010-06-12T08:15:30Z</time>
      </trkpt>
      <trkpt lat="45.74215" lon="6.09926">
        <ele>631</ele>
        <time>2010-06-12T08:15:32Z</time>
      </trkpt>
      <trkpt lat="45.74216" lon="6.09926">
        <ele>631</ele>
        <time>2010-06-12T08:15:34Z</time>
      </trkpt>
      <trkpt lat="45.74219" lon="6.09925">
        <ele>631</ele>
        <time>2010-06-12T08:15:36Z</time>
      </trkpt>
      <trkpt lat="45.74222" lon="6.09925">
        <ele>633</ele>
        <time>2010-06-12T08:15:38Z</time>
      </trkpt>
      <trkpt lat="45.74225" lon="6.09926">
        <ele>636</ele>
        <time>2010-06-12T08:15:41Z</time>
      </trkpt>
      <trkpt lat="45.74229" lon="6.09926">
        <ele>639</ele>
        <time>2010-06-12T08:15:44Z</time>
      </trkpt>
      <trkpt lat="45.74231" lon="6.09926">
        <ele>641</ele>
        <time>2010-06-12T08:15:46Z</time>
      </trkpt>
      <trkpt lat="45.74235" lon="6.09927">
        <ele>643</ele>
        <time>2010-06-12T08:15:50Z</time>
      </trkpt>
      <trkpt lat="45.74237" lon="6.09928">
        <ele>643</ele>
        <time>2010-06-12T08:15:52Z</time>
      </trkpt>
      <trkpt lat="45.74241" lon="6.09933">
        <ele>643</ele>
        <time>2010-06-12T08:15:55Z</time>
      </trkpt>
      <trkpt lat="45.74244" lon="6.09933">
        <ele>643</ele>
        <time>2010-06-12T08:15:58Z</time>
      </trkpt>
      <trkpt lat="45.74246" lon="6.09932">
        <ele>643</ele>
        <time>2010-06-12T08:16:00Z</time>
      </trkpt>
      <trkpt lat="45.74249" lon="6.09931">
        <ele>643</ele>
        <time>2010-06-12T08:16:03Z</time>
      </trkpt>
      <trkpt lat="45.74253" lon="6.09933">
        <ele>646</ele>
        <time>2010-06-12T08:16:06Z</time>
      </trkpt>
      <trkpt lat="45.74256" lon="6.09933">
        <ele>646</ele>
        <time>2010-06-12T08:16:09Z</time>
      </trkpt>
      <trkpt lat="45.74261" lon="6.09934">
        <ele>646</ele>
        <time>2010-06-12T08:16:13Z</time>
      </trkpt>
      <trkpt lat="45.74264" lon="6.09937">
        <ele>646</ele>
        <time>2010-06-12T08:16:15Z</time>
      </trkpt>
      <trkpt lat="45.74269" lon="6.09936">
        <ele>646</ele>
        <time>2010-06-12T08:16:19Z</time>
      </trkpt>
      <trkpt lat="45.74271" lon="6.09937">
        <ele>646</ele>
        <time>2010-06-12T08:16:21Z</time>
      </trkpt>
      <trkpt lat="45.74273" lon="6.09939">
        <ele>646</ele>
        <time>2010-06-12T08:16:23Z</time>
      </trkpt>
      <trkpt lat="45.74274" lon="6.09941">
        <ele>646</ele>
        <time>2010-06-12T08:16:25Z</time>
      </trkpt>
      <trkpt lat="45.74278" lon="6.09944">
        <ele>646</ele>
        <time>2010-06-12T08:16:27Z</time>
      </trkpt>
      <trkpt lat="45.7428" lon="6.09944">
        <ele>645</ele>
        <time>2010-06-12T08:16:29Z</time>
      </trkpt>
      <trkpt lat="45.74282" lon="6.09943">
        <ele>644</ele>
        <time>2010-06-12T08:16:31Z</time>
      </trkpt>
      <trkpt lat="45.74287" lon="6.09943">
        <ele>644</ele>
        <time>2010-06-12T08:16:34Z</time>
      </trkpt>
      <trkpt lat="45.74291" lon="6.09941">
        <ele>644</ele>
        <time>2010-06-12T08:16:37Z</time>
      </trkpt>
      <trkpt lat="45.74295" lon="6.09939">
        <ele>645</ele>
        <time>2010-06-12T08:16:40Z</time>
      </trkpt>
      <trkpt lat="45.74297" lon="6.09938">
        <ele>646</ele>
        <time>2010-06-12T08:16:42Z</time>
      </trkpt>
      <trkpt lat="45.74301" lon="6.09939">
        <ele>647</ele>
        <time>2010-06-12T08:16:45Z</time>
      </trkpt>
      <trkpt lat="45.74304" lon="6.09938">
        <ele>649</ele>
        <time>2010-06-12T08:16:48Z</time>
      </trkpt>
      <trkpt lat="45.74308" lon="6.0994">
        <ele>652</ele>
        <time>2010-06-12T08:16:51Z</time>
      </trkpt>
      <trkpt lat="45.7431" lon="6.09939">
        <ele>653</ele>
        <time>2010-06-12T08:16:53Z</time>
      </trkpt>
      <trkpt lat="45.74313" lon="6.09938">
        <ele>655</ele>
        <time>2010-06-12T08:16:55Z</time>
      </trkpt>
      <trkpt lat="45.74315" lon="6.09937">
        <ele>657</ele>
        <time>2010-06-12T08:16:57Z</time>
      </trkpt>
      <trkpt lat="45.74319" lon="6.09938">
        <ele>659</ele>
        <time>2010-06-12T08:17:00Z</time>
      </trkpt>
      <trkpt lat="45.74321" lon="6.09938">
        <ele>659</ele>
        <time>2010-06-12T08:17:02Z</time>
      </trkpt>
      <trkpt lat="45.74324" lon="6.09939">
        <ele>659</ele>
        <time>2010-06-12T08:17:04Z</time>
      </trkpt>
      <trkpt lat="45.74327" lon="6.09939">
        <ele>659</ele>
        <time>2010-06-12T08:17:07Z</time>
      </trkpt>
      <trkpt lat="45.74329" lon="6.09941">
        <ele>658</ele>
        <time>2010-06-12T08:17:10Z</time>
      </trkpt>
      <trkpt lat="45.74331" lon="6.09944">
        <ele>654</ele>
        <time>2010-06-12T08:17:14Z</time>
      </trkpt>
      <trkpt lat="45.74329" lon="6.09962">
        <ele>636</ele>
        <time>2010-06-12T08:17:29Z</time>
      </trkpt>
      <trkpt lat="45.74329" lon="6.09952">
        <ele>623</ele>
        <time>2010-06-12T08:17:37Z</time>
      </trkpt>
      <trkpt lat="45.74329" lon="6.0995">
        <ele>627</ele>
        <time>2010-06-12T08:17:41Z</time>
      </trkpt>
      <trkpt lat="45.74333" lon="6.09949">
        <ele>623</ele>
        <time>2010-06-12T08:17:44Z</time>
      </trkpt>
      <trkpt lat="45.74332" lon="6.09946">
        <ele>623</ele>
        <time>2010-06-12T08:17:46Z</time>
      </trkpt>
      <trkpt lat="45.74333" lon="6.09944">
        <ele>623</ele>
        <time>2010-06-12T08:17:48Z</time>
      </trkpt>
      <trkpt lat="45.74333" lon="6.09943">
        <ele>625</ele>
        <time>2010-06-12T08:17:50Z</time>
      </trkpt>
      <trkpt lat="45.74338" lon="6.09939">
        <ele>633</ele>
        <time>2010-06-12T08:18:00Z</time>
      </trkpt>
      <trkpt lat="45.74343" lon="6.09937">
        <ele>633</ele>
        <time>2010-06-12T08:18:03Z</time>
      </trkpt>
      <trkpt lat="45.74346" lon="6.09935">
        <ele>633</ele>
        <time>2010-06-12T08:18:05Z</time>
      </trkpt>
      <trkpt lat="45.74351" lon="6.09932">
        <ele>633</ele>
        <time>2010-06-12T08:18:07Z</time>
      </trkpt>
      <trkpt lat="45.74356" lon="6.09928">
        <ele>633</ele>
        <time>2010-06-12T08:18:09Z</time>
      </trkpt>
      <trkpt lat="45.74361" lon="6.09923">
        <ele>633</ele>
        <time>2010-06-12T08:18:11Z</time>
      </trkpt>
      <trkpt lat="45.74365" lon="6.0992">
        <ele>634</ele>
        <time>2010-06-12T08:18:13Z</time>
      </trkpt>
      <trkpt lat="45.74368" lon="6.09918">
        <ele>634</ele>
        <time>2010-06-12T08:18:15Z</time>
      </trkpt>
      <trkpt lat="45.74371" lon="6.09916">
        <ele>635</ele>
        <time>2010-06-12T08:18:17Z</time>
      </trkpt>
      <trkpt lat="45.74374" lon="6.09913">
        <ele>635</ele>
        <time>2010-06-12T08:18:19Z</time>
      </trkpt>
      <trkpt lat="45.74376" lon="6.09911">
        <ele>635</ele>
        <time>2010-06-12T08:18:21Z</time>
      </trkpt>
      <trkpt lat="45.74379" lon="6.09909">
        <ele>635</ele>
        <time>2010-06-12T08:18:23Z</time>
      </trkpt>
      <trkpt lat="45.74381" lon="6.09906">
        <ele>636</ele>
        <time>2010-06-12T08:18:25Z</time>
      </trkpt>
      <trkpt lat="45.74384" lon="6.09903">
        <ele>636</ele>
        <time>2010-06-12T08:18:27Z</time>
      </trkpt>
      <trkpt lat="45.74387" lon="6.099">
        <ele>636</ele>
        <time>2010-06-12T08:18:29Z</time>
      </trkpt>
      <trkpt lat="45.74389" lon="6.09897">
        <ele>636</ele>
        <time>2010-06-12T08:18:31Z</time>
      </trkpt>
      <trkpt lat="45.74393" lon="6.09891">
        <ele>637</ele>
        <time>2010-06-12T08:18:33Z</time>
      </trkpt>
      <trkpt lat="45.74398" lon="6.09883">
        <ele>637</ele>
        <time>2010-06-12T08:18:35Z</time>
      </trkpt>
      <trkpt lat="45.74403" lon="6.09877">
        <ele>637</ele>
        <time>2010-06-12T08:18:37Z</time>
      </trkpt>
      <trkpt lat="45.74409" lon="6.09873">
        <ele>637</ele>
        <time>2010-06-12T08:18:39Z</time>
      </trkpt>
      <trkpt lat="45.74417" lon="6.0987">
        <ele>639</ele>
        <time>2010-06-12T08:18:41Z</time>
      </trkpt>
      <trkpt lat="45.74428" lon="6.09865">
        <ele>641</ele>
        <time>2010-06-12T08:18:43Z</time>
      </trkpt>
      <trkpt lat="45.7444" lon="6.09851">
        <ele>642</ele>
        <time>2010-06-12T08:18:45Z</time>
      </trkpt>
      <trkpt lat="45.74452" lon="6.09839">
        <ele>642</ele>
        <time>2010-06-12T08:18:47Z</time>
      </trkpt>
      <trkpt lat="45.74459" lon="6.09831">
        <ele>640</ele>
        <time>2010-06-12T08:18:49Z</time>
      </trkpt>
      <trkpt lat="45.74461" lon="6.09829">
        <ele>639</ele>
        <time>2010-06-12T08:18:51Z</time>
      </trkpt>
      <trkpt lat="45.74462" lon="6.09816">
        <ele>636</ele>
        <time>2010-06-12T08:18:54Z</time>
      </trkpt>
      <trkpt lat="45.74462" lon="6.09795">
        <ele>635</ele>
        <time>2010-06-12T08:18:56Z</time>
      </trkpt>
      <trkpt lat="45.74464" lon="6.09767">
        <ele>635</ele>
        <time>2010-06-12T08:18:59Z</time>
      </trkpt>
      <trkpt lat="45.74468" lon="6.09754">
        <ele>635</ele>
        <time>2010-06-12T08:19:01Z</time>
      </trkpt>
      <trkpt lat="45.7448" lon="6.09743">
        <ele>635</ele>
        <time>2010-06-12T08:19:04Z</time>
      </trkpt>
      <trkpt lat="45.74493" lon="6.09742">
        <ele>634</ele>
        <time>2010-06-12T08:19:06Z</time>
      </trkpt>
      <trkpt lat="45.74517" lon="6.09739">
        <ele>630</ele>
        <time>2010-06-12T08:19:09Z</time>
      </trkpt>
      <trkpt lat="45.74533" lon="6.0973">
        <ele>626</ele>
        <time>2010-06-12T08:19:11Z</time>
      </trkpt>
      <trkpt lat="45.74544" lon="6.09724">
        <ele>624</ele>
        <time>2010-06-12T08:19:13Z</time>
      </trkpt>
      <trkpt lat="45.74551" lon="6.0972">
        <ele>622</ele>
        <time>2010-06-12T08:19:15Z</time>
      </trkpt>
      <trkpt lat="45.74558" lon="6.09713">
        <ele>620</ele>
        <time>2010-06-12T08:19:17Z</time>
      </trkpt>
      <trkpt lat="45.74563" lon="6.09705">
        <ele>618</ele>
        <time>2010-06-12T08:19:19Z</time>
      </trkpt>
      <trkpt lat="45.74568" lon="6.09698">
        <ele>618</ele>
        <time>2010-06-12T08:19:21Z</time>
      </trkpt>
      <trkpt lat="45.74572" lon="6.09693">
        <ele>618</ele>
        <time>2010-06-12T08:19:23Z</time>
      </trkpt>
      <trkpt lat="45.74575" lon="6.09691">
        <ele>618</ele>
        <time>2010-06-12T08:19:25Z</time>
      </trkpt>
      <trkpt lat="45.74578" lon="6.09686">
        <ele>618</ele>
        <time>2010-06-12T08:19:27Z</time>
      </trkpt>
      <trkpt lat="45.7458" lon="6.0968">
        <ele>618</ele>
        <time>2010-06-12T08:19:29Z</time>
      </trkpt>
      <trkpt lat="45.74583" lon="6.09675">
        <ele>621</ele>
        <time>2010-06-12T08:19:32Z</time>
      </trkpt>
      <trkpt lat="45.74586" lon="6.09674">
        <ele>623</ele>
        <time>2010-06-12T08:19:34Z</time>
      </trkpt>
      <trkpt lat="45.74591" lon="6.09672">
        <ele>625</ele>
        <time>2010-06-12T08:19:36Z</time>
      </trkpt>
      <trkpt lat="45.74597" lon="6.09666">
        <ele>625</ele>
        <time>2010-06-12T08:19:38Z</time>
      </trkpt>
      <trkpt lat="45.74602" lon="6.0966">
        <ele>626</ele>
        <time>2010-06-12T08:19:40Z</time>
      </trkpt>
      <trkpt lat="45.74609" lon="6.09654">
        <ele>626</ele>
        <time>2010-06-12T08:19:42Z</time>
      </trkpt>
      <trkpt lat="45.74614" lon="6.09646">
        <ele>626</ele>
        <time>2010-06-12T08:19:44Z</time>
      </trkpt>
      <trkpt lat="45.7462" lon="6.09637">
        <ele>626</ele>
        <time>2010-06-12T08:19:46Z</time>
      </trkpt>
      <trkpt lat="45.74626" lon="6.09627">
        <ele>626</ele>
        <time>2010-06-12T08:19:48Z</time>
      </trkpt>
      <trkpt lat="45.74631" lon="6.09619">
        <ele>626</ele>
        <time>2010-06-12T08:19:50Z</time>
      </trkpt>
      <trkpt lat="45.74637" lon="6.09612">
        <ele>626</ele>
        <time>2010-06-12T08:19:52Z</time>
      </trkpt>
      <trkpt lat="45.74645" lon="6.09606">
        <ele>626</ele>
        <time>2010-06-12T08:19:54Z</time>
      </trkpt>
      <trkpt lat="45.74656" lon="6.09596">
        <ele>626</ele>
        <time>2010-06-12T08:19:56Z</time>
      </trkpt>
      <trkpt lat="45.74669" lon="6.09587">
        <ele>626</ele>
        <time>2010-06-12T08:19:58Z</time>
      </trkpt>
      <trkpt lat="45.7468" lon="6.09572">
        <ele>626</ele>
        <time>2010-06-12T08:20:00Z</time>
      </trkpt>
      <trkpt lat="45.74687" lon="6.09559">
        <ele>626</ele>
        <time>2010-06-12T08:20:02Z</time>
      </trkpt>
      <trkpt lat="45.74697" lon="6.09544">
        <ele>626</ele>
        <time>2010-06-12T08:20:05Z</time>
      </trkpt>
      <trkpt lat="45.747" lon="6.09536">
        <ele>626</ele>
        <time>2010-06-12T08:20:07Z</time>
      </trkpt>
      <trkpt lat="45.74703" lon="6.09527">
        <ele>625</ele>
        <time>2010-06-12T08:20:09Z</time>
      </trkpt>
      <trkpt lat="45.74708" lon="6.09517">
        <ele>625</ele>
        <time>2010-06-12T08:20:11Z</time>
      </trkpt>
      <trkpt lat="45.74714" lon="6.0951">
        <ele>625</ele>
        <time>2010-06-12T08:20:13Z</time>
      </trkpt>
      <trkpt lat="45.74716" lon="6.09506">
        <ele>625</ele>
        <time>2010-06-12T08:20:15Z</time>
      </trkpt>
      <trkpt lat="45.74717" lon="6.09502">
        <ele>628</ele>
        <time>2010-06-12T08:20:21Z</time>
      </trkpt>
      <trkpt lat="45.74718" lon="6.09499">
        <ele>628</ele>
        <time>2010-06-12T08:20:25Z</time>
      </trkpt>
      <trkpt lat="45.7472" lon="6.09491">
        <ele>627</ele>
        <time>2010-06-12T08:20:27Z</time>
      </trkpt>
      <trkpt lat="45.74723" lon="6.09478">
        <ele>626</ele>
        <time>2010-06-12T08:20:29Z</time>
      </trkpt>
      <trkpt lat="45.74726" lon="6.09463">
        <ele>624</ele>
        <time>2010-06-12T08:20:31Z</time>
      </trkpt>
      <trkpt lat="45.74729" lon="6.09446">
        <ele>622</ele>
        <time>2010-06-12T08:20:33Z</time>
      </trkpt>
      <trkpt lat="45.74729" lon="6.0943">
        <ele>620</ele>
        <time>2010-06-12T08:20:35Z</time>
      </trkpt>
      <trkpt lat="45.74727" lon="6.09415">
        <ele>616</ele>
        <time>2010-06-12T08:20:37Z</time>
      </trkpt>
      <trkpt lat="45.74729" lon="6.09402">
        <ele>613</ele>
        <time>2010-06-12T08:20:39Z</time>
      </trkpt>
      <trkpt lat="45.74734" lon="6.09393">
        <ele>611</ele>
        <time>2010-06-12T08:20:41Z</time>
      </trkpt>
      <trkpt lat="45.74738" lon="6.09386">
        <ele>609</ele>
        <time>2010-06-12T08:20:43Z</time>
      </trkpt>
      <trkpt lat="45.74742" lon="6.09379">
        <ele>609</ele>
        <time>2010-06-12T08:20:45Z</time>
      </trkpt>
      <trkpt lat="45.74746" lon="6.09373">
        <ele>609</ele>
        <time>2010-06-12T08:20:47Z</time>
      </trkpt>
      <trkpt lat="45.7475" lon="6.09368">
        <ele>609</ele>
        <time>2010-06-12T08:20:49Z</time>
      </trkpt>
      <trkpt lat="45.74754" lon="6.09363">
        <ele>609</ele>
        <time>2010-06-12T08:20:51Z</time>
      </trkpt>
      <trkpt lat="45.74759" lon="6.09358">
        <ele>609</ele>
        <time>2010-06-12T08:20:53Z</time>
      </trkpt>
      <trkpt lat="45.74763" lon="6.09353">
        <ele>609</ele>
        <time>2010-06-12T08:20:55Z</time>
      </trkpt>
      <trkpt lat="45.74768" lon="6.0935">
        <ele>609</ele>
        <time>2010-06-12T08:20:57Z</time>
      </trkpt>
      <trkpt lat="45.74771" lon="6.09345">
        <ele>609</ele>
        <time>2010-06-12T08:20:59Z</time>
      </trkpt>
      <trkpt lat="45.74776" lon="6.09341">
        <ele>609</ele>
        <time>2010-06-12T08:21:01Z</time>
      </trkpt>
      <trkpt lat="45.7478" lon="6.09336">
        <ele>609</ele>
        <time>2010-06-12T08:21:03Z</time>
      </trkpt>
      <trkpt lat="45.74784" lon="6.0933">
        <ele>609</ele>
        <time>2010-06-12T08:21:05Z</time>
      </trkpt>
      <trkpt lat="45.74788" lon="6.09326">
        <ele>609</ele>
        <time>2010-06-12T08:21:07Z</time>
      </trkpt>
      <trkpt lat="45.74792" lon="6.09321">
        <ele>609</ele>
        <time>2010-06-12T08:21:09Z</time>
      </trkpt>
      <trkpt lat="45.74795" lon="6.09317">
        <ele>609</ele>
        <time>2010-06-12T08:21:11Z</time>
      </trkpt>
      <trkpt lat="45.74798" lon="6.09314">
        <ele>609</ele>
        <time>2010-06-12T08:21:13Z</time>
      </trkpt>
      <trkpt lat="45.74802" lon="6.09312">
        <ele>609</ele>
        <time>2010-06-12T08:21:15Z</time>
      </trkpt>
      <trkpt lat="45.74805" lon="6.09309">
        <ele>609</ele>
        <time>2010-06-12T08:21:17Z</time>
      </trkpt>
      <trkpt lat="45.74808" lon="6.09306">
        <ele>610</ele>
        <time>2010-06-12T08:21:19Z</time>
      </trkpt>
      <trkpt lat="45.74812" lon="6.09302">
        <ele>611</ele>
        <time>2010-06-12T08:21:22Z</time>
      </trkpt>
      <trkpt lat="45.74815" lon="6.09299">
        <ele>612</ele>
        <time>2010-06-12T08:21:24Z</time>
      </trkpt>
      <trkpt lat="45.74817" lon="6.09296">
        <ele>613</ele>
        <time>2010-06-12T08:21:26Z</time>
      </trkpt>
      <trkpt lat="45.7482" lon="6.09293">
        <ele>615</ele>
        <time>2010-06-12T08:21:28Z</time>
      </trkpt>
      <trkpt lat="45.74823" lon="6.0929">
        <ele>617</ele>
        <time>2010-06-12T08:21:30Z</time>
      </trkpt>
      <trkpt lat="45.74825" lon="6.09287">
        <ele>619</ele>
        <time>2010-06-12T08:21:32Z</time>
      </trkpt>
      <trkpt lat="45.74827" lon="6.09285">
        <ele>621</ele>
        <time>2010-06-12T08:21:34Z</time>
      </trkpt>
      <trkpt lat="45.74829" lon="6.09283">
        <ele>623</ele>
        <time>2010-06-12T08:21:36Z</time>
      </trkpt>
      <trkpt lat="45.74831" lon="6.0928">
        <ele>623</ele>
        <time>2010-06-12T08:21:38Z</time>
      </trkpt>
      <trkpt lat="45.74833" lon="6.09275">
        <ele>624</ele>
        <time>2010-06-12T08:21:41Z</time>
      </trkpt>
      <trkpt lat="45.74833" lon="6.09271">
        <ele>624</ele>
        <time>2010-06-12T08:21:43Z</time>
      </trkpt>
      <trkpt lat="45.74834" lon="6.09267">
        <ele>624</ele>
        <time>2010-06-12T08:21:45Z</time>
      </trkpt>
      <trkpt lat="45.74834" lon="6.09263">
        <ele>624</ele>
        <time>2010-06-12T08:21:47Z</time>
      </trkpt>
      <trkpt lat="45.74834" lon="6.0926">
        <ele>624</ele>
        <time>2010-06-12T08:21:49Z</time>
      </trkpt>
      <trkpt lat="45.74835" lon="6.09255">
        <ele>623</ele>
        <time>2010-06-12T08:21:51Z</time>
      </trkpt>
      <trkpt lat="45.74836" lon="6.09252">
        <ele>622</ele>
        <time>2010-06-12T08:21:53Z</time>
      </trkpt>
      <trkpt lat="45.74836" lon="6.09246">
        <ele>621</ele>
        <time>2010-06-12T08:21:55Z</time>
      </trkpt>
      <trkpt lat="45.74836" lon="6.09241">
        <ele>621</ele>
        <time>2010-06-12T08:21:57Z</time>
      </trkpt>
      <trkpt lat="45.74837" lon="6.09237">
        <ele>621</ele>
        <time>2010-06-12T08:21:59Z</time>
      </trkpt>
      <trkpt lat="45.74837" lon="6.09232">
        <ele>621</ele>
        <time>2010-06-12T08:22:01Z</time>
      </trkpt>
      <trkpt lat="45.74838" lon="6.09228">
        <ele>621</ele>
        <time>2010-06-12T08:22:03Z</time>
      </trkpt>
      <trkpt lat="45.74837" lon="6.09225">
        <ele>621</ele>
        <time>2010-06-12T08:22:05Z</time>
      </trkpt>
      <trkpt lat="45.74838" lon="6.09222">
        <ele>621</ele>
        <time>2010-06-12T08:22:07Z</time>
      </trkpt>
      <trkpt lat="45.74839" lon="6.09218">
        <ele>621</ele>
        <time>2010-06-12T08:22:09Z</time>
      </trkpt>
      <trkpt lat="45.74839" lon="6.09213">
        <ele>621</ele>
        <time>2010-06-12T08:22:12Z</time>
      </trkpt>
      <trkpt lat="45.74839" lon="6.09206">
        <ele>621</ele>
        <time>2010-06-12T08:22:14Z</time>
      </trkpt>
      <trkpt lat="45.7484" lon="6.092">
        <ele>621</ele>
        <time>2010-06-12T08:22:16Z</time>
      </trkpt>
      <trkpt lat="45.74842" lon="6.09193">
        <ele>621</ele>
        <time>2010-06-12T08:22:19Z</time>
      </trkpt>
      <trkpt lat="45.74845" lon="6.09186">
        <ele>621</ele>
        <time>2010-06-12T08:22:21Z</time>
      </trkpt>
      <trkpt lat="45.74848" lon="6.09179">
        <ele>621</ele>
        <time>2010-06-12T08:22:23Z</time>
      </trkpt>
      <trkpt lat="45.74852" lon="6.09172">
        <ele>620</ele>
        <time>2010-06-12T08:22:25Z</time>
      </trkpt>
      <trkpt lat="45.74858" lon="6.09165">
        <ele>619</ele>
        <time>2010-06-12T08:22:27Z</time>
      </trkpt>
      <trkpt lat="45.74863" lon="6.09156">
        <ele>617</ele>
        <time>2010-06-12T08:22:29Z</time>
      </trkpt>
      <trkpt lat="45.74869" lon="6.09145">
        <ele>616</ele>
        <time>2010-06-12T08:22:31Z</time>
      </trkpt>
      <trkpt lat="45.74874" lon="6.09134">
        <ele>615</ele>
        <time>2010-06-12T08:22:33Z</time>
      </trkpt>
      <trkpt lat="45.74877" lon="6.09124">
        <ele>615</ele>
        <time>2010-06-12T08:22:35Z</time>
      </trkpt>
      <trkpt lat="45.74881" lon="6.09115">
        <ele>615</ele>
        <time>2010-06-12T08:22:37Z</time>
      </trkpt>
      <trkpt lat="45.74886" lon="6.09105">
        <ele>614</ele>
        <time>2010-06-12T08:22:39Z</time>
      </trkpt>
      <trkpt lat="45.74889" lon="6.09096">
        <ele>613</ele>
        <time>2010-06-12T08:22:41Z</time>
      </trkpt>
      <trkpt lat="45.74894" lon="6.09087">
        <ele>613</ele>
        <time>2010-06-12T08:22:43Z</time>
      </trkpt>
      <trkpt lat="45.74898" lon="6.09079">
        <ele>613</ele>
        <time>2010-06-12T08:22:45Z</time>
      </trkpt>
      <trkpt lat="45.74901" lon="6.0907">
        <ele>613</ele>
        <time>2010-06-12T08:22:47Z</time>
      </trkpt>
      <trkpt lat="45.74904" lon="6.09061">
        <ele>613</ele>
        <time>2010-06-12T08:22:49Z</time>
      </trkpt>
      <trkpt lat="45.74905" lon="6.09053">
        <ele>613</ele>
        <time>2010-06-12T08:22:51Z</time>
      </trkpt>
      <trkpt lat="45.74906" lon="6.09044">
        <ele>615</ele>
        <time>2010-06-12T08:22:53Z</time>
      </trkpt>
      <trkpt lat="45.74908" lon="6.09035">
        <ele>617</ele>
        <time>2010-06-12T08:22:55Z</time>
      </trkpt>
      <trkpt lat="45.7491" lon="6.09027">
        <ele>619</ele>
        <time>2010-06-12T08:22:57Z</time>
      </trkpt>
      <trkpt lat="45.74913" lon="6.09019">
        <ele>621</ele>
        <time>2010-06-12T08:22:59Z</time>
      </trkpt>
      <trkpt lat="45.74915" lon="6.09011">
        <ele>623</ele>
        <time>2010-06-12T08:23:01Z</time>
      </trkpt>
      <trkpt lat="45.74919" lon="6.09003">
        <ele>625</ele>
        <time>2010-06-12T08:23:03Z</time>
      </trkpt>
      <trkpt lat="45.74924" lon="6.08993">
        <ele>627</ele>
        <time>2010-06-12T08:23:05Z</time>
      </trkpt>
      <trkpt lat="45.74931" lon="6.08982">
        <ele>627</ele>
        <time>2010-06-12T08:23:07Z</time>
      </trkpt>
      <trkpt lat="45.74937" lon="6.08969">
        <ele>627</ele>
        <time>2010-06-12T08:23:09Z</time>
      </trkpt>
      <trkpt lat="45.74944" lon="6.08956">
        <ele>626</ele>
        <time>2010-06-12T08:23:11Z</time>
      </trkpt>
      <trkpt lat="45.7495" lon="6.08943">
        <ele>625</ele>
        <time>2010-06-12T08:23:13Z</time>
      </trkpt>
      <trkpt lat="45.74955" lon="6.0893">
        <ele>624</ele>
        <time>2010-06-12T08:23:15Z</time>
      </trkpt>
      <trkpt lat="45.7496" lon="6.08917">
        <ele>623</ele>
        <time>2010-06-12T08:23:17Z</time>
      </trkpt>
      <trkpt lat="45.74962" lon="6.08903">
        <ele>622</ele>
        <time>2010-06-12T08:23:19Z</time>
      </trkpt>
      <trkpt lat="45.74961" lon="6.08889">
        <ele>621</ele>
        <time>2010-06-12T08:23:21Z</time>
      </trkpt>
      <trkpt lat="45.74961" lon="6.08874">
        <ele>620</ele>
        <time>2010-06-12T08:23:23Z</time>
      </trkpt>
      <trkpt lat="45.74962" lon="6.08859">
        <ele>620</ele>
        <time>2010-06-12T08:23:25Z</time>
      </trkpt>
      <trkpt lat="45.74964" lon="6.08843">
        <ele>620</ele>
        <time>2010-06-12T08:23:27Z</time>
      </trkpt>
      <trkpt lat="45.74967" lon="6.08827">
        <ele>620</ele>
        <time>2010-06-12T08:23:29Z</time>
      </trkpt>
      <trkpt lat="45.74972" lon="6.08811">
        <ele>620</ele>
        <time>2010-06-12T08:23:31Z</time>
      </trkpt>
      <trkpt lat="45.74977" lon="6.08796">
        <ele>620</ele>
        <time>2010-06-12T08:23:33Z</time>
      </trkpt>
      <trkpt lat="45.74981" lon="6.08784">
        <ele>620</ele>
        <time>2010-06-12T08:23:35Z</time>
      </trkpt>
      <trkpt lat="45.74986" lon="6.08774">
        <ele>620</ele>
        <time>2010-06-12T08:23:37Z</time>
      </trkpt>
      <trkpt lat="45.74989" lon="6.08766">
        <ele>621</ele>
        <time>2010-06-12T08:23:39Z</time>
      </trkpt>
      <trkpt lat="45.74992" lon="6.08757">
        <ele>621</ele>
        <time>2010-06-12T08:23:41Z</time>
      </trkpt>
      <trkpt lat="45.74994" lon="6.08747">
        <ele>622</ele>
        <time>2010-06-12T08:23:43Z</time>
      </trkpt>
      <trkpt lat="45.74996" lon="6.08738">
        <ele>622</ele>
        <time>2010-06-12T08:23:45Z</time>
      </trkpt>
      <trkpt lat="45.74997" lon="6.08728">
        <ele>622</ele>
        <time>2010-06-12T08:23:47Z</time>
      </trkpt>
      <trkpt lat="45.74996" lon="6.08719">
        <ele>622</ele>
        <time>2010-06-12T08:23:49Z</time>
      </trkpt>
      <trkpt lat="45.74994" lon="6.0871">
        <ele>622</ele>
        <time>2010-06-12T08:23:51Z</time>
      </trkpt>
      <trkpt lat="45.74993" lon="6.08699">
        <ele>622</ele>
        <time>2010-06-12T08:23:53Z</time>
      </trkpt>
      <trkpt lat="45.74993" lon="6.08687">
        <ele>622</ele>
        <time>2010-06-12T08:23:55Z</time>
      </trkpt>
      <trkpt lat="45.74995" lon="6.08676">
        <ele>621</ele>
        <time>2010-06-12T08:23:57Z</time>
      </trkpt>
      <trkpt lat="45.74996" lon="6.08666">
        <ele>620</ele>
        <time>2010-06-12T08:23:59Z</time>
      </trkpt>
      <trkpt lat="45.74998" lon="6.08655">
        <ele>619</ele>
        <time>2010-06-12T08:24:01Z</time>
      </trkpt>
      <trkpt lat="45.74998" lon="6.08643">
        <ele>618</ele>
        <time>2010-06-12T08:24:03Z</time>
      </trkpt>
      <trkpt lat="45.75" lon="6.08632">
        <ele>618</ele>
        <time>2010-06-12T08:24:05Z</time>
      </trkpt>
      <trkpt lat="45.75002" lon="6.08621">
        <ele>618</ele>
        <time>2010-06-12T08:24:07Z</time>
      </trkpt>
      <trkpt lat="45.75005" lon="6.08611">
        <ele>618</ele>
        <time>2010-06-12T08:24:09Z</time>
      </trkpt>
      <trkpt lat="45.75008" lon="6.08603">
        <ele>618</ele>
        <time>2010-06-12T08:24:11Z</time>
      </trkpt>
      <trkpt lat="45.75012" lon="6.08594">
        <ele>618</ele>
        <time>2010-06-12T08:24:13Z</time>
      </trkpt>
      <trkpt lat="45.75016" lon="6.08586">
        <ele>618</ele>
        <time>2010-06-12T08:24:15Z</time>
      </trkpt>
      <trkpt lat="45.7502" lon="6.08577">
        <ele>618</ele>
        <time>2010-06-12T08:24:17Z</time>
      </trkpt>
      <trkpt lat="45.75024" lon="6.08568">
        <ele>618</ele>
        <time>2010-06-12T08:24:19Z</time>
      </trkpt>
      <trkpt lat="45.75028" lon="6.08561">
        <ele>618</ele>
        <time>2010-06-12T08:24:21Z</time>
      </trkpt>
      <trkpt lat="45.75032" lon="6.08553">
        <ele>618</ele>
        <time>2010-06-12T08:24:23Z</time>
      </trkpt>
      <trkpt lat="45.75035" lon="6.08546">
        <ele>618</ele>
        <time>2010-06-12T08:24:25Z</time>
      </trkpt>
      <trkpt lat="45.7504" lon="6.08538">
        <ele>618</ele>
        <time>2010-06-12T08:24:27Z</time>
      </trkpt>
      <trkpt lat="45.75043" lon="6.0853">
        <ele>618</ele>
        <time>2010-06-12T08:24:29Z</time>
      </trkpt>
      <trkpt lat="45.75046" lon="6.08522">
        <ele>618</ele>
        <time>2010-06-12T08:24:31Z</time>
      </trkpt>
      <trkpt lat="45.75049" lon="6.08513">
        <ele>618</ele>
        <time>2010-06-12T08:24:33Z</time>
      </trkpt>
      <trkpt lat="45.75052" lon="6.08502">
        <ele>618</ele>
        <time>2010-06-12T08:24:35Z</time>
      </trkpt>
      <trkpt lat="45.75055" lon="6.08491">
        <ele>618</ele>
        <time>2010-06-12T08:24:37Z</time>
      </trkpt>
      <trkpt lat="45.75059" lon="6.08481">
        <ele>618</ele>
        <time>2010-06-12T08:24:39Z</time>
      </trkpt>
      <trkpt lat="45.75063" lon="6.0847">
        <ele>618</ele>
        <time>2010-06-12T08:24:41Z</time>
      </trkpt>
      <trkpt lat="45.75066" lon="6.08459">
        <ele>618</ele>
        <time>2010-06-12T08:24:43Z</time>
      </trkpt>
      <trkpt lat="45.75069" lon="6.08448">
        <ele>618</ele>
        <time>2010-06-12T08:24:45Z</time>
      </trkpt>
      <trkpt lat="45.75072" lon="6.08436">
        <ele>618</ele>
        <time>2010-06-12T08:24:47Z</time>
      </trkpt>
      <trkpt lat="45.75075" lon="6.08427">
        <ele>618</ele>
        <time>2010-06-12T08:24:49Z</time>
      </trkpt>
      <trkpt lat="45.75078" lon="6.08417">
        <ele>618</ele>
        <time>2010-06-12T08:24:51Z</time>
      </trkpt>
      <trkpt lat="45.75081" lon="6.08406">
        <ele>618</ele>
        <time>2010-06-12T08:24:53Z</time>
      </trkpt>
      <trkpt lat="45.75083" lon="6.08394">
        <ele>618</ele>
        <time>2010-06-12T08:24:55Z</time>
      </trkpt>
      <trkpt lat="45.75085" lon="6.08383">
        <ele>618</ele>
        <time>2010-06-12T08:24:57Z</time>
      </trkpt>
      <trkpt lat="45.75087" lon="6.08371">
        <ele>618</ele>
        <time>2010-06-12T08:24:59Z</time>
      </trkpt>
      <trkpt lat="45.7509" lon="6.08359">
        <ele>618</ele>
        <time>2010-06-12T08:25:01Z</time>
      </trkpt>
      <trkpt lat="45.75092" lon="6.08349">
        <ele>618</ele>
        <time>2010-06-12T08:25:03Z</time>
      </trkpt>
      <trkpt lat="45.75095" lon="6.08339">
        <ele>618</ele>
        <time>2010-06-12T08:25:05Z</time>
      </trkpt>
      <trkpt lat="45.75098" lon="6.0833">
        <ele>618</ele>
        <time>2010-06-12T08:25:07Z</time>
      </trkpt>
      <trkpt lat="45.751" lon="6.08322">
        <ele>618</ele>
        <time>2010-06-12T08:25:09Z</time>
      </trkpt>
      <trkpt lat="45.75103" lon="6.08312">
        <ele>618</ele>
        <time>2010-06-12T08:25:11Z</time>
      </trkpt>
      <trkpt lat="45.75107" lon="6.08303">
        <ele>618</ele>
        <time>2010-06-12T08:25:13Z</time>
      </trkpt>
      <trkpt lat="45.75111" lon="6.08292">
        <ele>618</ele>
        <time>2010-06-12T08:25:15Z</time>
      </trkpt>
      <trkpt lat="45.75114" lon="6.08282">
        <ele>618</ele>
        <time>2010-06-12T08:25:17Z</time>
      </trkpt>
      <trkpt lat="45.75118" lon="6.08272">
        <ele>619</ele>
        <time>2010-06-12T08:25:19Z</time>
      </trkpt>
      <trkpt lat="45.75121" lon="6.08263">
        <ele>620</ele>
        <time>2010-06-12T08:25:21Z</time>
      </trkpt>
      <trkpt lat="45.75125" lon="6.08254">
        <ele>622</ele>
        <time>2010-06-12T08:25:23Z</time>
      </trkpt>
      <trkpt lat="45.75129" lon="6.08243">
        <ele>623</ele>
        <time>2010-06-12T08:25:25Z</time>
      </trkpt>
      <trkpt lat="45.75132" lon="6.08233">
        <ele>625</ele>
        <time>2010-06-12T08:25:27Z</time>
      </trkpt>
      <trkpt lat="45.75135" lon="6.08223">
        <ele>626</ele>
        <time>2010-06-12T08:25:29Z</time>
      </trkpt>
      <trkpt lat="45.75138" lon="6.08214">
        <ele>627</ele>
        <time>2010-06-12T08:25:31Z</time>
      </trkpt>
      <trkpt lat="45.7514" lon="6.08205">
        <ele>628</ele>
        <time>2010-06-12T08:25:33Z</time>
      </trkpt>
      <trkpt lat="45.75143" lon="6.08198">
        <ele>628</ele>
        <time>2010-06-12T08:25:35Z</time>
      </trkpt>
      <trkpt lat="45.75145" lon="6.08189">
        <ele>628</ele>
        <time>2010-06-12T08:25:37Z</time>
      </trkpt>
      <trkpt lat="45.75147" lon="6.08181">
        <ele>628</ele>
        <time>2010-06-12T08:25:39Z</time>
      </trkpt>
      <trkpt lat="45.75151" lon="6.08172">
        <ele>628</ele>
        <time>2010-06-12T08:25:41Z</time>
      </trkpt>
      <trkpt lat="45.75153" lon="6.08162">
        <ele>628</ele>
        <time>2010-06-12T08:25:43Z</time>
      </trkpt>
      <trkpt lat="45.75155" lon="6.08154">
        <ele>628</ele>
        <time>2010-06-12T08:25:45Z</time>
      </trkpt>
      <trkpt lat="45.75156" lon="6.08146">
        <ele>628</ele>
        <time>2010-06-12T08:25:47Z</time>
      </trkpt>
      <trkpt lat="45.75157" lon="6.08139">
        <ele>628</ele>
        <time>2010-06-12T08:25:49Z</time>
      </trkpt>
      <trkpt lat="45.75158" lon="6.08135">
        <ele>628</ele>
        <time>2010-06-12T08:25:51Z</time>
      </trkpt>
      <trkpt lat="45.75159" lon="6.0813">
        <ele>628</ele>
        <time>2010-06-12T08:25:53Z</time>
      </trkpt>
      <trkpt lat="45.75161" lon="6.08123">
        <ele>628</ele>
        <time>2010-06-12T08:25:55Z</time>
      </trkpt>
      <trkpt lat="45.75164" lon="6.08113">
        <ele>628</ele>
        <time>2010-06-12T08:25:57Z</time>
      </trkpt>
      <trkpt lat="45.75166" lon="6.08103">
        <ele>628</ele>
        <time>2010-06-12T08:25:59Z</time>
      </trkpt>
      <trkpt lat="45.75167" lon="6.08095">
        <ele>628</ele>
        <time>2010-06-12T08:26:01Z</time>
      </trkpt>
      <trkpt lat="45.75172" lon="6.08086">
        <ele>628</ele>
        <time>2010-06-12T08:26:03Z</time>
      </trkpt>
      <trkpt lat="45.75176" lon="6.08078">
        <ele>628</ele>
        <time>2010-06-12T08:26:05Z</time>
      </trkpt>
      <trkpt lat="45.7518" lon="6.08071">
        <ele>628</ele>
        <time>2010-06-12T08:26:07Z</time>
      </trkpt>
      <trkpt lat="45.75182" lon="6.08068">
        <ele>628</ele>
        <time>2010-06-12T08:26:09Z</time>
      </trkpt>
      <trkpt lat="45.75184" lon="6.08064">
        <ele>628</ele>
        <time>2010-06-12T08:26:11Z</time>
      </trkpt>
      <trkpt lat="45.75185" lon="6.08062">
        <ele>628</ele>
        <time>2010-06-12T08:26:13Z</time>
      </trkpt>
      <trkpt lat="45.75187" lon="6.0806">
        <ele>628</ele>
        <time>2010-06-12T08:26:15Z</time>
      </trkpt>
      <trkpt lat="45.75188" lon="6.08057">
        <ele>628</ele>
        <time>2010-06-12T08:26:17Z</time>
      </trkpt>
      <trkpt lat="45.75188" lon="6.08053">
        <ele>628</ele>
        <time>2010-06-12T08:26:19Z</time>
      </trkpt>
      <trkpt lat="45.75188" lon="6.08048">
        <ele>629</ele>
        <time>2010-06-12T08:26:22Z</time>
      </trkpt>
      <trkpt lat="45.7519" lon="6.08045">
        <ele>630</ele>
        <time>2010-06-12T08:26:24Z</time>
      </trkpt>
      <trkpt lat="45.7519" lon="6.08042">
        <ele>631</ele>
        <time>2010-06-12T08:26:26Z</time>
      </trkpt>
      <trkpt lat="45.75191" lon="6.08038">
        <ele>632</ele>
        <time>2010-06-12T08:26:28Z</time>
      </trkpt>
      <trkpt lat="45.75191" lon="6.08037">
        <ele>632</ele>
        <time>2010-06-12T08:26:30Z</time>
      </trkpt>
      <trkpt lat="45.75191" lon="6.08035">
        <ele>632</ele>
        <time>2010-06-12T08:26:33Z</time>
      </trkpt>
      <trkpt lat="45.75191" lon="6.08034">
        <ele>632</ele>
        <time>2010-06-12T08:26:37Z</time>
      </trkpt>
      <trkpt lat="45.75191" lon="6.08023">
        <ele>632</ele>
        <time>2010-06-12T08:26:41Z</time>
      </trkpt>
      <trkpt lat="45.75192" lon="6.08018">
        <ele>632</ele>
        <time>2010-06-12T08:26:43Z</time>
      </trkpt>
      <trkpt lat="45.75193" lon="6.08014">
        <ele>632</ele>
        <time>2010-06-12T08:26:45Z</time>
      </trkpt>
      <trkpt lat="45.75192" lon="6.0801">
        <ele>632</ele>
        <time>2010-06-12T08:26:47Z</time>
      </trkpt>
      <trkpt lat="45.75192" lon="6.08005">
        <ele>632</ele>
        <time>2010-06-12T08:26:49Z</time>
      </trkpt>
      <trkpt lat="45.75193" lon="6.07998">
        <ele>632</ele>
        <time>2010-06-12T08:26:51Z</time>
      </trkpt>
      <trkpt lat="45.75193" lon="6.07989">
        <ele>632</ele>
        <time>2010-06-12T08:26:53Z</time>
      </trkpt>
      <trkpt lat="45.75194" lon="6.07982">
        <ele>633</ele>
        <time>2010-06-12T08:26:55Z</time>
      </trkpt>
      <trkpt lat="45.75194" lon="6.07974">
        <ele>634</ele>
        <time>2010-06-12T08:26:57Z</time>
      </trkpt>
      <trkpt lat="45.75196" lon="6.07966">
        <ele>634</ele>
        <time>2010-06-12T08:26:59Z</time>
      </trkpt>
      <trkpt lat="45.75197" lon="6.07957">
        <ele>634</ele>
        <time>2010-06-12T08:27:01Z</time>
      </trkpt>
      <trkpt lat="45.75198" lon="6.07947">
        <ele>635</ele>
        <time>2010-06-12T08:27:03Z</time>
      </trkpt>
      <trkpt lat="45.75201" lon="6.07937">
        <ele>636</ele>
        <time>2010-06-12T08:27:05Z</time>
      </trkpt>
      <trkpt lat="45.75203" lon="6.07929">
        <ele>637</ele>
        <time>2010-06-12T08:27:07Z</time>
      </trkpt>
      <trkpt lat="45.75204" lon="6.0792">
        <ele>638</ele>
        <time>2010-06-12T08:27:09Z</time>
      </trkpt>
      <trkpt lat="45.75204" lon="6.07912">
        <ele>638</ele>
        <time>2010-06-12T08:27:11Z</time>
      </trkpt>
      <trkpt lat="45.75203" lon="6.07904">
        <ele>638</ele>
        <time>2010-06-12T08:27:13Z</time>
      </trkpt>
      <trkpt lat="45.75203" lon="6.07893">
        <ele>638</ele>
        <time>2010-06-12T08:27:15Z</time>
      </trkpt>
      <trkpt lat="45.75202" lon="6.07879">
        <ele>637</ele>
        <time>2010-06-12T08:27:17Z</time>
      </trkpt>
      <trkpt lat="45.75203" lon="6.07857">
        <ele>636</ele>
        <time>2010-06-12T08:27:19Z</time>
      </trkpt>
      <trkpt lat="45.75202" lon="6.0784">
        <ele>634</ele>
        <time>2010-06-12T08:27:21Z</time>
      </trkpt>
      <trkpt lat="45.752" lon="6.07828">
        <ele>632</ele>
        <time>2010-06-12T08:27:23Z</time>
      </trkpt>
      <trkpt lat="45.75194" lon="6.07819">
        <ele>630</ele>
        <time>2010-06-12T08:27:25Z</time>
      </trkpt>
      <trkpt lat="45.75192" lon="6.0781">
        <ele>628</ele>
        <time>2010-06-12T08:27:27Z</time>
      </trkpt>
      <trkpt lat="45.75192" lon="6.07798">
        <ele>626</ele>
        <time>2010-06-12T08:27:29Z</time>
      </trkpt>
      <trkpt lat="45.75192" lon="6.07785">
        <ele>626</ele>
        <time>2010-06-12T08:27:31Z</time>
      </trkpt>
      <trkpt lat="45.75193" lon="6.07772">
        <ele>626</ele>
        <time>2010-06-12T08:27:33Z</time>
      </trkpt>
      <trkpt lat="45.75193" lon="6.0776">
        <ele>626</ele>
        <time>2010-06-12T08:27:35Z</time>
      </trkpt>
      <trkpt lat="45.75193" lon="6.07747">
        <ele>626</ele>
        <time>2010-06-12T08:27:37Z</time>
      </trkpt>
      <trkpt lat="45.75194" lon="6.07733">
        <ele>626</ele>
        <time>2010-06-12T08:27:39Z</time>
      </trkpt>
      <trkpt lat="45.75195" lon="6.07719">
        <ele>626</ele>
        <time>2010-06-12T08:27:41Z</time>
      </trkpt>
      <trkpt lat="45.75195" lon="6.07705">
        <ele>626</ele>
        <time>2010-06-12T08:27:43Z</time>
      </trkpt>
      <trkpt lat="45.75196" lon="6.07691">
        <ele>626</ele>
        <time>2010-06-12T08:27:45Z</time>
      </trkpt>
      <trkpt lat="45.75197" lon="6.07677">
        <ele>626</ele>
        <time>2010-06-12T08:27:47Z</time>
      </trkpt>
      <trkpt lat="45.75197" lon="6.07664">
        <ele>626</ele>
        <time>2010-06-12T08:27:49Z</time>
      </trkpt>
      <trkpt lat="45.75199" lon="6.0765">
        <ele>626</ele>
        <time>2010-06-12T08:27:51Z</time>
      </trkpt>
      <trkpt lat="45.75201" lon="6.07635">
        <ele>626</ele>
        <time>2010-06-12T08:27:53Z</time>
      </trkpt>
      <trkpt lat="45.75204" lon="6.07621">
        <ele>626</ele>
        <time>2010-06-12T08:27:55Z</time>
      </trkpt>
      <trkpt lat="45.75207" lon="6.07608">
        <ele>626</ele>
        <time>2010-06-12T08:27:57Z</time>
      </trkpt>
      <trkpt lat="45.75209" lon="6.07595">
        <ele>626</ele>
        <time>2010-06-12T08:27:59Z</time>
      </trkpt>
      <trkpt lat="45.75213" lon="6.07583">
        <ele>626</ele>
        <time>2010-06-12T08:28:01Z</time>
      </trkpt>
      <trkpt lat="45.75217" lon="6.07573">
        <ele>626</ele>
        <time>2010-06-12T08:28:03Z</time>
      </trkpt>
      <trkpt lat="45.75223" lon="6.07561">
        <ele>626</ele>
        <time>2010-06-12T08:28:05Z</time>
      </trkpt>
      <trkpt lat="45.75229" lon="6.07551">
        <ele>626</ele>
        <time>2010-06-12T08:28:07Z</time>
      </trkpt>
      <trkpt lat="45.75235" lon="6.0754">
        <ele>626</ele>
        <time>2010-06-12T08:28:09Z</time>
      </trkpt>
      <trkpt lat="45.75242" lon="6.07529">
        <ele>626</ele>
        <time>2010-06-12T08:28:11Z</time>
      </trkpt>
      <trkpt lat="45.7525" lon="6.07518">
        <ele>626</ele>
        <time>2010-06-12T08:28:13Z</time>
      </trkpt>
      <trkpt lat="45.75259" lon="6.07508">
        <ele>626</ele>
        <time>2010-06-12T08:28:15Z</time>
      </trkpt>
      <trkpt lat="45.7527" lon="6.07498">
        <ele>626</ele>
        <time>2010-06-12T08:28:17Z</time>
      </trkpt>
      <trkpt lat="45.7528" lon="6.07488">
        <ele>626</ele>
        <time>2010-06-12T08:28:19Z</time>
      </trkpt>
      <trkpt lat="45.75289" lon="6.07479">
        <ele>626</ele>
        <time>2010-06-12T08:28:21Z</time>
      </trkpt>
      <trkpt lat="45.75298" lon="6.07469">
        <ele>626</ele>
        <time>2010-06-12T08:28:23Z</time>
      </trkpt>
      <trkpt lat="45.75307" lon="6.0746">
        <ele>626</ele>
        <time>2010-06-12T08:28:25Z</time>
      </trkpt>
      <trkpt lat="45.75316" lon="6.07452">
        <ele>626</ele>
        <time>2010-06-12T08:28:27Z</time>
      </trkpt>
      <trkpt lat="45.75324" lon="6.07448">
        <ele>626</ele>
        <time>2010-06-12T08:28:29Z</time>
      </trkpt>
      <trkpt lat="45.75333" lon="6.07445">
        <ele>626</ele>
        <time>2010-06-12T08:28:31Z</time>
      </trkpt>
      <trkpt lat="45.75342" lon="6.07442">
        <ele>626</ele>
        <time>2010-06-12T08:28:33Z</time>
      </trkpt>
      <trkpt lat="45.75352" lon="6.07441">
        <ele>626</ele>
        <time>2010-06-12T08:28:35Z</time>
      </trkpt>
      <trkpt lat="45.75361" lon="6.07438">
        <ele>626</ele>
        <time>2010-06-12T08:28:37Z</time>
      </trkpt>
      <trkpt lat="45.7537" lon="6.07436">
        <ele>626</ele>
        <time>2010-06-12T08:28:39Z</time>
      </trkpt>
      <trkpt lat="45.75379" lon="6.07432">
        <ele>627</ele>
        <time>2010-06-12T08:28:41Z</time>
      </trkpt>
      <trkpt lat="45.75388" lon="6.07425">
        <ele>629</ele>
        <time>2010-06-12T08:28:43Z</time>
      </trkpt>
      <trkpt lat="45.75396" lon="6.07418">
        <ele>631</ele>
        <time>2010-06-12T08:28:45Z</time>
      </trkpt>
      <trkpt lat="45.75403" lon="6.07409">
        <ele>633</ele>
        <time>2010-06-12T08:28:47Z</time>
      </trkpt>
      <trkpt lat="45.7541" lon="6.07401">
        <ele>635</ele>
        <time>2010-06-12T08:28:49Z</time>
      </trkpt>
      <trkpt lat="45.75418" lon="6.07393">
        <ele>637</ele>
        <time>2010-06-12T08:28:51Z</time>
      </trkpt>
      <trkpt lat="45.75426" lon="6.07383">
        <ele>638</ele>
        <time>2010-06-12T08:28:53Z</time>
      </trkpt>
      <trkpt lat="45.75433" lon="6.07372">
        <ele>638</ele>
        <time>2010-06-12T08:28:55Z</time>
      </trkpt>
      <trkpt lat="45.75439" lon="6.0736">
        <ele>638</ele>
        <time>2010-06-12T08:28:57Z</time>
      </trkpt>
      <trkpt lat="45.75444" lon="6.07347">
        <ele>638</ele>
        <time>2010-06-12T08:28:59Z</time>
      </trkpt>
      <trkpt lat="45.75449" lon="6.07334">
        <ele>638</ele>
        <time>2010-06-12T08:29:01Z</time>
      </trkpt>
      <trkpt lat="45.75455" lon="6.07321">
        <ele>638</ele>
        <time>2010-06-12T08:29:03Z</time>
      </trkpt>
      <trkpt lat="45.7546" lon="6.07308">
        <ele>638</ele>
        <time>2010-06-12T08:29:05Z</time>
      </trkpt>
      <trkpt lat="45.75465" lon="6.07296">
        <ele>638</ele>
        <time>2010-06-12T08:29:07Z</time>
      </trkpt>
      <trkpt lat="45.7547" lon="6.07283">
        <ele>637</ele>
        <time>2010-06-12T08:29:09Z</time>
      </trkpt>
      <trkpt lat="45.75475" lon="6.07271">
        <ele>637</ele>
        <time>2010-06-12T08:29:11Z</time>
      </trkpt>
      <trkpt lat="45.75481" lon="6.07257">
        <ele>636</ele>
        <time>2010-06-12T08:29:13Z</time>
      </trkpt>
      <trkpt lat="45.75487" lon="6.07243">
        <ele>636</ele>
        <time>2010-06-12T08:29:15Z</time>
      </trkpt>
      <trkpt lat="45.75491" lon="6.0723">
        <ele>635</ele>
        <time>2010-06-12T08:29:17Z</time>
      </trkpt>
      <trkpt lat="45.75496" lon="6.07217">
        <ele>635</ele>
        <time>2010-06-12T08:29:19Z</time>
      </trkpt>
      <trkpt lat="45.75499" lon="6.07202">
        <ele>635</ele>
        <time>2010-06-12T08:29:21Z</time>
      </trkpt>
      <trkpt lat="45.75502" lon="6.07187">
        <ele>635</ele>
        <time>2010-06-12T08:29:23Z</time>
      </trkpt>
      <trkpt lat="45.75505" lon="6.07171">
        <ele>634</ele>
        <time>2010-06-12T08:29:25Z</time>
      </trkpt>
      <trkpt lat="45.75507" lon="6.07155">
        <ele>634</ele>
        <time>2010-06-12T08:29:27Z</time>
      </trkpt>
      <trkpt lat="45.75509" lon="6.07137">
        <ele>633</ele>
        <time>2010-06-12T08:29:29Z</time>
      </trkpt>
      <trkpt lat="45.75511" lon="6.07118">
        <ele>633</ele>
        <time>2010-06-12T08:29:31Z</time>
      </trkpt>
      <trkpt lat="45.75513" lon="6.07099">
        <ele>632</ele>
        <time>2010-06-12T08:29:33Z</time>
      </trkpt>
      <trkpt lat="45.75517" lon="6.07082">
        <ele>631</ele>
        <time>2010-06-12T08:29:35Z</time>
      </trkpt>
      <trkpt lat="45.75522" lon="6.07067">
        <ele>631</ele>
        <time>2010-06-12T08:29:37Z</time>
      </trkpt>
      <trkpt lat="45.75531" lon="6.07053">
        <ele>629</ele>
        <time>2010-06-12T08:29:39Z</time>
      </trkpt>
      <trkpt lat="45.75541" lon="6.07041">
        <ele>629</ele>
        <time>2010-06-12T08:29:41Z</time>
      </trkpt>
      <trkpt lat="45.75552" lon="6.07028">
        <ele>629</ele>
        <time>2010-06-12T08:29:43Z</time>
      </trkpt>
      <trkpt lat="45.75564" lon="6.07014">
        <ele>629</ele>
        <time>2010-06-12T08:29:45Z</time>
      </trkpt>
      <trkpt lat="45.75577" lon="6.07">
        <ele>629</ele>
        <time>2010-06-12T08:29:47Z</time>
      </trkpt>
      <trkpt lat="45.75591" lon="6.06987">
        <ele>629</ele>
        <time>2010-06-12T08:29:49Z</time>
      </trkpt>
      <trkpt lat="45.75604" lon="6.06972">
        <ele>629</ele>
        <time>2010-06-12T08:29:51Z</time>
      </trkpt>
      <trkpt lat="45.75617" lon="6.06958">
        <ele>629</ele>
        <time>2010-06-12T08:29:53Z</time>
      </trkpt>
      <trkpt lat="45.75629" lon="6.06942">
        <ele>629</ele>
        <time>2010-06-12T08:29:55Z</time>
      </trkpt>
      <trkpt lat="45.75642" lon="6.06923">
        <ele>629</ele>
        <time>2010-06-12T08:29:57Z</time>
      </trkpt>
      <trkpt lat="45.75655" lon="6.06908">
        <ele>629</ele>
        <time>2010-06-12T08:29:59Z</time>
      </trkpt>
      <trkpt lat="45.75668" lon="6.06891">
        <ele>629</ele>
        <time>2010-06-12T08:30:01Z</time>
      </trkpt>
      <trkpt lat="45.75682" lon="6.06875">
        <ele>629</ele>
        <time>2010-06-12T08:30:03Z</time>
      </trkpt>
      <trkpt lat="45.75697" lon="6.06857">
        <ele>629</ele>
        <time>2010-06-12T08:30:05Z</time>
      </trkpt>
      <trkpt lat="45.75711" lon="6.06839">
        <ele>629</ele>
        <time>2010-06-12T08:30:07Z</time>
      </trkpt>
      <trkpt lat="45.75726" lon="6.06823">
        <ele>629</ele>
        <time>2010-06-12T08:30:09Z</time>
      </trkpt>
      <trkpt lat="45.7574" lon="6.06809">
        <ele>628</ele>
        <time>2010-06-12T08:30:11Z</time>
      </trkpt>
      <trkpt lat="45.75755" lon="6.06794">
        <ele>626</ele>
        <time>2010-06-12T08:30:13Z</time>
      </trkpt>
      <trkpt lat="45.7577" lon="6.06781">
        <ele>625</ele>
        <time>2010-06-12T08:30:15Z</time>
      </trkpt>
      <trkpt lat="45.75784" lon="6.06767">
        <ele>624</ele>
        <time>2010-06-12T08:30:17Z</time>
      </trkpt>
      <trkpt lat="45.75799" lon="6.06753">
        <ele>624</ele>
        <time>2010-06-12T08:30:19Z</time>
      </trkpt>
      <trkpt lat="45.75813" lon="6.06739">
        <ele>624</ele>
        <time>2010-06-12T08:30:21Z</time>
      </trkpt>
      <trkpt lat="45.75827" lon="6.06725">
        <ele>624</ele>
        <time>2010-06-12T08:30:23Z</time>
      </trkpt>
      <trkpt lat="45.75842" lon="6.06711">
        <ele>624</ele>
        <time>2010-06-12T08:30:25Z</time>
      </trkpt>
      <trkpt lat="45.75856" lon="6.06696">
        <ele>624</ele>
        <time>2010-06-12T08:30:27Z</time>
      </trkpt>
      <trkpt lat="45.75867" lon="6.06682">
        <ele>624</ele>
        <time>2010-06-12T08:30:29Z</time>
      </trkpt>
      <trkpt lat="45.75881" lon="6.06669">
        <ele>624</ele>
        <time>2010-06-12T08:30:31Z</time>
      </trkpt>
      <trkpt lat="45.75895" lon="6.06656">
        <ele>624</ele>
        <time>2010-06-12T08:30:33Z</time>
      </trkpt>
      <trkpt lat="45.7591" lon="6.06645">
        <ele>624</ele>
        <time>2010-06-12T08:30:35Z</time>
      </trkpt>
      <trkpt lat="45.75925" lon="6.06636">
        <ele>624</ele>
        <time>2010-06-12T08:30:37Z</time>
      </trkpt>
      <trkpt lat="45.75941" lon="6.06626">
        <ele>624</ele>
        <time>2010-06-12T08:30:39Z</time>
      </trkpt>
      <trkpt lat="45.75956" lon="6.06616">
        <ele>624</ele>
        <time>2010-06-12T08:30:41Z</time>
      </trkpt>
      <trkpt lat="45.75971" lon="6.06607">
        <ele>624</ele>
        <time>2010-06-12T08:30:43Z</time>
      </trkpt>
      <trkpt lat="45.75986" lon="6.06599">
        <ele>623</ele>
        <time>2010-06-12T08:30:45Z</time>
      </trkpt>
      <trkpt lat="45.76002" lon="6.06596">
        <ele>623</ele>
        <time>2010-06-12T08:30:47Z</time>
      </trkpt>
      <trkpt lat="45.76019" lon="6.06595">
        <ele>622</ele>
        <time>2010-06-12T08:30:49Z</time>
      </trkpt>
      <trkpt lat="45.76034" lon="6.06591">
        <ele>622</ele>
        <time>2010-06-12T08:30:51Z</time>
      </trkpt>
      <trkpt lat="45.76048" lon="6.06582">
        <ele>622</ele>
        <time>2010-06-12T08:30:53Z</time>
      </trkpt>
      <trkpt lat="45.76061" lon="6.06572">
        <ele>622</ele>
        <time>2010-06-12T08:30:55Z</time>
      </trkpt>
      <trkpt lat="45.76077" lon="6.06562">
        <ele>622</ele>
        <time>2010-06-12T08:30:57Z</time>
      </trkpt>
      <trkpt lat="45.76091" lon="6.06552">
        <ele>622</ele>
        <time>2010-06-12T08:30:59Z</time>
      </trkpt>
      <trkpt lat="45.76105" lon="6.06542">
        <ele>622</ele>
        <time>2010-06-12T08:31:01Z</time>
      </trkpt>
      <trkpt lat="45.76118" lon="6.06531">
        <ele>622</ele>
        <time>2010-06-12T08:31:03Z</time>
      </trkpt>
      <trkpt lat="45.76131" lon="6.0652">
        <ele>622</ele>
        <time>2010-06-12T08:31:05Z</time>
      </trkpt>
      <trkpt lat="45.76144" lon="6.06506">
        <ele>622</ele>
        <time>2010-06-12T08:31:07Z</time>
      </trkpt>
      <trkpt lat="45.76155" lon="6.06489">
        <ele>623</ele>
        <time>2010-06-12T08:31:09Z</time>
      </trkpt>
      <trkpt lat="45.76162" lon="6.06466">
        <ele>624</ele>
        <time>2010-06-12T08:31:11Z</time>
      </trkpt>
      <trkpt lat="45.76164" lon="6.06442">
        <ele>624</ele>
        <time>2010-06-12T08:31:13Z</time>
      </trkpt>
      <trkpt lat="45.76165" lon="6.06418">
        <ele>624</ele>
        <time>2010-06-12T08:31:15Z</time>
      </trkpt>
      <trkpt lat="45.76166" lon="6.06395">
        <ele>624</ele>
        <time>2010-06-12T08:31:17Z</time>
      </trkpt>
      <trkpt lat="45.76168" lon="6.06373">
        <ele>624</ele>
        <time>2010-06-12T08:31:19Z</time>
      </trkpt>
      <trkpt lat="45.76171" lon="6.06352">
        <ele>623</ele>
        <time>2010-06-12T08:31:21Z</time>
      </trkpt>
      <trkpt lat="45.76178" lon="6.06332">
        <ele>621</ele>
        <time>2010-06-12T08:31:23Z</time>
      </trkpt>
      <trkpt lat="45.76188" lon="6.06312">
        <ele>620</ele>
        <time>2010-06-12T08:31:25Z</time>
      </trkpt>
      <trkpt lat="45.76199" lon="6.06291">
        <ele>620</ele>
        <time>2010-06-12T08:31:27Z</time>
      </trkpt>
      <trkpt lat="45.76211" lon="6.06272">
        <ele>620</ele>
        <time>2010-06-12T08:31:29Z</time>
      </trkpt>
      <trkpt lat="45.76226" lon="6.06253">
        <ele>620</ele>
        <time>2010-06-12T08:31:31Z</time>
      </trkpt>
      <trkpt lat="45.76244" lon="6.06241">
        <ele>619</ele>
        <time>2010-06-12T08:31:33Z</time>
      </trkpt>
      <trkpt lat="45.76265" lon="6.06231">
        <ele>619</ele>
        <time>2010-06-12T08:31:35Z</time>
      </trkpt>
      <trkpt lat="45.76284" lon="6.06222">
        <ele>619</ele>
        <time>2010-06-12T08:31:37Z</time>
      </trkpt>
      <trkpt lat="45.76304" lon="6.06216">
        <ele>619</ele>
        <time>2010-06-12T08:31:39Z</time>
      </trkpt>
      <trkpt lat="45.76322" lon="6.0621">
        <ele>620</ele>
        <time>2010-06-12T08:31:41Z</time>
      </trkpt>
      <trkpt lat="45.7634" lon="6.06198">
        <ele>622</ele>
        <time>2010-06-12T08:31:43Z</time>
      </trkpt>
      <trkpt lat="45.76357" lon="6.06183">
        <ele>623</ele>
        <time>2010-06-12T08:31:45Z</time>
      </trkpt>
      <trkpt lat="45.76372" lon="6.06165">
        <ele>624</ele>
        <time>2010-06-12T08:31:47Z</time>
      </trkpt>
      <trkpt lat="45.76386" lon="6.06147">
        <ele>625</ele>
        <time>2010-06-12T08:31:49Z</time>
      </trkpt>
      <trkpt lat="45.76398" lon="6.06123">
        <ele>627</ele>
        <time>2010-06-12T08:31:51Z</time>
      </trkpt>
      <trkpt lat="45.76403" lon="6.06099">
        <ele>627</ele>
        <time>2010-06-12T08:31:53Z</time>
      </trkpt>
      <trkpt lat="45.76408" lon="6.06074">
        <ele>627</ele>
        <time>2010-06-12T08:31:55Z</time>
      </trkpt>
      <trkpt lat="45.76415" lon="6.06048">
        <ele>627</ele>
        <time>2010-06-12T08:31:57Z</time>
      </trkpt>
      <trkpt lat="45.76426" lon="6.06029">
        <ele>627</ele>
        <time>2010-06-12T08:31:59Z</time>
      </trkpt>
      <trkpt lat="45.7644" lon="6.06008">
        <ele>627</ele>
        <time>2010-06-12T08:32:01Z</time>
      </trkpt>
      <trkpt lat="45.76458" lon="6.05991">
        <ele>627</ele>
        <time>2010-06-12T08:32:03Z</time>
      </trkpt>
      <trkpt lat="45.76478" lon="6.05978">
        <ele>627</ele>
        <time>2010-06-12T08:32:05Z</time>
      </trkpt>
      <trkpt lat="45.76498" lon="6.05967">
        <ele>627</ele>
        <time>2010-06-12T08:32:07Z</time>
      </trkpt>
      <trkpt lat="45.76518" lon="6.05956">
        <ele>627</ele>
        <time>2010-06-12T08:32:09Z</time>
      </trkpt>
      <trkpt lat="45.76537" lon="6.05946">
        <ele>627</ele>
        <time>2010-06-12T08:32:11Z</time>
      </trkpt>
      <trkpt lat="45.76553" lon="6.05932">
        <ele>627</ele>
        <time>2010-06-12T08:32:13Z</time>
      </trkpt>
      <trkpt lat="45.76565" lon="6.05912">
        <ele>627</ele>
        <time>2010-06-12T08:32:15Z</time>
      </trkpt>
      <trkpt lat="45.76576" lon="6.05888">
        <ele>627</ele>
        <time>2010-06-12T08:32:17Z</time>
      </trkpt>
      <trkpt lat="45.76591" lon="6.05869">
        <ele>627</ele>
        <time>2010-06-12T08:32:19Z</time>
      </trkpt>
      <trkpt lat="45.76608" lon="6.05852">
        <ele>627</ele>
        <time>2010-06-12T08:32:21Z</time>
      </trkpt>
      <trkpt lat="45.76627" lon="6.05843">
        <ele>627</ele>
        <time>2010-06-12T08:32:23Z</time>
      </trkpt>
      <trkpt lat="45.76647" lon="6.05842">
        <ele>627</ele>
        <time>2010-06-12T08:32:25Z</time>
      </trkpt>
      <trkpt lat="45.76669" lon="6.0585">
        <ele>627</ele>
        <time>2010-06-12T08:32:27Z</time>
      </trkpt>
      <trkpt lat="45.76688" lon="6.05861">
        <ele>625</ele>
        <time>2010-06-12T08:32:29Z</time>
      </trkpt>
      <trkpt lat="45.76706" lon="6.05865">
        <ele>623</ele>
        <time>2010-06-12T08:32:31Z</time>
      </trkpt>
      <trkpt lat="45.76725" lon="6.0586">
        <ele>621</ele>
        <time>2010-06-12T08:32:33Z</time>
      </trkpt>
      <trkpt lat="45.76741" lon="6.05846">
        <ele>619</ele>
        <time>2010-06-12T08:32:35Z</time>
      </trkpt>
      <trkpt lat="45.76757" lon="6.0583">
        <ele>619</ele>
        <time>2010-06-12T08:32:37Z</time>
      </trkpt>
      <trkpt lat="45.76775" lon="6.05818">
        <ele>619</ele>
        <time>2010-06-12T08:32:39Z</time>
      </trkpt>
      <trkpt lat="45.76794" lon="6.0581">
        <ele>618</ele>
        <time>2010-06-12T08:32:41Z</time>
      </trkpt>
      <trkpt lat="45.76812" lon="6.05804">
        <ele>617</ele>
        <time>2010-06-12T08:32:43Z</time>
      </trkpt>
      <trkpt lat="45.7683" lon="6.05796">
        <ele>615</ele>
        <time>2010-06-12T08:32:45Z</time>
      </trkpt>
      <trkpt lat="45.76843" lon="6.05782">
        <ele>615</ele>
        <time>2010-06-12T08:32:47Z</time>
      </trkpt>
      <trkpt lat="45.76857" lon="6.05762">
        <ele>615</ele>
        <time>2010-06-12T08:32:49Z</time>
      </trkpt>
      <trkpt lat="45.76871" lon="6.05746">
        <ele>615</ele>
        <time>2010-06-12T08:32:51Z</time>
      </trkpt>
      <trkpt lat="45.76887" lon="6.05737">
        <ele>615</ele>
        <time>2010-06-12T08:32:53Z</time>
      </trkpt>
      <trkpt lat="45.76903" lon="6.05728">
        <ele>615</ele>
        <time>2010-06-12T08:32:55Z</time>
      </trkpt>
      <trkpt lat="45.76917" lon="6.05718">
        <ele>614</ele>
        <time>2010-06-12T08:32:57Z</time>
      </trkpt>
      <trkpt lat="45.76927" lon="6.05705">
        <ele>612</ele>
        <time>2010-06-12T08:32:59Z</time>
      </trkpt>
      <trkpt lat="45.7694" lon="6.05684">
        <ele>610</ele>
        <time>2010-06-12T08:33:01Z</time>
      </trkpt>
      <trkpt lat="45.76956" lon="6.05662">
        <ele>607</ele>
        <time>2010-06-12T08:33:03Z</time>
      </trkpt>
      <trkpt lat="45.76974" lon="6.0564">
        <ele>603</ele>
        <time>2010-06-12T08:33:05Z</time>
      </trkpt>
      <trkpt lat="45.76991" lon="6.05621">
        <ele>599</ele>
        <time>2010-06-12T08:33:07Z</time>
      </trkpt>
      <trkpt lat="45.77006" lon="6.05607">
        <ele>595</ele>
        <time>2010-06-12T08:33:09Z</time>
      </trkpt>
      <trkpt lat="45.77018" lon="6.05596">
        <ele>591</ele>
        <time>2010-06-12T08:33:11Z</time>
      </trkpt>
      <trkpt lat="45.77029" lon="6.05587">
        <ele>587</ele>
        <time>2010-06-12T08:33:13Z</time>
      </trkpt>
      <trkpt lat="45.77034" lon="6.05577">
        <ele>583</ele>
        <time>2010-06-12T08:33:15Z</time>
      </trkpt>
      <trkpt lat="45.77031" lon="6.05568">
        <ele>580</ele>
        <time>2010-06-12T08:33:17Z</time>
      </trkpt>
      <trkpt lat="45.7702" lon="6.05565">
        <ele>578</ele>
        <time>2010-06-12T08:33:19Z</time>
      </trkpt>
      <trkpt lat="45.77008" lon="6.05562">
        <ele>576</ele>
        <time>2010-06-12T08:33:21Z</time>
      </trkpt>
      <trkpt lat="45.76992" lon="6.05561">
        <ele>574</ele>
        <time>2010-06-12T08:33:23Z</time>
      </trkpt>
      <trkpt lat="45.76977" lon="6.05559">
        <ele>573</ele>
        <time>2010-06-12T08:33:25Z</time>
      </trkpt>
      <trkpt lat="45.76962" lon="6.05557">
        <ele>572</ele>
        <time>2010-06-12T08:33:27Z</time>
      </trkpt>
      <trkpt lat="45.76947" lon="6.05556">
        <ele>572</ele>
        <time>2010-06-12T08:33:29Z</time>
      </trkpt>
      <trkpt lat="45.76932" lon="6.05561">
        <ele>571</ele>
        <time>2010-06-12T08:33:31Z</time>
      </trkpt>
      <trkpt lat="45.76917" lon="6.05569">
        <ele>570</ele>
        <time>2010-06-12T08:33:33Z</time>
      </trkpt>
      <trkpt lat="45.76902" lon="6.05581">
        <ele>568</ele>
        <time>2010-06-12T08:33:35Z</time>
      </trkpt>
      <trkpt lat="45.76888" lon="6.05596">
        <ele>566</ele>
        <time>2010-06-12T08:33:37Z</time>
      </trkpt>
      <trkpt lat="45.76875" lon="6.05611">
        <ele>564</ele>
        <time>2010-06-12T08:33:39Z</time>
      </trkpt>
      <trkpt lat="45.76864" lon="6.05625">
        <ele>562</ele>
        <time>2010-06-12T08:33:41Z</time>
      </trkpt>
      <trkpt lat="45.76857" lon="6.05639">
        <ele>560</ele>
        <time>2010-06-12T08:33:43Z</time>
      </trkpt>
      <trkpt lat="45.7685" lon="6.0565">
        <ele>559</ele>
        <time>2010-06-12T08:33:45Z</time>
      </trkpt>
      <trkpt lat="45.76844" lon="6.05664">
        <ele>559</ele>
        <time>2010-06-12T08:33:47Z</time>
      </trkpt>
      <trkpt lat="45.76836" lon="6.0568">
        <ele>559</ele>
        <time>2010-06-12T08:33:49Z</time>
      </trkpt>
      <trkpt lat="45.76827" lon="6.05699">
        <ele>559</ele>
        <time>2010-06-12T08:33:51Z</time>
      </trkpt>
      <trkpt lat="45.76819" lon="6.05716">
        <ele>561</ele>
        <time>2010-06-12T08:33:53Z</time>
      </trkpt>
      <trkpt lat="45.76808" lon="6.05726">
        <ele>561</ele>
        <time>2010-06-12T08:33:55Z</time>
      </trkpt>
      <trkpt lat="45.76789" lon="6.05727">
        <ele>561</ele>
        <time>2010-06-12T08:33:57Z</time>
      </trkpt>
      <trkpt lat="45.76769" lon="6.05726">
        <ele>561</ele>
        <time>2010-06-12T08:33:59Z</time>
      </trkpt>
      <trkpt lat="45.76749" lon="6.05731">
        <ele>561</ele>
        <time>2010-06-12T08:34:01Z</time>
      </trkpt>
      <trkpt lat="45.7673" lon="6.05737">
        <ele>560</ele>
        <time>2010-06-12T08:34:03Z</time>
      </trkpt>
      <trkpt lat="45.76709" lon="6.05745">
        <ele>558</ele>
        <time>2010-06-12T08:34:05Z</time>
      </trkpt>
      <trkpt lat="45.76689" lon="6.0575">
        <ele>556</ele>
        <time>2010-06-12T08:34:07Z</time>
      </trkpt>
      <trkpt lat="45.7667" lon="6.05745">
        <ele>554</ele>
        <time>2010-06-12T08:34:09Z</time>
      </trkpt>
      <trkpt lat="45.76651" lon="6.05731">
        <ele>552</ele>
        <time>2010-06-12T08:34:11Z</time>
      </trkpt>
      <trkpt lat="45.76632" lon="6.05723">
        <ele>550</ele>
        <time>2010-06-12T08:34:13Z</time>
      </trkpt>
      <trkpt lat="45.76613" lon="6.05721">
        <ele>548</ele>
        <time>2010-06-12T08:34:15Z</time>
      </trkpt>
      <trkpt lat="45.76594" lon="6.05718">
        <ele>547</ele>
        <time>2010-06-12T08:34:17Z</time>
      </trkpt>
      <trkpt lat="45.76574" lon="6.0571">
        <ele>547</ele>
        <time>2010-06-12T08:34:19Z</time>
      </trkpt>
      <trkpt lat="45.76554" lon="6.05708">
        <ele>547</ele>
        <time>2010-06-12T08:34:21Z</time>
      </trkpt>
      <trkpt lat="45.76534" lon="6.05705">
        <ele>547</ele>
        <time>2010-06-12T08:34:23Z</time>
      </trkpt>
      <trkpt lat="45.76515" lon="6.05705">
        <ele>546</ele>
        <time>2010-06-12T08:34:25Z</time>
      </trkpt>
      <trkpt lat="45.76496" lon="6.05716">
        <ele>544</ele>
        <time>2010-06-12T08:34:27Z</time>
      </trkpt>
      <trkpt lat="45.76481" lon="6.05728">
        <ele>542</ele>
        <time>2010-06-12T08:34:29Z</time>
      </trkpt>
      <trkpt lat="45.76469" lon="6.05732">
        <ele>540</ele>
        <time>2010-06-12T08:34:31Z</time>
      </trkpt>
      <trkpt lat="45.76461" lon="6.05728">
        <ele>538</ele>
        <time>2010-06-12T08:34:33Z</time>
      </trkpt>
      <trkpt lat="45.76459" lon="6.0572">
        <ele>536</ele>
        <time>2010-06-12T08:34:35Z</time>
      </trkpt>
      <trkpt lat="45.76458" lon="6.05713">
        <ele>533</ele>
        <time>2010-06-12T08:34:38Z</time>
      </trkpt>
      <trkpt lat="45.76456" lon="6.05709">
        <ele>532</ele>
        <time>2010-06-12T08:34:40Z</time>
      </trkpt>
      <trkpt lat="45.76456" lon="6.05707">
        <ele>532</ele>
        <time>2010-06-12T08:34:42Z</time>
      </trkpt>
      <trkpt lat="45.76455" lon="6.05706">
        <ele>532</ele>
        <time>2010-06-12T08:34:46Z</time>
      </trkpt>
      <trkpt lat="45.7645" lon="6.05697">
        <ele>530</ele>
        <time>2010-06-12T08:34:51Z</time>
      </trkpt>
      <trkpt lat="45.76447" lon="6.0569">
        <ele>531</ele>
        <time>2010-06-12T08:34:53Z</time>
      </trkpt>
      <trkpt lat="45.76444" lon="6.05682">
        <ele>532</ele>
        <time>2010-06-12T08:34:55Z</time>
      </trkpt>
      <trkpt lat="45.7644" lon="6.05676">
        <ele>533</ele>
        <time>2010-06-12T08:34:57Z</time>
      </trkpt>
      <trkpt lat="45.76437" lon="6.05667">
        <ele>533</ele>
        <time>2010-06-12T08:34:59Z</time>
      </trkpt>
      <trkpt lat="45.76432" lon="6.05658">
        <ele>533</ele>
        <time>2010-06-12T08:35:01Z</time>
      </trkpt>
      <trkpt lat="45.76428" lon="6.05648">
        <ele>533</ele>
        <time>2010-06-12T08:35:03Z</time>
      </trkpt>
      <trkpt lat="45.76424" lon="6.05638">
        <ele>533</ele>
        <time>2010-06-12T08:35:05Z</time>
      </trkpt>
      <trkpt lat="45.76421" lon="6.05628">
        <ele>533</ele>
        <time>2010-06-12T08:35:07Z</time>
      </trkpt>
      <trkpt lat="45.76417" lon="6.05617">
        <ele>533</ele>
        <time>2010-06-12T08:35:09Z</time>
      </trkpt>
      <trkpt lat="45.76414" lon="6.05608">
        <ele>533</ele>
        <time>2010-06-12T08:35:11Z</time>
      </trkpt>
      <trkpt lat="45.76411" lon="6.05599">
        <ele>533</ele>
        <time>2010-06-12T08:35:13Z</time>
      </trkpt>
      <trkpt lat="45.76407" lon="6.0559">
        <ele>533</ele>
        <time>2010-06-12T08:35:15Z</time>
      </trkpt>
      <trkpt lat="45.76403" lon="6.05581">
        <ele>533</ele>
        <time>2010-06-12T08:35:17Z</time>
      </trkpt>
      <trkpt lat="45.764" lon="6.05571">
        <ele>533</ele>
        <time>2010-06-12T08:35:19Z</time>
      </trkpt>
      <trkpt lat="45.76396" lon="6.05562">
        <ele>534</ele>
        <time>2010-06-12T08:35:21Z</time>
      </trkpt>
      <trkpt lat="45.76392" lon="6.05554">
        <ele>535</ele>
        <time>2010-06-12T08:35:23Z</time>
      </trkpt>
      <trkpt lat="45.76387" lon="6.05545">
        <ele>536</ele>
        <time>2010-06-12T08:35:25Z</time>
      </trkpt>
      <trkpt lat="45.76383" lon="6.05536">
        <ele>537</ele>
        <time>2010-06-12T08:35:27Z</time>
      </trkpt>
      <trkpt lat="45.76378" lon="6.05525">
        <ele>538</ele>
        <time>2010-06-12T08:35:29Z</time>
      </trkpt>
      <trkpt lat="45.76374" lon="6.05513">
        <ele>540</ele>
        <time>2010-06-12T08:35:31Z</time>
      </trkpt>
      <trkpt lat="45.76371" lon="6.05505">
        <ele>542</ele>
        <time>2010-06-12T08:35:33Z</time>
      </trkpt>
      <trkpt lat="45.76368" lon="6.05496">
        <ele>543</ele>
        <time>2010-06-12T08:35:35Z</time>
      </trkpt>
      <trkpt lat="45.76363" lon="6.05485">
        <ele>545</ele>
        <time>2010-06-12T08:35:37Z</time>
      </trkpt>
      <trkpt lat="45.76359" lon="6.05476">
        <ele>546</ele>
        <time>2010-06-12T08:35:39Z</time>
      </trkpt>
      <trkpt lat="45.76355" lon="6.05468">
        <ele>548</ele>
        <time>2010-06-12T08:35:41Z</time>
      </trkpt>
      <trkpt lat="45.76352" lon="6.05461">
        <ele>548</ele>
        <time>2010-06-12T08:35:43Z</time>
      </trkpt>
      <trkpt lat="45.76348" lon="6.05451">
        <ele>550</ele>
        <time>2010-06-12T08:35:45Z</time>
      </trkpt>
      <trkpt lat="45.76344" lon="6.05443">
        <ele>551</ele>
        <time>2010-06-12T08:35:47Z</time>
      </trkpt>
      <trkpt lat="45.76341" lon="6.05436">
        <ele>552</ele>
        <time>2010-06-12T08:35:49Z</time>
      </trkpt>
      <trkpt lat="45.7634" lon="6.05426">
        <ele>552</ele>
        <time>2010-06-12T08:35:51Z</time>
      </trkpt>
      <trkpt lat="45.76337" lon="6.05417">
        <ele>552</ele>
        <time>2010-06-12T08:35:53Z</time>
      </trkpt>
      <trkpt lat="45.76333" lon="6.05407">
        <ele>552</ele>
        <time>2010-06-12T08:35:55Z</time>
      </trkpt>
      <trkpt lat="45.76331" lon="6.05399">
        <ele>552</ele>
        <time>2010-06-12T08:35:57Z</time>
      </trkpt>
      <trkpt lat="45.7633" lon="6.05393">
        <ele>552</ele>
        <time>2010-06-12T08:35:59Z</time>
      </trkpt>
      <trkpt lat="45.7633" lon="6.05386">
        <ele>552</ele>
        <time>2010-06-12T08:36:01Z</time>
      </trkpt>
      <trkpt lat="45.76331" lon="6.05378">
        <ele>552</ele>
        <time>2010-06-12T08:36:03Z</time>
      </trkpt>
      <trkpt lat="45.76335" lon="6.05371">
        <ele>552</ele>
        <time>2010-06-12T08:36:05Z</time>
      </trkpt>
      <trkpt lat="45.76337" lon="6.05363">
        <ele>552</ele>
        <time>2010-06-12T08:36:07Z</time>
      </trkpt>
      <trkpt lat="45.76341" lon="6.05355">
        <ele>552</ele>
        <time>2010-06-12T08:36:09Z</time>
      </trkpt>
      <trkpt lat="45.76342" lon="6.05348">
        <ele>552</ele>
        <time>2010-06-12T08:36:11Z</time>
      </trkpt>
      <trkpt lat="45.76343" lon="6.05343">
        <ele>552</ele>
        <time>2010-06-12T08:36:13Z</time>
      </trkpt>
      <trkpt lat="45.76343" lon="6.05331">
        <ele>552</ele>
        <time>2010-06-12T08:36:15Z</time>
      </trkpt>
      <trkpt lat="45.76342" lon="6.05318">
        <ele>552</ele>
        <time>2010-06-12T08:36:17Z</time>
      </trkpt>
      <trkpt lat="45.76342" lon="6.05309">
        <ele>552</ele>
        <time>2010-06-12T08:36:19Z</time>
      </trkpt>
      <trkpt lat="45.7634" lon="6.053">
        <ele>552</ele>
        <time>2010-06-12T08:36:21Z</time>
      </trkpt>
      <trkpt lat="45.7634" lon="6.0529">
        <ele>552</ele>
        <time>2010-06-12T08:36:23Z</time>
      </trkpt>
      <trkpt lat="45.76342" lon="6.05283">
        <ele>552</ele>
        <time>2010-06-12T08:36:25Z</time>
      </trkpt>
      <trkpt lat="45.76344" lon="6.05275">
        <ele>553</ele>
        <time>2010-06-12T08:36:27Z</time>
      </trkpt>
      <trkpt lat="45.76346" lon="6.05268">
        <ele>555</ele>
        <time>2010-06-12T08:36:29Z</time>
      </trkpt>
      <trkpt lat="45.7635" lon="6.05263">
        <ele>557</ele>
        <time>2010-06-12T08:36:31Z</time>
      </trkpt>
      <trkpt lat="45.76354" lon="6.05256">
        <ele>559</ele>
        <time>2010-06-12T08:36:33Z</time>
      </trkpt>
      <trkpt lat="45.76361" lon="6.05253">
        <ele>561</ele>
        <time>2010-06-12T08:36:35Z</time>
      </trkpt>
      <trkpt lat="45.76368" lon="6.0525">
        <ele>563</ele>
        <time>2010-06-12T08:36:37Z</time>
      </trkpt>
      <trkpt lat="45.76374" lon="6.05248">
        <ele>565</ele>
        <time>2010-06-12T08:36:39Z</time>
      </trkpt>
      <trkpt lat="45.76379" lon="6.05246">
        <ele>567</ele>
        <time>2010-06-12T08:36:41Z</time>
      </trkpt>
      <trkpt lat="45.76388" lon="6.05243">
        <ele>569</ele>
        <time>2010-06-12T08:36:43Z</time>
      </trkpt>
      <trkpt lat="45.76396" lon="6.05238">
        <ele>570</ele>
        <time>2010-06-12T08:36:45Z</time>
      </trkpt>
      <trkpt lat="45.764" lon="6.05233">
        <ele>570</ele>
        <time>2010-06-12T08:36:47Z</time>
      </trkpt>
      <trkpt lat="45.76403" lon="6.05227">
        <ele>570</ele>
        <time>2010-06-12T08:36:49Z</time>
      </trkpt>
      <trkpt lat="45.76405" lon="6.05219">
        <ele>570</ele>
        <time>2010-06-12T08:36:51Z</time>
      </trkpt>
      <trkpt lat="45.76403" lon="6.05211">
        <ele>570</ele>
        <time>2010-06-12T08:36:53Z</time>
      </trkpt>
      <trkpt lat="45.76402" lon="6.05203">
        <ele>569</ele>
        <time>2010-06-12T08:36:55Z</time>
      </trkpt>
      <trkpt lat="45.76402" lon="6.05197">
        <ele>567</ele>
        <time>2010-06-12T08:36:57Z</time>
      </trkpt>
      <trkpt lat="45.764" lon="6.0519">
        <ele>565</ele>
        <time>2010-06-12T08:36:59Z</time>
      </trkpt>
      <trkpt lat="45.76397" lon="6.05182">
        <ele>563</ele>
        <time>2010-06-12T08:37:01Z</time>
      </trkpt>
      <trkpt lat="45.76394" lon="6.05175">
        <ele>562</ele>
        <time>2010-06-12T08:37:03Z</time>
      </trkpt>
      <trkpt lat="45.76392" lon="6.05169">
        <ele>562</ele>
        <time>2010-06-12T08:37:05Z</time>
      </trkpt>
      <trkpt lat="45.7639" lon="6.05162">
        <ele>562</ele>
        <time>2010-06-12T08:37:07Z</time>
      </trkpt>
      <trkpt lat="45.76387" lon="6.05155">
        <ele>562</ele>
        <time>2010-06-12T08:37:09Z</time>
      </trkpt>
      <trkpt lat="45.76387" lon="6.05149">
        <ele>562</ele>
        <time>2010-06-12T08:37:11Z</time>
      </trkpt>
      <trkpt lat="45.76388" lon="6.05142">
        <ele>562</ele>
        <time>2010-06-12T08:37:13Z</time>
      </trkpt>
      <trkpt lat="45.76389" lon="6.05136">
        <ele>564</ele>
        <time>2010-06-12T08:37:15Z</time>
      </trkpt>
      <trkpt lat="45.76388" lon="6.05126">
        <ele>566</ele>
        <time>2010-06-12T08:37:17Z</time>
      </trkpt>
      <trkpt lat="45.7639" lon="6.05118">
        <ele>568</ele>
        <time>2010-06-12T08:37:19Z</time>
      </trkpt>
      <trkpt lat="45.76392" lon="6.05113">
        <ele>568</ele>
        <time>2010-06-12T08:37:21Z</time>
      </trkpt>
      <trkpt lat="45.76392" lon="6.05106">
        <ele>568</ele>
        <time>2010-06-12T08:37:23Z</time>
      </trkpt>
      <trkpt lat="45.76394" lon="6.05102">
        <ele>568</ele>
        <time>2010-06-12T08:37:25Z</time>
      </trkpt>
      <trkpt lat="45.76395" lon="6.05097">
        <ele>568</ele>
        <time>2010-06-12T08:37:27Z</time>
      </trkpt>
      <trkpt lat="45.76397" lon="6.0509">
        <ele>568</ele>
        <time>2010-06-12T08:37:29Z</time>
      </trkpt>
      <trkpt lat="45.76399" lon="6.05083">
        <ele>568</ele>
        <time>2010-06-12T08:37:31Z</time>
      </trkpt>
      <trkpt lat="45.764" lon="6.05076">
        <ele>568</ele>
        <time>2010-06-12T08:37:33Z</time>
      </trkpt>
      <trkpt lat="45.76403" lon="6.05071">
        <ele>568</ele>
        <time>2010-06-12T08:37:35Z</time>
      </trkpt>
      <trkpt lat="45.76405" lon="6.05067">
        <ele>568</ele>
        <time>2010-06-12T08:37:37Z</time>
      </trkpt>
      <trkpt lat="45.7641" lon="6.05061">
        <ele>568</ele>
        <time>2010-06-12T08:37:39Z</time>
      </trkpt>
      <trkpt lat="45.76415" lon="6.05056">
        <ele>568</ele>
        <time>2010-06-12T08:37:41Z</time>
      </trkpt>
      <trkpt lat="45.76421" lon="6.05052">
        <ele>570</ele>
        <time>2010-06-12T08:37:43Z</time>
      </trkpt>
      <trkpt lat="45.76426" lon="6.05048">
        <ele>571</ele>
        <time>2010-06-12T08:37:45Z</time>
      </trkpt>
      <trkpt lat="45.76432" lon="6.05045">
        <ele>572</ele>
        <time>2010-06-12T08:37:47Z</time>
      </trkpt>
      <trkpt lat="45.76437" lon="6.05041">
        <ele>573</ele>
        <time>2010-06-12T08:37:49Z</time>
      </trkpt>
      <trkpt lat="45.76442" lon="6.05037">
        <ele>574</ele>
        <time>2010-06-12T08:37:51Z</time>
      </trkpt>
      <trkpt lat="45.76445" lon="6.05034">
        <ele>575</ele>
        <time>2010-06-12T08:37:53Z</time>
      </trkpt>
      <trkpt lat="45.76447" lon="6.05029">
        <ele>575</ele>
        <time>2010-06-12T08:37:55Z</time>
      </trkpt>
      <trkpt lat="45.76449" lon="6.05024">
        <ele>575</ele>
        <time>2010-06-12T08:37:57Z</time>
      </trkpt>
      <trkpt lat="45.76452" lon="6.05018">
        <ele>575</ele>
        <time>2010-06-12T08:37:59Z</time>
      </trkpt>
      <trkpt lat="45.76453" lon="6.05011">
        <ele>575</ele>
        <time>2010-06-12T08:38:01Z</time>
      </trkpt>
      <trkpt lat="45.76453" lon="6.05003">
        <ele>575</ele>
        <time>2010-06-12T08:38:03Z</time>
      </trkpt>
      <trkpt lat="45.76453" lon="6.04995">
        <ele>573</ele>
        <time>2010-06-12T08:38:05Z</time>
      </trkpt>
      <trkpt lat="45.76451" lon="6.04988">
        <ele>573</ele>
        <time>2010-06-12T08:38:07Z</time>
      </trkpt>
      <trkpt lat="45.7645" lon="6.04981">
        <ele>572</ele>
        <time>2010-06-12T08:38:09Z</time>
      </trkpt>
      <trkpt lat="45.76448" lon="6.04974">
        <ele>571</ele>
        <time>2010-06-12T08:38:11Z</time>
      </trkpt>
      <trkpt lat="45.76446" lon="6.04966">
        <ele>571</ele>
        <time>2010-06-12T08:38:13Z</time>
      </trkpt>
      <trkpt lat="45.76444" lon="6.04959">
        <ele>570</ele>
        <time>2010-06-12T08:38:15Z</time>
      </trkpt>
      <trkpt lat="45.76441" lon="6.04952">
        <ele>569</ele>
        <time>2010-06-12T08:38:17Z</time>
      </trkpt>
      <trkpt lat="45.7644" lon="6.04944">
        <ele>568</ele>
        <time>2010-06-12T08:38:19Z</time>
      </trkpt>
      <trkpt lat="45.76438" lon="6.04937">
        <ele>566</ele>
        <time>2010-06-12T08:38:21Z</time>
      </trkpt>
      <trkpt lat="45.76435" lon="6.04929">
        <ele>564</ele>
        <time>2010-06-12T08:38:23Z</time>
      </trkpt>
      <trkpt lat="45.76432" lon="6.04922">
        <ele>562</ele>
        <time>2010-06-12T08:38:25Z</time>
      </trkpt>
      <trkpt lat="45.76429" lon="6.04914">
        <ele>561</ele>
        <time>2010-06-12T08:38:27Z</time>
      </trkpt>
      <trkpt lat="45.76426" lon="6.04907">
        <ele>560</ele>
        <time>2010-06-12T08:38:29Z</time>
      </trkpt>
      <trkpt lat="45.76423" lon="6.04899">
        <ele>560</ele>
        <time>2010-06-12T08:38:31Z</time>
      </trkpt>
      <trkpt lat="45.76421" lon="6.04891">
        <ele>560</ele>
        <time>2010-06-12T08:38:33Z</time>
      </trkpt>
      <trkpt lat="45.76418" lon="6.04882">
        <ele>560</ele>
        <time>2010-06-12T08:38:35Z</time>
      </trkpt>
      <trkpt lat="45.76417" lon="6.04874">
        <ele>560</ele>
        <time>2010-06-12T08:38:37Z</time>
      </trkpt>
      <trkpt lat="45.76417" lon="6.04865">
        <ele>560</ele>
        <time>2010-06-12T08:38:39Z</time>
      </trkpt>
      <trkpt lat="45.76417" lon="6.04856">
        <ele>560</ele>
        <time>2010-06-12T08:38:41Z</time>
      </trkpt>
      <trkpt lat="45.76418" lon="6.04846">
        <ele>560</ele>
        <time>2010-06-12T08:38:43Z</time>
      </trkpt>
      <trkpt lat="45.7642" lon="6.04838">
        <ele>562</ele>
        <time>2010-06-12T08:38:45Z</time>
      </trkpt>
      <trkpt lat="45.76422" lon="6.04829">
        <ele>564</ele>
        <time>2010-06-12T08:38:47Z</time>
      </trkpt>
      <trkpt lat="45.76424" lon="6.0482">
        <ele>565</ele>
        <time>2010-06-12T08:38:49Z</time>
      </trkpt>
      <trkpt lat="45.76426" lon="6.04812">
        <ele>567</ele>
        <time>2010-06-12T08:38:51Z</time>
      </trkpt>
      <trkpt lat="45.76429" lon="6.04804">
        <ele>568</ele>
        <time>2010-06-12T08:38:53Z</time>
      </trkpt>
      <trkpt lat="45.7643" lon="6.04796">
        <ele>569</ele>
        <time>2010-06-12T08:38:55Z</time>
      </trkpt>
      <trkpt lat="45.76432" lon="6.04787">
        <ele>570</ele>
        <time>2010-06-12T08:38:57Z</time>
      </trkpt>
      <trkpt lat="45.76433" lon="6.04779">
        <ele>571</ele>
        <time>2010-06-12T08:38:59Z</time>
      </trkpt>
      <trkpt lat="45.76434" lon="6.0477">
        <ele>572</ele>
        <time>2010-06-12T08:39:01Z</time>
      </trkpt>
      <trkpt lat="45.76434" lon="6.04762">
        <ele>572</ele>
        <time>2010-06-12T08:39:03Z</time>
      </trkpt>
      <trkpt lat="45.76435" lon="6.04752">
        <ele>573</ele>
        <time>2010-06-12T08:39:05Z</time>
      </trkpt>
      <trkpt lat="45.76434" lon="6.04742">
        <ele>573</ele>
        <time>2010-06-12T08:39:07Z</time>
      </trkpt>
      <trkpt lat="45.76434" lon="6.04733">
        <ele>574</ele>
        <time>2010-06-12T08:39:09Z</time>
      </trkpt>
      <trkpt lat="45.76433" lon="6.04723">
        <ele>574</ele>
        <time>2010-06-12T08:39:11Z</time>
      </trkpt>
      <trkpt lat="45.76431" lon="6.04714">
        <ele>575</ele>
        <time>2010-06-12T08:39:13Z</time>
      </trkpt>
      <trkpt lat="45.7643" lon="6.04704">
        <ele>575</ele>
        <time>2010-06-12T08:39:15Z</time>
      </trkpt>
      <trkpt lat="45.76429" lon="6.04694">
        <ele>576</ele>
        <time>2010-06-12T08:39:17Z</time>
      </trkpt>
      <trkpt lat="45.76427" lon="6.04684">
        <ele>576</ele>
        <time>2010-06-12T08:39:19Z</time>
      </trkpt>
      <trkpt lat="45.76426" lon="6.04674">
        <ele>577</ele>
        <time>2010-06-12T08:39:21Z</time>
      </trkpt>
      <trkpt lat="45.76425" lon="6.04664">
        <ele>577</ele>
        <time>2010-06-12T08:39:23Z</time>
      </trkpt>
      <trkpt lat="45.76423" lon="6.04654">
        <ele>577</ele>
        <time>2010-06-12T08:39:25Z</time>
      </trkpt>
      <trkpt lat="45.76422" lon="6.04645">
        <ele>578</ele>
        <time>2010-06-12T08:39:27Z</time>
      </trkpt>
      <trkpt lat="45.7642" lon="6.04635">
        <ele>578</ele>
        <time>2010-06-12T08:39:29Z</time>
      </trkpt>
      <trkpt lat="45.76419" lon="6.04625">
        <ele>578</ele>
        <time>2010-06-12T08:39:31Z</time>
      </trkpt>
      <trkpt lat="45.76417" lon="6.04615">
        <ele>579</ele>
        <time>2010-06-12T08:39:33Z</time>
      </trkpt>
      <trkpt lat="45.76416" lon="6.04605">
        <ele>579</ele>
        <time>2010-06-12T08:39:35Z</time>
      </trkpt>
      <trkpt lat="45.76415" lon="6.04596">
        <ele>579</ele>
        <time>2010-06-12T08:39:37Z</time>
      </trkpt>
      <trkpt lat="45.76414" lon="6.04587">
        <ele>580</ele>
        <time>2010-06-12T08:39:39Z</time>
      </trkpt>
      <trkpt lat="45.76415" lon="6.04577">
        <ele>580</ele>
        <time>2010-06-12T08:39:41Z</time>
      </trkpt>
      <trkpt lat="45.76416" lon="6.04568">
        <ele>580</ele>
        <time>2010-06-12T08:39:43Z</time>
      </trkpt>
      <trkpt lat="45.76417" lon="6.04559">
        <ele>580</ele>
        <time>2010-06-12T08:39:45Z</time>
      </trkpt>
      <trkpt lat="45.76416" lon="6.0455">
        <ele>580</ele>
        <time>2010-06-12T08:39:47Z</time>
      </trkpt>
      <trkpt lat="45.76413" lon="6.04542">
        <ele>580</ele>
        <time>2010-06-12T08:39:49Z</time>
      </trkpt>
      <trkpt lat="45.76409" lon="6.04534">
        <ele>580</ele>
        <time>2010-06-12T08:39:51Z</time>
      </trkpt>
      <trkpt lat="45.76405" lon="6.04527">
        <ele>580</ele>
        <time>2010-06-12T08:39:53Z</time>
      </trkpt>
      <trkpt lat="45.76403" lon="6.04519">
        <ele>580</ele>
        <time>2010-06-12T08:39:55Z</time>
      </trkpt>
      <trkpt lat="45.76403" lon="6.04513">
        <ele>580</ele>
        <time>2010-06-12T08:39:57Z</time>
      </trkpt>
      <trkpt lat="45.76404" lon="6.04508">
        <ele>580</ele>
        <time>2010-06-12T08:39:59Z</time>
      </trkpt>
      <trkpt lat="45.76405" lon="6.045">
        <ele>580</ele>
        <time>2010-06-12T08:40:01Z</time>
      </trkpt>
      <trkpt lat="45.76406" lon="6.04491">
        <ele>580</ele>
        <time>2010-06-12T08:40:03Z</time>
      </trkpt>
      <trkpt lat="45.76407" lon="6.04482">
        <ele>580</ele>
        <time>2010-06-12T08:40:05Z</time>
      </trkpt>
      <trkpt lat="45.76409" lon="6.04472">
        <ele>580</ele>
        <time>2010-06-12T08:40:07Z</time>
      </trkpt>
      <trkpt lat="45.76411" lon="6.04461">
        <ele>580</ele>
        <time>2010-06-12T08:40:09Z</time>
      </trkpt>
      <trkpt lat="45.76413" lon="6.04451">
        <ele>580</ele>
        <time>2010-06-12T08:40:11Z</time>
      </trkpt>
      <trkpt lat="45.76416" lon="6.0444">
        <ele>580</ele>
        <time>2010-06-12T08:40:13Z</time>
      </trkpt>
      <trkpt lat="45.76418" lon="6.04428">
        <ele>580</ele>
        <time>2010-06-12T08:40:15Z</time>
      </trkpt>
      <trkpt lat="45.76421" lon="6.04416">
        <ele>580</ele>
        <time>2010-06-12T08:40:17Z</time>
      </trkpt>
      <trkpt lat="45.76424" lon="6.04403">
        <ele>580</ele>
        <time>2010-06-12T08:40:19Z</time>
      </trkpt>
      <trkpt lat="45.76427" lon="6.0439">
        <ele>580</ele>
        <time>2010-06-12T08:40:21Z</time>
      </trkpt>
      <trkpt lat="45.7643" lon="6.04376">
        <ele>580</ele>
        <time>2010-06-12T08:40:23Z</time>
      </trkpt>
      <trkpt lat="45.76434" lon="6.04363">
        <ele>580</ele>
        <time>2010-06-12T08:40:25Z</time>
      </trkpt>
      <trkpt lat="45.76437" lon="6.04349">
        <ele>580</ele>
        <time>2010-06-12T08:40:27Z</time>
      </trkpt>
      <trkpt lat="45.76442" lon="6.04335">
        <ele>580</ele>
        <time>2010-06-12T08:40:29Z</time>
      </trkpt>
      <trkpt lat="45.76446" lon="6.0432">
        <ele>580</ele>
        <time>2010-06-12T08:40:31Z</time>
      </trkpt>
      <trkpt lat="45.7645" lon="6.04305">
        <ele>580</ele>
        <time>2010-06-12T08:40:33Z</time>
      </trkpt>
      <trkpt lat="45.76455" lon="6.04291">
        <ele>580</ele>
        <time>2010-06-12T08:40:35Z</time>
      </trkpt>
      <trkpt lat="45.7646" lon="6.04277">
        <ele>580</ele>
        <time>2010-06-12T08:40:37Z</time>
      </trkpt>
      <trkpt lat="45.76465" lon="6.04262">
        <ele>580</ele>
        <time>2010-06-12T08:40:39Z</time>
      </trkpt>
      <trkpt lat="45.76469" lon="6.04248">
        <ele>580</ele>
        <time>2010-06-12T08:40:41Z</time>
      </trkpt>
      <trkpt lat="45.76474" lon="6.04234">
        <ele>580</ele>
        <time>2010-06-12T08:40:43Z</time>
      </trkpt>
      <trkpt lat="45.76479" lon="6.04219">
        <ele>580</ele>
        <time>2010-06-12T08:40:45Z</time>
      </trkpt>
      <trkpt lat="45.76483" lon="6.04205">
        <ele>580</ele>
        <time>2010-06-12T08:40:47Z</time>
      </trkpt>
      <trkpt lat="45.76486" lon="6.0419">
        <ele>580</ele>
        <time>2010-06-12T08:40:49Z</time>
      </trkpt>
      <trkpt lat="45.76489" lon="6.04176">
        <ele>580</ele>
        <time>2010-06-12T08:40:51Z</time>
      </trkpt>
      <trkpt lat="45.76492" lon="6.0416">
        <ele>580</ele>
        <time>2010-06-12T08:40:53Z</time>
      </trkpt>
      <trkpt lat="45.76495" lon="6.04146">
        <ele>579</ele>
        <time>2010-06-12T08:40:55Z</time>
      </trkpt>
      <trkpt lat="45.76498" lon="6.04131">
        <ele>579</ele>
        <time>2010-06-12T08:40:57Z</time>
      </trkpt>
      <trkpt lat="45.765" lon="6.04116">
        <ele>579</ele>
        <time>2010-06-12T08:40:59Z</time>
      </trkpt>
      <trkpt lat="45.76503" lon="6.04101">
        <ele>579</ele>
        <time>2010-06-12T08:41:01Z</time>
      </trkpt>
      <trkpt lat="45.76506" lon="6.04085">
        <ele>579</ele>
        <time>2010-06-12T08:41:03Z</time>
      </trkpt>
      <trkpt lat="45.76509" lon="6.04068">
        <ele>579</ele>
        <time>2010-06-12T08:41:05Z</time>
      </trkpt>
      <trkpt lat="45.76513" lon="6.0405">
        <ele>579</ele>
        <time>2010-06-12T08:41:07Z</time>
      </trkpt>
      <trkpt lat="45.76516" lon="6.04032">
        <ele>578</ele>
        <time>2010-06-12T08:41:09Z</time>
      </trkpt>
      <trkpt lat="45.76518" lon="6.04013">
        <ele>577</ele>
        <time>2010-06-12T08:41:11Z</time>
      </trkpt>
      <trkpt lat="45.76524" lon="6.03998">
        <ele>575</ele>
        <time>2010-06-12T08:41:13Z</time>
      </trkpt>
      <trkpt lat="45.76527" lon="6.03977">
        <ele>573</ele>
        <time>2010-06-12T08:41:15Z</time>
      </trkpt>
      <trkpt lat="45.76529" lon="6.03953">
        <ele>573</ele>
        <time>2010-06-12T08:41:17Z</time>
      </trkpt>
      <trkpt lat="45.76528" lon="6.03927">
        <ele>572</ele>
        <time>2010-06-12T08:41:19Z</time>
      </trkpt>
      <trkpt lat="45.76526" lon="6.03901">
        <ele>570</ele>
        <time>2010-06-12T08:41:21Z</time>
      </trkpt>
      <trkpt lat="45.76523" lon="6.03874">
        <ele>568</ele>
        <time>2010-06-12T08:41:23Z</time>
      </trkpt>
      <trkpt lat="45.76519" lon="6.03848">
        <ele>567</ele>
        <time>2010-06-12T08:41:25Z</time>
      </trkpt>
      <trkpt lat="45.76517" lon="6.03822">
        <ele>567</ele>
        <time>2010-06-12T08:41:27Z</time>
      </trkpt>
      <trkpt lat="45.76516" lon="6.03796">
        <ele>567</ele>
        <time>2010-06-12T08:41:29Z</time>
      </trkpt>
      <trkpt lat="45.76516" lon="6.03768">
        <ele>566</ele>
        <time>2010-06-12T08:41:31Z</time>
      </trkpt>
      <trkpt lat="45.76516" lon="6.0374">
        <ele>565</ele>
        <time>2010-06-12T08:41:33Z</time>
      </trkpt>
      <trkpt lat="45.76515" lon="6.0371">
        <ele>565</ele>
        <time>2010-06-12T08:41:35Z</time>
      </trkpt>
      <trkpt lat="45.76514" lon="6.03682">
        <ele>564</ele>
        <time>2010-06-12T08:41:37Z</time>
      </trkpt>
      <trkpt lat="45.76512" lon="6.03652">
        <ele>564</ele>
        <time>2010-06-12T08:41:39Z</time>
      </trkpt>
      <trkpt lat="45.76509" lon="6.03623">
        <ele>563</ele>
        <time>2010-06-12T08:41:41Z</time>
      </trkpt>
      <trkpt lat="45.76505" lon="6.03594">
        <ele>562</ele>
        <time>2010-06-12T08:41:43Z</time>
      </trkpt>
      <trkpt lat="45.76498" lon="6.03552">
        <ele>559</ele>
        <time>2010-06-12T08:41:46Z</time>
      </trkpt>
      <trkpt lat="45.76493" lon="6.03523">
        <ele>557</ele>
        <time>2010-06-12T08:41:48Z</time>
      </trkpt>
      <trkpt lat="45.76491" lon="6.03492">
        <ele>557</ele>
        <time>2010-06-12T08:41:50Z</time>
      </trkpt>
      <trkpt lat="45.7649" lon="6.03462">
        <ele>556</ele>
        <time>2010-06-12T08:41:52Z</time>
      </trkpt>
      <trkpt lat="45.76489" lon="6.0343">
        <ele>555</ele>
        <time>2010-06-12T08:41:54Z</time>
      </trkpt>
      <trkpt lat="45.76488" lon="6.03398">
        <ele>554</ele>
        <time>2010-06-12T08:41:56Z</time>
      </trkpt>
      <trkpt lat="45.76487" lon="6.03366">
        <ele>553</ele>
        <time>2010-06-12T08:41:58Z</time>
      </trkpt>
      <trkpt lat="45.76486" lon="6.03334">
        <ele>552</ele>
        <time>2010-06-12T08:42:00Z</time>
      </trkpt>
      <trkpt lat="45.76485" lon="6.03302">
        <ele>550</ele>
        <time>2010-06-12T08:42:02Z</time>
      </trkpt>
      <trkpt lat="45.76485" lon="6.03268">
        <ele>549</ele>
        <time>2010-06-12T08:42:04Z</time>
      </trkpt>
      <trkpt lat="45.76484" lon="6.03235">
        <ele>547</ele>
        <time>2010-06-12T08:42:06Z</time>
      </trkpt>
      <trkpt lat="45.76484" lon="6.03202">
        <ele>546</ele>
        <time>2010-06-12T08:42:08Z</time>
      </trkpt>
      <trkpt lat="45.76481" lon="6.03155">
        <ele>545</ele>
        <time>2010-06-12T08:42:11Z</time>
      </trkpt>
      <trkpt lat="45.7648" lon="6.03125">
        <ele>545</ele>
        <time>2010-06-12T08:42:13Z</time>
      </trkpt>
      <trkpt lat="45.76483" lon="6.03097">
        <ele>544</ele>
        <time>2010-06-12T08:42:15Z</time>
      </trkpt>
      <trkpt lat="45.76489" lon="6.03071">
        <ele>544</ele>
        <time>2010-06-12T08:42:17Z</time>
      </trkpt>
      <trkpt lat="45.76497" lon="6.03048">
        <ele>544</ele>
        <time>2010-06-12T08:42:19Z</time>
      </trkpt>
      <trkpt lat="45.765" lon="6.03021">
        <ele>543</ele>
        <time>2010-06-12T08:42:21Z</time>
      </trkpt>
      <trkpt lat="45.76496" lon="6.02998">
        <ele>543</ele>
        <time>2010-06-12T08:42:23Z</time>
      </trkpt>
      <trkpt lat="45.76486" lon="6.02981">
        <ele>542</ele>
        <time>2010-06-12T08:42:25Z</time>
      </trkpt>
      <trkpt lat="45.76474" lon="6.02966">
        <ele>542</ele>
        <time>2010-06-12T08:42:27Z</time>
      </trkpt>
      <trkpt lat="45.76462" lon="6.02952">
        <ele>542</ele>
        <time>2010-06-12T08:42:29Z</time>
      </trkpt>
      <trkpt lat="45.76451" lon="6.02938">
        <ele>542</ele>
        <time>2010-06-12T08:42:31Z</time>
      </trkpt>
      <trkpt lat="45.76441" lon="6.02925">
        <ele>542</ele>
        <time>2010-06-12T08:42:33Z</time>
      </trkpt>
      <trkpt lat="45.76431" lon="6.02912">
        <ele>542</ele>
        <time>2010-06-12T08:42:35Z</time>
      </trkpt>
      <trkpt lat="45.76421" lon="6.029">
        <ele>542</ele>
        <time>2010-06-12T08:42:37Z</time>
      </trkpt>
      <trkpt lat="45.76411" lon="6.02886">
        <ele>542</ele>
        <time>2010-06-12T08:42:39Z</time>
      </trkpt>
      <trkpt lat="45.76402" lon="6.02875">
        <ele>542</ele>
        <time>2010-06-12T08:42:41Z</time>
      </trkpt>
      <trkpt lat="45.76394" lon="6.02864">
        <ele>542</ele>
        <time>2010-06-12T08:42:43Z</time>
      </trkpt>
      <trkpt lat="45.76385" lon="6.02854">
        <ele>542</ele>
        <time>2010-06-12T08:42:45Z</time>
      </trkpt>
      <trkpt lat="45.76376" lon="6.02844">
        <ele>542</ele>
        <time>2010-06-12T08:42:47Z</time>
      </trkpt>
      <trkpt lat="45.76368" lon="6.02832">
        <ele>542</ele>
        <time>2010-06-12T08:42:49Z</time>
      </trkpt>
      <trkpt lat="45.7636" lon="6.02821">
        <ele>542</ele>
        <time>2010-06-12T08:42:51Z</time>
      </trkpt>
      <trkpt lat="45.76351" lon="6.0281">
        <ele>542</ele>
        <time>2010-06-12T08:42:53Z</time>
      </trkpt>
      <trkpt lat="45.76342" lon="6.02799">
        <ele>542</ele>
        <time>2010-06-12T08:42:55Z</time>
      </trkpt>
      <trkpt lat="45.76333" lon="6.02787">
        <ele>542</ele>
        <time>2010-06-12T08:42:57Z</time>
      </trkpt>
      <trkpt lat="45.76324" lon="6.02776">
        <ele>542</ele>
        <time>2010-06-12T08:42:59Z</time>
      </trkpt>
      <trkpt lat="45.76316" lon="6.02763">
        <ele>542</ele>
        <time>2010-06-12T08:43:01Z</time>
      </trkpt>
      <trkpt lat="45.76308" lon="6.02749">
        <ele>542</ele>
        <time>2010-06-12T08:43:03Z</time>
      </trkpt>
      <trkpt lat="45.76301" lon="6.02736">
        <ele>542</ele>
        <time>2010-06-12T08:43:05Z</time>
      </trkpt>
      <trkpt lat="45.76294" lon="6.02723">
        <ele>542</ele>
        <time>2010-06-12T08:43:07Z</time>
      </trkpt>
      <trkpt lat="45.76286" lon="6.02711">
        <ele>542</ele>
        <time>2010-06-12T08:43:09Z</time>
      </trkpt>
      <trkpt lat="45.76278" lon="6.02699">
        <ele>542</ele>
        <time>2010-06-12T08:43:11Z</time>
      </trkpt>
      <trkpt lat="45.76271" lon="6.02687">
        <ele>542</ele>
        <time>2010-06-12T08:43:13Z</time>
      </trkpt>
      <trkpt lat="45.76266" lon="6.02675">
        <ele>542</ele>
        <time>2010-06-12T08:43:15Z</time>
      </trkpt>
      <trkpt lat="45.7626" lon="6.02663">
        <ele>542</ele>
        <time>2010-06-12T08:43:17Z</time>
      </trkpt>
      <trkpt lat="45.76255" lon="6.02652">
        <ele>542</ele>
        <time>2010-06-12T08:43:19Z</time>
      </trkpt>
      <trkpt lat="45.7625" lon="6.0264">
        <ele>542</ele>
        <time>2010-06-12T08:43:21Z</time>
      </trkpt>
      <trkpt lat="45.76245" lon="6.02629">
        <ele>542</ele>
        <time>2010-06-12T08:43:23Z</time>
      </trkpt>
      <trkpt lat="45.7624" lon="6.02617">
        <ele>542</ele>
        <time>2010-06-12T08:43:25Z</time>
      </trkpt>
      <trkpt lat="45.76235" lon="6.02605">
        <ele>542</ele>
        <time>2010-06-12T08:43:27Z</time>
      </trkpt>
      <trkpt lat="45.76231" lon="6.02594">
        <ele>542</ele>
        <time>2010-06-12T08:43:29Z</time>
      </trkpt>
      <trkpt lat="45.76226" lon="6.02583">
        <ele>542</ele>
        <time>2010-06-12T08:43:31Z</time>
      </trkpt>
      <trkpt lat="45.76221" lon="6.0257">
        <ele>542</ele>
        <time>2010-06-12T08:43:33Z</time>
      </trkpt>
      <trkpt lat="45.76216" lon="6.02557">
        <ele>542</ele>
        <time>2010-06-12T08:43:35Z</time>
      </trkpt>
      <trkpt lat="45.76211" lon="6.02542">
        <ele>542</ele>
        <time>2010-06-12T08:43:37Z</time>
      </trkpt>
      <trkpt lat="45.76207" lon="6.02527">
        <ele>542</ele>
        <time>2010-06-12T08:43:39Z</time>
      </trkpt>
      <trkpt lat="45.76203" lon="6.02513">
        <ele>542</ele>
        <time>2010-06-12T08:43:41Z</time>
      </trkpt>
      <trkpt lat="45.762" lon="6.02496">
        <ele>542</ele>
        <time>2010-06-12T08:43:43Z</time>
      </trkpt>
      <trkpt lat="45.76198" lon="6.02481">
        <ele>542</ele>
        <time>2010-06-12T08:43:45Z</time>
      </trkpt>
      <trkpt lat="45.76192" lon="6.02468">
        <ele>542</ele>
        <time>2010-06-12T08:43:47Z</time>
      </trkpt>
      <trkpt lat="45.76182" lon="6.02462">
        <ele>542</ele>
        <time>2010-06-12T08:43:49Z</time>
      </trkpt>
      <trkpt lat="45.76172" lon="6.02457">
        <ele>542</ele>
        <time>2010-06-12T08:43:51Z</time>
      </trkpt>
      <trkpt lat="45.76163" lon="6.02451">
        <ele>542</ele>
        <time>2010-06-12T08:43:53Z</time>
      </trkpt>
      <trkpt lat="45.76155" lon="6.02447">
        <ele>542</ele>
        <time>2010-06-12T08:43:55Z</time>
      </trkpt>
      <trkpt lat="45.76147" lon="6.02442">
        <ele>542</ele>
        <time>2010-06-12T08:43:57Z</time>
      </trkpt>
      <trkpt lat="45.7614" lon="6.02437">
        <ele>542</ele>
        <time>2010-06-12T08:43:59Z</time>
      </trkpt>
      <trkpt lat="45.76133" lon="6.02433">
        <ele>542</ele>
        <time>2010-06-12T08:44:01Z</time>
      </trkpt>
      <trkpt lat="45.76127" lon="6.02428">
        <ele>542</ele>
        <time>2010-06-12T08:44:03Z</time>
      </trkpt>
      <trkpt lat="45.76119" lon="6.02424">
        <ele>542</ele>
        <time>2010-06-12T08:44:05Z</time>
      </trkpt>
      <trkpt lat="45.76112" lon="6.02419">
        <ele>542</ele>
        <time>2010-06-12T08:44:07Z</time>
      </trkpt>
      <trkpt lat="45.76106" lon="6.02412">
        <ele>542</ele>
        <time>2010-06-12T08:44:09Z</time>
      </trkpt>
      <trkpt lat="45.76102" lon="6.02404">
        <ele>543</ele>
        <time>2010-06-12T08:44:11Z</time>
      </trkpt>
      <trkpt lat="45.76097" lon="6.02397">
        <ele>543</ele>
        <time>2010-06-12T08:44:13Z</time>
      </trkpt>
      <trkpt lat="45.76094" lon="6.02388">
        <ele>543</ele>
        <time>2010-06-12T08:44:15Z</time>
      </trkpt>
      <trkpt lat="45.7609" lon="6.0238">
        <ele>544</ele>
        <time>2010-06-12T08:44:17Z</time>
      </trkpt>
      <trkpt lat="45.76088" lon="6.02371">
        <ele>544</ele>
        <time>2010-06-12T08:44:19Z</time>
      </trkpt>
      <trkpt lat="45.76086" lon="6.02361">
        <ele>544</ele>
        <time>2010-06-12T08:44:21Z</time>
      </trkpt>
      <trkpt lat="45.76085" lon="6.02351">
        <ele>545</ele>
        <time>2010-06-12T08:44:23Z</time>
      </trkpt>
      <trkpt lat="45.76086" lon="6.02341">
        <ele>545</ele>
        <time>2010-06-12T08:44:25Z</time>
      </trkpt>
      <trkpt lat="45.76086" lon="6.02332">
        <ele>545</ele>
        <time>2010-06-12T08:44:27Z</time>
      </trkpt>
      <trkpt lat="45.76089" lon="6.02323">
        <ele>546</ele>
        <time>2010-06-12T08:44:29Z</time>
      </trkpt>
      <trkpt lat="45.76091" lon="6.02314">
        <ele>547</ele>
        <time>2010-06-12T08:44:31Z</time>
      </trkpt>
      <trkpt lat="45.76093" lon="6.02305">
        <ele>548</ele>
        <time>2010-06-12T08:44:33Z</time>
      </trkpt>
      <trkpt lat="45.76095" lon="6.02295">
        <ele>549</ele>
        <time>2010-06-12T08:44:35Z</time>
      </trkpt>
      <trkpt lat="45.76096" lon="6.02286">
        <ele>550</ele>
        <time>2010-06-12T08:44:37Z</time>
      </trkpt>
      <trkpt lat="45.76096" lon="6.02277">
        <ele>550</ele>
        <time>2010-06-12T08:44:39Z</time>
      </trkpt>
      <trkpt lat="45.76094" lon="6.02269">
        <ele>550</ele>
        <time>2010-06-12T08:44:41Z</time>
      </trkpt>
      <trkpt lat="45.76091" lon="6.02261">
        <ele>550</ele>
        <time>2010-06-12T08:44:43Z</time>
      </trkpt>
      <trkpt lat="45.76087" lon="6.02256">
        <ele>550</ele>
        <time>2010-06-12T08:44:45Z</time>
      </trkpt>
      <trkpt lat="45.76083" lon="6.02252">
        <ele>550</ele>
        <time>2010-06-12T08:44:47Z</time>
      </trkpt>
      <trkpt lat="45.76079" lon="6.02247">
        <ele>550</ele>
        <time>2010-06-12T08:44:49Z</time>
      </trkpt>
      <trkpt lat="45.76077" lon="6.02243">
        <ele>550</ele>
        <time>2010-06-12T08:44:51Z</time>
      </trkpt>
      <trkpt lat="45.76075" lon="6.0224">
        <ele>551</ele>
        <time>2010-06-12T08:44:53Z</time>
      </trkpt>
      <trkpt lat="45.76074" lon="6.02237">
        <ele>551</ele>
        <time>2010-06-12T08:44:55Z</time>
      </trkpt>
      <trkpt lat="45.76073" lon="6.02236">
        <ele>551</ele>
        <time>2010-06-12T08:44:57Z</time>
      </trkpt>
      <trkpt lat="45.76065" lon="6.02235">
        <ele>559</ele>
        <time>2010-06-12T08:45:02Z</time>
      </trkpt>
      <trkpt lat="45.76062" lon="6.02236">
        <ele>559</ele>
        <time>2010-06-12T08:45:04Z</time>
      </trkpt>
      <trkpt lat="45.76059" lon="6.02237">
        <ele>559</ele>
        <time>2010-06-12T08:45:06Z</time>
      </trkpt>
      <trkpt lat="45.76056" lon="6.02239">
        <ele>559</ele>
        <time>2010-06-12T08:45:08Z</time>
      </trkpt>
      <trkpt lat="45.76052" lon="6.0224">
        <ele>559</ele>
        <time>2010-06-12T08:45:10Z</time>
      </trkpt>
      <trkpt lat="45.76049" lon="6.02241">
        <ele>559</ele>
        <time>2010-06-12T08:45:12Z</time>
      </trkpt>
      <trkpt lat="45.76045" lon="6.02242">
        <ele>559</ele>
        <time>2010-06-12T08:45:14Z</time>
      </trkpt>
      <trkpt lat="45.76042" lon="6.02244">
        <ele>559</ele>
        <time>2010-06-12T08:45:16Z</time>
      </trkpt>
      <trkpt lat="45.76039" lon="6.02246">
        <ele>559</ele>
        <time>2010-06-12T08:45:18Z</time>
      </trkpt>
      <trkpt lat="45.76036" lon="6.02248">
        <ele>559</ele>
        <time>2010-06-12T08:45:20Z</time>
      </trkpt>
      <trkpt lat="45.76033" lon="6.0225">
        <ele>559</ele>
        <time>2010-06-12T08:45:22Z</time>
      </trkpt>
      <trkpt lat="45.7603" lon="6.02251">
        <ele>560</ele>
        <time>2010-06-12T08:45:24Z</time>
      </trkpt>
      <trkpt lat="45.76027" lon="6.02252">
        <ele>560</ele>
        <time>2010-06-12T08:45:26Z</time>
      </trkpt>
      <trkpt lat="45.76024" lon="6.02254">
        <ele>561</ele>
        <time>2010-06-12T08:45:28Z</time>
      </trkpt>
      <trkpt lat="45.76022" lon="6.02254">
        <ele>561</ele>
        <time>2010-06-12T08:45:30Z</time>
      </trkpt>
      <trkpt lat="45.76019" lon="6.02255">
        <ele>561</ele>
        <time>2010-06-12T08:45:32Z</time>
      </trkpt>
      <trkpt lat="45.76016" lon="6.02255">
        <ele>562</ele>
        <time>2010-06-12T08:45:34Z</time>
      </trkpt>
      <trkpt lat="45.76013" lon="6.02256">
        <ele>563</ele>
        <time>2010-06-12T08:45:36Z</time>
      </trkpt>
      <trkpt lat="45.76011" lon="6.02257">
        <ele>564</ele>
        <time>2010-06-12T08:45:38Z</time>
      </trkpt>
      <trkpt lat="45.76008" lon="6.02257">
        <ele>565</ele>
        <time>2010-06-12T08:45:40Z</time>
      </trkpt>
      <trkpt lat="45.76005" lon="6.02257">
        <ele>566</ele>
        <time>2010-06-12T08:45:42Z</time>
      </trkpt>
      <trkpt lat="45.76003" lon="6.02258">
        <ele>566</ele>
        <time>2010-06-12T08:45:44Z</time>
      </trkpt>
      <trkpt lat="45.76" lon="6.02258">
        <ele>567</ele>
        <time>2010-06-12T08:45:46Z</time>
      </trkpt>
      <trkpt lat="45.75998" lon="6.02259">
        <ele>568</ele>
        <time>2010-06-12T08:45:48Z</time>
      </trkpt>
      <trkpt lat="45.75996" lon="6.02259">
        <ele>568</ele>
        <time>2010-06-12T08:45:50Z</time>
      </trkpt>
      <trkpt lat="45.75993" lon="6.0226">
        <ele>569</ele>
        <time>2010-06-12T08:45:52Z</time>
      </trkpt>
      <trkpt lat="45.75991" lon="6.0226">
        <ele>570</ele>
        <time>2010-06-12T08:45:54Z</time>
      </trkpt>
      <trkpt lat="45.75988" lon="6.02261">
        <ele>570</ele>
        <time>2010-06-12T08:45:56Z</time>
      </trkpt>
      <trkpt lat="45.75985" lon="6.02261">
        <ele>572</ele>
        <time>2010-06-12T08:45:59Z</time>
      </trkpt>
      <trkpt lat="45.75983" lon="6.02262">
        <ele>572</ele>
        <time>2010-06-12T08:46:01Z</time>
      </trkpt>
      <trkpt lat="45.75981" lon="6.02262">
        <ele>573</ele>
        <time>2010-06-12T08:46:03Z</time>
      </trkpt>
      <trkpt lat="45.75979" lon="6.02263">
        <ele>573</ele>
        <time>2010-06-12T08:46:05Z</time>
      </trkpt>
      <trkpt lat="45.75977" lon="6.02263">
        <ele>574</ele>
        <time>2010-06-12T08:46:07Z</time>
      </trkpt>
      <trkpt lat="45.75974" lon="6.02264">
        <ele>574</ele>
        <time>2010-06-12T08:46:09Z</time>
      </trkpt>
      <trkpt lat="45.75971" lon="6.02264">
        <ele>575</ele>
        <time>2010-06-12T08:46:12Z</time>
      </trkpt>
      <trkpt lat="45.75967" lon="6.02264">
        <ele>576</ele>
        <time>2010-06-12T08:46:15Z</time>
      </trkpt>
      <trkpt lat="45.75965" lon="6.02263">
        <ele>576</ele>
        <time>2010-06-12T08:46:17Z</time>
      </trkpt>
      <trkpt lat="45.75962" lon="6.02262">
        <ele>576</ele>
        <time>2010-06-12T08:46:19Z</time>
      </trkpt>
      <trkpt lat="45.7596" lon="6.02261">
        <ele>576</ele>
        <time>2010-06-12T08:46:21Z</time>
      </trkpt>
      <trkpt lat="45.75956" lon="6.02259">
        <ele>576</ele>
        <time>2010-06-12T08:46:24Z</time>
      </trkpt>
      <trkpt lat="45.75954" lon="6.02258">
        <ele>576</ele>
        <time>2010-06-12T08:46:26Z</time>
      </trkpt>
      <trkpt lat="45.75951" lon="6.02256">
        <ele>576</ele>
        <time>2010-06-12T08:46:28Z</time>
      </trkpt>
      <trkpt lat="45.75948" lon="6.02255">
        <ele>576</ele>
        <time>2010-06-12T08:46:30Z</time>
      </trkpt>
      <trkpt lat="45.75945" lon="6.02254">
        <ele>576</ele>
        <time>2010-06-12T08:46:32Z</time>
      </trkpt>
      <trkpt lat="45.75942" lon="6.02252">
        <ele>576</ele>
        <time>2010-06-12T08:46:34Z</time>
      </trkpt>
      <trkpt lat="45.7594" lon="6.02251">
        <ele>576</ele>
        <time>2010-06-12T08:46:36Z</time>
      </trkpt>
      <trkpt lat="45.75938" lon="6.02249">
        <ele>576</ele>
        <time>2010-06-12T08:46:38Z</time>
      </trkpt>
      <trkpt lat="45.75935" lon="6.02248">
        <ele>576</ele>
        <time>2010-06-12T08:46:40Z</time>
      </trkpt>
      <trkpt lat="45.75933" lon="6.02246">
        <ele>576</ele>
        <time>2010-06-12T08:46:42Z</time>
      </trkpt>
      <trkpt lat="45.75931" lon="6.02245">
        <ele>576</ele>
        <time>2010-06-12T08:46:44Z</time>
      </trkpt>
      <trkpt lat="45.75928" lon="6.02243">
        <ele>576</ele>
        <time>2010-06-12T08:46:46Z</time>
      </trkpt>
      <trkpt lat="45.75927" lon="6.02241">
        <ele>576</ele>
        <time>2010-06-12T08:46:48Z</time>
      </trkpt>
      <trkpt lat="45.75923" lon="6.02239">
        <ele>576</ele>
        <time>2010-06-12T08:46:50Z</time>
      </trkpt>
      <trkpt lat="45.7592" lon="6.02237">
        <ele>576</ele>
        <time>2010-06-12T08:46:52Z</time>
      </trkpt>
      <trkpt lat="45.75918" lon="6.02236">
        <ele>576</ele>
        <time>2010-06-12T08:46:54Z</time>
      </trkpt>
      <trkpt lat="45.75915" lon="6.02234">
        <ele>576</ele>
        <time>2010-06-12T08:46:56Z</time>
      </trkpt>
      <trkpt lat="45.75912" lon="6.02232">
        <ele>576</ele>
        <time>2010-06-12T08:46:58Z</time>
      </trkpt>
      <trkpt lat="45.75909" lon="6.02231">
        <ele>576</ele>
        <time>2010-06-12T08:47:00Z</time>
      </trkpt>
      <trkpt lat="45.75906" lon="6.0223">
        <ele>576</ele>
        <time>2010-06-12T08:47:02Z</time>
      </trkpt>
      <trkpt lat="45.75903" lon="6.02229">
        <ele>576</ele>
        <time>2010-06-12T08:47:04Z</time>
      </trkpt>
      <trkpt lat="45.759" lon="6.02227">
        <ele>576</ele>
        <time>2010-06-12T08:47:06Z</time>
      </trkpt>
      <trkpt lat="45.75897" lon="6.02223">
        <ele>576</ele>
        <time>2010-06-12T08:47:09Z</time>
      </trkpt>
      <trkpt lat="45.75895" lon="6.0222">
        <ele>576</ele>
        <time>2010-06-12T08:47:11Z</time>
      </trkpt>
      <trkpt lat="45.75893" lon="6.02217">
        <ele>576</ele>
        <time>2010-06-12T08:47:13Z</time>
      </trkpt>
      <trkpt lat="45.75891" lon="6.02214">
        <ele>576</ele>
        <time>2010-06-12T08:47:15Z</time>
      </trkpt>
      <trkpt lat="45.75888" lon="6.02212">
        <ele>576</ele>
        <time>2010-06-12T08:47:17Z</time>
      </trkpt>
      <trkpt lat="45.75885" lon="6.0221">
        <ele>576</ele>
        <time>2010-06-12T08:47:19Z</time>
      </trkpt>
      <trkpt lat="45.75882" lon="6.02209">
        <ele>576</ele>
        <time>2010-06-12T08:47:21Z</time>
      </trkpt>
      <trkpt lat="45.75879" lon="6.02208">
        <ele>576</ele>
        <time>2010-06-12T08:47:23Z</time>
      </trkpt>
      <trkpt lat="45.75875" lon="6.02207">
        <ele>576</ele>
        <time>2010-06-12T08:47:25Z</time>
      </trkpt>
      <trkpt lat="45.75872" lon="6.02206">
        <ele>576</ele>
        <time>2010-06-12T08:47:27Z</time>
      </trkpt>
      <trkpt lat="45.75868" lon="6.02204">
        <ele>576</ele>
        <time>2010-06-12T08:47:29Z</time>
      </trkpt>
      <trkpt lat="45.75864" lon="6.02203">
        <ele>576</ele>
        <time>2010-06-12T08:47:31Z</time>
      </trkpt>
      <trkpt lat="45.75861" lon="6.02202">
        <ele>576</ele>
        <time>2010-06-12T08:47:33Z</time>
      </trkpt>
      <trkpt lat="45.75856" lon="6.02201">
        <ele>576</ele>
        <time>2010-06-12T08:47:35Z</time>
      </trkpt>
      <trkpt lat="45.75853" lon="6.022">
        <ele>576</ele>
        <time>2010-06-12T08:47:37Z</time>
      </trkpt>
      <trkpt lat="45.75849" lon="6.022">
        <ele>576</ele>
        <time>2010-06-12T08:47:39Z</time>
      </trkpt>
      <trkpt lat="45.75845" lon="6.02198">
        <ele>576</ele>
        <time>2010-06-12T08:47:41Z</time>
      </trkpt>
      <trkpt lat="45.75842" lon="6.02197">
        <ele>576</ele>
        <time>2010-06-12T08:47:43Z</time>
      </trkpt>
      <trkpt lat="45.75837" lon="6.02195">
        <ele>576</ele>
        <time>2010-06-12T08:47:45Z</time>
      </trkpt>
      <trkpt lat="45.75833" lon="6.02194">
        <ele>576</ele>
        <time>2010-06-12T08:47:47Z</time>
      </trkpt>
      <trkpt lat="45.75828" lon="6.02192">
        <ele>576</ele>
        <time>2010-06-12T08:47:49Z</time>
      </trkpt>
      <trkpt lat="45.75824" lon="6.02191">
        <ele>576</ele>
        <time>2010-06-12T08:47:51Z</time>
      </trkpt>
      <trkpt lat="45.75819" lon="6.02189">
        <ele>576</ele>
        <time>2010-06-12T08:47:53Z</time>
      </trkpt>
      <trkpt lat="45.75814" lon="6.02188">
        <ele>576</ele>
        <time>2010-06-12T08:47:55Z</time>
      </trkpt>
      <trkpt lat="45.7581" lon="6.02187">
        <ele>576</ele>
        <time>2010-06-12T08:47:57Z</time>
      </trkpt>
      <trkpt lat="45.75806" lon="6.02185">
        <ele>576</ele>
        <time>2010-06-12T08:47:59Z</time>
      </trkpt>
      <trkpt lat="45.75801" lon="6.02185">
        <ele>576</ele>
        <time>2010-06-12T08:48:01Z</time>
      </trkpt>
      <trkpt lat="45.75797" lon="6.02184">
        <ele>576</ele>
        <time>2010-06-12T08:48:03Z</time>
      </trkpt>
      <trkpt lat="45.75792" lon="6.02184">
        <ele>576</ele>
        <time>2010-06-12T08:48:05Z</time>
      </trkpt>
      <trkpt lat="45.75788" lon="6.02183">
        <ele>576</ele>
        <time>2010-06-12T08:48:07Z</time>
      </trkpt>
      <trkpt lat="45.75784" lon="6.02183">
        <ele>576</ele>
        <time>2010-06-12T08:48:09Z</time>
      </trkpt>
      <trkpt lat="45.75779" lon="6.02184">
        <ele>576</ele>
        <time>2010-06-12T08:48:11Z</time>
      </trkpt>
      <trkpt lat="45.75775" lon="6.02184">
        <ele>576</ele>
        <time>2010-06-12T08:48:13Z</time>
      </trkpt>
      <trkpt lat="45.75771" lon="6.02184">
        <ele>576</ele>
        <time>2010-06-12T08:48:15Z</time>
      </trkpt>
      <trkpt lat="45.75766" lon="6.02185">
        <ele>577</ele>
        <time>2010-06-12T08:48:17Z</time>
      </trkpt>
      <trkpt lat="45.75762" lon="6.02185">
        <ele>577</ele>
        <time>2010-06-12T08:48:19Z</time>
      </trkpt>
      <trkpt lat="45.75758" lon="6.02185">
        <ele>577</ele>
        <time>2010-06-12T08:48:21Z</time>
      </trkpt>
      <trkpt lat="45.75753" lon="6.02186">
        <ele>578</ele>
        <time>2010-06-12T08:48:23Z</time>
      </trkpt>
      <trkpt lat="45.75749" lon="6.02186">
        <ele>578</ele>
        <time>2010-06-12T08:48:25Z</time>
      </trkpt>
      <trkpt lat="45.75745" lon="6.02186">
        <ele>578</ele>
        <time>2010-06-12T08:48:27Z</time>
      </trkpt>
      <trkpt lat="45.7574" lon="6.02187">
        <ele>578</ele>
        <time>2010-06-12T08:48:29Z</time>
      </trkpt>
      <trkpt lat="45.75736" lon="6.02188">
        <ele>578</ele>
        <time>2010-06-12T08:48:31Z</time>
      </trkpt>
      <trkpt lat="45.75732" lon="6.02189">
        <ele>578</ele>
        <time>2010-06-12T08:48:33Z</time>
      </trkpt>
      <trkpt lat="45.75727" lon="6.0219">
        <ele>579</ele>
        <time>2010-06-12T08:48:35Z</time>
      </trkpt>
      <trkpt lat="45.75722" lon="6.0219">
        <ele>579</ele>
        <time>2010-06-12T08:48:37Z</time>
      </trkpt>
      <trkpt lat="45.75718" lon="6.02191">
        <ele>580</ele>
        <time>2010-06-12T08:48:39Z</time>
      </trkpt>
      <trkpt lat="45.75713" lon="6.02191">
        <ele>580</ele>
        <time>2010-06-12T08:48:41Z</time>
      </trkpt>
      <trkpt lat="45.75709" lon="6.02192">
        <ele>581</ele>
        <time>2010-06-12T08:48:43Z</time>
      </trkpt>
      <trkpt lat="45.75704" lon="6.02193">
        <ele>581</ele>
        <time>2010-06-12T08:48:45Z</time>
      </trkpt>
      <trkpt lat="45.757" lon="6.02193">
        <ele>581</ele>
        <time>2010-06-12T08:48:47Z</time>
      </trkpt>
      <trkpt lat="45.75695" lon="6.02194">
        <ele>582</ele>
        <time>2010-06-12T08:48:49Z</time>
      </trkpt>
      <trkpt lat="45.75691" lon="6.02195">
        <ele>582</ele>
        <time>2010-06-12T08:48:51Z</time>
      </trkpt>
      <trkpt lat="45.75686" lon="6.02196">
        <ele>582</ele>
        <time>2010-06-12T08:48:53Z</time>
      </trkpt>
      <trkpt lat="45.75682" lon="6.02197">
        <ele>582</ele>
        <time>2010-06-12T08:48:55Z</time>
      </trkpt>
      <trkpt lat="45.75678" lon="6.02198">
        <ele>583</ele>
        <time>2010-06-12T08:48:57Z</time>
      </trkpt>
      <trkpt lat="45.75673" lon="6.02199">
        <ele>583</ele>
        <time>2010-06-12T08:48:59Z</time>
      </trkpt>
      <trkpt lat="45.75669" lon="6.022">
        <ele>583</ele>
        <time>2010-06-12T08:49:01Z</time>
      </trkpt>
      <trkpt lat="45.75665" lon="6.02201">
        <ele>583</ele>
        <time>2010-06-12T08:49:03Z</time>
      </trkpt>
      <trkpt lat="45.7566" lon="6.02202">
        <ele>583</ele>
        <time>2010-06-12T08:49:05Z</time>
      </trkpt>
      <trkpt lat="45.75656" lon="6.02203">
        <ele>583</ele>
        <time>2010-06-12T08:49:07Z</time>
      </trkpt>
      <trkpt lat="45.75652" lon="6.02204">
        <ele>583</ele>
        <time>2010-06-12T08:49:09Z</time>
      </trkpt>
      <trkpt lat="45.75648" lon="6.02206">
        <ele>583</ele>
        <time>2010-06-12T08:49:11Z</time>
      </trkpt>
      <trkpt lat="45.75644" lon="6.02208">
        <ele>583</ele>
        <time>2010-06-12T08:49:13Z</time>
      </trkpt>
      <trkpt lat="45.7564" lon="6.0221">
        <ele>583</ele>
        <time>2010-06-12T08:49:15Z</time>
      </trkpt>
      <trkpt lat="45.75636" lon="6.02213">
        <ele>583</ele>
        <time>2010-06-12T08:49:17Z</time>
      </trkpt>
      <trkpt lat="45.75632" lon="6.02215">
        <ele>583</ele>
        <time>2010-06-12T08:49:19Z</time>
      </trkpt>
      <trkpt lat="45.75629" lon="6.02217">
        <ele>584</ele>
        <time>2010-06-12T08:49:21Z</time>
      </trkpt>
      <trkpt lat="45.75624" lon="6.02219">
        <ele>584</ele>
        <time>2010-06-12T08:49:23Z</time>
      </trkpt>
      <trkpt lat="45.7562" lon="6.0222">
        <ele>584</ele>
        <time>2010-06-12T08:49:25Z</time>
      </trkpt>
      <trkpt lat="45.75616" lon="6.02222">
        <ele>584</ele>
        <time>2010-06-12T08:49:27Z</time>
      </trkpt>
      <trkpt lat="45.75612" lon="6.02223">
        <ele>585</ele>
        <time>2010-06-12T08:49:29Z</time>
      </trkpt>
      <trkpt lat="45.75608" lon="6.02226">
        <ele>585</ele>
        <time>2010-06-12T08:49:31Z</time>
      </trkpt>
      <trkpt lat="45.75604" lon="6.02227">
        <ele>585</ele>
        <time>2010-06-12T08:49:33Z</time>
      </trkpt>
      <trkpt lat="45.756" lon="6.02228">
        <ele>586</ele>
        <time>2010-06-12T08:49:35Z</time>
      </trkpt>
      <trkpt lat="45.75595" lon="6.02228">
        <ele>587</ele>
        <time>2010-06-12T08:49:37Z</time>
      </trkpt>
      <trkpt lat="45.75592" lon="6.02229">
        <ele>587</ele>
        <time>2010-06-12T08:49:39Z</time>
      </trkpt>
      <trkpt lat="45.75587" lon="6.0223">
        <ele>588</ele>
        <time>2010-06-12T08:49:41Z</time>
      </trkpt>
      <trkpt lat="45.75583" lon="6.02231">
        <ele>590</ele>
        <time>2010-06-12T08:49:43Z</time>
      </trkpt>
      <trkpt lat="45.75579" lon="6.0223">
        <ele>590</ele>
        <time>2010-06-12T08:49:45Z</time>
      </trkpt>
      <trkpt lat="45.75574" lon="6.02229">
        <ele>591</ele>
        <time>2010-06-12T08:49:47Z</time>
      </trkpt>
      <trkpt lat="45.75571" lon="6.02228">
        <ele>591</ele>
        <time>2010-06-12T08:49:49Z</time>
      </trkpt>
      <trkpt lat="45.75566" lon="6.02226">
        <ele>592</ele>
        <time>2010-06-12T08:49:51Z</time>
      </trkpt>
      <trkpt lat="45.75563" lon="6.02225">
        <ele>592</ele>
        <time>2010-06-12T08:49:53Z</time>
      </trkpt>
      <trkpt lat="45.75559" lon="6.02224">
        <ele>593</ele>
        <time>2010-06-12T08:49:55Z</time>
      </trkpt>
      <trkpt lat="45.75556" lon="6.02223">
        <ele>593</ele>
        <time>2010-06-12T08:49:57Z</time>
      </trkpt>
      <trkpt lat="45.75552" lon="6.02223">
        <ele>594</ele>
        <time>2010-06-12T08:49:59Z</time>
      </trkpt>
      <trkpt lat="45.75548" lon="6.02222">
        <ele>595</ele>
        <time>2010-06-12T08:50:01Z</time>
      </trkpt>
      <trkpt lat="45.75545" lon="6.0222">
        <ele>596</ele>
        <time>2010-06-12T08:50:03Z</time>
      </trkpt>
      <trkpt lat="45.75541" lon="6.02218">
        <ele>597</ele>
        <time>2010-06-12T08:50:05Z</time>
      </trkpt>
      <trkpt lat="45.75537" lon="6.02217">
        <ele>597</ele>
        <time>2010-06-12T08:50:07Z</time>
      </trkpt>
      <trkpt lat="45.75533" lon="6.02216">
        <ele>597</ele>
        <time>2010-06-12T08:50:09Z</time>
      </trkpt>
      <trkpt lat="45.75529" lon="6.02214">
        <ele>598</ele>
        <time>2010-06-12T08:50:11Z</time>
      </trkpt>
      <trkpt lat="45.75525" lon="6.02212">
        <ele>598</ele>
        <time>2010-06-12T08:50:13Z</time>
      </trkpt>
      <trkpt lat="45.75521" lon="6.02211">
        <ele>598</ele>
        <time>2010-06-12T08:50:15Z</time>
      </trkpt>
      <trkpt lat="45.75516" lon="6.0221">
        <ele>598</ele>
        <time>2010-06-12T08:50:17Z</time>
      </trkpt>
      <trkpt lat="45.75512" lon="6.02209">
        <ele>599</ele>
        <time>2010-06-12T08:50:19Z</time>
      </trkpt>
      <trkpt lat="45.75508" lon="6.02207">
        <ele>599</ele>
        <time>2010-06-12T08:50:21Z</time>
      </trkpt>
      <trkpt lat="45.75504" lon="6.02206">
        <ele>600</ele>
        <time>2010-06-12T08:50:23Z</time>
      </trkpt>
      <trkpt lat="45.75498" lon="6.02204">
        <ele>600</ele>
        <time>2010-06-12T08:50:25Z</time>
      </trkpt>
      <trkpt lat="45.75494" lon="6.02204">
        <ele>600</ele>
        <time>2010-06-12T08:50:27Z</time>
      </trkpt>
      <trkpt lat="45.75489" lon="6.02203">
        <ele>600</ele>
        <time>2010-06-12T08:50:29Z</time>
      </trkpt>
      <trkpt lat="45.75485" lon="6.02202">
        <ele>600</ele>
        <time>2010-06-12T08:50:31Z</time>
      </trkpt>
      <trkpt lat="45.7548" lon="6.02201">
        <ele>600</ele>
        <time>2010-06-12T08:50:33Z</time>
      </trkpt>
      <trkpt lat="45.75475" lon="6.022">
        <ele>600</ele>
        <time>2010-06-12T08:50:35Z</time>
      </trkpt>
      <trkpt lat="45.75471" lon="6.022">
        <ele>600</ele>
        <time>2010-06-12T08:50:37Z</time>
      </trkpt>
      <trkpt lat="45.75468" lon="6.022">
        <ele>600</ele>
        <time>2010-06-12T08:50:39Z</time>
      </trkpt>
      <trkpt lat="45.75464" lon="6.022">
        <ele>601</ele>
        <time>2010-06-12T08:50:41Z</time>
      </trkpt>
      <trkpt lat="45.7546" lon="6.022">
        <ele>601</ele>
        <time>2010-06-12T08:50:43Z</time>
      </trkpt>
      <trkpt lat="45.75455" lon="6.022">
        <ele>601</ele>
        <time>2010-06-12T08:50:45Z</time>
      </trkpt>
      <trkpt lat="45.75451" lon="6.02201">
        <ele>601</ele>
        <time>2010-06-12T08:50:47Z</time>
      </trkpt>
      <trkpt lat="45.75446" lon="6.02201">
        <ele>602</ele>
        <time>2010-06-12T08:50:49Z</time>
      </trkpt>
      <trkpt lat="45.75442" lon="6.02202">
        <ele>602</ele>
        <time>2010-06-12T08:50:51Z</time>
      </trkpt>
      <trkpt lat="45.75437" lon="6.02203">
        <ele>602</ele>
        <time>2010-06-12T08:50:53Z</time>
      </trkpt>
      <trkpt lat="45.75432" lon="6.02204">
        <ele>603</ele>
        <time>2010-06-12T08:50:55Z</time>
      </trkpt>
      <trkpt lat="45.75428" lon="6.02204">
        <ele>603</ele>
        <time>2010-06-12T08:50:57Z</time>
      </trkpt>
      <trkpt lat="45.75423" lon="6.02206">
        <ele>603</ele>
        <time>2010-06-12T08:50:59Z</time>
      </trkpt>
      <trkpt lat="45.75418" lon="6.02206">
        <ele>603</ele>
        <time>2010-06-12T08:51:01Z</time>
      </trkpt>
      <trkpt lat="45.75414" lon="6.02207">
        <ele>603</ele>
        <time>2010-06-12T08:51:03Z</time>
      </trkpt>
      <trkpt lat="45.7541" lon="6.02208">
        <ele>603</ele>
        <time>2010-06-12T08:51:05Z</time>
      </trkpt>
      <trkpt lat="45.75404" lon="6.02209">
        <ele>603</ele>
        <time>2010-06-12T08:51:07Z</time>
      </trkpt>
      <trkpt lat="45.75399" lon="6.0221">
        <ele>603</ele>
        <time>2010-06-12T08:51:09Z</time>
      </trkpt>
      <trkpt lat="45.75396" lon="6.02212">
        <ele>603</ele>
        <time>2010-06-12T08:51:11Z</time>
      </trkpt>
      <trkpt lat="45.75391" lon="6.02213">
        <ele>604</ele>
        <time>2010-06-12T08:51:13Z</time>
      </trkpt>
      <trkpt lat="45.75388" lon="6.02215">
        <ele>605</ele>
        <time>2010-06-12T08:51:15Z</time>
      </trkpt>
      <trkpt lat="45.75385" lon="6.02216">
        <ele>607</ele>
        <time>2010-06-12T08:51:17Z</time>
      </trkpt>
      <trkpt lat="45.7538" lon="6.02217">
        <ele>607</ele>
        <time>2010-06-12T08:51:19Z</time>
      </trkpt>
      <trkpt lat="45.75375" lon="6.02218">
        <ele>607</ele>
        <time>2010-06-12T08:51:21Z</time>
      </trkpt>
      <trkpt lat="45.7537" lon="6.02218">
        <ele>608</ele>
        <time>2010-06-12T08:51:23Z</time>
      </trkpt>
      <trkpt lat="45.75367" lon="6.02219">
        <ele>608</ele>
        <time>2010-06-12T08:51:25Z</time>
      </trkpt>
      <trkpt lat="45.75362" lon="6.0222">
        <ele>609</ele>
        <time>2010-06-12T08:51:27Z</time>
      </trkpt>
      <trkpt lat="45.75357" lon="6.02221">
        <ele>609</ele>
        <time>2010-06-12T08:51:29Z</time>
      </trkpt>
      <trkpt lat="45.75352" lon="6.02221">
        <ele>609</ele>
        <time>2010-06-12T08:51:31Z</time>
      </trkpt>
      <trkpt lat="45.75347" lon="6.02221">
        <ele>609</ele>
        <time>2010-06-12T08:51:33Z</time>
      </trkpt>
      <trkpt lat="45.75342" lon="6.0222">
        <ele>609</ele>
        <time>2010-06-12T08:51:35Z</time>
      </trkpt>
      <trkpt lat="45.75337" lon="6.02219">
        <ele>609</ele>
        <time>2010-06-12T08:51:37Z</time>
      </trkpt>
      <trkpt lat="45.75332" lon="6.02218">
        <ele>609</ele>
        <time>2010-06-12T08:51:39Z</time>
      </trkpt>
      <trkpt lat="45.75328" lon="6.02216">
        <ele>609</ele>
        <time>2010-06-12T08:51:41Z</time>
      </trkpt>
      <trkpt lat="45.75323" lon="6.02214">
        <ele>609</ele>
        <time>2010-06-12T08:51:43Z</time>
      </trkpt>
      <trkpt lat="45.75317" lon="6.02213">
        <ele>609</ele>
        <time>2010-06-12T08:51:45Z</time>
      </trkpt>
      <trkpt lat="45.75313" lon="6.02212">
        <ele>609</ele>
        <time>2010-06-12T08:51:47Z</time>
      </trkpt>
      <trkpt lat="45.75309" lon="6.02212">
        <ele>609</ele>
        <time>2010-06-12T08:51:49Z</time>
      </trkpt>
      <trkpt lat="45.75304" lon="6.02212">
        <ele>609</ele>
        <time>2010-06-12T08:51:51Z</time>
      </trkpt>
      <trkpt lat="45.75298" lon="6.0221">
        <ele>609</ele>
        <time>2010-06-12T08:51:53Z</time>
      </trkpt>
      <trkpt lat="45.75293" lon="6.02209">
        <ele>609</ele>
        <time>2010-06-12T08:51:55Z</time>
      </trkpt>
      <trkpt lat="45.75288" lon="6.02209">
        <ele>609</ele>
        <time>2010-06-12T08:51:57Z</time>
      </trkpt>
      <trkpt lat="45.75283" lon="6.02208">
        <ele>609</ele>
        <time>2010-06-12T08:51:59Z</time>
      </trkpt>
      <trkpt lat="45.75277" lon="6.02208">
        <ele>609</ele>
        <time>2010-06-12T08:52:01Z</time>
      </trkpt>
      <trkpt lat="45.75272" lon="6.02207">
        <ele>610</ele>
        <time>2010-06-12T08:52:03Z</time>
      </trkpt>
      <trkpt lat="45.75267" lon="6.02207">
        <ele>610</ele>
        <time>2010-06-12T08:52:05Z</time>
      </trkpt>
      <trkpt lat="45.75262" lon="6.02207">
        <ele>610</ele>
        <time>2010-06-12T08:52:07Z</time>
      </trkpt>
      <trkpt lat="45.75256" lon="6.02206">
        <ele>610</ele>
        <time>2010-06-12T08:52:09Z</time>
      </trkpt>
      <trkpt lat="45.75251" lon="6.02205">
        <ele>610</ele>
        <time>2010-06-12T08:52:11Z</time>
      </trkpt>
      <trkpt lat="45.75246" lon="6.02203">
        <ele>610</ele>
        <time>2010-06-12T08:52:13Z</time>
      </trkpt>
      <trkpt lat="45.75242" lon="6.022">
        <ele>610</ele>
        <time>2010-06-12T08:52:15Z</time>
      </trkpt>
      <trkpt lat="45.75238" lon="6.02197">
        <ele>610</ele>
        <time>2010-06-12T08:52:17Z</time>
      </trkpt>
      <trkpt lat="45.75233" lon="6.02193">
        <ele>610</ele>
        <time>2010-06-12T08:52:19Z</time>
      </trkpt>
      <trkpt lat="45.75229" lon="6.02191">
        <ele>610</ele>
        <time>2010-06-12T08:52:21Z</time>
      </trkpt>
      <trkpt lat="45.75225" lon="6.02188">
        <ele>611</ele>
        <time>2010-06-12T08:52:23Z</time>
      </trkpt>
      <trkpt lat="45.75221" lon="6.02186">
        <ele>611</ele>
        <time>2010-06-12T08:52:25Z</time>
      </trkpt>
      <trkpt lat="45.75216" lon="6.02185">
        <ele>611</ele>
        <time>2010-06-12T08:52:27Z</time>
      </trkpt>
      <trkpt lat="45.75211" lon="6.02183">
        <ele>611</ele>
        <time>2010-06-12T08:52:29Z</time>
      </trkpt>
      <trkpt lat="45.75206" lon="6.0218">
        <ele>611</ele>
        <time>2010-06-12T08:52:31Z</time>
      </trkpt>
      <trkpt lat="45.75202" lon="6.02178">
        <ele>611</ele>
        <time>2010-06-12T08:52:33Z</time>
      </trkpt>
      <trkpt lat="45.75198" lon="6.02176">
        <ele>611</ele>
        <time>2010-06-12T08:52:35Z</time>
      </trkpt>
      <trkpt lat="45.75193" lon="6.02174">
        <ele>611</ele>
        <time>2010-06-12T08:52:37Z</time>
      </trkpt>
      <trkpt lat="45.75189" lon="6.02172">
        <ele>612</ele>
        <time>2010-06-12T08:52:39Z</time>
      </trkpt>
      <trkpt lat="45.75185" lon="6.02171">
        <ele>613</ele>
        <time>2010-06-12T08:52:41Z</time>
      </trkpt>
      <trkpt lat="45.75181" lon="6.02168">
        <ele>613</ele>
        <time>2010-06-12T08:52:43Z</time>
      </trkpt>
      <trkpt lat="45.75178" lon="6.02166">
        <ele>614</ele>
        <time>2010-06-12T08:52:45Z</time>
      </trkpt>
      <trkpt lat="45.75175" lon="6.02164">
        <ele>614</ele>
        <time>2010-06-12T08:52:47Z</time>
      </trkpt>
      <trkpt lat="45.75171" lon="6.02162">
        <ele>614</ele>
        <time>2010-06-12T08:52:49Z</time>
      </trkpt>
      <trkpt lat="45.75167" lon="6.02161">
        <ele>614</ele>
        <time>2010-06-12T08:52:51Z</time>
      </trkpt>
      <trkpt lat="45.75163" lon="6.02161">
        <ele>614</ele>
        <time>2010-06-12T08:52:53Z</time>
      </trkpt>
      <trkpt lat="45.75158" lon="6.02161">
        <ele>614</ele>
        <time>2010-06-12T08:52:55Z</time>
      </trkpt>
      <trkpt lat="45.75155" lon="6.02164">
        <ele>615</ele>
        <time>2010-06-12T08:52:57Z</time>
      </trkpt>
      <trkpt lat="45.75152" lon="6.02167">
        <ele>616</ele>
        <time>2010-06-12T08:52:59Z</time>
      </trkpt>
      <trkpt lat="45.75149" lon="6.0217">
        <ele>617</ele>
        <time>2010-06-12T08:53:01Z</time>
      </trkpt>
      <trkpt lat="45.75147" lon="6.02174">
        <ele>618</ele>
        <time>2010-06-12T08:53:03Z</time>
      </trkpt>
      <trkpt lat="45.75143" lon="6.02179">
        <ele>619</ele>
        <time>2010-06-12T08:53:05Z</time>
      </trkpt>
      <trkpt lat="45.7514" lon="6.02183">
        <ele>620</ele>
        <time>2010-06-12T08:53:07Z</time>
      </trkpt>
      <trkpt lat="45.75137" lon="6.02186">
        <ele>620</ele>
        <time>2010-06-12T08:53:09Z</time>
      </trkpt>
      <trkpt lat="45.75135" lon="6.02188">
        <ele>621</ele>
        <time>2010-06-12T08:53:12Z</time>
      </trkpt>
      <trkpt lat="45.75132" lon="6.0219">
        <ele>622</ele>
        <time>2010-06-12T08:53:14Z</time>
      </trkpt>
      <trkpt lat="45.75129" lon="6.02191">
        <ele>624</ele>
        <time>2010-06-12T08:53:17Z</time>
      </trkpt>
      <trkpt lat="45.75127" lon="6.02192">
        <ele>625</ele>
        <time>2010-06-12T08:53:19Z</time>
      </trkpt>
      <trkpt lat="45.75124" lon="6.02195">
        <ele>626</ele>
        <time>2010-06-12T08:53:23Z</time>
      </trkpt>
      <trkpt lat="45.75123" lon="6.02196">
        <ele>627</ele>
        <time>2010-06-12T08:53:25Z</time>
      </trkpt>
      <trkpt lat="45.75123" lon="6.02202">
        <ele>627</ele>
        <time>2010-06-12T08:53:29Z</time>
      </trkpt>
      <trkpt lat="45.75122" lon="6.02202">
        <ele>626</ele>
        <time>2010-06-12T08:53:31Z</time>
      </trkpt>
      <trkpt lat="45.75119" lon="6.02206">
        <ele>626</ele>
        <time>2010-06-12T08:53:33Z</time>
      </trkpt>
      <trkpt lat="45.75116" lon="6.02211">
        <ele>626</ele>
        <time>2010-06-12T08:53:35Z</time>
      </trkpt>
      <trkpt lat="45.75112" lon="6.02214">
        <ele>626</ele>
        <time>2010-06-12T08:53:37Z</time>
      </trkpt>
      <trkpt lat="45.75108" lon="6.02215">
        <ele>626</ele>
        <time>2010-06-12T08:53:40Z</time>
      </trkpt>
      <trkpt lat="45.75105" lon="6.02218">
        <ele>626</ele>
        <time>2010-06-12T08:53:42Z</time>
      </trkpt>
      <trkpt lat="45.75103" lon="6.02218">
        <ele>626</ele>
        <time>2010-06-12T08:53:44Z</time>
      </trkpt>
      <trkpt lat="45.75101" lon="6.0222">
        <ele>626</ele>
        <time>2010-06-12T08:53:46Z</time>
      </trkpt>
      <trkpt lat="45.75098" lon="6.02223">
        <ele>626</ele>
        <time>2010-06-12T08:53:48Z</time>
      </trkpt>
      <trkpt lat="45.75096" lon="6.02225">
        <ele>626</ele>
        <time>2010-06-12T08:53:50Z</time>
      </trkpt>
      <trkpt lat="45.75095" lon="6.02228">
        <ele>627</ele>
        <time>2010-06-12T08:53:52Z</time>
      </trkpt>
      <trkpt lat="45.75092" lon="6.02229">
        <ele>627</ele>
        <time>2010-06-12T08:53:54Z</time>
      </trkpt>
      <trkpt lat="45.7509" lon="6.02228">
        <ele>627</ele>
        <time>2010-06-12T08:53:56Z</time>
      </trkpt>
      <trkpt lat="45.75087" lon="6.02229">
        <ele>627</ele>
        <time>2010-06-12T08:53:58Z</time>
      </trkpt>
      <trkpt lat="45.75084" lon="6.02229">
        <ele>628</ele>
        <time>2010-06-12T08:54:00Z</time>
      </trkpt>
      <trkpt lat="45.7508" lon="6.02232">
        <ele>630</ele>
        <time>2010-06-12T08:54:02Z</time>
      </trkpt>
      <trkpt lat="45.75079" lon="6.02233">
        <ele>632</ele>
        <time>2010-06-12T08:54:04Z</time>
      </trkpt>
      <trkpt lat="45.75077" lon="6.02234">
        <ele>634</ele>
        <time>2010-06-12T08:54:06Z</time>
      </trkpt>
      <trkpt lat="45.75075" lon="6.02235">
        <ele>636</ele>
        <time>2010-06-12T08:54:08Z</time>
      </trkpt>
      <trkpt lat="45.75072" lon="6.02236">
        <ele>638</ele>
        <time>2010-06-12T08:54:10Z</time>
      </trkpt>
      <trkpt lat="45.75069" lon="6.02234">
        <ele>638</ele>
        <time>2010-06-12T08:54:13Z</time>
      </trkpt>
      <trkpt lat="45.75066" lon="6.02234">
        <ele>638</ele>
        <time>2010-06-12T08:54:17Z</time>
      </trkpt>
      <trkpt lat="45.75063" lon="6.02234">
        <ele>638</ele>
        <time>2010-06-12T08:54:20Z</time>
      </trkpt>
      <trkpt lat="45.75061" lon="6.02234">
        <ele>638</ele>
        <time>2010-06-12T08:54:22Z</time>
      </trkpt>
      <trkpt lat="45.75058" lon="6.02234">
        <ele>638</ele>
        <time>2010-06-12T08:54:24Z</time>
      </trkpt>
      <trkpt lat="45.75054" lon="6.02233">
        <ele>641</ele>
        <time>2010-06-12T08:54:27Z</time>
      </trkpt>
      <trkpt lat="45.75051" lon="6.02233">
        <ele>643</ele>
        <time>2010-06-12T08:54:30Z</time>
      </trkpt>
      <trkpt lat="45.75048" lon="6.02234">
        <ele>643</ele>
        <time>2010-06-12T08:54:33Z</time>
      </trkpt>
      <trkpt lat="45.75045" lon="6.02234">
        <ele>643</ele>
        <time>2010-06-12T08:54:35Z</time>
      </trkpt>
      <trkpt lat="45.75042" lon="6.02233">
        <ele>643</ele>
        <time>2010-06-12T08:54:37Z</time>
      </trkpt>
      <trkpt lat="45.7504" lon="6.02233">
        <ele>644</ele>
        <time>2010-06-12T08:54:39Z</time>
      </trkpt>
      <trkpt lat="45.75038" lon="6.02232">
        <ele>646</ele>
        <time>2010-06-12T08:54:41Z</time>
      </trkpt>
      <trkpt lat="45.75037" lon="6.02231">
        <ele>648</ele>
        <time>2010-06-12T08:54:43Z</time>
      </trkpt>
      <trkpt lat="45.75034" lon="6.02233">
        <ele>649</ele>
        <time>2010-06-12T08:54:46Z</time>
      </trkpt>
      <trkpt lat="45.75031" lon="6.02234">
        <ele>649</ele>
        <time>2010-06-12T08:54:48Z</time>
      </trkpt>
      <trkpt lat="45.75028" lon="6.02235">
        <ele>650</ele>
        <time>2010-06-12T08:54:50Z</time>
      </trkpt>
      <trkpt lat="45.75026" lon="6.02236">
        <ele>652</ele>
        <time>2010-06-12T08:54:52Z</time>
      </trkpt>
      <trkpt lat="45.75024" lon="6.02236">
        <ele>654</ele>
        <time>2010-06-12T08:54:54Z</time>
      </trkpt>
      <trkpt lat="45.7502" lon="6.02235">
        <ele>656</ele>
        <time>2010-06-12T08:54:56Z</time>
      </trkpt>
      <trkpt lat="45.75017" lon="6.02241">
        <ele>660</ele>
        <time>2010-06-12T08:55:00Z</time>
      </trkpt>
      <trkpt lat="45.75017" lon="6.02241">
        <ele>662</ele>
        <time>2010-06-12T08:55:02Z</time>
      </trkpt>
      <trkpt lat="45.75015" lon="6.02243">
        <ele>666</ele>
        <time>2010-06-12T08:55:05Z</time>
      </trkpt>
      <trkpt lat="45.75014" lon="6.02244">
        <ele>667</ele>
        <time>2010-06-12T08:55:08Z</time>
      </trkpt>
      <trkpt lat="45.75011" lon="6.02242">
        <ele>668</ele>
        <time>2010-06-12T08:55:12Z</time>
      </trkpt>
      <trkpt lat="45.7501" lon="6.02241">
        <ele>668</ele>
        <time>2010-06-12T08:55:14Z</time>
      </trkpt>
      <trkpt lat="45.75009" lon="6.02239">
        <ele>668</ele>
        <time>2010-06-12T08:55:17Z</time>
      </trkpt>
      <trkpt lat="45.75007" lon="6.02241">
        <ele>668</ele>
        <time>2010-06-12T08:55:21Z</time>
      </trkpt>
      <trkpt lat="45.75006" lon="6.02239">
        <ele>668</ele>
        <time>2010-06-12T08:55:23Z</time>
      </trkpt>
      <trkpt lat="45.74997" lon="6.0224">
        <ele>668</ele>
        <time>2010-06-12T08:55:27Z</time>
      </trkpt>
      <trkpt lat="45.74997" lon="6.02242">
        <ele>667</ele>
        <time>2010-06-12T08:55:30Z</time>
      </trkpt>
      <trkpt lat="45.74995" lon="6.02243">
        <ele>665</ele>
        <time>2010-06-12T08:55:33Z</time>
      </trkpt>
      <trkpt lat="45.74992" lon="6.02244">
        <ele>663</ele>
        <time>2010-06-12T08:55:35Z</time>
      </trkpt>
      <trkpt lat="45.74991" lon="6.02244">
        <ele>663</ele>
        <time>2010-06-12T08:55:37Z</time>
      </trkpt>
      <trkpt lat="45.7499" lon="6.02243">
        <ele>663</ele>
        <time>2010-06-12T08:55:39Z</time>
      </trkpt>
      <trkpt lat="45.74989" lon="6.02242">
        <ele>663</ele>
        <time>2010-06-12T08:55:43Z</time>
      </trkpt>
      <trkpt lat="45.74987" lon="6.02243">
        <ele>663</ele>
        <time>2010-06-12T08:55:47Z</time>
      </trkpt>
      <trkpt lat="45.7498" lon="6.0225">
        <ele>665</ele>
        <time>2010-06-12T08:55:51Z</time>
      </trkpt>
      <trkpt lat="45.74979" lon="6.02251">
        <ele>666</ele>
        <time>2010-06-12T08:55:54Z</time>
      </trkpt>
      <trkpt lat="45.74978" lon="6.02253">
        <ele>667</ele>
        <time>2010-06-12T08:55:57Z</time>
      </trkpt>
      <trkpt lat="45.74976" lon="6.02255">
        <ele>669</ele>
        <time>2010-06-12T08:55:59Z</time>
      </trkpt>
      <trkpt lat="45.74976" lon="6.0226">
        <ele>669</ele>
        <time>2010-06-12T08:56:01Z</time>
      </trkpt>
      <trkpt lat="45.74973" lon="6.02267">
        <ele>669</ele>
        <time>2010-06-12T08:56:05Z</time>
      </trkpt>
      <trkpt lat="45.74969" lon="6.02266">
        <ele>672</ele>
        <time>2010-06-12T08:56:08Z</time>
      </trkpt>
      <trkpt lat="45.74968" lon="6.02264">
        <ele>674</ele>
        <time>2010-06-12T08:56:10Z</time>
      </trkpt>
      <trkpt lat="45.7497" lon="6.02263">
        <ele>675</ele>
        <time>2010-06-12T08:56:13Z</time>
      </trkpt>
      <trkpt lat="45.74971" lon="6.02263">
        <ele>675</ele>
        <time>2010-06-12T08:56:16Z</time>
      </trkpt>
      <trkpt lat="45.74971" lon="6.02263">
        <ele>675</ele>
        <time>2010-06-12T08:56:24Z</time>
      </trkpt>
      <trkpt lat="45.74969" lon="6.02268">
        <ele>672</ele>
        <time>2010-06-12T08:56:28Z</time>
      </trkpt>
      <trkpt lat="45.74968" lon="6.02269">
        <ele>670</ele>
        <time>2010-06-12T08:56:30Z</time>
      </trkpt>
      <trkpt lat="45.74966" lon="6.02269">
        <ele>668</ele>
        <time>2010-06-12T08:56:33Z</time>
      </trkpt>
      <trkpt lat="45.74964" lon="6.02269">
        <ele>667</ele>
        <time>2010-06-12T08:56:35Z</time>
      </trkpt>
      <trkpt lat="45.7496" lon="6.02268">
        <ele>665</ele>
        <time>2010-06-12T08:56:38Z</time>
      </trkpt>
      <trkpt lat="45.74958" lon="6.02266">
        <ele>664</ele>
        <time>2010-06-12T08:56:40Z</time>
      </trkpt>
      <trkpt lat="45.74957" lon="6.02263">
        <ele>662</ele>
        <time>2010-06-12T08:56:43Z</time>
      </trkpt>
      <trkpt lat="45.74952" lon="6.0226">
        <ele>661</ele>
        <time>2010-06-12T08:56:47Z</time>
      </trkpt>
      <trkpt lat="45.74951" lon="6.02259">
        <ele>661</ele>
        <time>2010-06-12T08:56:49Z</time>
      </trkpt>
      <trkpt lat="45.74948" lon="6.02255">
        <ele>660</ele>
        <time>2010-06-12T08:56:53Z</time>
      </trkpt>
      <trkpt lat="45.74946" lon="6.02253">
        <ele>658</ele>
        <time>2010-06-12T08:56:55Z</time>
      </trkpt>
      <trkpt lat="45.74943" lon="6.0225">
        <ele>654</ele>
        <time>2010-06-12T08:56:59Z</time>
      </trkpt>
      <trkpt lat="45.7494" lon="6.02245">
        <ele>653</ele>
        <time>2010-06-12T08:57:02Z</time>
      </trkpt>
      <trkpt lat="45.74936" lon="6.0224">
        <ele>655</ele>
        <time>2010-06-12T08:57:06Z</time>
      </trkpt>
      <trkpt lat="45.74934" lon="6.02238">
        <ele>658</ele>
        <time>2010-06-12T08:57:09Z</time>
      </trkpt>
      <trkpt lat="45.74933" lon="6.02237">
        <ele>660</ele>
        <time>2010-06-12T08:57:11Z</time>
      </trkpt>
      <trkpt lat="45.74931" lon="6.02233">
        <ele>661</ele>
        <time>2010-06-12T08:57:14Z</time>
      </trkpt>
      <trkpt lat="45.74928" lon="6.02231">
        <ele>661</ele>
        <time>2010-06-12T08:57:16Z</time>
      </trkpt>
      <trkpt lat="45.74925" lon="6.02231">
        <ele>663</ele>
        <time>2010-06-12T08:57:20Z</time>
      </trkpt>
      <trkpt lat="45.74924" lon="6.02231">
        <ele>665</ele>
        <time>2010-06-12T08:57:27Z</time>
      </trkpt>
      <trkpt lat="45.74922" lon="6.02231">
        <ele>665</ele>
        <time>2010-06-12T08:57:29Z</time>
      </trkpt>
      <trkpt lat="45.74919" lon="6.02228">
        <ele>665</ele>
        <time>2010-06-12T08:57:34Z</time>
      </trkpt>
      <trkpt lat="45.74916" lon="6.0223">
        <ele>662</ele>
        <time>2010-06-12T08:57:38Z</time>
      </trkpt>
      <trkpt lat="45.74914" lon="6.02226">
        <ele>661</ele>
        <time>2010-06-12T08:57:42Z</time>
      </trkpt>
      <trkpt lat="45.74912" lon="6.02227">
        <ele>661</ele>
        <time>2010-06-12T08:57:44Z</time>
      </trkpt>
      <trkpt lat="45.7491" lon="6.02225">
        <ele>661</ele>
        <time>2010-06-12T08:57:47Z</time>
      </trkpt>
      <trkpt lat="45.74906" lon="6.02224">
        <ele>661</ele>
        <time>2010-06-12T08:57:50Z</time>
      </trkpt>
      <trkpt lat="45.74903" lon="6.02224">
        <ele>661</ele>
        <time>2010-06-12T08:57:52Z</time>
      </trkpt>
      <trkpt lat="45.74899" lon="6.02224">
        <ele>661</ele>
        <time>2010-06-12T08:57:55Z</time>
      </trkpt>
      <trkpt lat="45.74897" lon="6.02224">
        <ele>661</ele>
        <time>2010-06-12T08:57:57Z</time>
      </trkpt>
      <trkpt lat="45.74894" lon="6.02222">
        <ele>663</ele>
        <time>2010-06-12T08:58:01Z</time>
      </trkpt>
      <trkpt lat="45.74891" lon="6.02223">
        <ele>664</ele>
        <time>2010-06-12T08:58:04Z</time>
      </trkpt>
      <trkpt lat="45.74888" lon="6.02221">
        <ele>664</ele>
        <time>2010-06-12T08:58:06Z</time>
      </trkpt>
      <trkpt lat="45.74886" lon="6.02219">
        <ele>665</ele>
        <time>2010-06-12T08:58:08Z</time>
      </trkpt>
      <trkpt lat="45.74882" lon="6.02217">
        <ele>667</ele>
        <time>2010-06-12T08:58:11Z</time>
      </trkpt>
      <trkpt lat="45.74879" lon="6.02216">
        <ele>667</ele>
        <time>2010-06-12T08:58:14Z</time>
      </trkpt>
      <trkpt lat="45.74874" lon="6.02213">
        <ele>670</ele>
        <time>2010-06-12T08:58:22Z</time>
      </trkpt>
      <trkpt lat="45.74873" lon="6.02213">
        <ele>670</ele>
        <time>2010-06-12T08:58:26Z</time>
      </trkpt>
      <trkpt lat="45.74865" lon="6.02213">
        <ele>669</ele>
        <time>2010-06-12T08:58:28Z</time>
      </trkpt>
      <trkpt lat="45.74864" lon="6.02213">
        <ele>669</ele>
        <time>2010-06-12T08:58:30Z</time>
      </trkpt>
      <trkpt lat="45.74861" lon="6.02215">
        <ele>668</ele>
        <time>2010-06-12T08:58:34Z</time>
      </trkpt>
      <trkpt lat="45.74858" lon="6.02215">
        <ele>667</ele>
        <time>2010-06-12T08:58:38Z</time>
      </trkpt>
      <trkpt lat="45.74856" lon="6.02217">
        <ele>667</ele>
        <time>2010-06-12T08:58:40Z</time>
      </trkpt>
      <trkpt lat="45.74853" lon="6.02214">
        <ele>667</ele>
        <time>2010-06-12T08:58:44Z</time>
      </trkpt>
      <trkpt lat="45.74854" lon="6.02211">
        <ele>668</ele>
        <time>2010-06-12T08:58:49Z</time>
      </trkpt>
      <trkpt lat="45.74857" lon="6.02206">
        <ele>668</ele>
        <time>2010-06-12T08:58:52Z</time>
      </trkpt>
      <trkpt lat="45.74858" lon="6.02204">
        <ele>668</ele>
        <time>2010-06-12T08:58:54Z</time>
      </trkpt>
      <trkpt lat="45.74856" lon="6.02205">
        <ele>668</ele>
        <time>2010-06-12T08:58:57Z</time>
      </trkpt>
      <trkpt lat="45.74855" lon="6.02207">
        <ele>668</ele>
        <time>2010-06-12T08:58:59Z</time>
      </trkpt>
      <trkpt lat="45.74854" lon="6.02207">
        <ele>668</ele>
        <time>2010-06-12T08:59:02Z</time>
      </trkpt>
      <trkpt lat="45.74854" lon="6.02209">
        <ele>669</ele>
        <time>2010-06-12T08:59:05Z</time>
      </trkpt>
      <trkpt lat="45.74853" lon="6.02209">
        <ele>671</ele>
        <time>2010-06-12T08:59:14Z</time>
      </trkpt>
      <trkpt lat="45.74852" lon="6.02209">
        <ele>671</ele>
        <time>2010-06-12T08:59:22Z</time>
      </trkpt>
      <trkpt lat="45.74847" lon="6.02203">
        <ele>674</ele>
        <time>2010-06-12T08:59:25Z</time>
      </trkpt>
      <trkpt lat="45.74844" lon="6.02203">
        <ele>676</ele>
        <time>2010-06-12T08:59:27Z</time>
      </trkpt>
      <trkpt lat="45.74842" lon="6.02203">
        <ele>677</ele>
        <time>2010-06-12T08:59:30Z</time>
      </trkpt>
      <trkpt lat="45.74843" lon="6.02201">
        <ele>677</ele>
        <time>2010-06-12T08:59:33Z</time>
      </trkpt>
      <trkpt lat="45.74838" lon="6.02204">
        <ele>672</ele>
        <time>2010-06-12T08:59:38Z</time>
      </trkpt>
      <trkpt lat="45.74835" lon="6.02202">
        <ele>672</ele>
        <time>2010-06-12T08:59:41Z</time>
      </trkpt>
      <trkpt lat="45.74833" lon="6.02199">
        <ele>672</ele>
        <time>2010-06-12T08:59:50Z</time>
      </trkpt>
      <trkpt lat="45.74831" lon="6.02194">
        <ele>684</ele>
        <time>2010-06-12T09:00:01Z</time>
      </trkpt>
      <trkpt lat="45.74832" lon="6.02204">
        <ele>679</ele>
        <time>2010-06-12T09:00:05Z</time>
      </trkpt>
      <trkpt lat="45.74832" lon="6.02202">
        <ele>679</ele>
        <time>2010-06-12T09:00:09Z</time>
      </trkpt>
      <trkpt lat="45.74826" lon="6.02207">
        <ele>679</ele>
        <time>2010-06-12T09:00:15Z</time>
      </trkpt>
      <trkpt lat="45.74823" lon="6.02205">
        <ele>677</ele>
        <time>2010-06-12T09:00:18Z</time>
      </trkpt>
      <trkpt lat="45.74825" lon="6.02207">
        <ele>674</ele>
        <time>2010-06-12T09:00:22Z</time>
      </trkpt>
      <trkpt lat="45.7482" lon="6.02209">
        <ele>674</ele>
        <time>2010-06-12T09:00:26Z</time>
      </trkpt>
      <trkpt lat="45.74819" lon="6.0221">
        <ele>675</ele>
        <time>2010-06-12T09:00:28Z</time>
      </trkpt>
      <trkpt lat="45.74818" lon="6.02208">
        <ele>675</ele>
        <time>2010-06-12T09:00:30Z</time>
      </trkpt>
      <trkpt lat="45.7482" lon="6.02214">
        <ele>679</ele>
        <time>2010-06-12T09:00:33Z</time>
      </trkpt>
      <trkpt lat="45.74817" lon="6.02218">
        <ele>687</ele>
        <time>2010-06-12T09:00:41Z</time>
      </trkpt>
      <trkpt lat="45.74815" lon="6.02219">
        <ele>690</ele>
        <time>2010-06-12T09:00:44Z</time>
      </trkpt>
      <trkpt lat="45.74811" lon="6.02219">
        <ele>693</ele>
        <time>2010-06-12T09:00:46Z</time>
      </trkpt>
      <trkpt lat="45.74814" lon="6.02215">
        <ele>695</ele>
        <time>2010-06-12T09:00:50Z</time>
      </trkpt>
      <trkpt lat="45.74817" lon="6.02215">
        <ele>697</ele>
        <time>2010-06-12T09:00:53Z</time>
      </trkpt>
      <trkpt lat="45.74818" lon="6.02214">
        <ele>697</ele>
        <time>2010-06-12T09:00:55Z</time>
      </trkpt>
      <trkpt lat="45.74819" lon="6.02215">
        <ele>697</ele>
        <time>2010-06-12T09:00:57Z</time>
      </trkpt>
      <trkpt lat="45.74821" lon="6.02216">
        <ele>695</ele>
        <time>2010-06-12T09:00:59Z</time>
      </trkpt>
      <trkpt lat="45.74821" lon="6.0222">
        <ele>692</ele>
        <time>2010-06-12T09:01:02Z</time>
      </trkpt>
      <trkpt lat="45.74819" lon="6.02222">
        <ele>689</ele>
        <time>2010-06-12T09:01:05Z</time>
      </trkpt>
      <trkpt lat="45.74818" lon="6.02221">
        <ele>686</ele>
        <time>2010-06-12T09:01:08Z</time>
      </trkpt>
      <trkpt lat="45.74816" lon="6.0222">
        <ele>684</ele>
        <time>2010-06-12T09:01:10Z</time>
      </trkpt>
      <trkpt lat="45.74814" lon="6.0222">
        <ele>682</ele>
        <time>2010-06-12T09:01:12Z</time>
      </trkpt>
      <trkpt lat="45.74811" lon="6.02218">
        <ele>678</ele>
        <time>2010-06-12T09:01:16Z</time>
      </trkpt>
      <trkpt lat="45.74809" lon="6.02215">
        <ele>676</ele>
        <time>2010-06-12T09:01:19Z</time>
      </trkpt>
      <trkpt lat="45.74807" lon="6.02214">
        <ele>676</ele>
        <time>2010-06-12T09:01:21Z</time>
      </trkpt>
      <trkpt lat="45.74806" lon="6.02216">
        <ele>675</ele>
        <time>2010-06-12T09:01:25Z</time>
      </trkpt>
      <trkpt lat="45.74806" lon="6.02211">
        <ele>675</ele>
        <time>2010-06-12T09:01:28Z</time>
      </trkpt>
      <trkpt lat="45.74802" lon="6.02213">
        <ele>675</ele>
        <time>2010-06-12T09:01:30Z</time>
      </trkpt>
      <trkpt lat="45.74801" lon="6.0221">
        <ele>675</ele>
        <time>2010-06-12T09:01:33Z</time>
      </trkpt>
      <trkpt lat="45.74802" lon="6.0221">
        <ele>675</ele>
        <time>2010-06-12T09:01:36Z</time>
      </trkpt>
      <trkpt lat="45.74801" lon="6.02208">
        <ele>675</ele>
        <time>2010-06-12T09:01:39Z</time>
      </trkpt>
      <trkpt lat="45.74795" lon="6.02208">
        <ele>675</ele>
        <time>2010-06-12T09:01:42Z</time>
      </trkpt>
      <trkpt lat="45.74793" lon="6.02207">
        <ele>675</ele>
        <time>2010-06-12T09:01:45Z</time>
      </trkpt>
      <trkpt lat="45.74788" lon="6.022">
        <ele>675</ele>
        <time>2010-06-12T09:01:48Z</time>
      </trkpt>
      <trkpt lat="45.74785" lon="6.02199">
        <ele>677</ele>
        <time>2010-06-12T09:01:53Z</time>
      </trkpt>
      <trkpt lat="45.74784" lon="6.022">
        <ele>679</ele>
        <time>2010-06-12T09:01:55Z</time>
      </trkpt>
      <trkpt lat="45.74781" lon="6.02204">
        <ele>681</ele>
        <time>2010-06-12T09:01:57Z</time>
      </trkpt>
      <trkpt lat="45.74781" lon="6.02207">
        <ele>681</ele>
        <time>2010-06-12T09:01:59Z</time>
      </trkpt>
      <trkpt lat="45.74784" lon="6.02208">
        <ele>681</ele>
        <time>2010-06-12T09:02:03Z</time>
      </trkpt>
      <trkpt lat="45.74777" lon="6.02209">
        <ele>675</ele>
        <time>2010-06-12T09:02:09Z</time>
      </trkpt>
      <trkpt lat="45.74774" lon="6.02208">
        <ele>674</ele>
        <time>2010-06-12T09:02:15Z</time>
      </trkpt>
      <trkpt lat="45.74773" lon="6.02206">
        <ele>674</ele>
        <time>2010-06-12T09:02:18Z</time>
      </trkpt>
      <trkpt lat="45.74772" lon="6.02205">
        <ele>674</ele>
        <time>2010-06-12T09:02:20Z</time>
      </trkpt>
      <trkpt lat="45.74768" lon="6.02207">
        <ele>674</ele>
        <time>2010-06-12T09:02:23Z</time>
      </trkpt>
      <trkpt lat="45.74768" lon="6.02203">
        <ele>674</ele>
        <time>2010-06-12T09:02:28Z</time>
      </trkpt>
      <trkpt lat="45.74766" lon="6.02201">
        <ele>674</ele>
        <time>2010-06-12T09:02:31Z</time>
      </trkpt>
      <trkpt lat="45.74765" lon="6.02203">
        <ele>674</ele>
        <time>2010-06-12T09:02:33Z</time>
      </trkpt>
      <trkpt lat="45.74765" lon="6.02206">
        <ele>674</ele>
        <time>2010-06-12T09:02:36Z</time>
      </trkpt>
      <trkpt lat="45.74765" lon="6.02208">
        <ele>674</ele>
        <time>2010-06-12T09:02:38Z</time>
      </trkpt>
      <trkpt lat="45.74762" lon="6.02209">
        <ele>677</ele>
        <time>2010-06-12T09:02:44Z</time>
      </trkpt>
      <trkpt lat="45.74761" lon="6.0221">
        <ele>677</ele>
        <time>2010-06-12T09:02:47Z</time>
      </trkpt>
      <trkpt lat="45.7476" lon="6.02209">
        <ele>677</ele>
        <time>2010-06-12T09:02:53Z</time>
      </trkpt>
      <trkpt lat="45.74761" lon="6.0221">
        <ele>677</ele>
        <time>2010-06-12T09:02:57Z</time>
      </trkpt>
      <trkpt lat="45.74763" lon="6.0221">
        <ele>676</ele>
        <time>2010-06-12T09:03:02Z</time>
      </trkpt>
      <trkpt lat="45.74763" lon="6.02212">
        <ele>674</ele>
        <time>2010-06-12T09:03:08Z</time>
      </trkpt>
      <trkpt lat="45.74761" lon="6.02213">
        <ele>674</ele>
        <time>2010-06-12T09:03:10Z</time>
      </trkpt>
      <trkpt lat="45.7476" lon="6.02215">
        <ele>674</ele>
        <time>2010-06-12T09:03:12Z</time>
      </trkpt>
      <trkpt lat="45.74758" lon="6.02214">
        <ele>679</ele>
        <time>2010-06-12T09:03:19Z</time>
      </trkpt>
      <trkpt lat="45.7476" lon="6.02201">
        <ele>682</ele>
        <time>2010-06-12T09:03:26Z</time>
      </trkpt>
      <trkpt lat="45.74759" lon="6.02196">
        <ele>682</ele>
        <time>2010-06-12T09:03:28Z</time>
      </trkpt>
      <trkpt lat="45.74759" lon="6.02189">
        <ele>682</ele>
        <time>2010-06-12T09:03:30Z</time>
      </trkpt>
      <trkpt lat="45.7476" lon="6.02182">
        <ele>682</ele>
        <time>2010-06-12T09:03:32Z</time>
      </trkpt>
      <trkpt lat="45.7476" lon="6.02176">
        <ele>682</ele>
        <time>2010-06-12T09:03:34Z</time>
      </trkpt>
      <trkpt lat="45.74761" lon="6.02169">
        <ele>682</ele>
        <time>2010-06-12T09:03:36Z</time>
      </trkpt>
      <trkpt lat="45.74762" lon="6.02162">
        <ele>682</ele>
        <time>2010-06-12T09:03:38Z</time>
      </trkpt>
      <trkpt lat="45.74761" lon="6.02154">
        <ele>680</ele>
        <time>2010-06-12T09:03:40Z</time>
      </trkpt>
      <trkpt lat="45.74759" lon="6.02147">
        <ele>678</ele>
        <time>2010-06-12T09:03:42Z</time>
      </trkpt>
      <trkpt lat="45.74757" lon="6.02138">
        <ele>676</ele>
        <time>2010-06-12T09:03:44Z</time>
      </trkpt>
      <trkpt lat="45.74756" lon="6.0213">
        <ele>674</ele>
        <time>2010-06-12T09:03:46Z</time>
      </trkpt>
      <trkpt lat="45.74754" lon="6.02119">
        <ele>672</ele>
        <time>2010-06-12T09:03:48Z</time>
      </trkpt>
      <trkpt lat="45.74751" lon="6.02114">
        <ele>671</ele>
        <time>2010-06-12T09:03:50Z</time>
      </trkpt>
      <trkpt lat="45.74751" lon="6.02108">
        <ele>671</ele>
        <time>2010-06-12T09:03:52Z</time>
      </trkpt>
      <trkpt lat="45.7475" lon="6.02104">
        <ele>673</ele>
        <time>2010-06-12T09:03:54Z</time>
      </trkpt>
      <trkpt lat="45.74749" lon="6.02107">
        <ele>675</ele>
        <time>2010-06-12T09:03:56Z</time>
      </trkpt>
      <trkpt lat="45.74751" lon="6.02104">
        <ele>676</ele>
        <time>2010-06-12T09:03:58Z</time>
      </trkpt>
      <trkpt lat="45.74752" lon="6.02104">
        <ele>676</ele>
        <time>2010-06-12T09:04:00Z</time>
      </trkpt>
      <trkpt lat="45.74753" lon="6.02106">
        <ele>674</ele>
        <time>2010-06-12T09:04:03Z</time>
      </trkpt>
      <trkpt lat="45.74751" lon="6.021">
        <ele>670</ele>
        <time>2010-06-12T09:04:07Z</time>
      </trkpt>
      <trkpt lat="45.7475" lon="6.02099">
        <ele>673</ele>
        <time>2010-06-12T09:04:11Z</time>
      </trkpt>
      <trkpt lat="45.74749" lon="6.02097">
        <ele>673</ele>
        <time>2010-06-12T09:04:13Z</time>
      </trkpt>
      <trkpt lat="45.74749" lon="6.02096">
        <ele>673</ele>
        <time>2010-06-12T09:04:15Z</time>
      </trkpt>
      <trkpt lat="45.74748" lon="6.02091">
        <ele>673</ele>
        <time>2010-06-12T09:04:17Z</time>
      </trkpt>
      <trkpt lat="45.74748" lon="6.02086">
        <ele>673</ele>
        <time>2010-06-12T09:04:19Z</time>
      </trkpt>
      <trkpt lat="45.74748" lon="6.02084">
        <ele>673</ele>
        <time>2010-06-12T09:04:22Z</time>
      </trkpt>
      <trkpt lat="45.74749" lon="6.0208">
        <ele>673</ele>
        <time>2010-06-12T09:04:24Z</time>
      </trkpt>
      <trkpt lat="45.74747" lon="6.02076">
        <ele>673</ele>
        <time>2010-06-12T09:04:26Z</time>
      </trkpt>
      <trkpt lat="45.74746" lon="6.02074">
        <ele>673</ele>
        <time>2010-06-12T09:04:28Z</time>
      </trkpt>
      <trkpt lat="45.74746" lon="6.02069">
        <ele>673</ele>
        <time>2010-06-12T09:04:30Z</time>
      </trkpt>
      <trkpt lat="45.74746" lon="6.02067">
        <ele>673</ele>
        <time>2010-06-12T09:04:32Z</time>
      </trkpt>
      <trkpt lat="45.74744" lon="6.02063">
        <ele>673</ele>
        <time>2010-06-12T09:04:34Z</time>
      </trkpt>
      <trkpt lat="45.74744" lon="6.02058">
        <ele>673</ele>
        <time>2010-06-12T09:04:36Z</time>
      </trkpt>
      <trkpt lat="45.74745" lon="6.02053">
        <ele>673</ele>
        <time>2010-06-12T09:04:38Z</time>
      </trkpt>
      <trkpt lat="45.74744" lon="6.02048">
        <ele>672</ele>
        <time>2010-06-12T09:04:40Z</time>
      </trkpt>
      <trkpt lat="45.74745" lon="6.02041">
        <ele>670</ele>
        <time>2010-06-12T09:04:42Z</time>
      </trkpt>
      <trkpt lat="45.74746" lon="6.02034">
        <ele>669</ele>
        <time>2010-06-12T09:04:44Z</time>
      </trkpt>
      <trkpt lat="45.74748" lon="6.02028">
        <ele>669</ele>
        <time>2010-06-12T09:04:46Z</time>
      </trkpt>
      <trkpt lat="45.7475" lon="6.02022">
        <ele>669</ele>
        <time>2010-06-12T09:04:48Z</time>
      </trkpt>
      <trkpt lat="45.74749" lon="6.02017">
        <ele>670</ele>
        <time>2010-06-12T09:04:51Z</time>
      </trkpt>
      <trkpt lat="45.74748" lon="6.02015">
        <ele>670</ele>
        <time>2010-06-12T09:04:54Z</time>
      </trkpt>
      <trkpt lat="45.74748" lon="6.02013">
        <ele>672</ele>
        <time>2010-06-12T09:04:57Z</time>
      </trkpt>
      <trkpt lat="45.7475" lon="6.02012">
        <ele>674</ele>
        <time>2010-06-12T09:04:59Z</time>
      </trkpt>
      <trkpt lat="45.74749" lon="6.0201">
        <ele>676</ele>
        <time>2010-06-12T09:05:02Z</time>
      </trkpt>
      <trkpt lat="45.74749" lon="6.02007">
        <ele>677</ele>
        <time>2010-06-12T09:05:05Z</time>
      </trkpt>
      <trkpt lat="45.74748" lon="6.02003">
        <ele>678</ele>
        <time>2010-06-12T09:05:07Z</time>
      </trkpt>
      <trkpt lat="45.74747" lon="6.02">
        <ele>678</ele>
        <time>2010-06-12T09:05:09Z</time>
      </trkpt>
      <trkpt lat="45.74745" lon="6.01991">
        <ele>678</ele>
        <time>2010-06-12T09:05:11Z</time>
      </trkpt>
      <trkpt lat="45.74745" lon="6.01989">
        <ele>678</ele>
        <time>2010-06-12T09:05:13Z</time>
      </trkpt>
      <trkpt lat="45.74743" lon="6.01985">
        <ele>678</ele>
        <time>2010-06-12T09:05:15Z</time>
      </trkpt>
      <trkpt lat="45.74743" lon="6.0198">
        <ele>678</ele>
        <time>2010-06-12T09:05:17Z</time>
      </trkpt>
      <trkpt lat="45.7474" lon="6.01976">
        <ele>678</ele>
        <time>2010-06-12T09:05:19Z</time>
      </trkpt>
      <trkpt lat="45.74739" lon="6.01968">
        <ele>678</ele>
        <time>2010-06-12T09:05:21Z</time>
      </trkpt>
      <trkpt lat="45.74738" lon="6.01964">
        <ele>678</ele>
        <time>2010-06-12T09:05:23Z</time>
      </trkpt>
      <trkpt lat="45.74736" lon="6.0196">
        <ele>680</ele>
        <time>2010-06-12T09:05:25Z</time>
      </trkpt>
      <trkpt lat="45.74733" lon="6.01954">
        <ele>680</ele>
        <time>2010-06-12T09:05:27Z</time>
      </trkpt>
      <trkpt lat="45.74732" lon="6.0195">
        <ele>680</ele>
        <time>2010-06-12T09:05:29Z</time>
      </trkpt>
      <trkpt lat="45.74731" lon="6.01942">
        <ele>680</ele>
        <time>2010-06-12T09:05:31Z</time>
      </trkpt>
      <trkpt lat="45.74728" lon="6.01937">
        <ele>680</ele>
        <time>2010-06-12T09:05:33Z</time>
      </trkpt>
      <trkpt lat="45.74726" lon="6.01933">
        <ele>680</ele>
        <time>2010-06-12T09:05:35Z</time>
      </trkpt>
      <trkpt lat="45.74727" lon="6.01927">
        <ele>680</ele>
        <time>2010-06-12T09:05:37Z</time>
      </trkpt>
      <trkpt lat="45.74728" lon="6.0192">
        <ele>680</ele>
        <time>2010-06-12T09:05:39Z</time>
      </trkpt>
      <trkpt lat="45.74725" lon="6.01915">
        <ele>678</ele>
        <time>2010-06-12T09:05:41Z</time>
      </trkpt>
      <trkpt lat="45.74723" lon="6.01911">
        <ele>677</ele>
        <time>2010-06-12T09:05:43Z</time>
      </trkpt>
      <trkpt lat="45.74721" lon="6.01908">
        <ele>676</ele>
        <time>2010-06-12T09:05:45Z</time>
      </trkpt>
      <trkpt lat="45.74719" lon="6.01905">
        <ele>676</ele>
        <time>2010-06-12T09:05:47Z</time>
      </trkpt>
      <trkpt lat="45.74717" lon="6.01903">
        <ele>676</ele>
        <time>2010-06-12T09:05:49Z</time>
      </trkpt>
      <trkpt lat="45.74714" lon="6.01899">
        <ele>676</ele>
        <time>2010-06-12T09:05:51Z</time>
      </trkpt>
      <trkpt lat="45.7471" lon="6.01895">
        <ele>676</ele>
        <time>2010-06-12T09:05:53Z</time>
      </trkpt>
      <trkpt lat="45.74706" lon="6.01888">
        <ele>676</ele>
        <time>2010-06-12T09:05:55Z</time>
      </trkpt>
      <trkpt lat="45.74698" lon="6.0188">
        <ele>676</ele>
        <time>2010-06-12T09:05:57Z</time>
      </trkpt>
      <trkpt lat="45.7469" lon="6.01867">
        <ele>676</ele>
        <time>2010-06-12T09:05:59Z</time>
      </trkpt>
      <trkpt lat="45.7468" lon="6.01853">
        <ele>676</ele>
        <time>2010-06-12T09:06:01Z</time>
      </trkpt>
      <trkpt lat="45.7467" lon="6.01839">
        <ele>676</ele>
        <time>2010-06-12T09:06:03Z</time>
      </trkpt>
      <trkpt lat="45.74661" lon="6.01825">
        <ele>676</ele>
        <time>2010-06-12T09:06:05Z</time>
      </trkpt>
      <trkpt lat="45.74651" lon="6.0181">
        <ele>675</ele>
        <time>2010-06-12T09:06:07Z</time>
      </trkpt>
      <trkpt lat="45.74642" lon="6.018">
        <ele>674</ele>
        <time>2010-06-12T09:06:09Z</time>
      </trkpt>
      <trkpt lat="45.74636" lon="6.01795">
        <ele>674</ele>
        <time>2010-06-12T09:06:11Z</time>
      </trkpt>
      <trkpt lat="45.74631" lon="6.01792">
        <ele>674</ele>
        <time>2010-06-12T09:06:13Z</time>
      </trkpt>
      <trkpt lat="45.74626" lon="6.01791">
        <ele>674</ele>
        <time>2010-06-12T09:06:15Z</time>
      </trkpt>
      <trkpt lat="45.74622" lon="6.01791">
        <ele>674</ele>
        <time>2010-06-12T09:06:17Z</time>
      </trkpt>
      <trkpt lat="45.74617" lon="6.01792">
        <ele>674</ele>
        <time>2010-06-12T09:06:19Z</time>
      </trkpt>
      <trkpt lat="45.74612" lon="6.01794">
        <ele>674</ele>
        <time>2010-06-12T09:06:21Z</time>
      </trkpt>
      <trkpt lat="45.74605" lon="6.01795">
        <ele>673</ele>
        <time>2010-06-12T09:06:23Z</time>
      </trkpt>
      <trkpt lat="45.74597" lon="6.01797">
        <ele>673</ele>
        <time>2010-06-12T09:06:25Z</time>
      </trkpt>
      <trkpt lat="45.74587" lon="6.01799">
        <ele>671</ele>
        <time>2010-06-12T09:06:27Z</time>
      </trkpt>
      <trkpt lat="45.74575" lon="6.01801">
        <ele>670</ele>
        <time>2010-06-12T09:06:29Z</time>
      </trkpt>
      <trkpt lat="45.74564" lon="6.01802">
        <ele>669</ele>
        <time>2010-06-12T09:06:31Z</time>
      </trkpt>
      <trkpt lat="45.74553" lon="6.01803">
        <ele>668</ele>
        <time>2010-06-12T09:06:33Z</time>
      </trkpt>
      <trkpt lat="45.74542" lon="6.01805">
        <ele>667</ele>
        <time>2010-06-12T09:06:35Z</time>
      </trkpt>
      <trkpt lat="45.74532" lon="6.01805">
        <ele>667</ele>
        <time>2010-06-12T09:06:37Z</time>
      </trkpt>
      <trkpt lat="45.74522" lon="6.01805">
        <ele>666</ele>
        <time>2010-06-12T09:06:39Z</time>
      </trkpt>
      <trkpt lat="45.74514" lon="6.01802">
        <ele>666</ele>
        <time>2010-06-12T09:06:41Z</time>
      </trkpt>
      <trkpt lat="45.74506" lon="6.01799">
        <ele>666</ele>
        <time>2010-06-12T09:06:43Z</time>
      </trkpt>
      <trkpt lat="45.74499" lon="6.01797">
        <ele>666</ele>
        <time>2010-06-12T09:06:45Z</time>
      </trkpt>
      <trkpt lat="45.74492" lon="6.01797">
        <ele>666</ele>
        <time>2010-06-12T09:06:47Z</time>
      </trkpt>
      <trkpt lat="45.74484" lon="6.01797">
        <ele>666</ele>
        <time>2010-06-12T09:06:49Z</time>
      </trkpt>
      <trkpt lat="45.74478" lon="6.01795">
        <ele>666</ele>
        <time>2010-06-12T09:06:51Z</time>
      </trkpt>
      <trkpt lat="45.7447" lon="6.01796">
        <ele>666</ele>
        <time>2010-06-12T09:06:53Z</time>
      </trkpt>
      <trkpt lat="45.7446" lon="6.01796">
        <ele>666</ele>
        <time>2010-06-12T09:06:55Z</time>
      </trkpt>
      <trkpt lat="45.74451" lon="6.01795">
        <ele>666</ele>
        <time>2010-06-12T09:06:57Z</time>
      </trkpt>
      <trkpt lat="45.74442" lon="6.01795">
        <ele>666</ele>
        <time>2010-06-12T09:06:59Z</time>
      </trkpt>
      <trkpt lat="45.74432" lon="6.01796">
        <ele>666</ele>
        <time>2010-06-12T09:07:01Z</time>
      </trkpt>
      <trkpt lat="45.7442" lon="6.01799">
        <ele>666</ele>
        <time>2010-06-12T09:07:03Z</time>
      </trkpt>
      <trkpt lat="45.74408" lon="6.018">
        <ele>666</ele>
        <time>2010-06-12T09:07:05Z</time>
      </trkpt>
      <trkpt lat="45.74398" lon="6.01801">
        <ele>666</ele>
        <time>2010-06-12T09:07:07Z</time>
      </trkpt>
      <trkpt lat="45.74391" lon="6.01802">
        <ele>666</ele>
        <time>2010-06-12T09:07:09Z</time>
      </trkpt>
      <trkpt lat="45.74385" lon="6.01803">
        <ele>666</ele>
        <time>2010-06-12T09:07:11Z</time>
      </trkpt>
      <trkpt lat="45.7438" lon="6.01802">
        <ele>666</ele>
        <time>2010-06-12T09:07:13Z</time>
      </trkpt>
      <trkpt lat="45.74374" lon="6.01795">
        <ele>666</ele>
        <time>2010-06-12T09:07:15Z</time>
      </trkpt>
      <trkpt lat="45.74367" lon="6.01788">
        <ele>666</ele>
        <time>2010-06-12T09:07:17Z</time>
      </trkpt>
      <trkpt lat="45.7436" lon="6.01782">
        <ele>666</ele>
        <time>2010-06-12T09:07:19Z</time>
      </trkpt>
      <trkpt lat="45.74354" lon="6.01778">
        <ele>665</ele>
        <time>2010-06-12T09:07:21Z</time>
      </trkpt>
      <trkpt lat="45.74348" lon="6.01775">
        <ele>664</ele>
        <time>2010-06-12T09:07:23Z</time>
      </trkpt>
      <trkpt lat="45.74342" lon="6.01775">
        <ele>662</ele>
        <time>2010-06-12T09:07:25Z</time>
      </trkpt>
      <trkpt lat="45.74335" lon="6.01772">
        <ele>662</ele>
        <time>2010-06-12T09:07:27Z</time>
      </trkpt>
      <trkpt lat="45.74327" lon="6.01773">
        <ele>662</ele>
        <time>2010-06-12T09:07:29Z</time>
      </trkpt>
      <trkpt lat="45.74322" lon="6.01774">
        <ele>662</ele>
        <time>2010-06-12T09:07:31Z</time>
      </trkpt>
      <trkpt lat="45.74318" lon="6.01776">
        <ele>662</ele>
        <time>2010-06-12T09:07:33Z</time>
      </trkpt>
      <trkpt lat="45.74314" lon="6.01777">
        <ele>661</ele>
        <time>2010-06-12T09:07:35Z</time>
      </trkpt>
      <trkpt lat="45.74309" lon="6.01778">
        <ele>659</ele>
        <time>2010-06-12T09:07:37Z</time>
      </trkpt>
      <trkpt lat="45.74304" lon="6.0178">
        <ele>657</ele>
        <time>2010-06-12T09:07:39Z</time>
      </trkpt>
      <trkpt lat="45.74298" lon="6.01781">
        <ele>655</ele>
        <time>2010-06-12T09:07:41Z</time>
      </trkpt>
      <trkpt lat="45.74291" lon="6.01783">
        <ele>654</ele>
        <time>2010-06-12T09:07:43Z</time>
      </trkpt>
      <trkpt lat="45.74284" lon="6.01785">
        <ele>654</ele>
        <time>2010-06-12T09:07:45Z</time>
      </trkpt>
      <trkpt lat="45.74277" lon="6.01786">
        <ele>654</ele>
        <time>2010-06-12T09:07:47Z</time>
      </trkpt>
      <trkpt lat="45.74271" lon="6.01786">
        <ele>654</ele>
        <time>2010-06-12T09:07:49Z</time>
      </trkpt>
      <trkpt lat="45.74264" lon="6.01787">
        <ele>654</ele>
        <time>2010-06-12T09:07:51Z</time>
      </trkpt>
      <trkpt lat="45.74257" lon="6.01787">
        <ele>656</ele>
        <time>2010-06-12T09:07:53Z</time>
      </trkpt>
      <trkpt lat="45.7425" lon="6.01786">
        <ele>658</ele>
        <time>2010-06-12T09:07:55Z</time>
      </trkpt>
      <trkpt lat="45.74244" lon="6.01784">
        <ele>660</ele>
        <time>2010-06-12T09:07:57Z</time>
      </trkpt>
      <trkpt lat="45.74237" lon="6.0178">
        <ele>661</ele>
        <time>2010-06-12T09:07:59Z</time>
      </trkpt>
      <trkpt lat="45.7423" lon="6.01775">
        <ele>663</ele>
        <time>2010-06-12T09:08:01Z</time>
      </trkpt>
      <trkpt lat="45.74224" lon="6.01771">
        <ele>665</ele>
        <time>2010-06-12T09:08:03Z</time>
      </trkpt>
      <trkpt lat="45.74218" lon="6.01767">
        <ele>667</ele>
        <time>2010-06-12T09:08:05Z</time>
      </trkpt>
      <trkpt lat="45.74212" lon="6.01763">
        <ele>669</ele>
        <time>2010-06-12T09:08:07Z</time>
      </trkpt>
      <trkpt lat="45.74206" lon="6.01759">
        <ele>671</ele>
        <time>2010-06-12T09:08:09Z</time>
      </trkpt>
      <trkpt lat="45.742" lon="6.01756">
        <ele>672</ele>
        <time>2010-06-12T09:08:11Z</time>
      </trkpt>
      <trkpt lat="45.74195" lon="6.01753">
        <ele>672</ele>
        <time>2010-06-12T09:08:13Z</time>
      </trkpt>
      <trkpt lat="45.74188" lon="6.0175">
        <ele>672</ele>
        <time>2010-06-12T09:08:15Z</time>
      </trkpt>
      <trkpt lat="45.74182" lon="6.01747">
        <ele>673</ele>
        <time>2010-06-12T09:08:17Z</time>
      </trkpt>
      <trkpt lat="45.74176" lon="6.01745">
        <ele>673</ele>
        <time>2010-06-12T09:08:19Z</time>
      </trkpt>
      <trkpt lat="45.74169" lon="6.01742">
        <ele>674</ele>
        <time>2010-06-12T09:08:21Z</time>
      </trkpt>
      <trkpt lat="45.74163" lon="6.0174">
        <ele>675</ele>
        <time>2010-06-12T09:08:23Z</time>
      </trkpt>
      <trkpt lat="45.74156" lon="6.01737">
        <ele>676</ele>
        <time>2010-06-12T09:08:25Z</time>
      </trkpt>
      <trkpt lat="45.74149" lon="6.01735">
        <ele>678</ele>
        <time>2010-06-12T09:08:27Z</time>
      </trkpt>
      <trkpt lat="45.74143" lon="6.01734">
        <ele>679</ele>
        <time>2010-06-12T09:08:29Z</time>
      </trkpt>
      <trkpt lat="45.74136" lon="6.01733">
        <ele>680</ele>
        <time>2010-06-12T09:08:31Z</time>
      </trkpt>
      <trkpt lat="45.74128" lon="6.01734">
        <ele>681</ele>
        <time>2010-06-12T09:08:33Z</time>
      </trkpt>
      <trkpt lat="45.7412" lon="6.01733">
        <ele>682</ele>
        <time>2010-06-12T09:08:35Z</time>
      </trkpt>
      <trkpt lat="45.74115" lon="6.01733">
        <ele>682</ele>
        <time>2010-06-12T09:08:37Z</time>
      </trkpt>
      <trkpt lat="45.74111" lon="6.01733">
        <ele>682</ele>
        <time>2010-06-12T09:08:39Z</time>
      </trkpt>
      <trkpt lat="45.74106" lon="6.01731">
        <ele>682</ele>
        <time>2010-06-12T09:08:41Z</time>
      </trkpt>
      <trkpt lat="45.74102" lon="6.01729">
        <ele>682</ele>
        <time>2010-06-12T09:08:43Z</time>
      </trkpt>
      <trkpt lat="45.74097" lon="6.01726">
        <ele>682</ele>
        <time>2010-06-12T09:08:45Z</time>
      </trkpt>
      <trkpt lat="45.74093" lon="6.01723">
        <ele>682</ele>
        <time>2010-06-12T09:08:47Z</time>
      </trkpt>
      <trkpt lat="45.74089" lon="6.01718">
        <ele>682</ele>
        <time>2010-06-12T09:08:49Z</time>
      </trkpt>
      <trkpt lat="45.74085" lon="6.01713">
        <ele>682</ele>
        <time>2010-06-12T09:08:51Z</time>
      </trkpt>
      <trkpt lat="45.74081" lon="6.0171">
        <ele>682</ele>
        <time>2010-06-12T09:08:53Z</time>
      </trkpt>
      <trkpt lat="45.74075" lon="6.01706">
        <ele>682</ele>
        <time>2010-06-12T09:08:55Z</time>
      </trkpt>
      <trkpt lat="45.7407" lon="6.01703">
        <ele>682</ele>
        <time>2010-06-12T09:08:57Z</time>
      </trkpt>
      <trkpt lat="45.74065" lon="6.01704">
        <ele>682</ele>
        <time>2010-06-12T09:08:59Z</time>
      </trkpt>
      <trkpt lat="45.74058" lon="6.01703">
        <ele>682</ele>
        <time>2010-06-12T09:09:01Z</time>
      </trkpt>
      <trkpt lat="45.74052" lon="6.01699">
        <ele>682</ele>
        <time>2010-06-12T09:09:03Z</time>
      </trkpt>
      <trkpt lat="45.74046" lon="6.01695">
        <ele>682</ele>
        <time>2010-06-12T09:09:05Z</time>
      </trkpt>
      <trkpt lat="45.74041" lon="6.01692">
        <ele>682</ele>
        <time>2010-06-12T09:09:07Z</time>
      </trkpt>
      <trkpt lat="45.74035" lon="6.01689">
        <ele>682</ele>
        <time>2010-06-12T09:09:09Z</time>
      </trkpt>
      <trkpt lat="45.74029" lon="6.01688">
        <ele>682</ele>
        <time>2010-06-12T09:09:11Z</time>
      </trkpt>
      <trkpt lat="45.74024" lon="6.01687">
        <ele>682</ele>
        <time>2010-06-12T09:09:13Z</time>
      </trkpt>
      <trkpt lat="45.7402" lon="6.01685">
        <ele>682</ele>
        <time>2010-06-12T09:09:15Z</time>
      </trkpt>
      <trkpt lat="45.74015" lon="6.01685">
        <ele>682</ele>
        <time>2010-06-12T09:09:17Z</time>
      </trkpt>
      <trkpt lat="45.74012" lon="6.01685">
        <ele>682</ele>
        <time>2010-06-12T09:09:19Z</time>
      </trkpt>
      <trkpt lat="45.74011" lon="6.01685">
        <ele>682</ele>
        <time>2010-06-12T09:09:21Z</time>
      </trkpt>
      <trkpt lat="45.74015" lon="6.01684">
        <ele>682</ele>
        <time>2010-06-12T09:09:24Z</time>
      </trkpt>
      <trkpt lat="45.74017" lon="6.01683">
        <ele>683</ele>
        <time>2010-06-12T09:09:27Z</time>
      </trkpt>
      <trkpt lat="45.74015" lon="6.01682">
        <ele>684</ele>
        <time>2010-06-12T09:09:33Z</time>
      </trkpt>
      <trkpt lat="45.74014" lon="6.01682">
        <ele>684</ele>
        <time>2010-06-12T09:09:36Z</time>
      </trkpt>
      <trkpt lat="45.74011" lon="6.01686">
        <ele>686</ele>
        <time>2010-06-12T09:09:40Z</time>
      </trkpt>
      <trkpt lat="45.74009" lon="6.01686">
        <ele>686</ele>
        <time>2010-06-12T09:09:42Z</time>
      </trkpt>
      <trkpt lat="45.74006" lon="6.01689">
        <ele>686</ele>
        <time>2010-06-12T09:09:48Z</time>
      </trkpt>
      <trkpt lat="45.74009" lon="6.01687">
        <ele>686</ele>
        <time>2010-06-12T09:09:55Z</time>
      </trkpt>
      <trkpt lat="45.7401" lon="6.01686">
        <ele>687</ele>
        <time>2010-06-12T09:09:58Z</time>
      </trkpt>
      <trkpt lat="45.7401" lon="6.0168">
        <ele>693</ele>
        <time>2010-06-12T09:10:02Z</time>
      </trkpt>
      <trkpt lat="45.74011" lon="6.0168">
        <ele>692</ele>
        <time>2010-06-12T09:10:05Z</time>
      </trkpt>
      <trkpt lat="45.74012" lon="6.0168">
        <ele>692</ele>
        <time>2010-06-12T09:10:09Z</time>
      </trkpt>
      <trkpt lat="45.74015" lon="6.01671">
        <ele>689</ele>
        <time>2010-06-12T09:10:11Z</time>
      </trkpt>
      <trkpt lat="45.74006" lon="6.01671">
        <ele>687</ele>
        <time>2010-06-12T09:10:13Z</time>
      </trkpt>
      <trkpt lat="45.74003" lon="6.01668">
        <ele>687</ele>
        <time>2010-06-12T09:10:15Z</time>
      </trkpt>
      <trkpt lat="45.73999" lon="6.01665">
        <ele>687</ele>
        <time>2010-06-12T09:10:17Z</time>
      </trkpt>
      <trkpt lat="45.73993" lon="6.01664">
        <ele>687</ele>
        <time>2010-06-12T09:10:19Z</time>
      </trkpt>
      <trkpt lat="45.73989" lon="6.01663">
        <ele>686</ele>
        <time>2010-06-12T09:10:21Z</time>
      </trkpt>
      <trkpt lat="45.73984" lon="6.01661">
        <ele>686</ele>
        <time>2010-06-12T09:10:23Z</time>
      </trkpt>
      <trkpt lat="45.73978" lon="6.01659">
        <ele>686</ele>
        <time>2010-06-12T09:10:25Z</time>
      </trkpt>
      <trkpt lat="45.73972" lon="6.01657">
        <ele>686</ele>
        <time>2010-06-12T09:10:27Z</time>
      </trkpt>
      <trkpt lat="45.73967" lon="6.01656">
        <ele>686</ele>
        <time>2010-06-12T09:10:29Z</time>
      </trkpt>
      <trkpt lat="45.73961" lon="6.01654">
        <ele>686</ele>
        <time>2010-06-12T09:10:31Z</time>
      </trkpt>
      <trkpt lat="45.73954" lon="6.01651">
        <ele>686</ele>
        <time>2010-06-12T09:10:33Z</time>
      </trkpt>
      <trkpt lat="45.73948" lon="6.01648">
        <ele>686</ele>
        <time>2010-06-12T09:10:35Z</time>
      </trkpt>
      <trkpt lat="45.73943" lon="6.01645">
        <ele>686</ele>
        <time>2010-06-12T09:10:37Z</time>
      </trkpt>
      <trkpt lat="45.73938" lon="6.01641">
        <ele>686</ele>
        <time>2010-06-12T09:10:39Z</time>
      </trkpt>
      <trkpt lat="45.73933" lon="6.01637">
        <ele>686</ele>
        <time>2010-06-12T09:10:41Z</time>
      </trkpt>
      <trkpt lat="45.73928" lon="6.01634">
        <ele>686</ele>
        <time>2010-06-12T09:10:43Z</time>
      </trkpt>
      <trkpt lat="45.73923" lon="6.01631">
        <ele>687</ele>
        <time>2010-06-12T09:10:45Z</time>
      </trkpt>
      <trkpt lat="45.73918" lon="6.01628">
        <ele>687</ele>
        <time>2010-06-12T09:10:47Z</time>
      </trkpt>
      <trkpt lat="45.73912" lon="6.01625">
        <ele>687</ele>
        <time>2010-06-12T09:10:49Z</time>
      </trkpt>
      <trkpt lat="45.73906" lon="6.01621">
        <ele>687</ele>
        <time>2010-06-12T09:10:51Z</time>
      </trkpt>
      <trkpt lat="45.739" lon="6.01617">
        <ele>687</ele>
        <time>2010-06-12T09:10:53Z</time>
      </trkpt>
      <trkpt lat="45.73896" lon="6.01611">
        <ele>687</ele>
        <time>2010-06-12T09:10:55Z</time>
      </trkpt>
      <trkpt lat="45.73891" lon="6.01605">
        <ele>687</ele>
        <time>2010-06-12T09:10:57Z</time>
      </trkpt>
      <trkpt lat="45.73888" lon="6.01599">
        <ele>687</ele>
        <time>2010-06-12T09:10:59Z</time>
      </trkpt>
      <trkpt lat="45.73886" lon="6.01588">
        <ele>687</ele>
        <time>2010-06-12T09:11:01Z</time>
      </trkpt>
      <trkpt lat="45.73885" lon="6.01574">
        <ele>687</ele>
        <time>2010-06-12T09:11:03Z</time>
      </trkpt>
      <trkpt lat="45.73883" lon="6.01561">
        <ele>687</ele>
        <time>2010-06-12T09:11:05Z</time>
      </trkpt>
      <trkpt lat="45.73883" lon="6.01545">
        <ele>685</ele>
        <time>2010-06-12T09:11:07Z</time>
      </trkpt>
      <trkpt lat="45.73885" lon="6.0153">
        <ele>684</ele>
        <time>2010-06-12T09:11:09Z</time>
      </trkpt>
      <trkpt lat="45.73886" lon="6.01517">
        <ele>682</ele>
        <time>2010-06-12T09:11:11Z</time>
      </trkpt>
      <trkpt lat="45.73883" lon="6.01507">
        <ele>680</ele>
        <time>2010-06-12T09:11:13Z</time>
      </trkpt>
      <trkpt lat="45.73875" lon="6.01499">
        <ele>680</ele>
        <time>2010-06-12T09:11:15Z</time>
      </trkpt>
      <trkpt lat="45.73865" lon="6.0149">
        <ele>679</ele>
        <time>2010-06-12T09:11:17Z</time>
      </trkpt>
      <trkpt lat="45.73854" lon="6.0148">
        <ele>677</ele>
        <time>2010-06-12T09:11:19Z</time>
      </trkpt>
      <trkpt lat="45.7384" lon="6.01469">
        <ele>675</ele>
        <time>2010-06-12T09:11:21Z</time>
      </trkpt>
      <trkpt lat="45.73825" lon="6.01455">
        <ele>674</ele>
        <time>2010-06-12T09:11:23Z</time>
      </trkpt>
      <trkpt lat="45.73812" lon="6.0144">
        <ele>672</ele>
        <time>2010-06-12T09:11:25Z</time>
      </trkpt>
      <trkpt lat="45.738" lon="6.01425">
        <ele>670</ele>
        <time>2010-06-12T09:11:27Z</time>
      </trkpt>
      <trkpt lat="45.73788" lon="6.01412">
        <ele>668</ele>
        <time>2010-06-12T09:11:29Z</time>
      </trkpt>
      <trkpt lat="45.73776" lon="6.01399">
        <ele>666</ele>
        <time>2010-06-12T09:11:31Z</time>
      </trkpt>
      <trkpt lat="45.73765" lon="6.01384">
        <ele>666</ele>
        <time>2010-06-12T09:11:33Z</time>
      </trkpt>
      <trkpt lat="45.73753" lon="6.01371">
        <ele>666</ele>
        <time>2010-06-12T09:11:35Z</time>
      </trkpt>
      <trkpt lat="45.7374" lon="6.01359">
        <ele>666</ele>
        <time>2010-06-12T09:11:37Z</time>
      </trkpt>
      <trkpt lat="45.73727" lon="6.01347">
        <ele>666</ele>
        <time>2010-06-12T09:11:39Z</time>
      </trkpt>
      <trkpt lat="45.73715" lon="6.01334">
        <ele>666</ele>
        <time>2010-06-12T09:11:41Z</time>
      </trkpt>
      <trkpt lat="45.73705" lon="6.01323">
        <ele>666</ele>
        <time>2010-06-12T09:11:43Z</time>
      </trkpt>
      <trkpt lat="45.73693" lon="6.01312">
        <ele>666</ele>
        <time>2010-06-12T09:11:45Z</time>
      </trkpt>
      <trkpt lat="45.73682" lon="6.013">
        <ele>666</ele>
        <time>2010-06-12T09:11:47Z</time>
      </trkpt>
      <trkpt lat="45.73671" lon="6.01288">
        <ele>666</ele>
        <time>2010-06-12T09:11:49Z</time>
      </trkpt>
      <trkpt lat="45.7366" lon="6.01275">
        <ele>666</ele>
        <time>2010-06-12T09:11:51Z</time>
      </trkpt>
      <trkpt lat="45.7365" lon="6.0126">
        <ele>666</ele>
        <time>2010-06-12T09:11:53Z</time>
      </trkpt>
      <trkpt lat="45.7364" lon="6.01245">
        <ele>666</ele>
        <time>2010-06-12T09:11:55Z</time>
      </trkpt>
      <trkpt lat="45.73631" lon="6.0123">
        <ele>666</ele>
        <time>2010-06-12T09:11:57Z</time>
      </trkpt>
      <trkpt lat="45.73621" lon="6.01215">
        <ele>666</ele>
        <time>2010-06-12T09:11:59Z</time>
      </trkpt>
      <trkpt lat="45.73611" lon="6.01201">
        <ele>666</ele>
        <time>2010-06-12T09:12:01Z</time>
      </trkpt>
      <trkpt lat="45.73602" lon="6.01187">
        <ele>666</ele>
        <time>2010-06-12T09:12:03Z</time>
      </trkpt>
      <trkpt lat="45.73592" lon="6.01174">
        <ele>666</ele>
        <time>2010-06-12T09:12:05Z</time>
      </trkpt>
      <trkpt lat="45.73584" lon="6.01162">
        <ele>666</ele>
        <time>2010-06-12T09:12:07Z</time>
      </trkpt>
      <trkpt lat="45.73575" lon="6.01153">
        <ele>666</ele>
        <time>2010-06-12T09:12:09Z</time>
      </trkpt>
      <trkpt lat="45.73566" lon="6.01147">
        <ele>666</ele>
        <time>2010-06-12T09:12:11Z</time>
      </trkpt>
      <trkpt lat="45.73558" lon="6.01139">
        <ele>666</ele>
        <time>2010-06-12T09:12:13Z</time>
      </trkpt>
      <trkpt lat="45.73551" lon="6.01129">
        <ele>666</ele>
        <time>2010-06-12T09:12:15Z</time>
      </trkpt>
      <trkpt lat="45.73546" lon="6.01116">
        <ele>666</ele>
        <time>2010-06-12T09:12:17Z</time>
      </trkpt>
      <trkpt lat="45.73546" lon="6.01105">
        <ele>666</ele>
        <time>2010-06-12T09:12:19Z</time>
      </trkpt>
      <trkpt lat="45.7355" lon="6.01089">
        <ele>667</ele>
        <time>2010-06-12T09:12:21Z</time>
      </trkpt>
      <trkpt lat="45.73554" lon="6.01072">
        <ele>667</ele>
        <time>2010-06-12T09:12:23Z</time>
      </trkpt>
      <trkpt lat="45.7356" lon="6.01051">
        <ele>667</ele>
        <time>2010-06-12T09:12:25Z</time>
      </trkpt>
      <trkpt lat="45.73568" lon="6.01025">
        <ele>667</ele>
        <time>2010-06-12T09:12:27Z</time>
      </trkpt>
      <trkpt lat="45.73571" lon="6.00997">
        <ele>667</ele>
        <time>2010-06-12T09:12:29Z</time>
      </trkpt>
      <trkpt lat="45.73569" lon="6.00969">
        <ele>666</ele>
        <time>2010-06-12T09:12:31Z</time>
      </trkpt>
      <trkpt lat="45.73565" lon="6.00943">
        <ele>664</ele>
        <time>2010-06-12T09:12:33Z</time>
      </trkpt>
      <trkpt lat="45.73561" lon="6.0092">
        <ele>662</ele>
        <time>2010-06-12T09:12:35Z</time>
      </trkpt>
      <trkpt lat="45.73557" lon="6.00898">
        <ele>660</ele>
        <time>2010-06-12T09:12:37Z</time>
      </trkpt>
      <trkpt lat="45.73555" lon="6.00879">
        <ele>658</ele>
        <time>2010-06-12T09:12:39Z</time>
      </trkpt>
      <trkpt lat="45.73555" lon="6.00859">
        <ele>656</ele>
        <time>2010-06-12T09:12:41Z</time>
      </trkpt>
      <trkpt lat="45.73551" lon="6.00835">
        <ele>653</ele>
        <time>2010-06-12T09:12:43Z</time>
      </trkpt>
      <trkpt lat="45.73543" lon="6.00807">
        <ele>650</ele>
        <time>2010-06-12T09:12:45Z</time>
      </trkpt>
      <trkpt lat="45.73535" lon="6.00777">
        <ele>646</ele>
        <time>2010-06-12T09:12:47Z</time>
      </trkpt>
      <trkpt lat="45.73528" lon="6.00744">
        <ele>642</ele>
        <time>2010-06-12T09:12:49Z</time>
      </trkpt>
      <trkpt lat="45.73518" lon="6.00709">
        <ele>638</ele>
        <time>2010-06-12T09:12:51Z</time>
      </trkpt>
      <trkpt lat="45.73506" lon="6.00672">
        <ele>634</ele>
        <time>2010-06-12T09:12:53Z</time>
      </trkpt>
      <trkpt lat="45.73495" lon="6.00633">
        <ele>630</ele>
        <time>2010-06-12T09:12:55Z</time>
      </trkpt>
      <trkpt lat="45.73487" lon="6.00592">
        <ele>626</ele>
        <time>2010-06-12T09:12:57Z</time>
      </trkpt>
      <trkpt lat="45.73482" lon="6.00554">
        <ele>623</ele>
        <time>2010-06-12T09:12:59Z</time>
      </trkpt>
      <trkpt lat="45.73478" lon="6.00518">
        <ele>620</ele>
        <time>2010-06-12T09:13:01Z</time>
      </trkpt>
      <trkpt lat="45.73472" lon="6.00482">
        <ele>618</ele>
        <time>2010-06-12T09:13:03Z</time>
      </trkpt>
      <trkpt lat="45.73465" lon="6.00445">
        <ele>615</ele>
        <time>2010-06-12T09:13:05Z</time>
      </trkpt>
      <trkpt lat="45.73457" lon="6.00415">
        <ele>611</ele>
        <time>2010-06-12T09:13:07Z</time>
      </trkpt>
      <trkpt lat="45.73451" lon="6.0039">
        <ele>608</ele>
        <time>2010-06-12T09:13:09Z</time>
      </trkpt>
      <trkpt lat="45.73447" lon="6.00371">
        <ele>605</ele>
        <time>2010-06-12T09:13:11Z</time>
      </trkpt>
      <trkpt lat="45.73443" lon="6.00354">
        <ele>603</ele>
        <time>2010-06-12T09:13:13Z</time>
      </trkpt>
      <trkpt lat="45.73436" lon="6.00343">
        <ele>601</ele>
        <time>2010-06-12T09:13:15Z</time>
      </trkpt>
      <trkpt lat="45.73435" lon="6.00335">
        <ele>599</ele>
        <time>2010-06-12T09:13:17Z</time>
      </trkpt>
      <trkpt lat="45.73435" lon="6.00328">
        <ele>597</ele>
        <time>2010-06-12T09:13:19Z</time>
      </trkpt>
      <trkpt lat="45.73438" lon="6.00319">
        <ele>595</ele>
        <time>2010-06-12T09:13:21Z</time>
      </trkpt>
      <trkpt lat="45.73443" lon="6.00311">
        <ele>593</ele>
        <time>2010-06-12T09:13:23Z</time>
      </trkpt>
      <trkpt lat="45.7344" lon="6.00312">
        <ele>592</ele>
        <time>2010-06-12T09:13:29Z</time>
      </trkpt>
      <trkpt lat="45.73438" lon="6.00314">
        <ele>592</ele>
        <time>2010-06-12T09:13:32Z</time>
      </trkpt>
      <trkpt lat="45.73436" lon="6.00315">
        <ele>592</ele>
        <time>2010-06-12T09:13:34Z</time>
      </trkpt>
      <trkpt lat="45.73443" lon="6.00316">
        <ele>602</ele>
        <time>2010-06-12T09:13:39Z</time>
      </trkpt>
      <trkpt lat="45.73441" lon="6.00313">
        <ele>602</ele>
        <time>2010-06-12T09:13:44Z</time>
      </trkpt>
      <trkpt lat="45.73442" lon="6.00313">
        <ele>602</ele>
        <time>2010-06-12T09:13:52Z</time>
      </trkpt>
      <trkpt lat="45.73443" lon="6.00314">
        <ele>602</ele>
        <time>2010-06-12T09:13:55Z</time>
      </trkpt>
      <trkpt lat="45.73447" lon="6.00309">
        <ele>605</ele>
        <time>2010-06-12T09:14:08Z</time>
      </trkpt>
      <trkpt lat="45.73451" lon="6.003">
        <ele>602</ele>
        <time>2010-06-12T09:14:10Z</time>
      </trkpt>
      <trkpt lat="45.73456" lon="6.00296">
        <ele>601</ele>
        <time>2010-06-12T09:14:12Z</time>
      </trkpt>
      <trkpt lat="45.73459" lon="6.00291">
        <ele>601</ele>
        <time>2010-06-12T09:14:14Z</time>
      </trkpt>
      <trkpt lat="45.73463" lon="6.00288">
        <ele>600</ele>
        <time>2010-06-12T09:14:16Z</time>
      </trkpt>
      <trkpt lat="45.73468" lon="6.00285">
        <ele>599</ele>
        <time>2010-06-12T09:14:18Z</time>
      </trkpt>
      <trkpt lat="45.73472" lon="6.00281">
        <ele>598</ele>
        <time>2010-06-12T09:14:20Z</time>
      </trkpt>
      <trkpt lat="45.73475" lon="6.00277">
        <ele>597</ele>
        <time>2010-06-12T09:14:22Z</time>
      </trkpt>
      <trkpt lat="45.73477" lon="6.0027">
        <ele>596</ele>
        <time>2010-06-12T09:14:24Z</time>
      </trkpt>
      <trkpt lat="45.73479" lon="6.00262">
        <ele>595</ele>
        <time>2010-06-12T09:14:26Z</time>
      </trkpt>
      <trkpt lat="45.73479" lon="6.00251">
        <ele>595</ele>
        <time>2010-06-12T09:14:28Z</time>
      </trkpt>
      <trkpt lat="45.73479" lon="6.00239">
        <ele>595</ele>
        <time>2010-06-12T09:14:30Z</time>
      </trkpt>
      <trkpt lat="45.7348" lon="6.00227">
        <ele>594</ele>
        <time>2010-06-12T09:14:32Z</time>
      </trkpt>
      <trkpt lat="45.73483" lon="6.00218">
        <ele>594</ele>
        <time>2010-06-12T09:14:34Z</time>
      </trkpt>
      <trkpt lat="45.73487" lon="6.00211">
        <ele>593</ele>
        <time>2010-06-12T09:14:36Z</time>
      </trkpt>
      <trkpt lat="45.7349" lon="6.00207">
        <ele>593</ele>
        <time>2010-06-12T09:14:38Z</time>
      </trkpt>
      <trkpt lat="45.73491" lon="6.00206">
        <ele>593</ele>
        <time>2010-06-12T09:14:40Z</time>
      </trkpt>
      <trkpt lat="45.73492" lon="6.00205">
        <ele>593</ele>
        <time>2010-06-12T09:14:44Z</time>
      </trkpt>
      <trkpt lat="45.73499" lon="6.00191">
        <ele>591</ele>
        <time>2010-06-12T09:14:48Z</time>
      </trkpt>
      <trkpt lat="45.73499" lon="6.00186">
        <ele>591</ele>
        <time>2010-06-12T09:14:50Z</time>
      </trkpt>
      <trkpt lat="45.73496" lon="6.0018">
        <ele>591</ele>
        <time>2010-06-12T09:14:52Z</time>
      </trkpt>
      <trkpt lat="45.73492" lon="6.00171">
        <ele>591</ele>
        <time>2010-06-12T09:14:54Z</time>
      </trkpt>
      <trkpt lat="45.73488" lon="6.00161">
        <ele>591</ele>
        <time>2010-06-12T09:14:56Z</time>
      </trkpt>
      <trkpt lat="45.73486" lon="6.00153">
        <ele>591</ele>
        <time>2010-06-12T09:14:58Z</time>
      </trkpt>
      <trkpt lat="45.73486" lon="6.00149">
        <ele>590</ele>
        <time>2010-06-12T09:15:00Z</time>
      </trkpt>
      <trkpt lat="45.73482" lon="6.00147">
        <ele>590</ele>
        <time>2010-06-12T09:15:02Z</time>
      </trkpt>
      <trkpt lat="45.73479" lon="6.00146">
        <ele>590</ele>
        <time>2010-06-12T09:15:05Z</time>
      </trkpt>
      <trkpt lat="45.73478" lon="6.00146">
        <ele>589</ele>
        <time>2010-06-12T09:15:08Z</time>
      </trkpt>
      <trkpt lat="45.73476" lon="6.00148">
        <ele>589</ele>
        <time>2010-06-12T09:15:10Z</time>
      </trkpt>
      <trkpt lat="45.73474" lon="6.00149">
        <ele>588</ele>
        <time>2010-06-12T09:15:12Z</time>
      </trkpt>
      <trkpt lat="45.73471" lon="6.0015">
        <ele>588</ele>
        <time>2010-06-12T09:15:14Z</time>
      </trkpt>
      <trkpt lat="45.7347" lon="6.00149">
        <ele>588</ele>
        <time>2010-06-12T09:15:16Z</time>
      </trkpt>
      <trkpt lat="45.73471" lon="6.00153">
        <ele>588</ele>
        <time>2010-06-12T09:15:22Z</time>
      </trkpt>
      <trkpt lat="45.73471" lon="6.00155">
        <ele>587</ele>
        <time>2010-06-12T09:15:23Z</time>
      </trkpt>
    </trkseg>
  </trk>
</gpx>